<?xml version="1.0" encoding="UTF-8" standalone="no" ?>
<gpx xmlns="http://www.topografix.com/GPX/1/1" xmlns:xsi="http://www.w3.org/2001/XMLSchema-instance" xsi:schemaLocation="http://www.topografix.com/GPX/1/1 http://www.topografix.com/GPX/1/1/gpx.xsd" version="1.1" creator="VisuGPX - https://www.visugpx.com">
  <metadata>
    <name>2017-08-22 Bike ride-Val d-Azergues O</name>
    <desc><![CDATA[2017-08-22 Bike ride-Val d-Azergues O 2nd time]]></desc>
  </metadata>
  <wpt lat="45.92454" lon="4.73723">
    <ele>174</ele>
    <name><![CDATA[2017-08-22 10:32 (Start)]]></name>
  </wpt>
  <wpt lat="45.9246" lon="4.73708">
    <ele>174</ele>
    <name><![CDATA[2017-08-22 10:32 (End)]]></name>
    <desc><![CDATA[Created by Google My Tracks on Android  Name: 2017-08-22 10:32 Activity type: biking Description: - Total distance: 31.21 km (19.4 mi) Total time: 1:32:42 Moving time: 1:31:50 Average speed: 20.20 km/h (12.6 mi/h) Average moving speed: 20.39 km/h (12.7 mi/h) Max speed: 31.98 km/h (19.9 mi/h) Average pace: 2:58 min/km (4:47 min/mi) Average moving pace: 2:57 min/km (4:44 min/mi) Fastest pace: 1:53 min/km (3:01 min/mi) Max elevation: 241 m (791 ft) Min elevation: 168 m (550 ft) Elevation gain: 485 m (1591 ft) Max grade: 62 % Min grade: -25 % Recorded: 22/08/2017 10:32]]></desc>
  </wpt>
  <trk>
    <name><![CDATA[2017-08-22 10:32]]></name>
    <trkseg>
      <trkpt lat="45.92454" lon="4.73723">
        <ele>174</ele>
        <time>2017-08-22T08:32:21.372Z</time>
      </trkpt>
      <trkpt lat="45.92455" lon="4.73713">
        <ele>174</ele>
        <time>2017-08-22T08:33:02Z</time>
      </trkpt>
      <trkpt lat="45.92456" lon="4.73707">
        <ele>174</ele>
        <time>2017-08-22T08:33:03Z</time>
      </trkpt>
      <trkpt lat="45.92464" lon="4.73704">
        <ele>174</ele>
        <time>2017-08-22T08:34:06Z</time>
      </trkpt>
      <trkpt lat="45.92465" lon="4.73704">
        <ele>174</ele>
        <time>2017-08-22T08:34:07Z</time>
      </trkpt>
      <trkpt lat="45.92466" lon="4.73694">
        <ele>174</ele>
        <time>2017-08-22T08:34:14Z</time>
      </trkpt>
      <trkpt lat="45.92467" lon="4.7369">
        <ele>174</ele>
        <time>2017-08-22T08:34:15Z</time>
      </trkpt>
      <trkpt lat="45.92468" lon="4.73681">
        <ele>174</ele>
        <time>2017-08-22T08:34:17Z</time>
      </trkpt>
      <trkpt lat="45.92468" lon="4.73675">
        <ele>174</ele>
        <time>2017-08-22T08:34:18Z</time>
      </trkpt>
      <trkpt lat="45.92469" lon="4.73664">
        <ele>174</ele>
        <time>2017-08-22T08:34:20Z</time>
      </trkpt>
      <trkpt lat="45.9247" lon="4.73658">
        <ele>174</ele>
        <time>2017-08-22T08:34:21Z</time>
      </trkpt>
      <trkpt lat="45.92473" lon="4.73646">
        <ele>174</ele>
        <time>2017-08-22T08:34:23Z</time>
      </trkpt>
      <trkpt lat="45.92475" lon="4.73643">
        <ele>174</ele>
        <time>2017-08-22T08:34:24Z</time>
      </trkpt>
      <trkpt lat="45.92483" lon="4.73641">
        <ele>174</ele>
        <time>2017-08-22T08:34:26Z</time>
      </trkpt>
      <trkpt lat="45.92487" lon="4.73642">
        <ele>174</ele>
        <time>2017-08-22T08:34:27Z</time>
      </trkpt>
      <trkpt lat="45.92496" lon="4.73642">
        <ele>174</ele>
        <time>2017-08-22T08:34:29Z</time>
      </trkpt>
      <trkpt lat="45.925" lon="4.73642">
        <ele>174</ele>
        <time>2017-08-22T08:34:30Z</time>
      </trkpt>
      <trkpt lat="45.92505" lon="4.73641">
        <ele>174</ele>
        <time>2017-08-22T08:34:31Z</time>
      </trkpt>
      <trkpt lat="45.9251" lon="4.73641">
        <ele>174</ele>
        <time>2017-08-22T08:34:32Z</time>
      </trkpt>
      <trkpt lat="45.92515" lon="4.73641">
        <ele>174</ele>
        <time>2017-08-22T08:34:33Z</time>
      </trkpt>
      <trkpt lat="45.9252" lon="4.73641">
        <ele>173</ele>
        <time>2017-08-22T08:34:34Z</time>
      </trkpt>
      <trkpt lat="45.92525" lon="4.73641">
        <ele>173</ele>
        <time>2017-08-22T08:34:35Z</time>
      </trkpt>
      <trkpt lat="45.92531" lon="4.73641">
        <ele>173</ele>
        <time>2017-08-22T08:34:36Z</time>
      </trkpt>
      <trkpt lat="45.92536" lon="4.7364">
        <ele>173</ele>
        <time>2017-08-22T08:34:37Z</time>
      </trkpt>
      <trkpt lat="45.92542" lon="4.73638">
        <ele>173</ele>
        <time>2017-08-22T08:34:38Z</time>
      </trkpt>
      <trkpt lat="45.92548" lon="4.73637">
        <ele>173</ele>
        <time>2017-08-22T08:34:39Z</time>
      </trkpt>
      <trkpt lat="45.92554" lon="4.73636">
        <ele>173</ele>
        <time>2017-08-22T08:34:40Z</time>
      </trkpt>
      <trkpt lat="45.9256" lon="4.73634">
        <ele>173</ele>
        <time>2017-08-22T08:34:41Z</time>
      </trkpt>
      <trkpt lat="45.92566" lon="4.73632">
        <ele>173</ele>
        <time>2017-08-22T08:34:42Z</time>
      </trkpt>
      <trkpt lat="45.92571" lon="4.7363">
        <ele>173</ele>
        <time>2017-08-22T08:34:43Z</time>
      </trkpt>
      <trkpt lat="45.92577" lon="4.73629">
        <ele>173</ele>
        <time>2017-08-22T08:34:44Z</time>
      </trkpt>
      <trkpt lat="45.92582" lon="4.73627">
        <ele>173</ele>
        <time>2017-08-22T08:34:45Z</time>
      </trkpt>
      <trkpt lat="45.92588" lon="4.73626">
        <ele>172</ele>
        <time>2017-08-22T08:34:46Z</time>
      </trkpt>
      <trkpt lat="45.92593" lon="4.73626">
        <ele>172</ele>
        <time>2017-08-22T08:34:47Z</time>
      </trkpt>
      <trkpt lat="45.92598" lon="4.73626">
        <ele>173</ele>
        <time>2017-08-22T08:34:48Z</time>
      </trkpt>
      <trkpt lat="45.92603" lon="4.73626">
        <ele>173</ele>
        <time>2017-08-22T08:34:49Z</time>
      </trkpt>
      <trkpt lat="45.92608" lon="4.73625">
        <ele>173</ele>
        <time>2017-08-22T08:34:50Z</time>
      </trkpt>
      <trkpt lat="45.92614" lon="4.7363">
        <ele>173</ele>
        <time>2017-08-22T08:34:51Z</time>
      </trkpt>
      <trkpt lat="45.92618" lon="4.73634">
        <ele>173</ele>
        <time>2017-08-22T08:34:52Z</time>
      </trkpt>
      <trkpt lat="45.92621" lon="4.7364">
        <ele>173</ele>
        <time>2017-08-22T08:34:53Z</time>
      </trkpt>
      <trkpt lat="45.92624" lon="4.73646">
        <ele>173</ele>
        <time>2017-08-22T08:34:54Z</time>
      </trkpt>
      <trkpt lat="45.92627" lon="4.73652">
        <ele>173</ele>
        <time>2017-08-22T08:34:55Z</time>
      </trkpt>
      <trkpt lat="45.9263" lon="4.73658">
        <ele>173</ele>
        <time>2017-08-22T08:34:56Z</time>
      </trkpt>
      <trkpt lat="45.92632" lon="4.73664">
        <ele>173</ele>
        <time>2017-08-22T08:34:57Z</time>
      </trkpt>
      <trkpt lat="45.92636" lon="4.73669">
        <ele>173</ele>
        <time>2017-08-22T08:34:58Z</time>
      </trkpt>
      <trkpt lat="45.92639" lon="4.73675">
        <ele>173</ele>
        <time>2017-08-22T08:34:59Z</time>
      </trkpt>
      <trkpt lat="45.92643" lon="4.73681">
        <ele>173</ele>
        <time>2017-08-22T08:35:00Z</time>
      </trkpt>
      <trkpt lat="45.92647" lon="4.73687">
        <ele>173</ele>
        <time>2017-08-22T08:35:01Z</time>
      </trkpt>
      <trkpt lat="45.92652" lon="4.73692">
        <ele>173</ele>
        <time>2017-08-22T08:35:02Z</time>
      </trkpt>
      <trkpt lat="45.92657" lon="4.73696">
        <ele>173</ele>
        <time>2017-08-22T08:35:03Z</time>
      </trkpt>
      <trkpt lat="45.92662" lon="4.737">
        <ele>173</ele>
        <time>2017-08-22T08:35:04Z</time>
      </trkpt>
      <trkpt lat="45.92667" lon="4.73703">
        <ele>174</ele>
        <time>2017-08-22T08:35:05Z</time>
      </trkpt>
      <trkpt lat="45.92673" lon="4.73705">
        <ele>174</ele>
        <time>2017-08-22T08:35:06Z</time>
      </trkpt>
      <trkpt lat="45.92679" lon="4.73707">
        <ele>173</ele>
        <time>2017-08-22T08:35:07Z</time>
      </trkpt>
      <trkpt lat="45.92685" lon="4.73709">
        <ele>173</ele>
        <time>2017-08-22T08:35:08Z</time>
      </trkpt>
      <trkpt lat="45.92691" lon="4.7371">
        <ele>173</ele>
        <time>2017-08-22T08:35:09Z</time>
      </trkpt>
      <trkpt lat="45.92697" lon="4.73711">
        <ele>173</ele>
        <time>2017-08-22T08:35:10Z</time>
      </trkpt>
      <trkpt lat="45.92704" lon="4.73714">
        <ele>173</ele>
        <time>2017-08-22T08:35:11Z</time>
      </trkpt>
      <trkpt lat="45.92711" lon="4.73716">
        <ele>173</ele>
        <time>2017-08-22T08:35:12Z</time>
      </trkpt>
      <trkpt lat="45.92717" lon="4.73718">
        <ele>173</ele>
        <time>2017-08-22T08:35:13Z</time>
      </trkpt>
      <trkpt lat="45.92723" lon="4.7372">
        <ele>173</ele>
        <time>2017-08-22T08:35:14Z</time>
      </trkpt>
      <trkpt lat="45.92729" lon="4.73721">
        <ele>173</ele>
        <time>2017-08-22T08:35:15Z</time>
      </trkpt>
      <trkpt lat="45.92735" lon="4.73722">
        <ele>173</ele>
        <time>2017-08-22T08:35:16Z</time>
      </trkpt>
      <trkpt lat="45.92741" lon="4.73723">
        <ele>173</ele>
        <time>2017-08-22T08:35:17Z</time>
      </trkpt>
      <trkpt lat="45.92746" lon="4.73725">
        <ele>173</ele>
        <time>2017-08-22T08:35:18Z</time>
      </trkpt>
      <trkpt lat="45.92751" lon="4.73726">
        <ele>172</ele>
        <time>2017-08-22T08:35:19Z</time>
      </trkpt>
      <trkpt lat="45.92756" lon="4.73727">
        <ele>172</ele>
        <time>2017-08-22T08:35:20Z</time>
      </trkpt>
      <trkpt lat="45.92764" lon="4.73729">
        <ele>172</ele>
        <time>2017-08-22T08:35:22Z</time>
      </trkpt>
      <trkpt lat="45.92768" lon="4.73731">
        <ele>172</ele>
        <time>2017-08-22T08:35:23Z</time>
      </trkpt>
      <trkpt lat="45.92775" lon="4.73734">
        <ele>172</ele>
        <time>2017-08-22T08:35:25Z</time>
      </trkpt>
      <trkpt lat="45.92779" lon="4.73737">
        <ele>172</ele>
        <time>2017-08-22T08:35:26Z</time>
      </trkpt>
      <trkpt lat="45.92782" lon="4.73747">
        <ele>172</ele>
        <time>2017-08-22T08:35:28Z</time>
      </trkpt>
      <trkpt lat="45.92785" lon="4.73751">
        <ele>173</ele>
        <time>2017-08-22T08:35:29Z</time>
      </trkpt>
      <trkpt lat="45.92789" lon="4.73753">
        <ele>173</ele>
        <time>2017-08-22T08:35:30Z</time>
      </trkpt>
      <trkpt lat="45.92794" lon="4.73756">
        <ele>173</ele>
        <time>2017-08-22T08:35:31Z</time>
      </trkpt>
      <trkpt lat="45.92799" lon="4.7376">
        <ele>173</ele>
        <time>2017-08-22T08:35:32Z</time>
      </trkpt>
      <trkpt lat="45.92804" lon="4.73763">
        <ele>173</ele>
        <time>2017-08-22T08:35:33Z</time>
      </trkpt>
      <trkpt lat="45.92809" lon="4.73767">
        <ele>173</ele>
        <time>2017-08-22T08:35:34Z</time>
      </trkpt>
      <trkpt lat="45.92814" lon="4.73771">
        <ele>173</ele>
        <time>2017-08-22T08:35:35Z</time>
      </trkpt>
      <trkpt lat="45.9282" lon="4.73775">
        <ele>173</ele>
        <time>2017-08-22T08:35:36Z</time>
      </trkpt>
      <trkpt lat="45.92825" lon="4.73779">
        <ele>173</ele>
        <time>2017-08-22T08:35:37Z</time>
      </trkpt>
      <trkpt lat="45.9283" lon="4.73783">
        <ele>173</ele>
        <time>2017-08-22T08:35:38Z</time>
      </trkpt>
      <trkpt lat="45.92835" lon="4.73787">
        <ele>173</ele>
        <time>2017-08-22T08:35:39Z</time>
      </trkpt>
      <trkpt lat="45.92841" lon="4.73791">
        <ele>173</ele>
        <time>2017-08-22T08:35:40Z</time>
      </trkpt>
      <trkpt lat="45.92845" lon="4.73796">
        <ele>173</ele>
        <time>2017-08-22T08:35:41Z</time>
      </trkpt>
      <trkpt lat="45.92851" lon="4.73802">
        <ele>173</ele>
        <time>2017-08-22T08:35:42Z</time>
      </trkpt>
      <trkpt lat="45.92855" lon="4.73808">
        <ele>173</ele>
        <time>2017-08-22T08:35:43Z</time>
      </trkpt>
      <trkpt lat="45.92858" lon="4.73814">
        <ele>173</ele>
        <time>2017-08-22T08:35:44Z</time>
      </trkpt>
      <trkpt lat="45.9286" lon="4.73821">
        <ele>173</ele>
        <time>2017-08-22T08:35:45Z</time>
      </trkpt>
      <trkpt lat="45.92862" lon="4.73828">
        <ele>173</ele>
        <time>2017-08-22T08:35:46Z</time>
      </trkpt>
      <trkpt lat="45.92864" lon="4.73835">
        <ele>173</ele>
        <time>2017-08-22T08:35:47Z</time>
      </trkpt>
      <trkpt lat="45.92866" lon="4.73841">
        <ele>173</ele>
        <time>2017-08-22T08:35:48Z</time>
      </trkpt>
      <trkpt lat="45.92868" lon="4.73848">
        <ele>173</ele>
        <time>2017-08-22T08:35:49Z</time>
      </trkpt>
      <trkpt lat="45.9287" lon="4.73854">
        <ele>173</ele>
        <time>2017-08-22T08:35:50Z</time>
      </trkpt>
      <trkpt lat="45.92872" lon="4.73861">
        <ele>173</ele>
        <time>2017-08-22T08:35:51Z</time>
      </trkpt>
      <trkpt lat="45.92875" lon="4.73868">
        <ele>173</ele>
        <time>2017-08-22T08:35:52Z</time>
      </trkpt>
      <trkpt lat="45.92877" lon="4.73875">
        <ele>173</ele>
        <time>2017-08-22T08:35:53Z</time>
      </trkpt>
      <trkpt lat="45.92879" lon="4.73883">
        <ele>173</ele>
        <time>2017-08-22T08:35:54Z</time>
      </trkpt>
      <trkpt lat="45.9288" lon="4.7389">
        <ele>173</ele>
        <time>2017-08-22T08:35:55Z</time>
      </trkpt>
      <trkpt lat="45.92881" lon="4.73899">
        <ele>173</ele>
        <time>2017-08-22T08:35:56Z</time>
      </trkpt>
      <trkpt lat="45.92882" lon="4.73907">
        <ele>173</ele>
        <time>2017-08-22T08:35:57Z</time>
      </trkpt>
      <trkpt lat="45.92883" lon="4.73916">
        <ele>173</ele>
        <time>2017-08-22T08:35:58Z</time>
      </trkpt>
      <trkpt lat="45.92883" lon="4.73925">
        <ele>172</ele>
        <time>2017-08-22T08:35:59Z</time>
      </trkpt>
      <trkpt lat="45.92884" lon="4.73933">
        <ele>172</ele>
        <time>2017-08-22T08:36:00Z</time>
      </trkpt>
      <trkpt lat="45.92884" lon="4.73942">
        <ele>172</ele>
        <time>2017-08-22T08:36:01Z</time>
      </trkpt>
      <trkpt lat="45.92884" lon="4.7395">
        <ele>172</ele>
        <time>2017-08-22T08:36:02Z</time>
      </trkpt>
      <trkpt lat="45.92884" lon="4.73959">
        <ele>172</ele>
        <time>2017-08-22T08:36:03Z</time>
      </trkpt>
      <trkpt lat="45.92883" lon="4.73968">
        <ele>172</ele>
        <time>2017-08-22T08:36:04Z</time>
      </trkpt>
      <trkpt lat="45.92882" lon="4.73976">
        <ele>172</ele>
        <time>2017-08-22T08:36:05Z</time>
      </trkpt>
      <trkpt lat="45.92881" lon="4.73984">
        <ele>172</ele>
        <time>2017-08-22T08:36:06Z</time>
      </trkpt>
      <trkpt lat="45.92878" lon="4.73991">
        <ele>172</ele>
        <time>2017-08-22T08:36:07Z</time>
      </trkpt>
      <trkpt lat="45.92876" lon="4.73998">
        <ele>172</ele>
        <time>2017-08-22T08:36:08Z</time>
      </trkpt>
      <trkpt lat="45.92874" lon="4.74004">
        <ele>172</ele>
        <time>2017-08-22T08:36:09Z</time>
      </trkpt>
      <trkpt lat="45.92874" lon="4.74011">
        <ele>172</ele>
        <time>2017-08-22T08:36:10Z</time>
      </trkpt>
      <trkpt lat="45.92873" lon="4.74018">
        <ele>172</ele>
        <time>2017-08-22T08:36:11Z</time>
      </trkpt>
      <trkpt lat="45.92872" lon="4.74025">
        <ele>172</ele>
        <time>2017-08-22T08:36:12Z</time>
      </trkpt>
      <trkpt lat="45.9287" lon="4.74032">
        <ele>172</ele>
        <time>2017-08-22T08:36:13Z</time>
      </trkpt>
      <trkpt lat="45.92868" lon="4.74039">
        <ele>172</ele>
        <time>2017-08-22T08:36:14Z</time>
      </trkpt>
      <trkpt lat="45.92863" lon="4.74046">
        <ele>172</ele>
        <time>2017-08-22T08:36:15Z</time>
      </trkpt>
      <trkpt lat="45.92859" lon="4.74052">
        <ele>172</ele>
        <time>2017-08-22T08:36:16Z</time>
      </trkpt>
      <trkpt lat="45.92854" lon="4.74059">
        <ele>172</ele>
        <time>2017-08-22T08:36:17Z</time>
      </trkpt>
      <trkpt lat="45.92849" lon="4.74065">
        <ele>172</ele>
        <time>2017-08-22T08:36:18Z</time>
      </trkpt>
      <trkpt lat="45.92845" lon="4.74071">
        <ele>172</ele>
        <time>2017-08-22T08:36:19Z</time>
      </trkpt>
      <trkpt lat="45.9284" lon="4.74077">
        <ele>171</ele>
        <time>2017-08-22T08:36:20Z</time>
      </trkpt>
      <trkpt lat="45.92835" lon="4.74082">
        <ele>171</ele>
        <time>2017-08-22T08:36:21Z</time>
      </trkpt>
      <trkpt lat="45.9283" lon="4.74088">
        <ele>171</ele>
        <time>2017-08-22T08:36:22Z</time>
      </trkpt>
      <trkpt lat="45.92826" lon="4.74094">
        <ele>171</ele>
        <time>2017-08-22T08:36:23Z</time>
      </trkpt>
      <trkpt lat="45.92821" lon="4.74099">
        <ele>171</ele>
        <time>2017-08-22T08:36:24Z</time>
      </trkpt>
      <trkpt lat="45.92816" lon="4.74105">
        <ele>172</ele>
        <time>2017-08-22T08:36:25Z</time>
      </trkpt>
      <trkpt lat="45.92811" lon="4.7411">
        <ele>172</ele>
        <time>2017-08-22T08:36:26Z</time>
      </trkpt>
      <trkpt lat="45.92806" lon="4.74114">
        <ele>172</ele>
        <time>2017-08-22T08:36:27Z</time>
      </trkpt>
      <trkpt lat="45.92802" lon="4.74119">
        <ele>172</ele>
        <time>2017-08-22T08:36:28Z</time>
      </trkpt>
      <trkpt lat="45.92797" lon="4.74124">
        <ele>172</ele>
        <time>2017-08-22T08:36:29Z</time>
      </trkpt>
      <trkpt lat="45.92793" lon="4.74129">
        <ele>172</ele>
        <time>2017-08-22T08:36:30Z</time>
      </trkpt>
      <trkpt lat="45.92788" lon="4.74134">
        <ele>172</ele>
        <time>2017-08-22T08:36:31Z</time>
      </trkpt>
      <trkpt lat="45.92783" lon="4.74139">
        <ele>172</ele>
        <time>2017-08-22T08:36:32Z</time>
      </trkpt>
      <trkpt lat="45.92778" lon="4.74145">
        <ele>172</ele>
        <time>2017-08-22T08:36:33Z</time>
      </trkpt>
      <trkpt lat="45.92773" lon="4.7415">
        <ele>172</ele>
        <time>2017-08-22T08:36:34Z</time>
      </trkpt>
      <trkpt lat="45.92768" lon="4.74156">
        <ele>172</ele>
        <time>2017-08-22T08:36:35Z</time>
      </trkpt>
      <trkpt lat="45.92763" lon="4.74161">
        <ele>172</ele>
        <time>2017-08-22T08:36:36Z</time>
      </trkpt>
      <trkpt lat="45.92758" lon="4.74167">
        <ele>172</ele>
        <time>2017-08-22T08:36:37Z</time>
      </trkpt>
      <trkpt lat="45.92752" lon="4.74173">
        <ele>172</ele>
        <time>2017-08-22T08:36:38Z</time>
      </trkpt>
      <trkpt lat="45.92747" lon="4.74179">
        <ele>172</ele>
        <time>2017-08-22T08:36:39Z</time>
      </trkpt>
      <trkpt lat="45.92742" lon="4.74185">
        <ele>172</ele>
        <time>2017-08-22T08:36:40Z</time>
      </trkpt>
      <trkpt lat="45.92738" lon="4.74191">
        <ele>171</ele>
        <time>2017-08-22T08:36:41Z</time>
      </trkpt>
      <trkpt lat="45.92733" lon="4.74198">
        <ele>171</ele>
        <time>2017-08-22T08:36:42Z</time>
      </trkpt>
      <trkpt lat="45.92728" lon="4.74204">
        <ele>171</ele>
        <time>2017-08-22T08:36:43Z</time>
      </trkpt>
      <trkpt lat="45.92723" lon="4.74212">
        <ele>171</ele>
        <time>2017-08-22T08:36:44Z</time>
      </trkpt>
      <trkpt lat="45.92718" lon="4.74219">
        <ele>171</ele>
        <time>2017-08-22T08:36:45Z</time>
      </trkpt>
      <trkpt lat="45.92713" lon="4.74226">
        <ele>171</ele>
        <time>2017-08-22T08:36:46Z</time>
      </trkpt>
      <trkpt lat="45.92709" lon="4.74233">
        <ele>171</ele>
        <time>2017-08-22T08:36:47Z</time>
      </trkpt>
      <trkpt lat="45.92704" lon="4.7424">
        <ele>171</ele>
        <time>2017-08-22T08:36:48Z</time>
      </trkpt>
      <trkpt lat="45.927" lon="4.74248">
        <ele>171</ele>
        <time>2017-08-22T08:36:49Z</time>
      </trkpt>
      <trkpt lat="45.92695" lon="4.74255">
        <ele>171</ele>
        <time>2017-08-22T08:36:50Z</time>
      </trkpt>
      <trkpt lat="45.92691" lon="4.74263">
        <ele>171</ele>
        <time>2017-08-22T08:36:51Z</time>
      </trkpt>
      <trkpt lat="45.92686" lon="4.74271">
        <ele>171</ele>
        <time>2017-08-22T08:36:52Z</time>
      </trkpt>
      <trkpt lat="45.92682" lon="4.74278">
        <ele>171</ele>
        <time>2017-08-22T08:36:53Z</time>
      </trkpt>
      <trkpt lat="45.92678" lon="4.74286">
        <ele>171</ele>
        <time>2017-08-22T08:36:54Z</time>
      </trkpt>
      <trkpt lat="45.92674" lon="4.74293">
        <ele>171</ele>
        <time>2017-08-22T08:36:55Z</time>
      </trkpt>
      <trkpt lat="45.9267" lon="4.743">
        <ele>171</ele>
        <time>2017-08-22T08:36:56Z</time>
      </trkpt>
      <trkpt lat="45.92666" lon="4.74307">
        <ele>171</ele>
        <time>2017-08-22T08:36:57Z</time>
      </trkpt>
      <trkpt lat="45.92662" lon="4.74313">
        <ele>171</ele>
        <time>2017-08-22T08:36:58Z</time>
      </trkpt>
      <trkpt lat="45.92658" lon="4.7432">
        <ele>171</ele>
        <time>2017-08-22T08:36:59Z</time>
      </trkpt>
      <trkpt lat="45.92654" lon="4.74326">
        <ele>171</ele>
        <time>2017-08-22T08:37:00Z</time>
      </trkpt>
      <trkpt lat="45.9265" lon="4.74333">
        <ele>171</ele>
        <time>2017-08-22T08:37:01Z</time>
      </trkpt>
      <trkpt lat="45.92646" lon="4.7434">
        <ele>171</ele>
        <time>2017-08-22T08:37:02Z</time>
      </trkpt>
      <trkpt lat="45.92642" lon="4.74347">
        <ele>171</ele>
        <time>2017-08-22T08:37:03Z</time>
      </trkpt>
      <trkpt lat="45.92639" lon="4.74354">
        <ele>171</ele>
        <time>2017-08-22T08:37:04Z</time>
      </trkpt>
      <trkpt lat="45.92635" lon="4.74361">
        <ele>171</ele>
        <time>2017-08-22T08:37:05Z</time>
      </trkpt>
      <trkpt lat="45.9263" lon="4.74368">
        <ele>171</ele>
        <time>2017-08-22T08:37:06Z</time>
      </trkpt>
      <trkpt lat="45.92626" lon="4.74376">
        <ele>170</ele>
        <time>2017-08-22T08:37:07Z</time>
      </trkpt>
      <trkpt lat="45.92622" lon="4.74383">
        <ele>170</ele>
        <time>2017-08-22T08:37:08Z</time>
      </trkpt>
      <trkpt lat="45.92617" lon="4.74391">
        <ele>170</ele>
        <time>2017-08-22T08:37:09Z</time>
      </trkpt>
      <trkpt lat="45.92612" lon="4.74399">
        <ele>170</ele>
        <time>2017-08-22T08:37:10Z</time>
      </trkpt>
      <trkpt lat="45.92608" lon="4.74407">
        <ele>170</ele>
        <time>2017-08-22T08:37:11Z</time>
      </trkpt>
      <trkpt lat="45.92604" lon="4.74415">
        <ele>170</ele>
        <time>2017-08-22T08:37:12Z</time>
      </trkpt>
      <trkpt lat="45.926" lon="4.74423">
        <ele>170</ele>
        <time>2017-08-22T08:37:13Z</time>
      </trkpt>
      <trkpt lat="45.92596" lon="4.7443">
        <ele>170</ele>
        <time>2017-08-22T08:37:14Z</time>
      </trkpt>
      <trkpt lat="45.92592" lon="4.74437">
        <ele>170</ele>
        <time>2017-08-22T08:37:15Z</time>
      </trkpt>
      <trkpt lat="45.92589" lon="4.74444">
        <ele>170</ele>
        <time>2017-08-22T08:37:16Z</time>
      </trkpt>
      <trkpt lat="45.92585" lon="4.74451">
        <ele>170</ele>
        <time>2017-08-22T08:37:17Z</time>
      </trkpt>
      <trkpt lat="45.92582" lon="4.74458">
        <ele>170</ele>
        <time>2017-08-22T08:37:18Z</time>
      </trkpt>
      <trkpt lat="45.92579" lon="4.74465">
        <ele>170</ele>
        <time>2017-08-22T08:37:19Z</time>
      </trkpt>
      <trkpt lat="45.92575" lon="4.74472">
        <ele>170</ele>
        <time>2017-08-22T08:37:20Z</time>
      </trkpt>
      <trkpt lat="45.92571" lon="4.74479">
        <ele>170</ele>
        <time>2017-08-22T08:37:21Z</time>
      </trkpt>
      <trkpt lat="45.92567" lon="4.74487">
        <ele>170</ele>
        <time>2017-08-22T08:37:22Z</time>
      </trkpt>
      <trkpt lat="45.92564" lon="4.74494">
        <ele>170</ele>
        <time>2017-08-22T08:37:23Z</time>
      </trkpt>
      <trkpt lat="45.92559" lon="4.74501">
        <ele>170</ele>
        <time>2017-08-22T08:37:24Z</time>
      </trkpt>
      <trkpt lat="45.92555" lon="4.74509">
        <ele>170</ele>
        <time>2017-08-22T08:37:25Z</time>
      </trkpt>
      <trkpt lat="45.92551" lon="4.74517">
        <ele>170</ele>
        <time>2017-08-22T08:37:26Z</time>
      </trkpt>
      <trkpt lat="45.92547" lon="4.74525">
        <ele>170</ele>
        <time>2017-08-22T08:37:27Z</time>
      </trkpt>
      <trkpt lat="45.92542" lon="4.74533">
        <ele>170</ele>
        <time>2017-08-22T08:37:28Z</time>
      </trkpt>
      <trkpt lat="45.92537" lon="4.74541">
        <ele>171</ele>
        <time>2017-08-22T08:37:29Z</time>
      </trkpt>
      <trkpt lat="45.92533" lon="4.74549">
        <ele>171</ele>
        <time>2017-08-22T08:37:30Z</time>
      </trkpt>
      <trkpt lat="45.92528" lon="4.74556">
        <ele>171</ele>
        <time>2017-08-22T08:37:31Z</time>
      </trkpt>
      <trkpt lat="45.92522" lon="4.74563">
        <ele>171</ele>
        <time>2017-08-22T08:37:32Z</time>
      </trkpt>
      <trkpt lat="45.92517" lon="4.7457">
        <ele>171</ele>
        <time>2017-08-22T08:37:33Z</time>
      </trkpt>
      <trkpt lat="45.92511" lon="4.74576">
        <ele>171</ele>
        <time>2017-08-22T08:37:34Z</time>
      </trkpt>
      <trkpt lat="45.92506" lon="4.74583">
        <ele>171</ele>
        <time>2017-08-22T08:37:35Z</time>
      </trkpt>
      <trkpt lat="45.925" lon="4.74589">
        <ele>171</ele>
        <time>2017-08-22T08:37:36Z</time>
      </trkpt>
      <trkpt lat="45.92495" lon="4.74596">
        <ele>171</ele>
        <time>2017-08-22T08:37:37Z</time>
      </trkpt>
      <trkpt lat="45.92489" lon="4.74602">
        <ele>171</ele>
        <time>2017-08-22T08:37:38Z</time>
      </trkpt>
      <trkpt lat="45.92484" lon="4.74609">
        <ele>171</ele>
        <time>2017-08-22T08:37:39Z</time>
      </trkpt>
      <trkpt lat="45.92479" lon="4.74616">
        <ele>171</ele>
        <time>2017-08-22T08:37:40Z</time>
      </trkpt>
      <trkpt lat="45.92474" lon="4.74622">
        <ele>171</ele>
        <time>2017-08-22T08:37:41Z</time>
      </trkpt>
      <trkpt lat="45.92469" lon="4.74629">
        <ele>171</ele>
        <time>2017-08-22T08:37:42Z</time>
      </trkpt>
      <trkpt lat="45.92465" lon="4.74636">
        <ele>171</ele>
        <time>2017-08-22T08:37:43Z</time>
      </trkpt>
      <trkpt lat="45.92461" lon="4.74643">
        <ele>171</ele>
        <time>2017-08-22T08:37:44Z</time>
      </trkpt>
      <trkpt lat="45.92456" lon="4.7465">
        <ele>171</ele>
        <time>2017-08-22T08:37:45Z</time>
      </trkpt>
      <trkpt lat="45.92452" lon="4.74658">
        <ele>171</ele>
        <time>2017-08-22T08:37:46Z</time>
      </trkpt>
      <trkpt lat="45.92448" lon="4.74667">
        <ele>171</ele>
        <time>2017-08-22T08:37:47Z</time>
      </trkpt>
      <trkpt lat="45.92446" lon="4.74675">
        <ele>171</ele>
        <time>2017-08-22T08:37:48Z</time>
      </trkpt>
      <trkpt lat="45.92442" lon="4.74682">
        <ele>171</ele>
        <time>2017-08-22T08:37:49Z</time>
      </trkpt>
      <trkpt lat="45.92439" lon="4.74689">
        <ele>171</ele>
        <time>2017-08-22T08:37:50Z</time>
      </trkpt>
      <trkpt lat="45.92436" lon="4.74697">
        <ele>171</ele>
        <time>2017-08-22T08:37:51Z</time>
      </trkpt>
      <trkpt lat="45.92433" lon="4.74703">
        <ele>171</ele>
        <time>2017-08-22T08:37:52Z</time>
      </trkpt>
      <trkpt lat="45.92431" lon="4.74711">
        <ele>171</ele>
        <time>2017-08-22T08:37:53Z</time>
      </trkpt>
      <trkpt lat="45.92428" lon="4.74718">
        <ele>171</ele>
        <time>2017-08-22T08:37:54Z</time>
      </trkpt>
      <trkpt lat="45.92425" lon="4.74727">
        <ele>171</ele>
        <time>2017-08-22T08:37:55Z</time>
      </trkpt>
      <trkpt lat="45.92422" lon="4.74735">
        <ele>171</ele>
        <time>2017-08-22T08:37:56Z</time>
      </trkpt>
      <trkpt lat="45.9242" lon="4.74743">
        <ele>172</ele>
        <time>2017-08-22T08:37:57Z</time>
      </trkpt>
      <trkpt lat="45.92417" lon="4.74752">
        <ele>172</ele>
        <time>2017-08-22T08:37:58Z</time>
      </trkpt>
      <trkpt lat="45.92414" lon="4.74761">
        <ele>172</ele>
        <time>2017-08-22T08:37:59Z</time>
      </trkpt>
      <trkpt lat="45.92412" lon="4.7477">
        <ele>172</ele>
        <time>2017-08-22T08:38:00Z</time>
      </trkpt>
      <trkpt lat="45.9241" lon="4.74779">
        <ele>171</ele>
        <time>2017-08-22T08:38:01Z</time>
      </trkpt>
      <trkpt lat="45.92409" lon="4.74788">
        <ele>171</ele>
        <time>2017-08-22T08:38:02Z</time>
      </trkpt>
      <trkpt lat="45.92407" lon="4.74797">
        <ele>171</ele>
        <time>2017-08-22T08:38:03Z</time>
      </trkpt>
      <trkpt lat="45.92405" lon="4.74806">
        <ele>171</ele>
        <time>2017-08-22T08:38:04Z</time>
      </trkpt>
      <trkpt lat="45.92403" lon="4.74814">
        <ele>171</ele>
        <time>2017-08-22T08:38:05Z</time>
      </trkpt>
      <trkpt lat="45.92401" lon="4.74823">
        <ele>171</ele>
        <time>2017-08-22T08:38:06Z</time>
      </trkpt>
      <trkpt lat="45.92399" lon="4.74831">
        <ele>171</ele>
        <time>2017-08-22T08:38:07Z</time>
      </trkpt>
      <trkpt lat="45.92397" lon="4.74839">
        <ele>171</ele>
        <time>2017-08-22T08:38:08Z</time>
      </trkpt>
      <trkpt lat="45.92394" lon="4.74847">
        <ele>171</ele>
        <time>2017-08-22T08:38:09Z</time>
      </trkpt>
      <trkpt lat="45.92392" lon="4.74854">
        <ele>171</ele>
        <time>2017-08-22T08:38:10Z</time>
      </trkpt>
      <trkpt lat="45.9239" lon="4.74862">
        <ele>171</ele>
        <time>2017-08-22T08:38:11Z</time>
      </trkpt>
      <trkpt lat="45.92387" lon="4.74869">
        <ele>171</ele>
        <time>2017-08-22T08:38:12Z</time>
      </trkpt>
      <trkpt lat="45.92384" lon="4.74877">
        <ele>171</ele>
        <time>2017-08-22T08:38:13Z</time>
      </trkpt>
      <trkpt lat="45.92381" lon="4.74884">
        <ele>171</ele>
        <time>2017-08-22T08:38:14Z</time>
      </trkpt>
      <trkpt lat="45.92379" lon="4.74892">
        <ele>171</ele>
        <time>2017-08-22T08:38:15Z</time>
      </trkpt>
      <trkpt lat="45.92376" lon="4.749">
        <ele>171</ele>
        <time>2017-08-22T08:38:16Z</time>
      </trkpt>
      <trkpt lat="45.92373" lon="4.74908">
        <ele>171</ele>
        <time>2017-08-22T08:38:17Z</time>
      </trkpt>
      <trkpt lat="45.92369" lon="4.74916">
        <ele>171</ele>
        <time>2017-08-22T08:38:18Z</time>
      </trkpt>
      <trkpt lat="45.92366" lon="4.74923">
        <ele>170</ele>
        <time>2017-08-22T08:38:19Z</time>
      </trkpt>
      <trkpt lat="45.92362" lon="4.74932">
        <ele>170</ele>
        <time>2017-08-22T08:38:20Z</time>
      </trkpt>
      <trkpt lat="45.92359" lon="4.7494">
        <ele>170</ele>
        <time>2017-08-22T08:38:21Z</time>
      </trkpt>
      <trkpt lat="45.92356" lon="4.74949">
        <ele>170</ele>
        <time>2017-08-22T08:38:22Z</time>
      </trkpt>
      <trkpt lat="45.92352" lon="4.74957">
        <ele>170</ele>
        <time>2017-08-22T08:38:23Z</time>
      </trkpt>
      <trkpt lat="45.92349" lon="4.74966">
        <ele>170</ele>
        <time>2017-08-22T08:38:24Z</time>
      </trkpt>
      <trkpt lat="45.92347" lon="4.74973">
        <ele>170</ele>
        <time>2017-08-22T08:38:25Z</time>
      </trkpt>
      <trkpt lat="45.92343" lon="4.74981">
        <ele>170</ele>
        <time>2017-08-22T08:38:26Z</time>
      </trkpt>
      <trkpt lat="45.9234" lon="4.74988">
        <ele>170</ele>
        <time>2017-08-22T08:38:27Z</time>
      </trkpt>
      <trkpt lat="45.92338" lon="4.74995">
        <ele>170</ele>
        <time>2017-08-22T08:38:28Z</time>
      </trkpt>
      <trkpt lat="45.92335" lon="4.75003">
        <ele>170</ele>
        <time>2017-08-22T08:38:29Z</time>
      </trkpt>
      <trkpt lat="45.92332" lon="4.75009">
        <ele>171</ele>
        <time>2017-08-22T08:38:30Z</time>
      </trkpt>
      <trkpt lat="45.92329" lon="4.75016">
        <ele>171</ele>
        <time>2017-08-22T08:38:31Z</time>
      </trkpt>
      <trkpt lat="45.92326" lon="4.75022">
        <ele>171</ele>
        <time>2017-08-22T08:38:32Z</time>
      </trkpt>
      <trkpt lat="45.92323" lon="4.75028">
        <ele>171</ele>
        <time>2017-08-22T08:38:33Z</time>
      </trkpt>
      <trkpt lat="45.9232" lon="4.75034">
        <ele>171</ele>
        <time>2017-08-22T08:38:34Z</time>
      </trkpt>
      <trkpt lat="45.92316" lon="4.7504">
        <ele>172</ele>
        <time>2017-08-22T08:38:35Z</time>
      </trkpt>
      <trkpt lat="45.92312" lon="4.75046">
        <ele>172</ele>
        <time>2017-08-22T08:38:36Z</time>
      </trkpt>
      <trkpt lat="45.92307" lon="4.75052">
        <ele>172</ele>
        <time>2017-08-22T08:38:37Z</time>
      </trkpt>
      <trkpt lat="45.92302" lon="4.75059">
        <ele>172</ele>
        <time>2017-08-22T08:38:38Z</time>
      </trkpt>
      <trkpt lat="45.92298" lon="4.75064">
        <ele>172</ele>
        <time>2017-08-22T08:38:39Z</time>
      </trkpt>
      <trkpt lat="45.92293" lon="4.7507">
        <ele>172</ele>
        <time>2017-08-22T08:38:40Z</time>
      </trkpt>
      <trkpt lat="45.92287" lon="4.75076">
        <ele>172</ele>
        <time>2017-08-22T08:38:41Z</time>
      </trkpt>
      <trkpt lat="45.92282" lon="4.75081">
        <ele>172</ele>
        <time>2017-08-22T08:38:42Z</time>
      </trkpt>
      <trkpt lat="45.92276" lon="4.75087">
        <ele>173</ele>
        <time>2017-08-22T08:38:43Z</time>
      </trkpt>
      <trkpt lat="45.92271" lon="4.75093">
        <ele>173</ele>
        <time>2017-08-22T08:38:44Z</time>
      </trkpt>
      <trkpt lat="45.92266" lon="4.75099">
        <ele>173</ele>
        <time>2017-08-22T08:38:45Z</time>
      </trkpt>
      <trkpt lat="45.9226" lon="4.75104">
        <ele>173</ele>
        <time>2017-08-22T08:38:46Z</time>
      </trkpt>
      <trkpt lat="45.92255" lon="4.7511">
        <ele>174</ele>
        <time>2017-08-22T08:38:47Z</time>
      </trkpt>
      <trkpt lat="45.9225" lon="4.75117">
        <ele>174</ele>
        <time>2017-08-22T08:38:48Z</time>
      </trkpt>
      <trkpt lat="45.92244" lon="4.75123">
        <ele>174</ele>
        <time>2017-08-22T08:38:49Z</time>
      </trkpt>
      <trkpt lat="45.92239" lon="4.7513">
        <ele>174</ele>
        <time>2017-08-22T08:38:50Z</time>
      </trkpt>
      <trkpt lat="45.92235" lon="4.75137">
        <ele>174</ele>
        <time>2017-08-22T08:38:51Z</time>
      </trkpt>
      <trkpt lat="45.92231" lon="4.75145">
        <ele>174</ele>
        <time>2017-08-22T08:38:52Z</time>
      </trkpt>
      <trkpt lat="45.92227" lon="4.75154">
        <ele>174</ele>
        <time>2017-08-22T08:38:53Z</time>
      </trkpt>
      <trkpt lat="45.92223" lon="4.75162">
        <ele>174</ele>
        <time>2017-08-22T08:38:54Z</time>
      </trkpt>
      <trkpt lat="45.92221" lon="4.75169">
        <ele>175</ele>
        <time>2017-08-22T08:38:55Z</time>
      </trkpt>
      <trkpt lat="45.92218" lon="4.75176">
        <ele>175</ele>
        <time>2017-08-22T08:38:56Z</time>
      </trkpt>
      <trkpt lat="45.92216" lon="4.75184">
        <ele>175</ele>
        <time>2017-08-22T08:38:57Z</time>
      </trkpt>
      <trkpt lat="45.92214" lon="4.75191">
        <ele>175</ele>
        <time>2017-08-22T08:38:58Z</time>
      </trkpt>
      <trkpt lat="45.92212" lon="4.75199">
        <ele>175</ele>
        <time>2017-08-22T08:38:59Z</time>
      </trkpt>
      <trkpt lat="45.92211" lon="4.75208">
        <ele>175</ele>
        <time>2017-08-22T08:39:00Z</time>
      </trkpt>
      <trkpt lat="45.9221" lon="4.75216">
        <ele>175</ele>
        <time>2017-08-22T08:39:01Z</time>
      </trkpt>
      <trkpt lat="45.92209" lon="4.75224">
        <ele>175</ele>
        <time>2017-08-22T08:39:02Z</time>
      </trkpt>
      <trkpt lat="45.92209" lon="4.75233">
        <ele>175</ele>
        <time>2017-08-22T08:39:03Z</time>
      </trkpt>
      <trkpt lat="45.92209" lon="4.75241">
        <ele>175</ele>
        <time>2017-08-22T08:39:04Z</time>
      </trkpt>
      <trkpt lat="45.92209" lon="4.7525">
        <ele>175</ele>
        <time>2017-08-22T08:39:05Z</time>
      </trkpt>
      <trkpt lat="45.92209" lon="4.75258">
        <ele>175</ele>
        <time>2017-08-22T08:39:06Z</time>
      </trkpt>
      <trkpt lat="45.92208" lon="4.75267">
        <ele>176</ele>
        <time>2017-08-22T08:39:07Z</time>
      </trkpt>
      <trkpt lat="45.92209" lon="4.75275">
        <ele>176</ele>
        <time>2017-08-22T08:39:08Z</time>
      </trkpt>
      <trkpt lat="45.92209" lon="4.75283">
        <ele>176</ele>
        <time>2017-08-22T08:39:09Z</time>
      </trkpt>
      <trkpt lat="45.92208" lon="4.75292">
        <ele>176</ele>
        <time>2017-08-22T08:39:10Z</time>
      </trkpt>
      <trkpt lat="45.92208" lon="4.75301">
        <ele>176</ele>
        <time>2017-08-22T08:39:11Z</time>
      </trkpt>
      <trkpt lat="45.92207" lon="4.7531">
        <ele>176</ele>
        <time>2017-08-22T08:39:12Z</time>
      </trkpt>
      <trkpt lat="45.92206" lon="4.75318">
        <ele>176</ele>
        <time>2017-08-22T08:39:13Z</time>
      </trkpt>
      <trkpt lat="45.92205" lon="4.75326">
        <ele>176</ele>
        <time>2017-08-22T08:39:14Z</time>
      </trkpt>
      <trkpt lat="45.92203" lon="4.75335">
        <ele>177</ele>
        <time>2017-08-22T08:39:15Z</time>
      </trkpt>
      <trkpt lat="45.922" lon="4.75344">
        <ele>177</ele>
        <time>2017-08-22T08:39:16Z</time>
      </trkpt>
      <trkpt lat="45.92198" lon="4.75352">
        <ele>177</ele>
        <time>2017-08-22T08:39:17Z</time>
      </trkpt>
      <trkpt lat="45.92196" lon="4.7536">
        <ele>177</ele>
        <time>2017-08-22T08:39:18Z</time>
      </trkpt>
      <trkpt lat="45.92193" lon="4.75369">
        <ele>177</ele>
        <time>2017-08-22T08:39:19Z</time>
      </trkpt>
      <trkpt lat="45.92191" lon="4.75377">
        <ele>177</ele>
        <time>2017-08-22T08:39:20Z</time>
      </trkpt>
      <trkpt lat="45.92189" lon="4.75385">
        <ele>177</ele>
        <time>2017-08-22T08:39:21Z</time>
      </trkpt>
      <trkpt lat="45.92186" lon="4.75392">
        <ele>177</ele>
        <time>2017-08-22T08:39:22Z</time>
      </trkpt>
      <trkpt lat="45.92183" lon="4.75399">
        <ele>177</ele>
        <time>2017-08-22T08:39:23Z</time>
      </trkpt>
      <trkpt lat="45.9218" lon="4.75406">
        <ele>177</ele>
        <time>2017-08-22T08:39:24Z</time>
      </trkpt>
      <trkpt lat="45.92177" lon="4.75413">
        <ele>178</ele>
        <time>2017-08-22T08:39:25Z</time>
      </trkpt>
      <trkpt lat="45.92174" lon="4.7542">
        <ele>177</ele>
        <time>2017-08-22T08:39:26Z</time>
      </trkpt>
      <trkpt lat="45.92171" lon="4.75428">
        <ele>177</ele>
        <time>2017-08-22T08:39:27Z</time>
      </trkpt>
      <trkpt lat="45.92168" lon="4.75435">
        <ele>177</ele>
        <time>2017-08-22T08:39:28Z</time>
      </trkpt>
      <trkpt lat="45.92166" lon="4.75442">
        <ele>177</ele>
        <time>2017-08-22T08:39:29Z</time>
      </trkpt>
      <trkpt lat="45.92163" lon="4.7545">
        <ele>176</ele>
        <time>2017-08-22T08:39:30Z</time>
      </trkpt>
      <trkpt lat="45.92159" lon="4.75457">
        <ele>176</ele>
        <time>2017-08-22T08:39:31Z</time>
      </trkpt>
      <trkpt lat="45.92155" lon="4.75465">
        <ele>176</ele>
        <time>2017-08-22T08:39:32Z</time>
      </trkpt>
      <trkpt lat="45.92152" lon="4.75473">
        <ele>176</ele>
        <time>2017-08-22T08:39:33Z</time>
      </trkpt>
      <trkpt lat="45.92149" lon="4.7548">
        <ele>176</ele>
        <time>2017-08-22T08:39:34Z</time>
      </trkpt>
      <trkpt lat="45.92145" lon="4.75487">
        <ele>176</ele>
        <time>2017-08-22T08:39:35Z</time>
      </trkpt>
      <trkpt lat="45.92142" lon="4.75495">
        <ele>176</ele>
        <time>2017-08-22T08:39:36Z</time>
      </trkpt>
      <trkpt lat="45.92138" lon="4.75502">
        <ele>174</ele>
        <time>2017-08-22T08:39:37Z</time>
      </trkpt>
      <trkpt lat="45.92134" lon="4.7551">
        <ele>174</ele>
        <time>2017-08-22T08:39:38Z</time>
      </trkpt>
      <trkpt lat="45.9213" lon="4.75517">
        <ele>174</ele>
        <time>2017-08-22T08:39:39Z</time>
      </trkpt>
      <trkpt lat="45.92126" lon="4.75525">
        <ele>174</ele>
        <time>2017-08-22T08:39:40Z</time>
      </trkpt>
      <trkpt lat="45.92122" lon="4.75532">
        <ele>174</ele>
        <time>2017-08-22T08:39:41Z</time>
      </trkpt>
      <trkpt lat="45.92118" lon="4.75539">
        <ele>174</ele>
        <time>2017-08-22T08:39:42Z</time>
      </trkpt>
      <trkpt lat="45.92114" lon="4.75546">
        <ele>174</ele>
        <time>2017-08-22T08:39:43Z</time>
      </trkpt>
      <trkpt lat="45.9211" lon="4.75553">
        <ele>174</ele>
        <time>2017-08-22T08:39:44Z</time>
      </trkpt>
      <trkpt lat="45.92106" lon="4.75559">
        <ele>174</ele>
        <time>2017-08-22T08:39:45Z</time>
      </trkpt>
      <trkpt lat="45.92102" lon="4.75566">
        <ele>174</ele>
        <time>2017-08-22T08:39:46Z</time>
      </trkpt>
      <trkpt lat="45.92099" lon="4.75572">
        <ele>174</ele>
        <time>2017-08-22T08:39:47Z</time>
      </trkpt>
      <trkpt lat="45.92095" lon="4.75579">
        <ele>174</ele>
        <time>2017-08-22T08:39:48Z</time>
      </trkpt>
      <trkpt lat="45.92092" lon="4.75585">
        <ele>174</ele>
        <time>2017-08-22T08:39:49Z</time>
      </trkpt>
      <trkpt lat="45.92088" lon="4.75592">
        <ele>174</ele>
        <time>2017-08-22T08:39:50Z</time>
      </trkpt>
      <trkpt lat="45.92084" lon="4.75599">
        <ele>174</ele>
        <time>2017-08-22T08:39:51Z</time>
      </trkpt>
      <trkpt lat="45.9208" lon="4.75606">
        <ele>175</ele>
        <time>2017-08-22T08:39:52Z</time>
      </trkpt>
      <trkpt lat="45.92076" lon="4.75613">
        <ele>175</ele>
        <time>2017-08-22T08:39:53Z</time>
      </trkpt>
      <trkpt lat="45.92072" lon="4.75621">
        <ele>175</ele>
        <time>2017-08-22T08:39:54Z</time>
      </trkpt>
      <trkpt lat="45.92068" lon="4.75629">
        <ele>175</ele>
        <time>2017-08-22T08:39:55Z</time>
      </trkpt>
      <trkpt lat="45.92064" lon="4.75636">
        <ele>175</ele>
        <time>2017-08-22T08:39:56Z</time>
      </trkpt>
      <trkpt lat="45.9206" lon="4.75644">
        <ele>175</ele>
        <time>2017-08-22T08:39:57Z</time>
      </trkpt>
      <trkpt lat="45.92056" lon="4.75651">
        <ele>175</ele>
        <time>2017-08-22T08:39:58Z</time>
      </trkpt>
      <trkpt lat="45.92052" lon="4.75659">
        <ele>175</ele>
        <time>2017-08-22T08:39:59Z</time>
      </trkpt>
      <trkpt lat="45.92047" lon="4.75667">
        <ele>175</ele>
        <time>2017-08-22T08:40:00Z</time>
      </trkpt>
      <trkpt lat="45.92043" lon="4.75675">
        <ele>175</ele>
        <time>2017-08-22T08:40:01Z</time>
      </trkpt>
      <trkpt lat="45.9204" lon="4.75682">
        <ele>175</ele>
        <time>2017-08-22T08:40:02Z</time>
      </trkpt>
      <trkpt lat="45.92036" lon="4.75689">
        <ele>175</ele>
        <time>2017-08-22T08:40:03Z</time>
      </trkpt>
      <trkpt lat="45.92032" lon="4.75696">
        <ele>175</ele>
        <time>2017-08-22T08:40:04Z</time>
      </trkpt>
      <trkpt lat="45.92029" lon="4.75702">
        <ele>175</ele>
        <time>2017-08-22T08:40:05Z</time>
      </trkpt>
      <trkpt lat="45.92025" lon="4.75709">
        <ele>175</ele>
        <time>2017-08-22T08:40:06Z</time>
      </trkpt>
      <trkpt lat="45.92022" lon="4.75714">
        <ele>175</ele>
        <time>2017-08-22T08:40:07Z</time>
      </trkpt>
      <trkpt lat="45.92019" lon="4.7572">
        <ele>175</ele>
        <time>2017-08-22T08:40:08Z</time>
      </trkpt>
      <trkpt lat="45.92016" lon="4.75726">
        <ele>175</ele>
        <time>2017-08-22T08:40:09Z</time>
      </trkpt>
      <trkpt lat="45.92013" lon="4.75732">
        <ele>175</ele>
        <time>2017-08-22T08:40:10Z</time>
      </trkpt>
      <trkpt lat="45.9201" lon="4.75737">
        <ele>174</ele>
        <time>2017-08-22T08:40:11Z</time>
      </trkpt>
      <trkpt lat="45.92007" lon="4.75743">
        <ele>174</ele>
        <time>2017-08-22T08:40:12Z</time>
      </trkpt>
      <trkpt lat="45.92003" lon="4.75748">
        <ele>174</ele>
        <time>2017-08-22T08:40:13Z</time>
      </trkpt>
      <trkpt lat="45.92" lon="4.75754">
        <ele>174</ele>
        <time>2017-08-22T08:40:14Z</time>
      </trkpt>
      <trkpt lat="45.91997" lon="4.75759">
        <ele>174</ele>
        <time>2017-08-22T08:40:15Z</time>
      </trkpt>
      <trkpt lat="45.91994" lon="4.75766">
        <ele>174</ele>
        <time>2017-08-22T08:40:16Z</time>
      </trkpt>
      <trkpt lat="45.9199" lon="4.75772">
        <ele>174</ele>
        <time>2017-08-22T08:40:17Z</time>
      </trkpt>
      <trkpt lat="45.91987" lon="4.75779">
        <ele>174</ele>
        <time>2017-08-22T08:40:18Z</time>
      </trkpt>
      <trkpt lat="45.91983" lon="4.75786">
        <ele>173</ele>
        <time>2017-08-22T08:40:19Z</time>
      </trkpt>
      <trkpt lat="45.91979" lon="4.75793">
        <ele>173</ele>
        <time>2017-08-22T08:40:20Z</time>
      </trkpt>
      <trkpt lat="45.91976" lon="4.758">
        <ele>173</ele>
        <time>2017-08-22T08:40:21Z</time>
      </trkpt>
      <trkpt lat="45.91972" lon="4.75808">
        <ele>173</ele>
        <time>2017-08-22T08:40:22Z</time>
      </trkpt>
      <trkpt lat="45.91968" lon="4.75816">
        <ele>173</ele>
        <time>2017-08-22T08:40:23Z</time>
      </trkpt>
      <trkpt lat="45.91964" lon="4.75824">
        <ele>173</ele>
        <time>2017-08-22T08:40:24Z</time>
      </trkpt>
      <trkpt lat="45.91959" lon="4.75832">
        <ele>173</ele>
        <time>2017-08-22T08:40:25Z</time>
      </trkpt>
      <trkpt lat="45.91955" lon="4.7584">
        <ele>172</ele>
        <time>2017-08-22T08:40:26Z</time>
      </trkpt>
      <trkpt lat="45.9195" lon="4.75848">
        <ele>172</ele>
        <time>2017-08-22T08:40:27Z</time>
      </trkpt>
      <trkpt lat="45.91946" lon="4.75856">
        <ele>172</ele>
        <time>2017-08-22T08:40:28Z</time>
      </trkpt>
      <trkpt lat="45.91941" lon="4.75865">
        <ele>172</ele>
        <time>2017-08-22T08:40:29Z</time>
      </trkpt>
      <trkpt lat="45.91937" lon="4.75874">
        <ele>172</ele>
        <time>2017-08-22T08:40:30Z</time>
      </trkpt>
      <trkpt lat="45.91933" lon="4.75882">
        <ele>172</ele>
        <time>2017-08-22T08:40:31Z</time>
      </trkpt>
      <trkpt lat="45.9193" lon="4.7589">
        <ele>172</ele>
        <time>2017-08-22T08:40:32Z</time>
      </trkpt>
      <trkpt lat="45.91927" lon="4.75899">
        <ele>172</ele>
        <time>2017-08-22T08:40:33Z</time>
      </trkpt>
      <trkpt lat="45.91924" lon="4.75907">
        <ele>172</ele>
        <time>2017-08-22T08:40:34Z</time>
      </trkpt>
      <trkpt lat="45.91922" lon="4.75915">
        <ele>172</ele>
        <time>2017-08-22T08:40:35Z</time>
      </trkpt>
      <trkpt lat="45.91919" lon="4.75923">
        <ele>172</ele>
        <time>2017-08-22T08:40:36Z</time>
      </trkpt>
      <trkpt lat="45.91917" lon="4.75932">
        <ele>172</ele>
        <time>2017-08-22T08:40:37Z</time>
      </trkpt>
      <trkpt lat="45.91915" lon="4.7594">
        <ele>173</ele>
        <time>2017-08-22T08:40:38Z</time>
      </trkpt>
      <trkpt lat="45.91912" lon="4.75949">
        <ele>173</ele>
        <time>2017-08-22T08:40:39Z</time>
      </trkpt>
      <trkpt lat="45.9191" lon="4.75958">
        <ele>173</ele>
        <time>2017-08-22T08:40:40Z</time>
      </trkpt>
      <trkpt lat="45.91908" lon="4.75966">
        <ele>173</ele>
        <time>2017-08-22T08:40:41Z</time>
      </trkpt>
      <trkpt lat="45.91905" lon="4.75975">
        <ele>173</ele>
        <time>2017-08-22T08:40:42Z</time>
      </trkpt>
      <trkpt lat="45.91903" lon="4.75983">
        <ele>173</ele>
        <time>2017-08-22T08:40:43Z</time>
      </trkpt>
      <trkpt lat="45.91901" lon="4.75992">
        <ele>173</ele>
        <time>2017-08-22T08:40:44Z</time>
      </trkpt>
      <trkpt lat="45.91898" lon="4.76">
        <ele>173</ele>
        <time>2017-08-22T08:40:45Z</time>
      </trkpt>
      <trkpt lat="45.91896" lon="4.76009">
        <ele>173</ele>
        <time>2017-08-22T08:40:46Z</time>
      </trkpt>
      <trkpt lat="45.91894" lon="4.76017">
        <ele>173</ele>
        <time>2017-08-22T08:40:47Z</time>
      </trkpt>
      <trkpt lat="45.91891" lon="4.76026">
        <ele>173</ele>
        <time>2017-08-22T08:40:48Z</time>
      </trkpt>
      <trkpt lat="45.91889" lon="4.76035">
        <ele>173</ele>
        <time>2017-08-22T08:40:49Z</time>
      </trkpt>
      <trkpt lat="45.91887" lon="4.76044">
        <ele>173</ele>
        <time>2017-08-22T08:40:50Z</time>
      </trkpt>
      <trkpt lat="45.91886" lon="4.76052">
        <ele>173</ele>
        <time>2017-08-22T08:40:51Z</time>
      </trkpt>
      <trkpt lat="45.91884" lon="4.76061">
        <ele>173</ele>
        <time>2017-08-22T08:40:52Z</time>
      </trkpt>
      <trkpt lat="45.91882" lon="4.76068">
        <ele>173</ele>
        <time>2017-08-22T08:40:53Z</time>
      </trkpt>
      <trkpt lat="45.9188" lon="4.76076">
        <ele>173</ele>
        <time>2017-08-22T08:40:54Z</time>
      </trkpt>
      <trkpt lat="45.91878" lon="4.76083">
        <ele>173</ele>
        <time>2017-08-22T08:40:55Z</time>
      </trkpt>
      <trkpt lat="45.91876" lon="4.7609">
        <ele>173</ele>
        <time>2017-08-22T08:40:56Z</time>
      </trkpt>
      <trkpt lat="45.91874" lon="4.76097">
        <ele>173</ele>
        <time>2017-08-22T08:40:57Z</time>
      </trkpt>
      <trkpt lat="45.91872" lon="4.76105">
        <ele>173</ele>
        <time>2017-08-22T08:40:58Z</time>
      </trkpt>
      <trkpt lat="45.9187" lon="4.76112">
        <ele>173</ele>
        <time>2017-08-22T08:40:59Z</time>
      </trkpt>
      <trkpt lat="45.91868" lon="4.7612">
        <ele>173</ele>
        <time>2017-08-22T08:41:00Z</time>
      </trkpt>
      <trkpt lat="45.91865" lon="4.76128">
        <ele>173</ele>
        <time>2017-08-22T08:41:01Z</time>
      </trkpt>
      <trkpt lat="45.91863" lon="4.76136">
        <ele>173</ele>
        <time>2017-08-22T08:41:02Z</time>
      </trkpt>
      <trkpt lat="45.91861" lon="4.76144">
        <ele>173</ele>
        <time>2017-08-22T08:41:03Z</time>
      </trkpt>
      <trkpt lat="45.91858" lon="4.76152">
        <ele>173</ele>
        <time>2017-08-22T08:41:04Z</time>
      </trkpt>
      <trkpt lat="45.91856" lon="4.7616">
        <ele>173</ele>
        <time>2017-08-22T08:41:05Z</time>
      </trkpt>
      <trkpt lat="45.91854" lon="4.76169">
        <ele>172</ele>
        <time>2017-08-22T08:41:06Z</time>
      </trkpt>
      <trkpt lat="45.91852" lon="4.76177">
        <ele>172</ele>
        <time>2017-08-22T08:41:07Z</time>
      </trkpt>
      <trkpt lat="45.91849" lon="4.76186">
        <ele>172</ele>
        <time>2017-08-22T08:41:08Z</time>
      </trkpt>
      <trkpt lat="45.91847" lon="4.76194">
        <ele>172</ele>
        <time>2017-08-22T08:41:09Z</time>
      </trkpt>
      <trkpt lat="45.91845" lon="4.76203">
        <ele>172</ele>
        <time>2017-08-22T08:41:10Z</time>
      </trkpt>
      <trkpt lat="45.91843" lon="4.76211">
        <ele>172</ele>
        <time>2017-08-22T08:41:11Z</time>
      </trkpt>
      <trkpt lat="45.9184" lon="4.7622">
        <ele>172</ele>
        <time>2017-08-22T08:41:12Z</time>
      </trkpt>
      <trkpt lat="45.91838" lon="4.7623">
        <ele>172</ele>
        <time>2017-08-22T08:41:13Z</time>
      </trkpt>
      <trkpt lat="45.91836" lon="4.76238">
        <ele>173</ele>
        <time>2017-08-22T08:41:14Z</time>
      </trkpt>
      <trkpt lat="45.91833" lon="4.76247">
        <ele>173</ele>
        <time>2017-08-22T08:41:15Z</time>
      </trkpt>
      <trkpt lat="45.91831" lon="4.76257">
        <ele>173</ele>
        <time>2017-08-22T08:41:16Z</time>
      </trkpt>
      <trkpt lat="45.91829" lon="4.76266">
        <ele>174</ele>
        <time>2017-08-22T08:41:17Z</time>
      </trkpt>
      <trkpt lat="45.91826" lon="4.76276">
        <ele>174</ele>
        <time>2017-08-22T08:41:18Z</time>
      </trkpt>
      <trkpt lat="45.91824" lon="4.76285">
        <ele>174</ele>
        <time>2017-08-22T08:41:19Z</time>
      </trkpt>
      <trkpt lat="45.91821" lon="4.76294">
        <ele>174</ele>
        <time>2017-08-22T08:41:20Z</time>
      </trkpt>
      <trkpt lat="45.91819" lon="4.76303">
        <ele>174</ele>
        <time>2017-08-22T08:41:21Z</time>
      </trkpt>
      <trkpt lat="45.91817" lon="4.76311">
        <ele>174</ele>
        <time>2017-08-22T08:41:22Z</time>
      </trkpt>
      <trkpt lat="45.91815" lon="4.76318">
        <ele>174</ele>
        <time>2017-08-22T08:41:23Z</time>
      </trkpt>
      <trkpt lat="45.91814" lon="4.76325">
        <ele>174</ele>
        <time>2017-08-22T08:41:24Z</time>
      </trkpt>
      <trkpt lat="45.91813" lon="4.76333">
        <ele>174</ele>
        <time>2017-08-22T08:41:25Z</time>
      </trkpt>
      <trkpt lat="45.91811" lon="4.76341">
        <ele>174</ele>
        <time>2017-08-22T08:41:26Z</time>
      </trkpt>
      <trkpt lat="45.9181" lon="4.76348">
        <ele>174</ele>
        <time>2017-08-22T08:41:27Z</time>
      </trkpt>
      <trkpt lat="45.9181" lon="4.76356">
        <ele>174</ele>
        <time>2017-08-22T08:41:28Z</time>
      </trkpt>
      <trkpt lat="45.91809" lon="4.76364">
        <ele>174</ele>
        <time>2017-08-22T08:41:29Z</time>
      </trkpt>
      <trkpt lat="45.91808" lon="4.76372">
        <ele>174</ele>
        <time>2017-08-22T08:41:30Z</time>
      </trkpt>
      <trkpt lat="45.91808" lon="4.76381">
        <ele>174</ele>
        <time>2017-08-22T08:41:31Z</time>
      </trkpt>
      <trkpt lat="45.91807" lon="4.7639">
        <ele>174</ele>
        <time>2017-08-22T08:41:32Z</time>
      </trkpt>
      <trkpt lat="45.91806" lon="4.76399">
        <ele>174</ele>
        <time>2017-08-22T08:41:33Z</time>
      </trkpt>
      <trkpt lat="45.91806" lon="4.76407">
        <ele>173</ele>
        <time>2017-08-22T08:41:34Z</time>
      </trkpt>
      <trkpt lat="45.91806" lon="4.76416">
        <ele>173</ele>
        <time>2017-08-22T08:41:35Z</time>
      </trkpt>
      <trkpt lat="45.91805" lon="4.76425">
        <ele>173</ele>
        <time>2017-08-22T08:41:36Z</time>
      </trkpt>
      <trkpt lat="45.91805" lon="4.76435">
        <ele>173</ele>
        <time>2017-08-22T08:41:37Z</time>
      </trkpt>
      <trkpt lat="45.91804" lon="4.76443">
        <ele>173</ele>
        <time>2017-08-22T08:41:38Z</time>
      </trkpt>
      <trkpt lat="45.91804" lon="4.76451">
        <ele>173</ele>
        <time>2017-08-22T08:41:39Z</time>
      </trkpt>
      <trkpt lat="45.91803" lon="4.7646">
        <ele>173</ele>
        <time>2017-08-22T08:41:40Z</time>
      </trkpt>
      <trkpt lat="45.91803" lon="4.76468">
        <ele>173</ele>
        <time>2017-08-22T08:41:41Z</time>
      </trkpt>
      <trkpt lat="45.91802" lon="4.76476">
        <ele>173</ele>
        <time>2017-08-22T08:41:42Z</time>
      </trkpt>
      <trkpt lat="45.91802" lon="4.76484">
        <ele>173</ele>
        <time>2017-08-22T08:41:43Z</time>
      </trkpt>
      <trkpt lat="45.91801" lon="4.76493">
        <ele>173</ele>
        <time>2017-08-22T08:41:44Z</time>
      </trkpt>
      <trkpt lat="45.91801" lon="4.76501">
        <ele>173</ele>
        <time>2017-08-22T08:41:45Z</time>
      </trkpt>
      <trkpt lat="45.918" lon="4.7651">
        <ele>173</ele>
        <time>2017-08-22T08:41:46Z</time>
      </trkpt>
      <trkpt lat="45.91799" lon="4.76519">
        <ele>173</ele>
        <time>2017-08-22T08:41:47Z</time>
      </trkpt>
      <trkpt lat="45.91799" lon="4.76528">
        <ele>173</ele>
        <time>2017-08-22T08:41:48Z</time>
      </trkpt>
      <trkpt lat="45.91797" lon="4.76537">
        <ele>173</ele>
        <time>2017-08-22T08:41:49Z</time>
      </trkpt>
      <trkpt lat="45.91796" lon="4.76546">
        <ele>173</ele>
        <time>2017-08-22T08:41:50Z</time>
      </trkpt>
      <trkpt lat="45.91795" lon="4.76555">
        <ele>173</ele>
        <time>2017-08-22T08:41:51Z</time>
      </trkpt>
      <trkpt lat="45.91794" lon="4.76564">
        <ele>173</ele>
        <time>2017-08-22T08:41:52Z</time>
      </trkpt>
      <trkpt lat="45.91793" lon="4.76573">
        <ele>173</ele>
        <time>2017-08-22T08:41:53Z</time>
      </trkpt>
      <trkpt lat="45.91792" lon="4.76583">
        <ele>173</ele>
        <time>2017-08-22T08:41:54Z</time>
      </trkpt>
      <trkpt lat="45.9179" lon="4.76593">
        <ele>173</ele>
        <time>2017-08-22T08:41:55Z</time>
      </trkpt>
      <trkpt lat="45.9179" lon="4.76602">
        <ele>173</ele>
        <time>2017-08-22T08:41:56Z</time>
      </trkpt>
      <trkpt lat="45.91788" lon="4.76611">
        <ele>173</ele>
        <time>2017-08-22T08:41:57Z</time>
      </trkpt>
      <trkpt lat="45.91787" lon="4.7662">
        <ele>173</ele>
        <time>2017-08-22T08:41:58Z</time>
      </trkpt>
      <trkpt lat="45.91786" lon="4.76628">
        <ele>173</ele>
        <time>2017-08-22T08:41:59Z</time>
      </trkpt>
      <trkpt lat="45.91784" lon="4.76637">
        <ele>173</ele>
        <time>2017-08-22T08:42:00Z</time>
      </trkpt>
      <trkpt lat="45.91784" lon="4.76646">
        <ele>173</ele>
        <time>2017-08-22T08:42:01Z</time>
      </trkpt>
      <trkpt lat="45.91783" lon="4.76654">
        <ele>173</ele>
        <time>2017-08-22T08:42:02Z</time>
      </trkpt>
      <trkpt lat="45.91782" lon="4.76663">
        <ele>173</ele>
        <time>2017-08-22T08:42:03Z</time>
      </trkpt>
      <trkpt lat="45.91781" lon="4.76672">
        <ele>172</ele>
        <time>2017-08-22T08:42:04Z</time>
      </trkpt>
      <trkpt lat="45.9178" lon="4.7668">
        <ele>172</ele>
        <time>2017-08-22T08:42:05Z</time>
      </trkpt>
      <trkpt lat="45.91779" lon="4.76688">
        <ele>172</ele>
        <time>2017-08-22T08:42:06Z</time>
      </trkpt>
      <trkpt lat="45.91779" lon="4.76697">
        <ele>172</ele>
        <time>2017-08-22T08:42:07Z</time>
      </trkpt>
      <trkpt lat="45.91778" lon="4.76706">
        <ele>172</ele>
        <time>2017-08-22T08:42:08Z</time>
      </trkpt>
      <trkpt lat="45.91777" lon="4.76715">
        <ele>172</ele>
        <time>2017-08-22T08:42:09Z</time>
      </trkpt>
      <trkpt lat="45.91777" lon="4.76724">
        <ele>172</ele>
        <time>2017-08-22T08:42:10Z</time>
      </trkpt>
      <trkpt lat="45.91776" lon="4.76733">
        <ele>172</ele>
        <time>2017-08-22T08:42:11Z</time>
      </trkpt>
      <trkpt lat="45.91776" lon="4.76742">
        <ele>172</ele>
        <time>2017-08-22T08:42:12Z</time>
      </trkpt>
      <trkpt lat="45.91775" lon="4.76752">
        <ele>171</ele>
        <time>2017-08-22T08:42:13Z</time>
      </trkpt>
      <trkpt lat="45.91775" lon="4.76761">
        <ele>171</ele>
        <time>2017-08-22T08:42:14Z</time>
      </trkpt>
      <trkpt lat="45.91776" lon="4.76771">
        <ele>171</ele>
        <time>2017-08-22T08:42:15Z</time>
      </trkpt>
      <trkpt lat="45.91776" lon="4.76781">
        <ele>171</ele>
        <time>2017-08-22T08:42:16Z</time>
      </trkpt>
      <trkpt lat="45.91776" lon="4.76791">
        <ele>171</ele>
        <time>2017-08-22T08:42:17Z</time>
      </trkpt>
      <trkpt lat="45.91775" lon="4.76801">
        <ele>171</ele>
        <time>2017-08-22T08:42:18Z</time>
      </trkpt>
      <trkpt lat="45.91775" lon="4.76812">
        <ele>171</ele>
        <time>2017-08-22T08:42:19Z</time>
      </trkpt>
      <trkpt lat="45.91775" lon="4.76822">
        <ele>171</ele>
        <time>2017-08-22T08:42:20Z</time>
      </trkpt>
      <trkpt lat="45.91775" lon="4.76832">
        <ele>171</ele>
        <time>2017-08-22T08:42:21Z</time>
      </trkpt>
      <trkpt lat="45.91775" lon="4.76841">
        <ele>171</ele>
        <time>2017-08-22T08:42:22Z</time>
      </trkpt>
      <trkpt lat="45.91775" lon="4.76851">
        <ele>170</ele>
        <time>2017-08-22T08:42:23Z</time>
      </trkpt>
      <trkpt lat="45.91774" lon="4.76861">
        <ele>170</ele>
        <time>2017-08-22T08:42:24Z</time>
      </trkpt>
      <trkpt lat="45.91774" lon="4.7687">
        <ele>170</ele>
        <time>2017-08-22T08:42:25Z</time>
      </trkpt>
      <trkpt lat="45.91774" lon="4.7688">
        <ele>170</ele>
        <time>2017-08-22T08:42:26Z</time>
      </trkpt>
      <trkpt lat="45.91774" lon="4.76888">
        <ele>170</ele>
        <time>2017-08-22T08:42:27Z</time>
      </trkpt>
      <trkpt lat="45.91773" lon="4.76898">
        <ele>170</ele>
        <time>2017-08-22T08:42:28Z</time>
      </trkpt>
      <trkpt lat="45.91772" lon="4.76907">
        <ele>170</ele>
        <time>2017-08-22T08:42:29Z</time>
      </trkpt>
      <trkpt lat="45.91772" lon="4.76917">
        <ele>170</ele>
        <time>2017-08-22T08:42:30Z</time>
      </trkpt>
      <trkpt lat="45.91771" lon="4.76927">
        <ele>170</ele>
        <time>2017-08-22T08:42:31Z</time>
      </trkpt>
      <trkpt lat="45.91771" lon="4.76936">
        <ele>170</ele>
        <time>2017-08-22T08:42:32Z</time>
      </trkpt>
      <trkpt lat="45.9177" lon="4.76945">
        <ele>169</ele>
        <time>2017-08-22T08:42:33Z</time>
      </trkpt>
      <trkpt lat="45.91769" lon="4.76954">
        <ele>169</ele>
        <time>2017-08-22T08:42:34Z</time>
      </trkpt>
      <trkpt lat="45.91768" lon="4.76963">
        <ele>169</ele>
        <time>2017-08-22T08:42:35Z</time>
      </trkpt>
      <trkpt lat="45.91767" lon="4.76973">
        <ele>169</ele>
        <time>2017-08-22T08:42:36Z</time>
      </trkpt>
      <trkpt lat="45.91765" lon="4.76983">
        <ele>169</ele>
        <time>2017-08-22T08:42:37Z</time>
      </trkpt>
      <trkpt lat="45.91764" lon="4.76993">
        <ele>169</ele>
        <time>2017-08-22T08:42:38Z</time>
      </trkpt>
      <trkpt lat="45.91763" lon="4.77002">
        <ele>169</ele>
        <time>2017-08-22T08:42:39Z</time>
      </trkpt>
      <trkpt lat="45.91761" lon="4.77012">
        <ele>169</ele>
        <time>2017-08-22T08:42:40Z</time>
      </trkpt>
      <trkpt lat="45.9176" lon="4.77022">
        <ele>169</ele>
        <time>2017-08-22T08:42:41Z</time>
      </trkpt>
      <trkpt lat="45.91758" lon="4.77031">
        <ele>169</ele>
        <time>2017-08-22T08:42:42Z</time>
      </trkpt>
      <trkpt lat="45.91756" lon="4.77041">
        <ele>169</ele>
        <time>2017-08-22T08:42:43Z</time>
      </trkpt>
      <trkpt lat="45.91755" lon="4.7705">
        <ele>169</ele>
        <time>2017-08-22T08:42:44Z</time>
      </trkpt>
      <trkpt lat="45.91754" lon="4.77059">
        <ele>169</ele>
        <time>2017-08-22T08:42:45Z</time>
      </trkpt>
      <trkpt lat="45.91752" lon="4.77068">
        <ele>169</ele>
        <time>2017-08-22T08:42:46Z</time>
      </trkpt>
      <trkpt lat="45.91751" lon="4.77076">
        <ele>169</ele>
        <time>2017-08-22T08:42:47Z</time>
      </trkpt>
      <trkpt lat="45.9175" lon="4.77085">
        <ele>169</ele>
        <time>2017-08-22T08:42:48Z</time>
      </trkpt>
      <trkpt lat="45.91749" lon="4.77093">
        <ele>169</ele>
        <time>2017-08-22T08:42:49Z</time>
      </trkpt>
      <trkpt lat="45.91747" lon="4.771">
        <ele>170</ele>
        <time>2017-08-22T08:42:50Z</time>
      </trkpt>
      <trkpt lat="45.91746" lon="4.77108">
        <ele>170</ele>
        <time>2017-08-22T08:42:51Z</time>
      </trkpt>
      <trkpt lat="45.91744" lon="4.77117">
        <ele>170</ele>
        <time>2017-08-22T08:42:52Z</time>
      </trkpt>
      <trkpt lat="45.91743" lon="4.77125">
        <ele>170</ele>
        <time>2017-08-22T08:42:53Z</time>
      </trkpt>
      <trkpt lat="45.91742" lon="4.77133">
        <ele>170</ele>
        <time>2017-08-22T08:42:54Z</time>
      </trkpt>
      <trkpt lat="45.9174" lon="4.77142">
        <ele>170</ele>
        <time>2017-08-22T08:42:55Z</time>
      </trkpt>
      <trkpt lat="45.91739" lon="4.77151">
        <ele>170</ele>
        <time>2017-08-22T08:42:56Z</time>
      </trkpt>
      <trkpt lat="45.91738" lon="4.77159">
        <ele>170</ele>
        <time>2017-08-22T08:42:57Z</time>
      </trkpt>
      <trkpt lat="45.91738" lon="4.77169">
        <ele>170</ele>
        <time>2017-08-22T08:42:58Z</time>
      </trkpt>
      <trkpt lat="45.91736" lon="4.77178">
        <ele>170</ele>
        <time>2017-08-22T08:42:59Z</time>
      </trkpt>
      <trkpt lat="45.91735" lon="4.77188">
        <ele>170</ele>
        <time>2017-08-22T08:43:00Z</time>
      </trkpt>
      <trkpt lat="45.91733" lon="4.77198">
        <ele>170</ele>
        <time>2017-08-22T08:43:01Z</time>
      </trkpt>
      <trkpt lat="45.91732" lon="4.77208">
        <ele>170</ele>
        <time>2017-08-22T08:43:02Z</time>
      </trkpt>
      <trkpt lat="45.9173" lon="4.77217">
        <ele>170</ele>
        <time>2017-08-22T08:43:03Z</time>
      </trkpt>
      <trkpt lat="45.91729" lon="4.77226">
        <ele>170</ele>
        <time>2017-08-22T08:43:04Z</time>
      </trkpt>
      <trkpt lat="45.91727" lon="4.77234">
        <ele>170</ele>
        <time>2017-08-22T08:43:05Z</time>
      </trkpt>
      <trkpt lat="45.91726" lon="4.77243">
        <ele>170</ele>
        <time>2017-08-22T08:43:06Z</time>
      </trkpt>
      <trkpt lat="45.91724" lon="4.77251">
        <ele>170</ele>
        <time>2017-08-22T08:43:07Z</time>
      </trkpt>
      <trkpt lat="45.91723" lon="4.77259">
        <ele>170</ele>
        <time>2017-08-22T08:43:08Z</time>
      </trkpt>
      <trkpt lat="45.91722" lon="4.77268">
        <ele>170</ele>
        <time>2017-08-22T08:43:09Z</time>
      </trkpt>
      <trkpt lat="45.9172" lon="4.77276">
        <ele>170</ele>
        <time>2017-08-22T08:43:10Z</time>
      </trkpt>
      <trkpt lat="45.91719" lon="4.77285">
        <ele>170</ele>
        <time>2017-08-22T08:43:11Z</time>
      </trkpt>
      <trkpt lat="45.91718" lon="4.77294">
        <ele>170</ele>
        <time>2017-08-22T08:43:12Z</time>
      </trkpt>
      <trkpt lat="45.91717" lon="4.77303">
        <ele>170</ele>
        <time>2017-08-22T08:43:13Z</time>
      </trkpt>
      <trkpt lat="45.91715" lon="4.77312">
        <ele>170</ele>
        <time>2017-08-22T08:43:14Z</time>
      </trkpt>
      <trkpt lat="45.91714" lon="4.7732">
        <ele>170</ele>
        <time>2017-08-22T08:43:15Z</time>
      </trkpt>
      <trkpt lat="45.91712" lon="4.77329">
        <ele>170</ele>
        <time>2017-08-22T08:43:16Z</time>
      </trkpt>
      <trkpt lat="45.9171" lon="4.77338">
        <ele>171</ele>
        <time>2017-08-22T08:43:17Z</time>
      </trkpt>
      <trkpt lat="45.91708" lon="4.77348">
        <ele>171</ele>
        <time>2017-08-22T08:43:18Z</time>
      </trkpt>
      <trkpt lat="45.91706" lon="4.77356">
        <ele>171</ele>
        <time>2017-08-22T08:43:19Z</time>
      </trkpt>
      <trkpt lat="45.91705" lon="4.77365">
        <ele>171</ele>
        <time>2017-08-22T08:43:20Z</time>
      </trkpt>
      <trkpt lat="45.91703" lon="4.77373">
        <ele>171</ele>
        <time>2017-08-22T08:43:21Z</time>
      </trkpt>
      <trkpt lat="45.91701" lon="4.7738">
        <ele>171</ele>
        <time>2017-08-22T08:43:22Z</time>
      </trkpt>
      <trkpt lat="45.91698" lon="4.77387">
        <ele>171</ele>
        <time>2017-08-22T08:43:23Z</time>
      </trkpt>
      <trkpt lat="45.91697" lon="4.77395">
        <ele>171</ele>
        <time>2017-08-22T08:43:24Z</time>
      </trkpt>
      <trkpt lat="45.91695" lon="4.77402">
        <ele>171</ele>
        <time>2017-08-22T08:43:25Z</time>
      </trkpt>
      <trkpt lat="45.91694" lon="4.7741">
        <ele>171</ele>
        <time>2017-08-22T08:43:26Z</time>
      </trkpt>
      <trkpt lat="45.91693" lon="4.77417">
        <ele>171</ele>
        <time>2017-08-22T08:43:27Z</time>
      </trkpt>
      <trkpt lat="45.91692" lon="4.77424">
        <ele>171</ele>
        <time>2017-08-22T08:43:28Z</time>
      </trkpt>
      <trkpt lat="45.91692" lon="4.77431">
        <ele>171</ele>
        <time>2017-08-22T08:43:29Z</time>
      </trkpt>
      <trkpt lat="45.91692" lon="4.77439">
        <ele>171</ele>
        <time>2017-08-22T08:43:30Z</time>
      </trkpt>
      <trkpt lat="45.91692" lon="4.77446">
        <ele>171</ele>
        <time>2017-08-22T08:43:31Z</time>
      </trkpt>
      <trkpt lat="45.91691" lon="4.77452">
        <ele>171</ele>
        <time>2017-08-22T08:43:32Z</time>
      </trkpt>
      <trkpt lat="45.91689" lon="4.77458">
        <ele>171</ele>
        <time>2017-08-22T08:43:33Z</time>
      </trkpt>
      <trkpt lat="45.91686" lon="4.77463">
        <ele>171</ele>
        <time>2017-08-22T08:43:34Z</time>
      </trkpt>
      <trkpt lat="45.91683" lon="4.77468">
        <ele>171</ele>
        <time>2017-08-22T08:43:35Z</time>
      </trkpt>
      <trkpt lat="45.91679" lon="4.77473">
        <ele>170</ele>
        <time>2017-08-22T08:43:36Z</time>
      </trkpt>
      <trkpt lat="45.91675" lon="4.77477">
        <ele>170</ele>
        <time>2017-08-22T08:43:37Z</time>
      </trkpt>
      <trkpt lat="45.91669" lon="4.77482">
        <ele>170</ele>
        <time>2017-08-22T08:43:38Z</time>
      </trkpt>
      <trkpt lat="45.91663" lon="4.77485">
        <ele>171</ele>
        <time>2017-08-22T08:43:39Z</time>
      </trkpt>
      <trkpt lat="45.91657" lon="4.77489">
        <ele>171</ele>
        <time>2017-08-22T08:43:40Z</time>
      </trkpt>
      <trkpt lat="45.91651" lon="4.77492">
        <ele>171</ele>
        <time>2017-08-22T08:43:41Z</time>
      </trkpt>
      <trkpt lat="45.91645" lon="4.77495">
        <ele>171</ele>
        <time>2017-08-22T08:43:42Z</time>
      </trkpt>
      <trkpt lat="45.9164" lon="4.77497">
        <ele>171</ele>
        <time>2017-08-22T08:43:43Z</time>
      </trkpt>
      <trkpt lat="45.91634" lon="4.775">
        <ele>171</ele>
        <time>2017-08-22T08:43:44Z</time>
      </trkpt>
      <trkpt lat="45.91629" lon="4.77502">
        <ele>171</ele>
        <time>2017-08-22T08:43:45Z</time>
      </trkpt>
      <trkpt lat="45.91625" lon="4.77506">
        <ele>171</ele>
        <time>2017-08-22T08:43:46Z</time>
      </trkpt>
      <trkpt lat="45.91621" lon="4.7751">
        <ele>171</ele>
        <time>2017-08-22T08:43:47Z</time>
      </trkpt>
      <trkpt lat="45.91617" lon="4.77515">
        <ele>171</ele>
        <time>2017-08-22T08:43:48Z</time>
      </trkpt>
      <trkpt lat="45.91614" lon="4.7752">
        <ele>171</ele>
        <time>2017-08-22T08:43:49Z</time>
      </trkpt>
      <trkpt lat="45.91609" lon="4.7753">
        <ele>171</ele>
        <time>2017-08-22T08:43:51Z</time>
      </trkpt>
      <trkpt lat="45.91606" lon="4.77535">
        <ele>171</ele>
        <time>2017-08-22T08:43:52Z</time>
      </trkpt>
      <trkpt lat="45.91603" lon="4.7754">
        <ele>171</ele>
        <time>2017-08-22T08:43:53Z</time>
      </trkpt>
      <trkpt lat="45.916" lon="4.77546">
        <ele>171</ele>
        <time>2017-08-22T08:43:54Z</time>
      </trkpt>
      <trkpt lat="45.91597" lon="4.77552">
        <ele>172</ele>
        <time>2017-08-22T08:43:55Z</time>
      </trkpt>
      <trkpt lat="45.91593" lon="4.77558">
        <ele>172</ele>
        <time>2017-08-22T08:43:56Z</time>
      </trkpt>
      <trkpt lat="45.9159" lon="4.77564">
        <ele>172</ele>
        <time>2017-08-22T08:43:57Z</time>
      </trkpt>
      <trkpt lat="45.91586" lon="4.7757">
        <ele>172</ele>
        <time>2017-08-22T08:43:58Z</time>
      </trkpt>
      <trkpt lat="45.91582" lon="4.77576">
        <ele>173</ele>
        <time>2017-08-22T08:43:59Z</time>
      </trkpt>
      <trkpt lat="45.91579" lon="4.77583">
        <ele>173</ele>
        <time>2017-08-22T08:44:00Z</time>
      </trkpt>
      <trkpt lat="45.91576" lon="4.77589">
        <ele>173</ele>
        <time>2017-08-22T08:44:01Z</time>
      </trkpt>
      <trkpt lat="45.91572" lon="4.77596">
        <ele>173</ele>
        <time>2017-08-22T08:44:02Z</time>
      </trkpt>
      <trkpt lat="45.91569" lon="4.77603">
        <ele>174</ele>
        <time>2017-08-22T08:44:03Z</time>
      </trkpt>
      <trkpt lat="45.91566" lon="4.77609">
        <ele>174</ele>
        <time>2017-08-22T08:44:04Z</time>
      </trkpt>
      <trkpt lat="45.91562" lon="4.77615">
        <ele>174</ele>
        <time>2017-08-22T08:44:05Z</time>
      </trkpt>
      <trkpt lat="45.91558" lon="4.77621">
        <ele>174</ele>
        <time>2017-08-22T08:44:06Z</time>
      </trkpt>
      <trkpt lat="45.91554" lon="4.77626">
        <ele>174</ele>
        <time>2017-08-22T08:44:07Z</time>
      </trkpt>
      <trkpt lat="45.91551" lon="4.77632">
        <ele>174</ele>
        <time>2017-08-22T08:44:08Z</time>
      </trkpt>
      <trkpt lat="45.91547" lon="4.77637">
        <ele>174</ele>
        <time>2017-08-22T08:44:09Z</time>
      </trkpt>
      <trkpt lat="45.91544" lon="4.77643">
        <ele>174</ele>
        <time>2017-08-22T08:44:10Z</time>
      </trkpt>
      <trkpt lat="45.9154" lon="4.77648">
        <ele>174</ele>
        <time>2017-08-22T08:44:11Z</time>
      </trkpt>
      <trkpt lat="45.91538" lon="4.77654">
        <ele>174</ele>
        <time>2017-08-22T08:44:12Z</time>
      </trkpt>
      <trkpt lat="45.91532" lon="4.77663">
        <ele>174</ele>
        <time>2017-08-22T08:44:14Z</time>
      </trkpt>
      <trkpt lat="45.91529" lon="4.77668">
        <ele>175</ele>
        <time>2017-08-22T08:44:15Z</time>
      </trkpt>
      <trkpt lat="45.91523" lon="4.77676">
        <ele>175</ele>
        <time>2017-08-22T08:44:17Z</time>
      </trkpt>
      <trkpt lat="45.9152" lon="4.7768">
        <ele>175</ele>
        <time>2017-08-22T08:44:18Z</time>
      </trkpt>
      <trkpt lat="45.91515" lon="4.77689">
        <ele>176</ele>
        <time>2017-08-22T08:44:20Z</time>
      </trkpt>
      <trkpt lat="45.91512" lon="4.77691">
        <ele>176</ele>
        <time>2017-08-22T08:44:21Z</time>
      </trkpt>
      <trkpt lat="45.91504" lon="4.77693">
        <ele>176</ele>
        <time>2017-08-22T08:44:23Z</time>
      </trkpt>
      <trkpt lat="45.915" lon="4.77694">
        <ele>177</ele>
        <time>2017-08-22T08:44:24Z</time>
      </trkpt>
      <trkpt lat="45.91491" lon="4.77695">
        <ele>177</ele>
        <time>2017-08-22T08:44:26Z</time>
      </trkpt>
      <trkpt lat="45.91487" lon="4.77695">
        <ele>177</ele>
        <time>2017-08-22T08:44:27Z</time>
      </trkpt>
      <trkpt lat="45.91479" lon="4.77697">
        <ele>177</ele>
        <time>2017-08-22T08:44:29Z</time>
      </trkpt>
      <trkpt lat="45.91475" lon="4.77698">
        <ele>177</ele>
        <time>2017-08-22T08:44:30Z</time>
      </trkpt>
      <trkpt lat="45.9147" lon="4.777">
        <ele>177</ele>
        <time>2017-08-22T08:44:31Z</time>
      </trkpt>
      <trkpt lat="45.91465" lon="4.77703">
        <ele>177</ele>
        <time>2017-08-22T08:44:32Z</time>
      </trkpt>
      <trkpt lat="45.91459" lon="4.77705">
        <ele>177</ele>
        <time>2017-08-22T08:44:33Z</time>
      </trkpt>
      <trkpt lat="45.91454" lon="4.77706">
        <ele>177</ele>
        <time>2017-08-22T08:44:34Z</time>
      </trkpt>
      <trkpt lat="45.91449" lon="4.77706">
        <ele>177</ele>
        <time>2017-08-22T08:44:35Z</time>
      </trkpt>
      <trkpt lat="45.91444" lon="4.77707">
        <ele>177</ele>
        <time>2017-08-22T08:44:36Z</time>
      </trkpt>
      <trkpt lat="45.91436" lon="4.77707">
        <ele>177</ele>
        <time>2017-08-22T08:44:38Z</time>
      </trkpt>
      <trkpt lat="45.91433" lon="4.77708">
        <ele>177</ele>
        <time>2017-08-22T08:44:39Z</time>
      </trkpt>
      <trkpt lat="45.91426" lon="4.77708">
        <ele>177</ele>
        <time>2017-08-22T08:44:43Z</time>
      </trkpt>
      <trkpt lat="45.91424" lon="4.77709">
        <ele>177</ele>
        <time>2017-08-22T08:44:44Z</time>
      </trkpt>
      <trkpt lat="45.91416" lon="4.77709">
        <ele>177</ele>
        <time>2017-08-22T08:44:46Z</time>
      </trkpt>
      <trkpt lat="45.91412" lon="4.77709">
        <ele>177</ele>
        <time>2017-08-22T08:44:47Z</time>
      </trkpt>
      <trkpt lat="45.91404" lon="4.77709">
        <ele>176</ele>
        <time>2017-08-22T08:44:49Z</time>
      </trkpt>
      <trkpt lat="45.91399" lon="4.7771">
        <ele>176</ele>
        <time>2017-08-22T08:44:50Z</time>
      </trkpt>
      <trkpt lat="45.91391" lon="4.77713">
        <ele>176</ele>
        <time>2017-08-22T08:44:52Z</time>
      </trkpt>
      <trkpt lat="45.91386" lon="4.77713">
        <ele>176</ele>
        <time>2017-08-22T08:44:53Z</time>
      </trkpt>
      <trkpt lat="45.91378" lon="4.77713">
        <ele>176</ele>
        <time>2017-08-22T08:44:55Z</time>
      </trkpt>
      <trkpt lat="45.91374" lon="4.77715">
        <ele>176</ele>
        <time>2017-08-22T08:44:56Z</time>
      </trkpt>
      <trkpt lat="45.91369" lon="4.77715">
        <ele>176</ele>
        <time>2017-08-22T08:44:57Z</time>
      </trkpt>
      <trkpt lat="45.91365" lon="4.77715">
        <ele>176</ele>
        <time>2017-08-22T08:44:58Z</time>
      </trkpt>
      <trkpt lat="45.9136" lon="4.77715">
        <ele>176</ele>
        <time>2017-08-22T08:44:59Z</time>
      </trkpt>
      <trkpt lat="45.91353" lon="4.77713">
        <ele>176</ele>
        <time>2017-08-22T08:45:00Z</time>
      </trkpt>
      <trkpt lat="45.91347" lon="4.77713">
        <ele>176</ele>
        <time>2017-08-22T08:45:01Z</time>
      </trkpt>
      <trkpt lat="45.91342" lon="4.77713">
        <ele>176</ele>
        <time>2017-08-22T08:45:02Z</time>
      </trkpt>
      <trkpt lat="45.91336" lon="4.77713">
        <ele>176</ele>
        <time>2017-08-22T08:45:03Z</time>
      </trkpt>
      <trkpt lat="45.91331" lon="4.77714">
        <ele>176</ele>
        <time>2017-08-22T08:45:04Z</time>
      </trkpt>
      <trkpt lat="45.91325" lon="4.77714">
        <ele>176</ele>
        <time>2017-08-22T08:45:05Z</time>
      </trkpt>
      <trkpt lat="45.91321" lon="4.77713">
        <ele>176</ele>
        <time>2017-08-22T08:45:06Z</time>
      </trkpt>
      <trkpt lat="45.91316" lon="4.77711">
        <ele>176</ele>
        <time>2017-08-22T08:45:07Z</time>
      </trkpt>
      <trkpt lat="45.91311" lon="4.77709">
        <ele>176</ele>
        <time>2017-08-22T08:45:08Z</time>
      </trkpt>
      <trkpt lat="45.91306" lon="4.77707">
        <ele>176</ele>
        <time>2017-08-22T08:45:09Z</time>
      </trkpt>
      <trkpt lat="45.91302" lon="4.77704">
        <ele>176</ele>
        <time>2017-08-22T08:45:10Z</time>
      </trkpt>
      <trkpt lat="45.91298" lon="4.77701">
        <ele>176</ele>
        <time>2017-08-22T08:45:11Z</time>
      </trkpt>
      <trkpt lat="45.91293" lon="4.77698">
        <ele>176</ele>
        <time>2017-08-22T08:45:12Z</time>
      </trkpt>
      <trkpt lat="45.91289" lon="4.77695">
        <ele>176</ele>
        <time>2017-08-22T08:45:13Z</time>
      </trkpt>
      <trkpt lat="45.91284" lon="4.77692">
        <ele>176</ele>
        <time>2017-08-22T08:45:14Z</time>
      </trkpt>
      <trkpt lat="45.91279" lon="4.77689">
        <ele>176</ele>
        <time>2017-08-22T08:45:15Z</time>
      </trkpt>
      <trkpt lat="45.91275" lon="4.77686">
        <ele>176</ele>
        <time>2017-08-22T08:45:16Z</time>
      </trkpt>
      <trkpt lat="45.91268" lon="4.77683">
        <ele>176</ele>
        <time>2017-08-22T08:45:17Z</time>
      </trkpt>
      <trkpt lat="45.91262" lon="4.7768">
        <ele>176</ele>
        <time>2017-08-22T08:45:18Z</time>
      </trkpt>
      <trkpt lat="45.91255" lon="4.77679">
        <ele>175</ele>
        <time>2017-08-22T08:45:19Z</time>
      </trkpt>
      <trkpt lat="45.91249" lon="4.77677">
        <ele>176</ele>
        <time>2017-08-22T08:45:20Z</time>
      </trkpt>
      <trkpt lat="45.91242" lon="4.77678">
        <ele>176</ele>
        <time>2017-08-22T08:45:21Z</time>
      </trkpt>
      <trkpt lat="45.91237" lon="4.77679">
        <ele>176</ele>
        <time>2017-08-22T08:45:22Z</time>
      </trkpt>
      <trkpt lat="45.91232" lon="4.77681">
        <ele>176</ele>
        <time>2017-08-22T08:45:23Z</time>
      </trkpt>
      <trkpt lat="45.91227" lon="4.77682">
        <ele>176</ele>
        <time>2017-08-22T08:45:24Z</time>
      </trkpt>
      <trkpt lat="45.91222" lon="4.77683">
        <ele>176</ele>
        <time>2017-08-22T08:45:25Z</time>
      </trkpt>
      <trkpt lat="45.91217" lon="4.77684">
        <ele>176</ele>
        <time>2017-08-22T08:45:26Z</time>
      </trkpt>
      <trkpt lat="45.91212" lon="4.77686">
        <ele>176</ele>
        <time>2017-08-22T08:45:27Z</time>
      </trkpt>
      <trkpt lat="45.91207" lon="4.77687">
        <ele>176</ele>
        <time>2017-08-22T08:45:28Z</time>
      </trkpt>
      <trkpt lat="45.91203" lon="4.77689">
        <ele>176</ele>
        <time>2017-08-22T08:45:29Z</time>
      </trkpt>
      <trkpt lat="45.91198" lon="4.77691">
        <ele>176</ele>
        <time>2017-08-22T08:45:30Z</time>
      </trkpt>
      <trkpt lat="45.91193" lon="4.77693">
        <ele>176</ele>
        <time>2017-08-22T08:45:31Z</time>
      </trkpt>
      <trkpt lat="45.91187" lon="4.77696">
        <ele>176</ele>
        <time>2017-08-22T08:45:32Z</time>
      </trkpt>
      <trkpt lat="45.91182" lon="4.77698">
        <ele>176</ele>
        <time>2017-08-22T08:45:33Z</time>
      </trkpt>
      <trkpt lat="45.91176" lon="4.777">
        <ele>176</ele>
        <time>2017-08-22T08:45:34Z</time>
      </trkpt>
      <trkpt lat="45.91169" lon="4.77701">
        <ele>176</ele>
        <time>2017-08-22T08:45:35Z</time>
      </trkpt>
      <trkpt lat="45.91164" lon="4.77704">
        <ele>177</ele>
        <time>2017-08-22T08:45:36Z</time>
      </trkpt>
      <trkpt lat="45.91158" lon="4.77706">
        <ele>177</ele>
        <time>2017-08-22T08:45:37Z</time>
      </trkpt>
      <trkpt lat="45.91151" lon="4.77708">
        <ele>177</ele>
        <time>2017-08-22T08:45:38Z</time>
      </trkpt>
      <trkpt lat="45.91146" lon="4.7771">
        <ele>177</ele>
        <time>2017-08-22T08:45:39Z</time>
      </trkpt>
      <trkpt lat="45.9114" lon="4.77712">
        <ele>177</ele>
        <time>2017-08-22T08:45:40Z</time>
      </trkpt>
      <trkpt lat="45.91135" lon="4.77713">
        <ele>177</ele>
        <time>2017-08-22T08:45:41Z</time>
      </trkpt>
      <trkpt lat="45.91129" lon="4.77715">
        <ele>177</ele>
        <time>2017-08-22T08:45:42Z</time>
      </trkpt>
      <trkpt lat="45.91124" lon="4.77717">
        <ele>177</ele>
        <time>2017-08-22T08:45:43Z</time>
      </trkpt>
      <trkpt lat="45.9112" lon="4.77719">
        <ele>177</ele>
        <time>2017-08-22T08:45:44Z</time>
      </trkpt>
      <trkpt lat="45.91115" lon="4.77722">
        <ele>178</ele>
        <time>2017-08-22T08:45:45Z</time>
      </trkpt>
      <trkpt lat="45.91111" lon="4.77725">
        <ele>178</ele>
        <time>2017-08-22T08:45:46Z</time>
      </trkpt>
      <trkpt lat="45.91106" lon="4.77729">
        <ele>178</ele>
        <time>2017-08-22T08:45:47Z</time>
      </trkpt>
      <trkpt lat="45.91101" lon="4.77731">
        <ele>178</ele>
        <time>2017-08-22T08:45:48Z</time>
      </trkpt>
      <trkpt lat="45.91097" lon="4.77734">
        <ele>178</ele>
        <time>2017-08-22T08:45:49Z</time>
      </trkpt>
      <trkpt lat="45.91092" lon="4.77737">
        <ele>178</ele>
        <time>2017-08-22T08:45:50Z</time>
      </trkpt>
      <trkpt lat="45.91087" lon="4.7774">
        <ele>178</ele>
        <time>2017-08-22T08:45:51Z</time>
      </trkpt>
      <trkpt lat="45.91082" lon="4.77743">
        <ele>179</ele>
        <time>2017-08-22T08:45:52Z</time>
      </trkpt>
      <trkpt lat="45.91077" lon="4.77747">
        <ele>179</ele>
        <time>2017-08-22T08:45:53Z</time>
      </trkpt>
      <trkpt lat="45.91072" lon="4.7775">
        <ele>179</ele>
        <time>2017-08-22T08:45:54Z</time>
      </trkpt>
      <trkpt lat="45.91067" lon="4.77753">
        <ele>179</ele>
        <time>2017-08-22T08:45:55Z</time>
      </trkpt>
      <trkpt lat="45.91062" lon="4.77756">
        <ele>178</ele>
        <time>2017-08-22T08:45:56Z</time>
      </trkpt>
      <trkpt lat="45.91058" lon="4.77758">
        <ele>178</ele>
        <time>2017-08-22T08:45:57Z</time>
      </trkpt>
      <trkpt lat="45.91053" lon="4.77761">
        <ele>178</ele>
        <time>2017-08-22T08:45:58Z</time>
      </trkpt>
      <trkpt lat="45.91048" lon="4.77763">
        <ele>178</ele>
        <time>2017-08-22T08:45:59Z</time>
      </trkpt>
      <trkpt lat="45.91043" lon="4.77765">
        <ele>178</ele>
        <time>2017-08-22T08:46:00Z</time>
      </trkpt>
      <trkpt lat="45.91038" lon="4.77768">
        <ele>178</ele>
        <time>2017-08-22T08:46:01Z</time>
      </trkpt>
      <trkpt lat="45.91033" lon="4.7777">
        <ele>178</ele>
        <time>2017-08-22T08:46:02Z</time>
      </trkpt>
      <trkpt lat="45.91027" lon="4.77772">
        <ele>178</ele>
        <time>2017-08-22T08:46:03Z</time>
      </trkpt>
      <trkpt lat="45.91022" lon="4.77774">
        <ele>178</ele>
        <time>2017-08-22T08:46:04Z</time>
      </trkpt>
      <trkpt lat="45.91017" lon="4.77775">
        <ele>178</ele>
        <time>2017-08-22T08:46:05Z</time>
      </trkpt>
      <trkpt lat="45.91012" lon="4.77776">
        <ele>178</ele>
        <time>2017-08-22T08:46:06Z</time>
      </trkpt>
      <trkpt lat="45.91008" lon="4.77777">
        <ele>178</ele>
        <time>2017-08-22T08:46:07Z</time>
      </trkpt>
      <trkpt lat="45.91003" lon="4.77778">
        <ele>178</ele>
        <time>2017-08-22T08:46:08Z</time>
      </trkpt>
      <trkpt lat="45.90994" lon="4.77779">
        <ele>177</ele>
        <time>2017-08-22T08:46:10Z</time>
      </trkpt>
      <trkpt lat="45.9099" lon="4.77781">
        <ele>177</ele>
        <time>2017-08-22T08:46:11Z</time>
      </trkpt>
      <trkpt lat="45.90981" lon="4.77783">
        <ele>177</ele>
        <time>2017-08-22T08:46:13Z</time>
      </trkpt>
      <trkpt lat="45.90976" lon="4.77784">
        <ele>177</ele>
        <time>2017-08-22T08:46:14Z</time>
      </trkpt>
      <trkpt lat="45.90972" lon="4.77784">
        <ele>177</ele>
        <time>2017-08-22T08:46:15Z</time>
      </trkpt>
      <trkpt lat="45.90966" lon="4.77783">
        <ele>177</ele>
        <time>2017-08-22T08:46:16Z</time>
      </trkpt>
      <trkpt lat="45.90962" lon="4.77781">
        <ele>177</ele>
        <time>2017-08-22T08:46:17Z</time>
      </trkpt>
      <trkpt lat="45.90957" lon="4.77779">
        <ele>177</ele>
        <time>2017-08-22T08:46:18Z</time>
      </trkpt>
      <trkpt lat="45.90953" lon="4.77776">
        <ele>177</ele>
        <time>2017-08-22T08:46:19Z</time>
      </trkpt>
      <trkpt lat="45.90948" lon="4.77772">
        <ele>177</ele>
        <time>2017-08-22T08:46:20Z</time>
      </trkpt>
      <trkpt lat="45.90943" lon="4.7777">
        <ele>177</ele>
        <time>2017-08-22T08:46:21Z</time>
      </trkpt>
      <trkpt lat="45.90938" lon="4.77769">
        <ele>177</ele>
        <time>2017-08-22T08:46:22Z</time>
      </trkpt>
      <trkpt lat="45.90933" lon="4.77768">
        <ele>177</ele>
        <time>2017-08-22T08:46:23Z</time>
      </trkpt>
      <trkpt lat="45.90929" lon="4.77766">
        <ele>177</ele>
        <time>2017-08-22T08:46:24Z</time>
      </trkpt>
      <trkpt lat="45.90925" lon="4.77762">
        <ele>176</ele>
        <time>2017-08-22T08:46:25Z</time>
      </trkpt>
      <trkpt lat="45.90921" lon="4.77758">
        <ele>176</ele>
        <time>2017-08-22T08:46:26Z</time>
      </trkpt>
      <trkpt lat="45.90917" lon="4.77754">
        <ele>176</ele>
        <time>2017-08-22T08:46:27Z</time>
      </trkpt>
      <trkpt lat="45.90913" lon="4.77749">
        <ele>176</ele>
        <time>2017-08-22T08:46:28Z</time>
      </trkpt>
      <trkpt lat="45.90909" lon="4.77745">
        <ele>176</ele>
        <time>2017-08-22T08:46:29Z</time>
      </trkpt>
      <trkpt lat="45.90906" lon="4.7774">
        <ele>177</ele>
        <time>2017-08-22T08:46:30Z</time>
      </trkpt>
      <trkpt lat="45.90902" lon="4.77736">
        <ele>177</ele>
        <time>2017-08-22T08:46:31Z</time>
      </trkpt>
      <trkpt lat="45.90899" lon="4.77732">
        <ele>177</ele>
        <time>2017-08-22T08:46:32Z</time>
      </trkpt>
      <trkpt lat="45.90895" lon="4.77728">
        <ele>177</ele>
        <time>2017-08-22T08:46:33Z</time>
      </trkpt>
      <trkpt lat="45.90891" lon="4.77723">
        <ele>177</ele>
        <time>2017-08-22T08:46:34Z</time>
      </trkpt>
      <trkpt lat="45.90888" lon="4.77719">
        <ele>177</ele>
        <time>2017-08-22T08:46:35Z</time>
      </trkpt>
      <trkpt lat="45.90884" lon="4.77715">
        <ele>177</ele>
        <time>2017-08-22T08:46:36Z</time>
      </trkpt>
      <trkpt lat="45.90877" lon="4.77708">
        <ele>177</ele>
        <time>2017-08-22T08:46:38Z</time>
      </trkpt>
      <trkpt lat="45.90874" lon="4.77705">
        <ele>178</ele>
        <time>2017-08-22T08:46:39Z</time>
      </trkpt>
      <trkpt lat="45.90867" lon="4.77698">
        <ele>178</ele>
        <time>2017-08-22T08:46:41Z</time>
      </trkpt>
      <trkpt lat="45.90864" lon="4.77696">
        <ele>178</ele>
        <time>2017-08-22T08:46:42Z</time>
      </trkpt>
      <trkpt lat="45.90857" lon="4.77691">
        <ele>178</ele>
        <time>2017-08-22T08:46:44Z</time>
      </trkpt>
      <trkpt lat="45.90853" lon="4.77688">
        <ele>178</ele>
        <time>2017-08-22T08:46:45Z</time>
      </trkpt>
      <trkpt lat="45.90849" lon="4.77685">
        <ele>178</ele>
        <time>2017-08-22T08:46:46Z</time>
      </trkpt>
      <trkpt lat="45.90844" lon="4.77682">
        <ele>178</ele>
        <time>2017-08-22T08:46:47Z</time>
      </trkpt>
      <trkpt lat="45.9084" lon="4.7768">
        <ele>178</ele>
        <time>2017-08-22T08:46:48Z</time>
      </trkpt>
      <trkpt lat="45.90835" lon="4.77677">
        <ele>179</ele>
        <time>2017-08-22T08:46:49Z</time>
      </trkpt>
      <trkpt lat="45.90827" lon="4.77674">
        <ele>179</ele>
        <time>2017-08-22T08:46:51Z</time>
      </trkpt>
      <trkpt lat="45.90822" lon="4.77672">
        <ele>179</ele>
        <time>2017-08-22T08:46:52Z</time>
      </trkpt>
      <trkpt lat="45.90814" lon="4.77669">
        <ele>179</ele>
        <time>2017-08-22T08:46:54Z</time>
      </trkpt>
      <trkpt lat="45.9081" lon="4.77668">
        <ele>179</ele>
        <time>2017-08-22T08:46:55Z</time>
      </trkpt>
      <trkpt lat="45.90801" lon="4.77665">
        <ele>179</ele>
        <time>2017-08-22T08:46:57Z</time>
      </trkpt>
      <trkpt lat="45.90797" lon="4.77664">
        <ele>179</ele>
        <time>2017-08-22T08:46:58Z</time>
      </trkpt>
      <trkpt lat="45.90789" lon="4.77662">
        <ele>179</ele>
        <time>2017-08-22T08:47:00Z</time>
      </trkpt>
      <trkpt lat="45.90785" lon="4.77662">
        <ele>179</ele>
        <time>2017-08-22T08:47:01Z</time>
      </trkpt>
      <trkpt lat="45.90776" lon="4.77659">
        <ele>180</ele>
        <time>2017-08-22T08:47:03Z</time>
      </trkpt>
      <trkpt lat="45.90772" lon="4.77657">
        <ele>180</ele>
        <time>2017-08-22T08:47:04Z</time>
      </trkpt>
      <trkpt lat="45.90764" lon="4.77652">
        <ele>180</ele>
        <time>2017-08-22T08:47:06Z</time>
      </trkpt>
      <trkpt lat="45.9076" lon="4.77649">
        <ele>180</ele>
        <time>2017-08-22T08:47:07Z</time>
      </trkpt>
      <trkpt lat="45.90753" lon="4.77642">
        <ele>180</ele>
        <time>2017-08-22T08:47:09Z</time>
      </trkpt>
      <trkpt lat="45.90749" lon="4.77641">
        <ele>180</ele>
        <time>2017-08-22T08:47:10Z</time>
      </trkpt>
      <trkpt lat="45.90743" lon="4.77641">
        <ele>180</ele>
        <time>2017-08-22T08:47:11Z</time>
      </trkpt>
      <trkpt lat="45.90738" lon="4.77641">
        <ele>180</ele>
        <time>2017-08-22T08:47:12Z</time>
      </trkpt>
      <trkpt lat="45.90732" lon="4.77641">
        <ele>180</ele>
        <time>2017-08-22T08:47:13Z</time>
      </trkpt>
      <trkpt lat="45.90727" lon="4.7764">
        <ele>180</ele>
        <time>2017-08-22T08:47:14Z</time>
      </trkpt>
      <trkpt lat="45.90722" lon="4.77639">
        <ele>180</ele>
        <time>2017-08-22T08:47:15Z</time>
      </trkpt>
      <trkpt lat="45.90716" lon="4.77638">
        <ele>179</ele>
        <time>2017-08-22T08:47:16Z</time>
      </trkpt>
      <trkpt lat="45.90711" lon="4.77636">
        <ele>179</ele>
        <time>2017-08-22T08:47:17Z</time>
      </trkpt>
      <trkpt lat="45.90705" lon="4.77634">
        <ele>179</ele>
        <time>2017-08-22T08:47:18Z</time>
      </trkpt>
      <trkpt lat="45.90699" lon="4.77633">
        <ele>179</ele>
        <time>2017-08-22T08:47:19Z</time>
      </trkpt>
      <trkpt lat="45.90693" lon="4.77631">
        <ele>179</ele>
        <time>2017-08-22T08:47:20Z</time>
      </trkpt>
      <trkpt lat="45.90687" lon="4.77629">
        <ele>179</ele>
        <time>2017-08-22T08:47:21Z</time>
      </trkpt>
      <trkpt lat="45.90681" lon="4.77628">
        <ele>179</ele>
        <time>2017-08-22T08:47:22Z</time>
      </trkpt>
      <trkpt lat="45.90674" lon="4.77626">
        <ele>179</ele>
        <time>2017-08-22T08:47:23Z</time>
      </trkpt>
      <trkpt lat="45.90668" lon="4.77625">
        <ele>179</ele>
        <time>2017-08-22T08:47:24Z</time>
      </trkpt>
      <trkpt lat="45.90661" lon="4.77624">
        <ele>179</ele>
        <time>2017-08-22T08:47:25Z</time>
      </trkpt>
      <trkpt lat="45.90655" lon="4.77623">
        <ele>179</ele>
        <time>2017-08-22T08:47:26Z</time>
      </trkpt>
      <trkpt lat="45.90649" lon="4.77622">
        <ele>179</ele>
        <time>2017-08-22T08:47:27Z</time>
      </trkpt>
      <trkpt lat="45.90642" lon="4.77622">
        <ele>179</ele>
        <time>2017-08-22T08:47:28Z</time>
      </trkpt>
      <trkpt lat="45.90636" lon="4.77621">
        <ele>179</ele>
        <time>2017-08-22T08:47:29Z</time>
      </trkpt>
      <trkpt lat="45.90629" lon="4.77621">
        <ele>179</ele>
        <time>2017-08-22T08:47:30Z</time>
      </trkpt>
      <trkpt lat="45.90623" lon="4.77622">
        <ele>179</ele>
        <time>2017-08-22T08:47:31Z</time>
      </trkpt>
      <trkpt lat="45.90616" lon="4.77622">
        <ele>179</ele>
        <time>2017-08-22T08:47:32Z</time>
      </trkpt>
      <trkpt lat="45.90609" lon="4.77621">
        <ele>179</ele>
        <time>2017-08-22T08:47:33Z</time>
      </trkpt>
      <trkpt lat="45.90602" lon="4.77622">
        <ele>179</ele>
        <time>2017-08-22T08:47:34Z</time>
      </trkpt>
      <trkpt lat="45.90595" lon="4.77622">
        <ele>179</ele>
        <time>2017-08-22T08:47:35Z</time>
      </trkpt>
      <trkpt lat="45.90588" lon="4.77623">
        <ele>179</ele>
        <time>2017-08-22T08:47:36Z</time>
      </trkpt>
      <trkpt lat="45.90581" lon="4.77625">
        <ele>178</ele>
        <time>2017-08-22T08:47:37Z</time>
      </trkpt>
      <trkpt lat="45.90575" lon="4.77627">
        <ele>178</ele>
        <time>2017-08-22T08:47:38Z</time>
      </trkpt>
      <trkpt lat="45.90568" lon="4.77629">
        <ele>178</ele>
        <time>2017-08-22T08:47:39Z</time>
      </trkpt>
      <trkpt lat="45.90561" lon="4.77629">
        <ele>178</ele>
        <time>2017-08-22T08:47:40Z</time>
      </trkpt>
      <trkpt lat="45.90555" lon="4.7763">
        <ele>178</ele>
        <time>2017-08-22T08:47:41Z</time>
      </trkpt>
      <trkpt lat="45.90549" lon="4.77631">
        <ele>178</ele>
        <time>2017-08-22T08:47:42Z</time>
      </trkpt>
      <trkpt lat="45.90542" lon="4.77632">
        <ele>178</ele>
        <time>2017-08-22T08:47:43Z</time>
      </trkpt>
      <trkpt lat="45.90537" lon="4.77633">
        <ele>178</ele>
        <time>2017-08-22T08:47:44Z</time>
      </trkpt>
      <trkpt lat="45.90531" lon="4.77634">
        <ele>178</ele>
        <time>2017-08-22T08:47:45Z</time>
      </trkpt>
      <trkpt lat="45.90525" lon="4.77635">
        <ele>178</ele>
        <time>2017-08-22T08:47:46Z</time>
      </trkpt>
      <trkpt lat="45.90519" lon="4.77636">
        <ele>178</ele>
        <time>2017-08-22T08:47:47Z</time>
      </trkpt>
      <trkpt lat="45.90513" lon="4.77637">
        <ele>178</ele>
        <time>2017-08-22T08:47:48Z</time>
      </trkpt>
      <trkpt lat="45.90507" lon="4.77637">
        <ele>178</ele>
        <time>2017-08-22T08:47:49Z</time>
      </trkpt>
      <trkpt lat="45.90501" lon="4.77639">
        <ele>178</ele>
        <time>2017-08-22T08:47:50Z</time>
      </trkpt>
      <trkpt lat="45.90495" lon="4.7764">
        <ele>179</ele>
        <time>2017-08-22T08:47:51Z</time>
      </trkpt>
      <trkpt lat="45.90489" lon="4.77641">
        <ele>179</ele>
        <time>2017-08-22T08:47:52Z</time>
      </trkpt>
      <trkpt lat="45.90483" lon="4.77642">
        <ele>179</ele>
        <time>2017-08-22T08:47:53Z</time>
      </trkpt>
      <trkpt lat="45.90477" lon="4.77644">
        <ele>179</ele>
        <time>2017-08-22T08:47:54Z</time>
      </trkpt>
      <trkpt lat="45.90471" lon="4.77645">
        <ele>179</ele>
        <time>2017-08-22T08:47:55Z</time>
      </trkpt>
      <trkpt lat="45.90464" lon="4.77646">
        <ele>179</ele>
        <time>2017-08-22T08:47:56Z</time>
      </trkpt>
      <trkpt lat="45.90458" lon="4.77647">
        <ele>179</ele>
        <time>2017-08-22T08:47:57Z</time>
      </trkpt>
      <trkpt lat="45.90452" lon="4.77648">
        <ele>179</ele>
        <time>2017-08-22T08:47:58Z</time>
      </trkpt>
      <trkpt lat="45.90446" lon="4.77649">
        <ele>179</ele>
        <time>2017-08-22T08:47:59Z</time>
      </trkpt>
      <trkpt lat="45.90441" lon="4.7765">
        <ele>180</ele>
        <time>2017-08-22T08:48:00Z</time>
      </trkpt>
      <trkpt lat="45.90435" lon="4.7765">
        <ele>180</ele>
        <time>2017-08-22T08:48:01Z</time>
      </trkpt>
      <trkpt lat="45.9043" lon="4.77651">
        <ele>180</ele>
        <time>2017-08-22T08:48:02Z</time>
      </trkpt>
      <trkpt lat="45.90424" lon="4.77652">
        <ele>180</ele>
        <time>2017-08-22T08:48:03Z</time>
      </trkpt>
      <trkpt lat="45.90419" lon="4.77652">
        <ele>180</ele>
        <time>2017-08-22T08:48:04Z</time>
      </trkpt>
      <trkpt lat="45.90414" lon="4.77653">
        <ele>181</ele>
        <time>2017-08-22T08:48:05Z</time>
      </trkpt>
      <trkpt lat="45.90408" lon="4.77654">
        <ele>181</ele>
        <time>2017-08-22T08:48:06Z</time>
      </trkpt>
      <trkpt lat="45.90403" lon="4.77656">
        <ele>181</ele>
        <time>2017-08-22T08:48:07Z</time>
      </trkpt>
      <trkpt lat="45.90397" lon="4.77657">
        <ele>181</ele>
        <time>2017-08-22T08:48:08Z</time>
      </trkpt>
      <trkpt lat="45.90392" lon="4.77658">
        <ele>181</ele>
        <time>2017-08-22T08:48:09Z</time>
      </trkpt>
      <trkpt lat="45.90386" lon="4.77659">
        <ele>181</ele>
        <time>2017-08-22T08:48:10Z</time>
      </trkpt>
      <trkpt lat="45.9038" lon="4.77659">
        <ele>181</ele>
        <time>2017-08-22T08:48:11Z</time>
      </trkpt>
      <trkpt lat="45.90375" lon="4.7766">
        <ele>181</ele>
        <time>2017-08-22T08:48:12Z</time>
      </trkpt>
      <trkpt lat="45.9037" lon="4.7766">
        <ele>181</ele>
        <time>2017-08-22T08:48:13Z</time>
      </trkpt>
      <trkpt lat="45.90364" lon="4.77661">
        <ele>181</ele>
        <time>2017-08-22T08:48:14Z</time>
      </trkpt>
      <trkpt lat="45.90358" lon="4.77662">
        <ele>181</ele>
        <time>2017-08-22T08:48:15Z</time>
      </trkpt>
      <trkpt lat="45.90354" lon="4.77662">
        <ele>181</ele>
        <time>2017-08-22T08:48:16Z</time>
      </trkpt>
      <trkpt lat="45.90349" lon="4.77663">
        <ele>181</ele>
        <time>2017-08-22T08:48:17Z</time>
      </trkpt>
      <trkpt lat="45.90344" lon="4.77663">
        <ele>181</ele>
        <time>2017-08-22T08:48:18Z</time>
      </trkpt>
      <trkpt lat="45.90336" lon="4.77665">
        <ele>182</ele>
        <time>2017-08-22T08:48:20Z</time>
      </trkpt>
      <trkpt lat="45.90331" lon="4.77665">
        <ele>182</ele>
        <time>2017-08-22T08:48:21Z</time>
      </trkpt>
      <trkpt lat="45.90326" lon="4.77665">
        <ele>182</ele>
        <time>2017-08-22T08:48:22Z</time>
      </trkpt>
      <trkpt lat="45.90321" lon="4.77666">
        <ele>182</ele>
        <time>2017-08-22T08:48:23Z</time>
      </trkpt>
      <trkpt lat="45.90316" lon="4.77666">
        <ele>182</ele>
        <time>2017-08-22T08:48:24Z</time>
      </trkpt>
      <trkpt lat="45.90311" lon="4.77667">
        <ele>182</ele>
        <time>2017-08-22T08:48:25Z</time>
      </trkpt>
      <trkpt lat="45.90306" lon="4.77668">
        <ele>182</ele>
        <time>2017-08-22T08:48:26Z</time>
      </trkpt>
      <trkpt lat="45.90301" lon="4.77668">
        <ele>182</ele>
        <time>2017-08-22T08:48:27Z</time>
      </trkpt>
      <trkpt lat="45.90295" lon="4.77669">
        <ele>182</ele>
        <time>2017-08-22T08:48:28Z</time>
      </trkpt>
      <trkpt lat="45.9029" lon="4.77669">
        <ele>182</ele>
        <time>2017-08-22T08:48:29Z</time>
      </trkpt>
      <trkpt lat="45.90285" lon="4.77669">
        <ele>182</ele>
        <time>2017-08-22T08:48:30Z</time>
      </trkpt>
      <trkpt lat="45.9028" lon="4.77669">
        <ele>182</ele>
        <time>2017-08-22T08:48:31Z</time>
      </trkpt>
      <trkpt lat="45.90274" lon="4.7767">
        <ele>182</ele>
        <time>2017-08-22T08:48:32Z</time>
      </trkpt>
      <trkpt lat="45.90269" lon="4.7767">
        <ele>182</ele>
        <time>2017-08-22T08:48:33Z</time>
      </trkpt>
      <trkpt lat="45.90264" lon="4.7767">
        <ele>182</ele>
        <time>2017-08-22T08:48:34Z</time>
      </trkpt>
      <trkpt lat="45.90259" lon="4.7767">
        <ele>182</ele>
        <time>2017-08-22T08:48:35Z</time>
      </trkpt>
      <trkpt lat="45.90254" lon="4.77671">
        <ele>182</ele>
        <time>2017-08-22T08:48:36Z</time>
      </trkpt>
      <trkpt lat="45.90249" lon="4.77671">
        <ele>182</ele>
        <time>2017-08-22T08:48:37Z</time>
      </trkpt>
      <trkpt lat="45.90243" lon="4.77671">
        <ele>183</ele>
        <time>2017-08-22T08:48:38Z</time>
      </trkpt>
      <trkpt lat="45.90238" lon="4.77671">
        <ele>183</ele>
        <time>2017-08-22T08:48:39Z</time>
      </trkpt>
      <trkpt lat="45.90233" lon="4.77671">
        <ele>183</ele>
        <time>2017-08-22T08:48:40Z</time>
      </trkpt>
      <trkpt lat="45.90227" lon="4.77671">
        <ele>184</ele>
        <time>2017-08-22T08:48:41Z</time>
      </trkpt>
      <trkpt lat="45.90222" lon="4.77671">
        <ele>184</ele>
        <time>2017-08-22T08:48:42Z</time>
      </trkpt>
      <trkpt lat="45.90217" lon="4.77671">
        <ele>184</ele>
        <time>2017-08-22T08:48:43Z</time>
      </trkpt>
      <trkpt lat="45.90211" lon="4.77671">
        <ele>184</ele>
        <time>2017-08-22T08:48:44Z</time>
      </trkpt>
      <trkpt lat="45.90206" lon="4.77671">
        <ele>184</ele>
        <time>2017-08-22T08:48:45Z</time>
      </trkpt>
      <trkpt lat="45.902" lon="4.77671">
        <ele>184</ele>
        <time>2017-08-22T08:48:46Z</time>
      </trkpt>
      <trkpt lat="45.90195" lon="4.7767">
        <ele>184</ele>
        <time>2017-08-22T08:48:47Z</time>
      </trkpt>
      <trkpt lat="45.90189" lon="4.7767">
        <ele>185</ele>
        <time>2017-08-22T08:48:48Z</time>
      </trkpt>
      <trkpt lat="45.90184" lon="4.7767">
        <ele>185</ele>
        <time>2017-08-22T08:48:49Z</time>
      </trkpt>
      <trkpt lat="45.90178" lon="4.7767">
        <ele>185</ele>
        <time>2017-08-22T08:48:50Z</time>
      </trkpt>
      <trkpt lat="45.90172" lon="4.7767">
        <ele>185</ele>
        <time>2017-08-22T08:48:51Z</time>
      </trkpt>
      <trkpt lat="45.90166" lon="4.7767">
        <ele>185</ele>
        <time>2017-08-22T08:48:52Z</time>
      </trkpt>
      <trkpt lat="45.90161" lon="4.7767">
        <ele>185</ele>
        <time>2017-08-22T08:48:53Z</time>
      </trkpt>
      <trkpt lat="45.90155" lon="4.7767">
        <ele>185</ele>
        <time>2017-08-22T08:48:54Z</time>
      </trkpt>
      <trkpt lat="45.9015" lon="4.77669">
        <ele>185</ele>
        <time>2017-08-22T08:48:55Z</time>
      </trkpt>
      <trkpt lat="45.90145" lon="4.77669">
        <ele>185</ele>
        <time>2017-08-22T08:48:56Z</time>
      </trkpt>
      <trkpt lat="45.9014" lon="4.77668">
        <ele>185</ele>
        <time>2017-08-22T08:48:57Z</time>
      </trkpt>
      <trkpt lat="45.90136" lon="4.77668">
        <ele>185</ele>
        <time>2017-08-22T08:48:58Z</time>
      </trkpt>
      <trkpt lat="45.90131" lon="4.77668">
        <ele>185</ele>
        <time>2017-08-22T08:48:59Z</time>
      </trkpt>
      <trkpt lat="45.90122" lon="4.77667">
        <ele>184</ele>
        <time>2017-08-22T08:49:01Z</time>
      </trkpt>
      <trkpt lat="45.90118" lon="4.77668">
        <ele>184</ele>
        <time>2017-08-22T08:49:02Z</time>
      </trkpt>
      <trkpt lat="45.9011" lon="4.77668">
        <ele>184</ele>
        <time>2017-08-22T08:49:04Z</time>
      </trkpt>
      <trkpt lat="45.90106" lon="4.77668">
        <ele>184</ele>
        <time>2017-08-22T08:49:05Z</time>
      </trkpt>
      <trkpt lat="45.90097" lon="4.77668">
        <ele>184</ele>
        <time>2017-08-22T08:49:07Z</time>
      </trkpt>
      <trkpt lat="45.90093" lon="4.77669">
        <ele>184</ele>
        <time>2017-08-22T08:49:08Z</time>
      </trkpt>
      <trkpt lat="45.90088" lon="4.77669">
        <ele>183</ele>
        <time>2017-08-22T08:49:09Z</time>
      </trkpt>
      <trkpt lat="45.90083" lon="4.77669">
        <ele>183</ele>
        <time>2017-08-22T08:49:10Z</time>
      </trkpt>
      <trkpt lat="45.90078" lon="4.77668">
        <ele>183</ele>
        <time>2017-08-22T08:49:11Z</time>
      </trkpt>
      <trkpt lat="45.90073" lon="4.77668">
        <ele>184</ele>
        <time>2017-08-22T08:49:12Z</time>
      </trkpt>
      <trkpt lat="45.90067" lon="4.77667">
        <ele>184</ele>
        <time>2017-08-22T08:49:13Z</time>
      </trkpt>
      <trkpt lat="45.90062" lon="4.77666">
        <ele>183</ele>
        <time>2017-08-22T08:49:14Z</time>
      </trkpt>
      <trkpt lat="45.90056" lon="4.77666">
        <ele>183</ele>
        <time>2017-08-22T08:49:15Z</time>
      </trkpt>
      <trkpt lat="45.90051" lon="4.77666">
        <ele>184</ele>
        <time>2017-08-22T08:49:16Z</time>
      </trkpt>
      <trkpt lat="45.90045" lon="4.77666">
        <ele>184</ele>
        <time>2017-08-22T08:49:17Z</time>
      </trkpt>
      <trkpt lat="45.90039" lon="4.77665">
        <ele>184</ele>
        <time>2017-08-22T08:49:18Z</time>
      </trkpt>
      <trkpt lat="45.90034" lon="4.77665">
        <ele>184</ele>
        <time>2017-08-22T08:49:19Z</time>
      </trkpt>
      <trkpt lat="45.90029" lon="4.77664">
        <ele>184</ele>
        <time>2017-08-22T08:49:20Z</time>
      </trkpt>
      <trkpt lat="45.90023" lon="4.77664">
        <ele>184</ele>
        <time>2017-08-22T08:49:21Z</time>
      </trkpt>
      <trkpt lat="45.90018" lon="4.77664">
        <ele>185</ele>
        <time>2017-08-22T08:49:22Z</time>
      </trkpt>
      <trkpt lat="45.90012" lon="4.77664">
        <ele>185</ele>
        <time>2017-08-22T08:49:23Z</time>
      </trkpt>
      <trkpt lat="45.90007" lon="4.77664">
        <ele>185</ele>
        <time>2017-08-22T08:49:24Z</time>
      </trkpt>
      <trkpt lat="45.90002" lon="4.77665">
        <ele>186</ele>
        <time>2017-08-22T08:49:25Z</time>
      </trkpt>
      <trkpt lat="45.89996" lon="4.77664">
        <ele>186</ele>
        <time>2017-08-22T08:49:26Z</time>
      </trkpt>
      <trkpt lat="45.89991" lon="4.77665">
        <ele>186</ele>
        <time>2017-08-22T08:49:27Z</time>
      </trkpt>
      <trkpt lat="45.89986" lon="4.77665">
        <ele>185</ele>
        <time>2017-08-22T08:49:28Z</time>
      </trkpt>
      <trkpt lat="45.8998" lon="4.77664">
        <ele>185</ele>
        <time>2017-08-22T08:49:29Z</time>
      </trkpt>
      <trkpt lat="45.89975" lon="4.77665">
        <ele>185</ele>
        <time>2017-08-22T08:49:30Z</time>
      </trkpt>
      <trkpt lat="45.8997" lon="4.77664">
        <ele>185</ele>
        <time>2017-08-22T08:49:31Z</time>
      </trkpt>
      <trkpt lat="45.89965" lon="4.77663">
        <ele>185</ele>
        <time>2017-08-22T08:49:32Z</time>
      </trkpt>
      <trkpt lat="45.8996" lon="4.77662">
        <ele>185</ele>
        <time>2017-08-22T08:49:33Z</time>
      </trkpt>
      <trkpt lat="45.89955" lon="4.77661">
        <ele>185</ele>
        <time>2017-08-22T08:49:34Z</time>
      </trkpt>
      <trkpt lat="45.8995" lon="4.77661">
        <ele>185</ele>
        <time>2017-08-22T08:49:35Z</time>
      </trkpt>
      <trkpt lat="45.89945" lon="4.77661">
        <ele>185</ele>
        <time>2017-08-22T08:49:36Z</time>
      </trkpt>
      <trkpt lat="45.8994" lon="4.7766">
        <ele>186</ele>
        <time>2017-08-22T08:49:37Z</time>
      </trkpt>
      <trkpt lat="45.89935" lon="4.7766">
        <ele>186</ele>
        <time>2017-08-22T08:49:38Z</time>
      </trkpt>
      <trkpt lat="45.8993" lon="4.7766">
        <ele>186</ele>
        <time>2017-08-22T08:49:39Z</time>
      </trkpt>
      <trkpt lat="45.89925" lon="4.7766">
        <ele>186</ele>
        <time>2017-08-22T08:49:40Z</time>
      </trkpt>
      <trkpt lat="45.89919" lon="4.77661">
        <ele>186</ele>
        <time>2017-08-22T08:49:41Z</time>
      </trkpt>
      <trkpt lat="45.89914" lon="4.77661">
        <ele>187</ele>
        <time>2017-08-22T08:49:42Z</time>
      </trkpt>
      <trkpt lat="45.89909" lon="4.77661">
        <ele>186</ele>
        <time>2017-08-22T08:49:43Z</time>
      </trkpt>
      <trkpt lat="45.89905" lon="4.77661">
        <ele>186</ele>
        <time>2017-08-22T08:49:44Z</time>
      </trkpt>
      <trkpt lat="45.899" lon="4.77661">
        <ele>186</ele>
        <time>2017-08-22T08:49:45Z</time>
      </trkpt>
      <trkpt lat="45.89895" lon="4.77662">
        <ele>186</ele>
        <time>2017-08-22T08:49:46Z</time>
      </trkpt>
      <trkpt lat="45.8989" lon="4.77662">
        <ele>186</ele>
        <time>2017-08-22T08:49:47Z</time>
      </trkpt>
      <trkpt lat="45.89885" lon="4.77662">
        <ele>186</ele>
        <time>2017-08-22T08:49:48Z</time>
      </trkpt>
      <trkpt lat="45.8988" lon="4.77661">
        <ele>186</ele>
        <time>2017-08-22T08:49:49Z</time>
      </trkpt>
      <trkpt lat="45.89875" lon="4.77661">
        <ele>186</ele>
        <time>2017-08-22T08:49:50Z</time>
      </trkpt>
      <trkpt lat="45.8987" lon="4.77661">
        <ele>186</ele>
        <time>2017-08-22T08:49:51Z</time>
      </trkpt>
      <trkpt lat="45.89865" lon="4.7766">
        <ele>186</ele>
        <time>2017-08-22T08:49:52Z</time>
      </trkpt>
      <trkpt lat="45.89861" lon="4.7766">
        <ele>187</ele>
        <time>2017-08-22T08:49:53Z</time>
      </trkpt>
      <trkpt lat="45.89856" lon="4.7766">
        <ele>187</ele>
        <time>2017-08-22T08:49:54Z</time>
      </trkpt>
      <trkpt lat="45.89848" lon="4.77662">
        <ele>187</ele>
        <time>2017-08-22T08:49:56Z</time>
      </trkpt>
      <trkpt lat="45.89844" lon="4.77662">
        <ele>188</ele>
        <time>2017-08-22T08:49:57Z</time>
      </trkpt>
      <trkpt lat="45.89839" lon="4.77662">
        <ele>188</ele>
        <time>2017-08-22T08:49:58Z</time>
      </trkpt>
      <trkpt lat="45.89834" lon="4.77662">
        <ele>188</ele>
        <time>2017-08-22T08:49:59Z</time>
      </trkpt>
      <trkpt lat="45.89829" lon="4.77662">
        <ele>189</ele>
        <time>2017-08-22T08:50:00Z</time>
      </trkpt>
      <trkpt lat="45.89824" lon="4.77661">
        <ele>189</ele>
        <time>2017-08-22T08:50:01Z</time>
      </trkpt>
      <trkpt lat="45.89819" lon="4.77662">
        <ele>188</ele>
        <time>2017-08-22T08:50:02Z</time>
      </trkpt>
      <trkpt lat="45.89814" lon="4.77661">
        <ele>188</ele>
        <time>2017-08-22T08:50:03Z</time>
      </trkpt>
      <trkpt lat="45.89809" lon="4.77661">
        <ele>188</ele>
        <time>2017-08-22T08:50:04Z</time>
      </trkpt>
      <trkpt lat="45.89804" lon="4.77661">
        <ele>188</ele>
        <time>2017-08-22T08:50:05Z</time>
      </trkpt>
      <trkpt lat="45.89799" lon="4.7766">
        <ele>189</ele>
        <time>2017-08-22T08:50:06Z</time>
      </trkpt>
      <trkpt lat="45.89794" lon="4.7766">
        <ele>189</ele>
        <time>2017-08-22T08:50:07Z</time>
      </trkpt>
      <trkpt lat="45.89789" lon="4.7766">
        <ele>189</ele>
        <time>2017-08-22T08:50:08Z</time>
      </trkpt>
      <trkpt lat="45.89784" lon="4.7766">
        <ele>189</ele>
        <time>2017-08-22T08:50:09Z</time>
      </trkpt>
      <trkpt lat="45.89776" lon="4.77659">
        <ele>189</ele>
        <time>2017-08-22T08:50:11Z</time>
      </trkpt>
      <trkpt lat="45.89773" lon="4.7766">
        <ele>190</ele>
        <time>2017-08-22T08:50:12Z</time>
      </trkpt>
      <trkpt lat="45.89765" lon="4.77659">
        <ele>190</ele>
        <time>2017-08-22T08:50:14Z</time>
      </trkpt>
      <trkpt lat="45.89762" lon="4.77659">
        <ele>190</ele>
        <time>2017-08-22T08:50:15Z</time>
      </trkpt>
      <trkpt lat="45.89754" lon="4.77657">
        <ele>191</ele>
        <time>2017-08-22T08:50:17Z</time>
      </trkpt>
      <trkpt lat="45.89751" lon="4.77657">
        <ele>191</ele>
        <time>2017-08-22T08:50:18Z</time>
      </trkpt>
      <trkpt lat="45.89742" lon="4.77655">
        <ele>191</ele>
        <time>2017-08-22T08:50:20Z</time>
      </trkpt>
      <trkpt lat="45.89738" lon="4.77654">
        <ele>191</ele>
        <time>2017-08-22T08:50:21Z</time>
      </trkpt>
      <trkpt lat="45.89729" lon="4.77652">
        <ele>191</ele>
        <time>2017-08-22T08:50:23Z</time>
      </trkpt>
      <trkpt lat="45.89725" lon="4.77652">
        <ele>190</ele>
        <time>2017-08-22T08:50:24Z</time>
      </trkpt>
      <trkpt lat="45.8972" lon="4.77651">
        <ele>190</ele>
        <time>2017-08-22T08:50:25Z</time>
      </trkpt>
      <trkpt lat="45.89716" lon="4.7765">
        <ele>190</ele>
        <time>2017-08-22T08:50:26Z</time>
      </trkpt>
      <trkpt lat="45.89711" lon="4.77649">
        <ele>190</ele>
        <time>2017-08-22T08:50:27Z</time>
      </trkpt>
      <trkpt lat="45.89706" lon="4.77648">
        <ele>190</ele>
        <time>2017-08-22T08:50:28Z</time>
      </trkpt>
      <trkpt lat="45.89702" lon="4.77647">
        <ele>190</ele>
        <time>2017-08-22T08:50:29Z</time>
      </trkpt>
      <trkpt lat="45.89697" lon="4.77646">
        <ele>190</ele>
        <time>2017-08-22T08:50:30Z</time>
      </trkpt>
      <trkpt lat="45.89692" lon="4.77645">
        <ele>190</ele>
        <time>2017-08-22T08:50:31Z</time>
      </trkpt>
      <trkpt lat="45.89687" lon="4.77645">
        <ele>190</ele>
        <time>2017-08-22T08:50:32Z</time>
      </trkpt>
      <trkpt lat="45.89679" lon="4.77644">
        <ele>190</ele>
        <time>2017-08-22T08:50:34Z</time>
      </trkpt>
      <trkpt lat="45.89674" lon="4.77643">
        <ele>190</ele>
        <time>2017-08-22T08:50:35Z</time>
      </trkpt>
      <trkpt lat="45.8967" lon="4.77642">
        <ele>190</ele>
        <time>2017-08-22T08:50:36Z</time>
      </trkpt>
      <trkpt lat="45.89665" lon="4.77641">
        <ele>190</ele>
        <time>2017-08-22T08:50:37Z</time>
      </trkpt>
      <trkpt lat="45.8966" lon="4.7764">
        <ele>190</ele>
        <time>2017-08-22T08:50:38Z</time>
      </trkpt>
      <trkpt lat="45.89655" lon="4.77639">
        <ele>190</ele>
        <time>2017-08-22T08:50:39Z</time>
      </trkpt>
      <trkpt lat="45.8965" lon="4.77639">
        <ele>190</ele>
        <time>2017-08-22T08:50:40Z</time>
      </trkpt>
      <trkpt lat="45.89645" lon="4.77638">
        <ele>190</ele>
        <time>2017-08-22T08:50:41Z</time>
      </trkpt>
      <trkpt lat="45.8964" lon="4.77637">
        <ele>190</ele>
        <time>2017-08-22T08:50:42Z</time>
      </trkpt>
      <trkpt lat="45.89635" lon="4.77637">
        <ele>190</ele>
        <time>2017-08-22T08:50:43Z</time>
      </trkpt>
      <trkpt lat="45.8963" lon="4.77636">
        <ele>190</ele>
        <time>2017-08-22T08:50:44Z</time>
      </trkpt>
      <trkpt lat="45.89625" lon="4.77635">
        <ele>191</ele>
        <time>2017-08-22T08:50:45Z</time>
      </trkpt>
      <trkpt lat="45.8962" lon="4.77634">
        <ele>191</ele>
        <time>2017-08-22T08:50:46Z</time>
      </trkpt>
      <trkpt lat="45.89615" lon="4.77633">
        <ele>191</ele>
        <time>2017-08-22T08:50:47Z</time>
      </trkpt>
      <trkpt lat="45.8961" lon="4.77633">
        <ele>191</ele>
        <time>2017-08-22T08:50:48Z</time>
      </trkpt>
      <trkpt lat="45.89605" lon="4.77632">
        <ele>191</ele>
        <time>2017-08-22T08:50:49Z</time>
      </trkpt>
      <trkpt lat="45.896" lon="4.77631">
        <ele>191</ele>
        <time>2017-08-22T08:50:50Z</time>
      </trkpt>
      <trkpt lat="45.89595" lon="4.7763">
        <ele>191</ele>
        <time>2017-08-22T08:50:51Z</time>
      </trkpt>
      <trkpt lat="45.8959" lon="4.7763">
        <ele>191</ele>
        <time>2017-08-22T08:50:52Z</time>
      </trkpt>
      <trkpt lat="45.89584" lon="4.77629">
        <ele>191</ele>
        <time>2017-08-22T08:50:53Z</time>
      </trkpt>
      <trkpt lat="45.89579" lon="4.77627">
        <ele>192</ele>
        <time>2017-08-22T08:50:54Z</time>
      </trkpt>
      <trkpt lat="45.89574" lon="4.77626">
        <ele>192</ele>
        <time>2017-08-22T08:50:55Z</time>
      </trkpt>
      <trkpt lat="45.89568" lon="4.77625">
        <ele>192</ele>
        <time>2017-08-22T08:50:56Z</time>
      </trkpt>
      <trkpt lat="45.89563" lon="4.77624">
        <ele>192</ele>
        <time>2017-08-22T08:50:57Z</time>
      </trkpt>
      <trkpt lat="45.89558" lon="4.77622">
        <ele>192</ele>
        <time>2017-08-22T08:50:58Z</time>
      </trkpt>
      <trkpt lat="45.89553" lon="4.77621">
        <ele>192</ele>
        <time>2017-08-22T08:50:59Z</time>
      </trkpt>
      <trkpt lat="45.89547" lon="4.77621">
        <ele>192</ele>
        <time>2017-08-22T08:51:00Z</time>
      </trkpt>
      <trkpt lat="45.89542" lon="4.7762">
        <ele>192</ele>
        <time>2017-08-22T08:51:01Z</time>
      </trkpt>
      <trkpt lat="45.89538" lon="4.77619">
        <ele>192</ele>
        <time>2017-08-22T08:51:02Z</time>
      </trkpt>
      <trkpt lat="45.89533" lon="4.77618">
        <ele>192</ele>
        <time>2017-08-22T08:51:03Z</time>
      </trkpt>
      <trkpt lat="45.89528" lon="4.77617">
        <ele>192</ele>
        <time>2017-08-22T08:51:04Z</time>
      </trkpt>
      <trkpt lat="45.89523" lon="4.77616">
        <ele>192</ele>
        <time>2017-08-22T08:51:05Z</time>
      </trkpt>
      <trkpt lat="45.89519" lon="4.77615">
        <ele>192</ele>
        <time>2017-08-22T08:51:06Z</time>
      </trkpt>
      <trkpt lat="45.89514" lon="4.77614">
        <ele>192</ele>
        <time>2017-08-22T08:51:07Z</time>
      </trkpt>
      <trkpt lat="45.89509" lon="4.77613">
        <ele>192</ele>
        <time>2017-08-22T08:51:08Z</time>
      </trkpt>
      <trkpt lat="45.89504" lon="4.77612">
        <ele>192</ele>
        <time>2017-08-22T08:51:09Z</time>
      </trkpt>
      <trkpt lat="45.89498" lon="4.7761">
        <ele>193</ele>
        <time>2017-08-22T08:51:10Z</time>
      </trkpt>
      <trkpt lat="45.89493" lon="4.77609">
        <ele>193</ele>
        <time>2017-08-22T08:51:11Z</time>
      </trkpt>
      <trkpt lat="45.89488" lon="4.77607">
        <ele>193</ele>
        <time>2017-08-22T08:51:12Z</time>
      </trkpt>
      <trkpt lat="45.89484" lon="4.77605">
        <ele>193</ele>
        <time>2017-08-22T08:51:13Z</time>
      </trkpt>
      <trkpt lat="45.89479" lon="4.77604">
        <ele>193</ele>
        <time>2017-08-22T08:51:14Z</time>
      </trkpt>
      <trkpt lat="45.89474" lon="4.77602">
        <ele>193</ele>
        <time>2017-08-22T08:51:15Z</time>
      </trkpt>
      <trkpt lat="45.89468" lon="4.776">
        <ele>193</ele>
        <time>2017-08-22T08:51:16Z</time>
      </trkpt>
      <trkpt lat="45.89463" lon="4.77599">
        <ele>193</ele>
        <time>2017-08-22T08:51:17Z</time>
      </trkpt>
      <trkpt lat="45.89458" lon="4.77597">
        <ele>193</ele>
        <time>2017-08-22T08:51:18Z</time>
      </trkpt>
      <trkpt lat="45.89453" lon="4.77595">
        <ele>193</ele>
        <time>2017-08-22T08:51:19Z</time>
      </trkpt>
      <trkpt lat="45.89448" lon="4.77593">
        <ele>193</ele>
        <time>2017-08-22T08:51:20Z</time>
      </trkpt>
      <trkpt lat="45.89443" lon="4.77591">
        <ele>193</ele>
        <time>2017-08-22T08:51:21Z</time>
      </trkpt>
      <trkpt lat="45.89438" lon="4.77589">
        <ele>193</ele>
        <time>2017-08-22T08:51:22Z</time>
      </trkpt>
      <trkpt lat="45.89432" lon="4.77587">
        <ele>194</ele>
        <time>2017-08-22T08:51:23Z</time>
      </trkpt>
      <trkpt lat="45.89427" lon="4.77584">
        <ele>194</ele>
        <time>2017-08-22T08:51:24Z</time>
      </trkpt>
      <trkpt lat="45.89421" lon="4.77582">
        <ele>194</ele>
        <time>2017-08-22T08:51:25Z</time>
      </trkpt>
      <trkpt lat="45.89416" lon="4.7758">
        <ele>194</ele>
        <time>2017-08-22T08:51:26Z</time>
      </trkpt>
      <trkpt lat="45.89411" lon="4.77577">
        <ele>194</ele>
        <time>2017-08-22T08:51:27Z</time>
      </trkpt>
      <trkpt lat="45.89405" lon="4.77575">
        <ele>194</ele>
        <time>2017-08-22T08:51:28Z</time>
      </trkpt>
      <trkpt lat="45.894" lon="4.77573">
        <ele>194</ele>
        <time>2017-08-22T08:51:29Z</time>
      </trkpt>
      <trkpt lat="45.89394" lon="4.77571">
        <ele>194</ele>
        <time>2017-08-22T08:51:30Z</time>
      </trkpt>
      <trkpt lat="45.89389" lon="4.77569">
        <ele>194</ele>
        <time>2017-08-22T08:51:31Z</time>
      </trkpt>
      <trkpt lat="45.89383" lon="4.77567">
        <ele>194</ele>
        <time>2017-08-22T08:51:32Z</time>
      </trkpt>
      <trkpt lat="45.89377" lon="4.77565">
        <ele>194</ele>
        <time>2017-08-22T08:51:33Z</time>
      </trkpt>
      <trkpt lat="45.89372" lon="4.77563">
        <ele>194</ele>
        <time>2017-08-22T08:51:34Z</time>
      </trkpt>
      <trkpt lat="45.89366" lon="4.77561">
        <ele>194</ele>
        <time>2017-08-22T08:51:35Z</time>
      </trkpt>
      <trkpt lat="45.8936" lon="4.77558">
        <ele>194</ele>
        <time>2017-08-22T08:51:36Z</time>
      </trkpt>
      <trkpt lat="45.89355" lon="4.77556">
        <ele>194</ele>
        <time>2017-08-22T08:51:37Z</time>
      </trkpt>
      <trkpt lat="45.89349" lon="4.77554">
        <ele>194</ele>
        <time>2017-08-22T08:51:38Z</time>
      </trkpt>
      <trkpt lat="45.89345" lon="4.77552">
        <ele>194</ele>
        <time>2017-08-22T08:51:39Z</time>
      </trkpt>
      <trkpt lat="45.8934" lon="4.7755">
        <ele>194</ele>
        <time>2017-08-22T08:51:40Z</time>
      </trkpt>
      <trkpt lat="45.89335" lon="4.77548">
        <ele>194</ele>
        <time>2017-08-22T08:51:41Z</time>
      </trkpt>
      <trkpt lat="45.8933" lon="4.77546">
        <ele>194</ele>
        <time>2017-08-22T08:51:42Z</time>
      </trkpt>
      <trkpt lat="45.89326" lon="4.77544">
        <ele>194</ele>
        <time>2017-08-22T08:51:43Z</time>
      </trkpt>
      <trkpt lat="45.89321" lon="4.77543">
        <ele>194</ele>
        <time>2017-08-22T08:51:44Z</time>
      </trkpt>
      <trkpt lat="45.89316" lon="4.77541">
        <ele>194</ele>
        <time>2017-08-22T08:51:45Z</time>
      </trkpt>
      <trkpt lat="45.89311" lon="4.77539">
        <ele>194</ele>
        <time>2017-08-22T08:51:46Z</time>
      </trkpt>
      <trkpt lat="45.89306" lon="4.77537">
        <ele>194</ele>
        <time>2017-08-22T08:51:47Z</time>
      </trkpt>
      <trkpt lat="45.89301" lon="4.77535">
        <ele>194</ele>
        <time>2017-08-22T08:51:48Z</time>
      </trkpt>
      <trkpt lat="45.89296" lon="4.77533">
        <ele>194</ele>
        <time>2017-08-22T08:51:49Z</time>
      </trkpt>
      <trkpt lat="45.8929" lon="4.7753">
        <ele>193</ele>
        <time>2017-08-22T08:51:50Z</time>
      </trkpt>
      <trkpt lat="45.89285" lon="4.77528">
        <ele>193</ele>
        <time>2017-08-22T08:51:51Z</time>
      </trkpt>
      <trkpt lat="45.89279" lon="4.77527">
        <ele>193</ele>
        <time>2017-08-22T08:51:52Z</time>
      </trkpt>
      <trkpt lat="45.89273" lon="4.77526">
        <ele>193</ele>
        <time>2017-08-22T08:51:53Z</time>
      </trkpt>
      <trkpt lat="45.89267" lon="4.77525">
        <ele>193</ele>
        <time>2017-08-22T08:51:54Z</time>
      </trkpt>
      <trkpt lat="45.89261" lon="4.77525">
        <ele>193</ele>
        <time>2017-08-22T08:51:55Z</time>
      </trkpt>
      <trkpt lat="45.89256" lon="4.77526">
        <ele>193</ele>
        <time>2017-08-22T08:51:56Z</time>
      </trkpt>
      <trkpt lat="45.8925" lon="4.77526">
        <ele>193</ele>
        <time>2017-08-22T08:51:57Z</time>
      </trkpt>
      <trkpt lat="45.89244" lon="4.77526">
        <ele>193</ele>
        <time>2017-08-22T08:51:58Z</time>
      </trkpt>
      <trkpt lat="45.89238" lon="4.77527">
        <ele>193</ele>
        <time>2017-08-22T08:51:59Z</time>
      </trkpt>
      <trkpt lat="45.89233" lon="4.77528">
        <ele>194</ele>
        <time>2017-08-22T08:52:00Z</time>
      </trkpt>
      <trkpt lat="45.89227" lon="4.7753">
        <ele>194</ele>
        <time>2017-08-22T08:52:01Z</time>
      </trkpt>
      <trkpt lat="45.89221" lon="4.77531">
        <ele>194</ele>
        <time>2017-08-22T08:52:02Z</time>
      </trkpt>
      <trkpt lat="45.89215" lon="4.77533">
        <ele>194</ele>
        <time>2017-08-22T08:52:03Z</time>
      </trkpt>
      <trkpt lat="45.89209" lon="4.77534">
        <ele>194</ele>
        <time>2017-08-22T08:52:04Z</time>
      </trkpt>
      <trkpt lat="45.89204" lon="4.77536">
        <ele>194</ele>
        <time>2017-08-22T08:52:05Z</time>
      </trkpt>
      <trkpt lat="45.89198" lon="4.77537">
        <ele>194</ele>
        <time>2017-08-22T08:52:06Z</time>
      </trkpt>
      <trkpt lat="45.89192" lon="4.77538">
        <ele>194</ele>
        <time>2017-08-22T08:52:07Z</time>
      </trkpt>
      <trkpt lat="45.89187" lon="4.77539">
        <ele>194</ele>
        <time>2017-08-22T08:52:08Z</time>
      </trkpt>
      <trkpt lat="45.89181" lon="4.77541">
        <ele>194</ele>
        <time>2017-08-22T08:52:09Z</time>
      </trkpt>
      <trkpt lat="45.89176" lon="4.77542">
        <ele>194</ele>
        <time>2017-08-22T08:52:10Z</time>
      </trkpt>
      <trkpt lat="45.8917" lon="4.77543">
        <ele>194</ele>
        <time>2017-08-22T08:52:11Z</time>
      </trkpt>
      <trkpt lat="45.89165" lon="4.77544">
        <ele>195</ele>
        <time>2017-08-22T08:52:12Z</time>
      </trkpt>
      <trkpt lat="45.89159" lon="4.77545">
        <ele>195</ele>
        <time>2017-08-22T08:52:13Z</time>
      </trkpt>
      <trkpt lat="45.89152" lon="4.77546">
        <ele>195</ele>
        <time>2017-08-22T08:52:14Z</time>
      </trkpt>
      <trkpt lat="45.89146" lon="4.77548">
        <ele>195</ele>
        <time>2017-08-22T08:52:15Z</time>
      </trkpt>
      <trkpt lat="45.89139" lon="4.77549">
        <ele>195</ele>
        <time>2017-08-22T08:52:16Z</time>
      </trkpt>
      <trkpt lat="45.89134" lon="4.77551">
        <ele>195</ele>
        <time>2017-08-22T08:52:17Z</time>
      </trkpt>
      <trkpt lat="45.89128" lon="4.77553">
        <ele>195</ele>
        <time>2017-08-22T08:52:18Z</time>
      </trkpt>
      <trkpt lat="45.89122" lon="4.77555">
        <ele>195</ele>
        <time>2017-08-22T08:52:19Z</time>
      </trkpt>
      <trkpt lat="45.89117" lon="4.77557">
        <ele>195</ele>
        <time>2017-08-22T08:52:20Z</time>
      </trkpt>
      <trkpt lat="45.89112" lon="4.7756">
        <ele>195</ele>
        <time>2017-08-22T08:52:21Z</time>
      </trkpt>
      <trkpt lat="45.89107" lon="4.77563">
        <ele>195</ele>
        <time>2017-08-22T08:52:22Z</time>
      </trkpt>
      <trkpt lat="45.89102" lon="4.77565">
        <ele>196</ele>
        <time>2017-08-22T08:52:23Z</time>
      </trkpt>
      <trkpt lat="45.89097" lon="4.77568">
        <ele>196</ele>
        <time>2017-08-22T08:52:24Z</time>
      </trkpt>
      <trkpt lat="45.89092" lon="4.77572">
        <ele>196</ele>
        <time>2017-08-22T08:52:25Z</time>
      </trkpt>
      <trkpt lat="45.89087" lon="4.77576">
        <ele>196</ele>
        <time>2017-08-22T08:52:26Z</time>
      </trkpt>
      <trkpt lat="45.89082" lon="4.7758">
        <ele>196</ele>
        <time>2017-08-22T08:52:27Z</time>
      </trkpt>
      <trkpt lat="45.89077" lon="4.77584">
        <ele>196</ele>
        <time>2017-08-22T08:52:28Z</time>
      </trkpt>
      <trkpt lat="45.89072" lon="4.77588">
        <ele>196</ele>
        <time>2017-08-22T08:52:29Z</time>
      </trkpt>
      <trkpt lat="45.89068" lon="4.77592">
        <ele>196</ele>
        <time>2017-08-22T08:52:30Z</time>
      </trkpt>
      <trkpt lat="45.89063" lon="4.77596">
        <ele>196</ele>
        <time>2017-08-22T08:52:31Z</time>
      </trkpt>
      <trkpt lat="45.89059" lon="4.776">
        <ele>197</ele>
        <time>2017-08-22T08:52:32Z</time>
      </trkpt>
      <trkpt lat="45.89054" lon="4.77603">
        <ele>197</ele>
        <time>2017-08-22T08:52:33Z</time>
      </trkpt>
      <trkpt lat="45.8905" lon="4.77606">
        <ele>197</ele>
        <time>2017-08-22T08:52:34Z</time>
      </trkpt>
      <trkpt lat="45.89046" lon="4.7761">
        <ele>197</ele>
        <time>2017-08-22T08:52:35Z</time>
      </trkpt>
      <trkpt lat="45.89042" lon="4.77613">
        <ele>197</ele>
        <time>2017-08-22T08:52:36Z</time>
      </trkpt>
      <trkpt lat="45.89038" lon="4.77617">
        <ele>197</ele>
        <time>2017-08-22T08:52:37Z</time>
      </trkpt>
      <trkpt lat="45.89033" lon="4.77621">
        <ele>197</ele>
        <time>2017-08-22T08:52:38Z</time>
      </trkpt>
      <trkpt lat="45.89029" lon="4.77624">
        <ele>197</ele>
        <time>2017-08-22T08:52:39Z</time>
      </trkpt>
      <trkpt lat="45.89024" lon="4.77628">
        <ele>197</ele>
        <time>2017-08-22T08:52:40Z</time>
      </trkpt>
      <trkpt lat="45.8902" lon="4.77632">
        <ele>197</ele>
        <time>2017-08-22T08:52:41Z</time>
      </trkpt>
      <trkpt lat="45.89016" lon="4.77635">
        <ele>197</ele>
        <time>2017-08-22T08:52:42Z</time>
      </trkpt>
      <trkpt lat="45.89012" lon="4.77639">
        <ele>197</ele>
        <time>2017-08-22T08:52:43Z</time>
      </trkpt>
      <trkpt lat="45.89007" lon="4.77643">
        <ele>197</ele>
        <time>2017-08-22T08:52:44Z</time>
      </trkpt>
      <trkpt lat="45.89003" lon="4.77646">
        <ele>197</ele>
        <time>2017-08-22T08:52:45Z</time>
      </trkpt>
      <trkpt lat="45.88999" lon="4.77649">
        <ele>198</ele>
        <time>2017-08-22T08:52:46Z</time>
      </trkpt>
      <trkpt lat="45.88994" lon="4.77653">
        <ele>198</ele>
        <time>2017-08-22T08:52:47Z</time>
      </trkpt>
      <trkpt lat="45.8899" lon="4.77657">
        <ele>198</ele>
        <time>2017-08-22T08:52:48Z</time>
      </trkpt>
      <trkpt lat="45.88985" lon="4.77661">
        <ele>198</ele>
        <time>2017-08-22T08:52:49Z</time>
      </trkpt>
      <trkpt lat="45.88981" lon="4.77664">
        <ele>198</ele>
        <time>2017-08-22T08:52:50Z</time>
      </trkpt>
      <trkpt lat="45.88976" lon="4.77667">
        <ele>198</ele>
        <time>2017-08-22T08:52:51Z</time>
      </trkpt>
      <trkpt lat="45.88971" lon="4.7767">
        <ele>198</ele>
        <time>2017-08-22T08:52:52Z</time>
      </trkpt>
      <trkpt lat="45.88967" lon="4.77673">
        <ele>198</ele>
        <time>2017-08-22T08:52:53Z</time>
      </trkpt>
      <trkpt lat="45.88962" lon="4.77676">
        <ele>198</ele>
        <time>2017-08-22T08:52:54Z</time>
      </trkpt>
      <trkpt lat="45.88957" lon="4.77679">
        <ele>199</ele>
        <time>2017-08-22T08:52:55Z</time>
      </trkpt>
      <trkpt lat="45.88952" lon="4.77682">
        <ele>199</ele>
        <time>2017-08-22T08:52:56Z</time>
      </trkpt>
      <trkpt lat="45.88947" lon="4.77685">
        <ele>199</ele>
        <time>2017-08-22T08:52:57Z</time>
      </trkpt>
      <trkpt lat="45.88942" lon="4.77687">
        <ele>199</ele>
        <time>2017-08-22T08:52:58Z</time>
      </trkpt>
      <trkpt lat="45.88937" lon="4.77689">
        <ele>199</ele>
        <time>2017-08-22T08:52:59Z</time>
      </trkpt>
      <trkpt lat="45.88932" lon="4.77691">
        <ele>199</ele>
        <time>2017-08-22T08:53:00Z</time>
      </trkpt>
      <trkpt lat="45.88927" lon="4.77692">
        <ele>199</ele>
        <time>2017-08-22T08:53:01Z</time>
      </trkpt>
      <trkpt lat="45.88922" lon="4.77694">
        <ele>199</ele>
        <time>2017-08-22T08:53:02Z</time>
      </trkpt>
      <trkpt lat="45.88918" lon="4.77695">
        <ele>199</ele>
        <time>2017-08-22T08:53:03Z</time>
      </trkpt>
      <trkpt lat="45.88909" lon="4.77697">
        <ele>200</ele>
        <time>2017-08-22T08:53:05Z</time>
      </trkpt>
      <trkpt lat="45.88905" lon="4.77699">
        <ele>200</ele>
        <time>2017-08-22T08:53:06Z</time>
      </trkpt>
      <trkpt lat="45.889" lon="4.777">
        <ele>200</ele>
        <time>2017-08-22T08:53:07Z</time>
      </trkpt>
      <trkpt lat="45.88895" lon="4.77701">
        <ele>200</ele>
        <time>2017-08-22T08:53:08Z</time>
      </trkpt>
      <trkpt lat="45.88891" lon="4.77701">
        <ele>200</ele>
        <time>2017-08-22T08:53:09Z</time>
      </trkpt>
      <trkpt lat="45.88886" lon="4.77701">
        <ele>200</ele>
        <time>2017-08-22T08:53:10Z</time>
      </trkpt>
      <trkpt lat="45.88881" lon="4.77702">
        <ele>200</ele>
        <time>2017-08-22T08:53:11Z</time>
      </trkpt>
      <trkpt lat="45.88877" lon="4.77703">
        <ele>200</ele>
        <time>2017-08-22T08:53:12Z</time>
      </trkpt>
      <trkpt lat="45.88872" lon="4.77703">
        <ele>201</ele>
        <time>2017-08-22T08:53:13Z</time>
      </trkpt>
      <trkpt lat="45.88867" lon="4.77703">
        <ele>201</ele>
        <time>2017-08-22T08:53:14Z</time>
      </trkpt>
      <trkpt lat="45.88863" lon="4.77703">
        <ele>201</ele>
        <time>2017-08-22T08:53:15Z</time>
      </trkpt>
      <trkpt lat="45.88858" lon="4.77703">
        <ele>201</ele>
        <time>2017-08-22T08:53:16Z</time>
      </trkpt>
      <trkpt lat="45.88853" lon="4.77703">
        <ele>201</ele>
        <time>2017-08-22T08:53:17Z</time>
      </trkpt>
      <trkpt lat="45.88848" lon="4.77703">
        <ele>201</ele>
        <time>2017-08-22T08:53:18Z</time>
      </trkpt>
      <trkpt lat="45.88843" lon="4.77703">
        <ele>201</ele>
        <time>2017-08-22T08:53:19Z</time>
      </trkpt>
      <trkpt lat="45.88838" lon="4.77704">
        <ele>201</ele>
        <time>2017-08-22T08:53:20Z</time>
      </trkpt>
      <trkpt lat="45.88833" lon="4.77704">
        <ele>201</ele>
        <time>2017-08-22T08:53:21Z</time>
      </trkpt>
      <trkpt lat="45.88828" lon="4.77705">
        <ele>201</ele>
        <time>2017-08-22T08:53:22Z</time>
      </trkpt>
      <trkpt lat="45.88823" lon="4.77705">
        <ele>201</ele>
        <time>2017-08-22T08:53:23Z</time>
      </trkpt>
      <trkpt lat="45.88818" lon="4.77705">
        <ele>202</ele>
        <time>2017-08-22T08:53:24Z</time>
      </trkpt>
      <trkpt lat="45.88814" lon="4.77705">
        <ele>202</ele>
        <time>2017-08-22T08:53:25Z</time>
      </trkpt>
      <trkpt lat="45.88809" lon="4.77706">
        <ele>202</ele>
        <time>2017-08-22T08:53:26Z</time>
      </trkpt>
      <trkpt lat="45.88804" lon="4.77706">
        <ele>202</ele>
        <time>2017-08-22T08:53:27Z</time>
      </trkpt>
      <trkpt lat="45.88799" lon="4.77706">
        <ele>202</ele>
        <time>2017-08-22T08:53:28Z</time>
      </trkpt>
      <trkpt lat="45.88794" lon="4.77707">
        <ele>202</ele>
        <time>2017-08-22T08:53:29Z</time>
      </trkpt>
      <trkpt lat="45.88789" lon="4.77706">
        <ele>202</ele>
        <time>2017-08-22T08:53:30Z</time>
      </trkpt>
      <trkpt lat="45.88785" lon="4.77706">
        <ele>202</ele>
        <time>2017-08-22T08:53:31Z</time>
      </trkpt>
      <trkpt lat="45.8878" lon="4.77707">
        <ele>202</ele>
        <time>2017-08-22T08:53:32Z</time>
      </trkpt>
      <trkpt lat="45.88774" lon="4.77707">
        <ele>202</ele>
        <time>2017-08-22T08:53:33Z</time>
      </trkpt>
      <trkpt lat="45.8877" lon="4.77708">
        <ele>202</ele>
        <time>2017-08-22T08:53:34Z</time>
      </trkpt>
      <trkpt lat="45.88765" lon="4.77708">
        <ele>202</ele>
        <time>2017-08-22T08:53:35Z</time>
      </trkpt>
      <trkpt lat="45.8876" lon="4.77709">
        <ele>202</ele>
        <time>2017-08-22T08:53:36Z</time>
      </trkpt>
      <trkpt lat="45.88755" lon="4.77709">
        <ele>202</ele>
        <time>2017-08-22T08:53:37Z</time>
      </trkpt>
      <trkpt lat="45.8875" lon="4.77709">
        <ele>203</ele>
        <time>2017-08-22T08:53:38Z</time>
      </trkpt>
      <trkpt lat="45.88745" lon="4.77709">
        <ele>203</ele>
        <time>2017-08-22T08:53:39Z</time>
      </trkpt>
      <trkpt lat="45.8874" lon="4.77709">
        <ele>203</ele>
        <time>2017-08-22T08:53:40Z</time>
      </trkpt>
      <trkpt lat="45.88735" lon="4.7771">
        <ele>203</ele>
        <time>2017-08-22T08:53:41Z</time>
      </trkpt>
      <trkpt lat="45.8873" lon="4.77711">
        <ele>203</ele>
        <time>2017-08-22T08:53:42Z</time>
      </trkpt>
      <trkpt lat="45.88725" lon="4.77711">
        <ele>203</ele>
        <time>2017-08-22T08:53:43Z</time>
      </trkpt>
      <trkpt lat="45.8872" lon="4.77712">
        <ele>203</ele>
        <time>2017-08-22T08:53:44Z</time>
      </trkpt>
      <trkpt lat="45.88715" lon="4.77712">
        <ele>203</ele>
        <time>2017-08-22T08:53:45Z</time>
      </trkpt>
      <trkpt lat="45.8871" lon="4.77712">
        <ele>203</ele>
        <time>2017-08-22T08:53:46Z</time>
      </trkpt>
      <trkpt lat="45.88702" lon="4.77712">
        <ele>203</ele>
        <time>2017-08-22T08:53:48Z</time>
      </trkpt>
      <trkpt lat="45.88697" lon="4.77712">
        <ele>203</ele>
        <time>2017-08-22T08:53:49Z</time>
      </trkpt>
      <trkpt lat="45.88692" lon="4.77712">
        <ele>203</ele>
        <time>2017-08-22T08:53:50Z</time>
      </trkpt>
      <trkpt lat="45.88688" lon="4.77712">
        <ele>203</ele>
        <time>2017-08-22T08:53:51Z</time>
      </trkpt>
      <trkpt lat="45.88683" lon="4.77712">
        <ele>203</ele>
        <time>2017-08-22T08:53:52Z</time>
      </trkpt>
      <trkpt lat="45.88679" lon="4.77713">
        <ele>203</ele>
        <time>2017-08-22T08:53:53Z</time>
      </trkpt>
      <trkpt lat="45.88674" lon="4.77713">
        <ele>203</ele>
        <time>2017-08-22T08:53:54Z</time>
      </trkpt>
      <trkpt lat="45.8867" lon="4.77712">
        <ele>203</ele>
        <time>2017-08-22T08:53:55Z</time>
      </trkpt>
      <trkpt lat="45.88665" lon="4.77712">
        <ele>203</ele>
        <time>2017-08-22T08:53:56Z</time>
      </trkpt>
      <trkpt lat="45.8866" lon="4.77711">
        <ele>203</ele>
        <time>2017-08-22T08:53:57Z</time>
      </trkpt>
      <trkpt lat="45.88655" lon="4.77711">
        <ele>203</ele>
        <time>2017-08-22T08:53:58Z</time>
      </trkpt>
      <trkpt lat="45.88651" lon="4.77711">
        <ele>203</ele>
        <time>2017-08-22T08:53:59Z</time>
      </trkpt>
      <trkpt lat="45.88646" lon="4.7771">
        <ele>203</ele>
        <time>2017-08-22T08:54:00Z</time>
      </trkpt>
      <trkpt lat="45.88641" lon="4.7771">
        <ele>203</ele>
        <time>2017-08-22T08:54:01Z</time>
      </trkpt>
      <trkpt lat="45.88636" lon="4.7771">
        <ele>203</ele>
        <time>2017-08-22T08:54:02Z</time>
      </trkpt>
      <trkpt lat="45.88631" lon="4.77709">
        <ele>203</ele>
        <time>2017-08-22T08:54:03Z</time>
      </trkpt>
      <trkpt lat="45.88627" lon="4.77708">
        <ele>203</ele>
        <time>2017-08-22T08:54:04Z</time>
      </trkpt>
      <trkpt lat="45.88622" lon="4.77707">
        <ele>203</ele>
        <time>2017-08-22T08:54:05Z</time>
      </trkpt>
      <trkpt lat="45.88617" lon="4.77706">
        <ele>203</ele>
        <time>2017-08-22T08:54:06Z</time>
      </trkpt>
      <trkpt lat="45.88613" lon="4.77705">
        <ele>203</ele>
        <time>2017-08-22T08:54:07Z</time>
      </trkpt>
      <trkpt lat="45.88608" lon="4.77704">
        <ele>203</ele>
        <time>2017-08-22T08:54:08Z</time>
      </trkpt>
      <trkpt lat="45.88603" lon="4.77704">
        <ele>203</ele>
        <time>2017-08-22T08:54:09Z</time>
      </trkpt>
      <trkpt lat="45.88599" lon="4.77702">
        <ele>203</ele>
        <time>2017-08-22T08:54:10Z</time>
      </trkpt>
      <trkpt lat="45.88594" lon="4.77701">
        <ele>203</ele>
        <time>2017-08-22T08:54:11Z</time>
      </trkpt>
      <trkpt lat="45.88585" lon="4.77699">
        <ele>203</ele>
        <time>2017-08-22T08:54:13Z</time>
      </trkpt>
      <trkpt lat="45.88581" lon="4.77698">
        <ele>204</ele>
        <time>2017-08-22T08:54:14Z</time>
      </trkpt>
      <trkpt lat="45.88576" lon="4.77697">
        <ele>204</ele>
        <time>2017-08-22T08:54:15Z</time>
      </trkpt>
      <trkpt lat="45.88572" lon="4.77696">
        <ele>204</ele>
        <time>2017-08-22T08:54:16Z</time>
      </trkpt>
      <trkpt lat="45.88567" lon="4.77695">
        <ele>204</ele>
        <time>2017-08-22T08:54:17Z</time>
      </trkpt>
      <trkpt lat="45.88563" lon="4.77693">
        <ele>204</ele>
        <time>2017-08-22T08:54:18Z</time>
      </trkpt>
      <trkpt lat="45.88558" lon="4.77692">
        <ele>204</ele>
        <time>2017-08-22T08:54:19Z</time>
      </trkpt>
      <trkpt lat="45.88553" lon="4.77691">
        <ele>204</ele>
        <time>2017-08-22T08:54:20Z</time>
      </trkpt>
      <trkpt lat="45.88549" lon="4.7769">
        <ele>204</ele>
        <time>2017-08-22T08:54:21Z</time>
      </trkpt>
      <trkpt lat="45.88544" lon="4.77689">
        <ele>204</ele>
        <time>2017-08-22T08:54:22Z</time>
      </trkpt>
      <trkpt lat="45.88539" lon="4.77688">
        <ele>204</ele>
        <time>2017-08-22T08:54:23Z</time>
      </trkpt>
      <trkpt lat="45.88535" lon="4.77687">
        <ele>204</ele>
        <time>2017-08-22T08:54:24Z</time>
      </trkpt>
      <trkpt lat="45.88526" lon="4.77685">
        <ele>204</ele>
        <time>2017-08-22T08:54:26Z</time>
      </trkpt>
      <trkpt lat="45.88522" lon="4.77685">
        <ele>204</ele>
        <time>2017-08-22T08:54:27Z</time>
      </trkpt>
      <trkpt lat="45.88517" lon="4.77684">
        <ele>205</ele>
        <time>2017-08-22T08:54:28Z</time>
      </trkpt>
      <trkpt lat="45.88512" lon="4.77683">
        <ele>205</ele>
        <time>2017-08-22T08:54:29Z</time>
      </trkpt>
      <trkpt lat="45.88508" lon="4.77683">
        <ele>205</ele>
        <time>2017-08-22T08:54:30Z</time>
      </trkpt>
      <trkpt lat="45.88503" lon="4.77682">
        <ele>205</ele>
        <time>2017-08-22T08:54:31Z</time>
      </trkpt>
      <trkpt lat="45.88495" lon="4.7768">
        <ele>205</ele>
        <time>2017-08-22T08:54:33Z</time>
      </trkpt>
      <trkpt lat="45.8849" lon="4.77679">
        <ele>205</ele>
        <time>2017-08-22T08:54:34Z</time>
      </trkpt>
      <trkpt lat="45.88486" lon="4.77678">
        <ele>206</ele>
        <time>2017-08-22T08:54:35Z</time>
      </trkpt>
      <trkpt lat="45.88481" lon="4.77677">
        <ele>206</ele>
        <time>2017-08-22T08:54:36Z</time>
      </trkpt>
      <trkpt lat="45.88473" lon="4.77676">
        <ele>206</ele>
        <time>2017-08-22T08:54:38Z</time>
      </trkpt>
      <trkpt lat="45.88468" lon="4.77675">
        <ele>206</ele>
        <time>2017-08-22T08:54:39Z</time>
      </trkpt>
      <trkpt lat="45.88464" lon="4.77675">
        <ele>206</ele>
        <time>2017-08-22T08:54:40Z</time>
      </trkpt>
      <trkpt lat="45.88459" lon="4.77674">
        <ele>206</ele>
        <time>2017-08-22T08:54:41Z</time>
      </trkpt>
      <trkpt lat="45.8845" lon="4.77672">
        <ele>206</ele>
        <time>2017-08-22T08:54:43Z</time>
      </trkpt>
      <trkpt lat="45.88446" lon="4.77671">
        <ele>206</ele>
        <time>2017-08-22T08:54:44Z</time>
      </trkpt>
      <trkpt lat="45.88441" lon="4.7767">
        <ele>206</ele>
        <time>2017-08-22T08:54:45Z</time>
      </trkpt>
      <trkpt lat="45.88436" lon="4.7767">
        <ele>206</ele>
        <time>2017-08-22T08:54:46Z</time>
      </trkpt>
      <trkpt lat="45.88432" lon="4.77668">
        <ele>206</ele>
        <time>2017-08-22T08:54:47Z</time>
      </trkpt>
      <trkpt lat="45.88427" lon="4.77667">
        <ele>206</ele>
        <time>2017-08-22T08:54:48Z</time>
      </trkpt>
      <trkpt lat="45.88422" lon="4.77666">
        <ele>206</ele>
        <time>2017-08-22T08:54:49Z</time>
      </trkpt>
      <trkpt lat="45.88418" lon="4.77666">
        <ele>206</ele>
        <time>2017-08-22T08:54:50Z</time>
      </trkpt>
      <trkpt lat="45.88409" lon="4.77663">
        <ele>206</ele>
        <time>2017-08-22T08:54:52Z</time>
      </trkpt>
      <trkpt lat="45.88403" lon="4.77662">
        <ele>207</ele>
        <time>2017-08-22T08:54:53Z</time>
      </trkpt>
      <trkpt lat="45.88399" lon="4.77662">
        <ele>207</ele>
        <time>2017-08-22T08:54:54Z</time>
      </trkpt>
      <trkpt lat="45.88394" lon="4.77661">
        <ele>207</ele>
        <time>2017-08-22T08:54:55Z</time>
      </trkpt>
      <trkpt lat="45.88389" lon="4.7766">
        <ele>207</ele>
        <time>2017-08-22T08:54:56Z</time>
      </trkpt>
      <trkpt lat="45.88385" lon="4.7766">
        <ele>207</ele>
        <time>2017-08-22T08:54:57Z</time>
      </trkpt>
      <trkpt lat="45.88376" lon="4.77658">
        <ele>207</ele>
        <time>2017-08-22T08:54:59Z</time>
      </trkpt>
      <trkpt lat="45.88372" lon="4.77657">
        <ele>207</ele>
        <time>2017-08-22T08:55:00Z</time>
      </trkpt>
      <trkpt lat="45.88367" lon="4.77657">
        <ele>207</ele>
        <time>2017-08-22T08:55:01Z</time>
      </trkpt>
      <trkpt lat="45.88363" lon="4.77656">
        <ele>208</ele>
        <time>2017-08-22T08:55:02Z</time>
      </trkpt>
      <trkpt lat="45.88354" lon="4.77656">
        <ele>208</ele>
        <time>2017-08-22T08:55:04Z</time>
      </trkpt>
      <trkpt lat="45.8835" lon="4.77655">
        <ele>208</ele>
        <time>2017-08-22T08:55:05Z</time>
      </trkpt>
      <trkpt lat="45.88345" lon="4.77655">
        <ele>208</ele>
        <time>2017-08-22T08:55:06Z</time>
      </trkpt>
      <trkpt lat="45.8834" lon="4.77654">
        <ele>208</ele>
        <time>2017-08-22T08:55:07Z</time>
      </trkpt>
      <trkpt lat="45.88336" lon="4.77654">
        <ele>208</ele>
        <time>2017-08-22T08:55:08Z</time>
      </trkpt>
      <trkpt lat="45.88331" lon="4.77655">
        <ele>208</ele>
        <time>2017-08-22T08:55:09Z</time>
      </trkpt>
      <trkpt lat="45.88326" lon="4.77655">
        <ele>209</ele>
        <time>2017-08-22T08:55:10Z</time>
      </trkpt>
      <trkpt lat="45.88321" lon="4.77654">
        <ele>209</ele>
        <time>2017-08-22T08:55:11Z</time>
      </trkpt>
      <trkpt lat="45.88312" lon="4.77655">
        <ele>209</ele>
        <time>2017-08-22T08:55:13Z</time>
      </trkpt>
      <trkpt lat="45.88308" lon="4.77655">
        <ele>209</ele>
        <time>2017-08-22T08:55:14Z</time>
      </trkpt>
      <trkpt lat="45.88299" lon="4.77655">
        <ele>209</ele>
        <time>2017-08-22T08:55:16Z</time>
      </trkpt>
      <trkpt lat="45.88295" lon="4.77656">
        <ele>209</ele>
        <time>2017-08-22T08:55:17Z</time>
      </trkpt>
      <trkpt lat="45.88286" lon="4.77656">
        <ele>209</ele>
        <time>2017-08-22T08:55:19Z</time>
      </trkpt>
      <trkpt lat="45.88282" lon="4.77657">
        <ele>210</ele>
        <time>2017-08-22T08:55:20Z</time>
      </trkpt>
      <trkpt lat="45.88273" lon="4.77657">
        <ele>210</ele>
        <time>2017-08-22T08:55:22Z</time>
      </trkpt>
      <trkpt lat="45.88269" lon="4.77657">
        <ele>210</ele>
        <time>2017-08-22T08:55:23Z</time>
      </trkpt>
      <trkpt lat="45.8826" lon="4.77656">
        <ele>210</ele>
        <time>2017-08-22T08:55:25Z</time>
      </trkpt>
      <trkpt lat="45.88255" lon="4.77656">
        <ele>210</ele>
        <time>2017-08-22T08:55:26Z</time>
      </trkpt>
      <trkpt lat="45.88251" lon="4.77656">
        <ele>210</ele>
        <time>2017-08-22T08:55:27Z</time>
      </trkpt>
      <trkpt lat="45.88246" lon="4.77657">
        <ele>211</ele>
        <time>2017-08-22T08:55:28Z</time>
      </trkpt>
      <trkpt lat="45.88241" lon="4.77657">
        <ele>211</ele>
        <time>2017-08-22T08:55:29Z</time>
      </trkpt>
      <trkpt lat="45.88236" lon="4.77657">
        <ele>211</ele>
        <time>2017-08-22T08:55:30Z</time>
      </trkpt>
      <trkpt lat="45.88231" lon="4.77658">
        <ele>211</ele>
        <time>2017-08-22T08:55:31Z</time>
      </trkpt>
      <trkpt lat="45.88227" lon="4.77658">
        <ele>211</ele>
        <time>2017-08-22T08:55:32Z</time>
      </trkpt>
      <trkpt lat="45.88222" lon="4.77659">
        <ele>211</ele>
        <time>2017-08-22T08:55:33Z</time>
      </trkpt>
      <trkpt lat="45.88217" lon="4.7766">
        <ele>211</ele>
        <time>2017-08-22T08:55:34Z</time>
      </trkpt>
      <trkpt lat="45.88213" lon="4.7766">
        <ele>211</ele>
        <time>2017-08-22T08:55:35Z</time>
      </trkpt>
      <trkpt lat="45.88208" lon="4.77661">
        <ele>211</ele>
        <time>2017-08-22T08:55:36Z</time>
      </trkpt>
      <trkpt lat="45.88204" lon="4.77662">
        <ele>211</ele>
        <time>2017-08-22T08:55:37Z</time>
      </trkpt>
      <trkpt lat="45.88199" lon="4.77663">
        <ele>211</ele>
        <time>2017-08-22T08:55:38Z</time>
      </trkpt>
      <trkpt lat="45.88194" lon="4.77664">
        <ele>211</ele>
        <time>2017-08-22T08:55:39Z</time>
      </trkpt>
      <trkpt lat="45.88189" lon="4.77664">
        <ele>212</ele>
        <time>2017-08-22T08:55:40Z</time>
      </trkpt>
      <trkpt lat="45.88184" lon="4.77665">
        <ele>212</ele>
        <time>2017-08-22T08:55:41Z</time>
      </trkpt>
      <trkpt lat="45.88179" lon="4.77665">
        <ele>212</ele>
        <time>2017-08-22T08:55:42Z</time>
      </trkpt>
      <trkpt lat="45.88175" lon="4.77666">
        <ele>212</ele>
        <time>2017-08-22T08:55:43Z</time>
      </trkpt>
      <trkpt lat="45.8817" lon="4.77667">
        <ele>212</ele>
        <time>2017-08-22T08:55:44Z</time>
      </trkpt>
      <trkpt lat="45.88165" lon="4.77668">
        <ele>212</ele>
        <time>2017-08-22T08:55:45Z</time>
      </trkpt>
      <trkpt lat="45.88161" lon="4.77668">
        <ele>212</ele>
        <time>2017-08-22T08:55:46Z</time>
      </trkpt>
      <trkpt lat="45.88152" lon="4.77669">
        <ele>213</ele>
        <time>2017-08-22T08:55:48Z</time>
      </trkpt>
      <trkpt lat="45.88147" lon="4.7767">
        <ele>213</ele>
        <time>2017-08-22T08:55:49Z</time>
      </trkpt>
      <trkpt lat="45.88142" lon="4.77671">
        <ele>213</ele>
        <time>2017-08-22T08:55:50Z</time>
      </trkpt>
      <trkpt lat="45.88137" lon="4.77672">
        <ele>213</ele>
        <time>2017-08-22T08:55:51Z</time>
      </trkpt>
      <trkpt lat="45.88129" lon="4.77674">
        <ele>214</ele>
        <time>2017-08-22T08:55:53Z</time>
      </trkpt>
      <trkpt lat="45.88124" lon="4.77674">
        <ele>214</ele>
        <time>2017-08-22T08:55:54Z</time>
      </trkpt>
      <trkpt lat="45.88119" lon="4.77675">
        <ele>214</ele>
        <time>2017-08-22T08:55:55Z</time>
      </trkpt>
      <trkpt lat="45.88114" lon="4.77676">
        <ele>214</ele>
        <time>2017-08-22T08:55:56Z</time>
      </trkpt>
      <trkpt lat="45.88109" lon="4.77677">
        <ele>214</ele>
        <time>2017-08-22T08:55:57Z</time>
      </trkpt>
      <trkpt lat="45.88105" lon="4.77677">
        <ele>214</ele>
        <time>2017-08-22T08:55:58Z</time>
      </trkpt>
      <trkpt lat="45.88096" lon="4.77678">
        <ele>214</ele>
        <time>2017-08-22T08:56:00Z</time>
      </trkpt>
      <trkpt lat="45.88092" lon="4.77679">
        <ele>214</ele>
        <time>2017-08-22T08:56:01Z</time>
      </trkpt>
      <trkpt lat="45.88087" lon="4.7768">
        <ele>215</ele>
        <time>2017-08-22T08:56:02Z</time>
      </trkpt>
      <trkpt lat="45.88083" lon="4.77681">
        <ele>215</ele>
        <time>2017-08-22T08:56:03Z</time>
      </trkpt>
      <trkpt lat="45.88078" lon="4.77682">
        <ele>215</ele>
        <time>2017-08-22T08:56:04Z</time>
      </trkpt>
      <trkpt lat="45.88074" lon="4.77682">
        <ele>215</ele>
        <time>2017-08-22T08:56:05Z</time>
      </trkpt>
      <trkpt lat="45.88069" lon="4.77683">
        <ele>215</ele>
        <time>2017-08-22T08:56:06Z</time>
      </trkpt>
      <trkpt lat="45.88065" lon="4.77684">
        <ele>216</ele>
        <time>2017-08-22T08:56:07Z</time>
      </trkpt>
      <trkpt lat="45.8806" lon="4.77685">
        <ele>216</ele>
        <time>2017-08-22T08:56:08Z</time>
      </trkpt>
      <trkpt lat="45.88056" lon="4.77686">
        <ele>216</ele>
        <time>2017-08-22T08:56:09Z</time>
      </trkpt>
      <trkpt lat="45.88051" lon="4.77686">
        <ele>216</ele>
        <time>2017-08-22T08:56:10Z</time>
      </trkpt>
      <trkpt lat="45.88046" lon="4.77687">
        <ele>216</ele>
        <time>2017-08-22T08:56:11Z</time>
      </trkpt>
      <trkpt lat="45.88038" lon="4.7769">
        <ele>216</ele>
        <time>2017-08-22T08:56:13Z</time>
      </trkpt>
      <trkpt lat="45.88033" lon="4.77691">
        <ele>216</ele>
        <time>2017-08-22T08:56:14Z</time>
      </trkpt>
      <trkpt lat="45.88028" lon="4.77692">
        <ele>216</ele>
        <time>2017-08-22T08:56:15Z</time>
      </trkpt>
      <trkpt lat="45.88023" lon="4.77693">
        <ele>216</ele>
        <time>2017-08-22T08:56:16Z</time>
      </trkpt>
      <trkpt lat="45.88014" lon="4.77693">
        <ele>216</ele>
        <time>2017-08-22T08:56:18Z</time>
      </trkpt>
      <trkpt lat="45.8801" lon="4.77693">
        <ele>216</ele>
        <time>2017-08-22T08:56:19Z</time>
      </trkpt>
      <trkpt lat="45.88001" lon="4.77693">
        <ele>216</ele>
        <time>2017-08-22T08:56:21Z</time>
      </trkpt>
      <trkpt lat="45.87997" lon="4.77692">
        <ele>217</ele>
        <time>2017-08-22T08:56:22Z</time>
      </trkpt>
      <trkpt lat="45.87988" lon="4.77691">
        <ele>217</ele>
        <time>2017-08-22T08:56:24Z</time>
      </trkpt>
      <trkpt lat="45.87984" lon="4.7769">
        <ele>217</ele>
        <time>2017-08-22T08:56:25Z</time>
      </trkpt>
      <trkpt lat="45.87976" lon="4.77685">
        <ele>218</ele>
        <time>2017-08-22T08:56:27Z</time>
      </trkpt>
      <trkpt lat="45.87973" lon="4.77682">
        <ele>218</ele>
        <time>2017-08-22T08:56:28Z</time>
      </trkpt>
      <trkpt lat="45.87966" lon="4.77675">
        <ele>218</ele>
        <time>2017-08-22T08:56:30Z</time>
      </trkpt>
      <trkpt lat="45.87963" lon="4.77671">
        <ele>218</ele>
        <time>2017-08-22T08:56:31Z</time>
      </trkpt>
      <trkpt lat="45.87955" lon="4.77666">
        <ele>218</ele>
        <time>2017-08-22T08:56:33Z</time>
      </trkpt>
      <trkpt lat="45.87951" lon="4.77665">
        <ele>218</ele>
        <time>2017-08-22T08:56:34Z</time>
      </trkpt>
      <trkpt lat="45.87946" lon="4.77662">
        <ele>218</ele>
        <time>2017-08-22T08:56:35Z</time>
      </trkpt>
      <trkpt lat="45.87942" lon="4.77659">
        <ele>219</ele>
        <time>2017-08-22T08:56:36Z</time>
      </trkpt>
      <trkpt lat="45.87938" lon="4.77656">
        <ele>219</ele>
        <time>2017-08-22T08:56:37Z</time>
      </trkpt>
      <trkpt lat="45.87934" lon="4.77652">
        <ele>219</ele>
        <time>2017-08-22T08:56:38Z</time>
      </trkpt>
      <trkpt lat="45.8793" lon="4.77648">
        <ele>219</ele>
        <time>2017-08-22T08:56:39Z</time>
      </trkpt>
      <trkpt lat="45.87925" lon="4.77644">
        <ele>219</ele>
        <time>2017-08-22T08:56:40Z</time>
      </trkpt>
      <trkpt lat="45.87921" lon="4.77641">
        <ele>219</ele>
        <time>2017-08-22T08:56:41Z</time>
      </trkpt>
      <trkpt lat="45.87917" lon="4.77637">
        <ele>219</ele>
        <time>2017-08-22T08:56:42Z</time>
      </trkpt>
      <trkpt lat="45.87913" lon="4.77633">
        <ele>220</ele>
        <time>2017-08-22T08:56:43Z</time>
      </trkpt>
      <trkpt lat="45.8791" lon="4.77629">
        <ele>221</ele>
        <time>2017-08-22T08:56:44Z</time>
      </trkpt>
      <trkpt lat="45.87906" lon="4.77625">
        <ele>221</ele>
        <time>2017-08-22T08:56:45Z</time>
      </trkpt>
      <trkpt lat="45.87902" lon="4.77622">
        <ele>221</ele>
        <time>2017-08-22T08:56:46Z</time>
      </trkpt>
      <trkpt lat="45.87894" lon="4.77615">
        <ele>221</ele>
        <time>2017-08-22T08:56:48Z</time>
      </trkpt>
      <trkpt lat="45.87891" lon="4.77612">
        <ele>221</ele>
        <time>2017-08-22T08:56:49Z</time>
      </trkpt>
      <trkpt lat="45.87887" lon="4.77609">
        <ele>221</ele>
        <time>2017-08-22T08:56:50Z</time>
      </trkpt>
      <trkpt lat="45.87883" lon="4.77606">
        <ele>221</ele>
        <time>2017-08-22T08:56:51Z</time>
      </trkpt>
      <trkpt lat="45.87879" lon="4.77602">
        <ele>221</ele>
        <time>2017-08-22T08:56:52Z</time>
      </trkpt>
      <trkpt lat="45.87873" lon="4.77599">
        <ele>221</ele>
        <time>2017-08-22T08:56:53Z</time>
      </trkpt>
      <trkpt lat="45.87869" lon="4.77597">
        <ele>221</ele>
        <time>2017-08-22T08:56:54Z</time>
      </trkpt>
      <trkpt lat="45.87864" lon="4.77595">
        <ele>221</ele>
        <time>2017-08-22T08:56:55Z</time>
      </trkpt>
      <trkpt lat="45.87857" lon="4.77588">
        <ele>221</ele>
        <time>2017-08-22T08:56:57Z</time>
      </trkpt>
      <trkpt lat="45.87853" lon="4.77584">
        <ele>221</ele>
        <time>2017-08-22T08:56:58Z</time>
      </trkpt>
      <trkpt lat="45.87848" lon="4.7758">
        <ele>221</ele>
        <time>2017-08-22T08:56:59Z</time>
      </trkpt>
      <trkpt lat="45.87843" lon="4.77576">
        <ele>221</ele>
        <time>2017-08-22T08:57:00Z</time>
      </trkpt>
      <trkpt lat="45.87839" lon="4.77573">
        <ele>221</ele>
        <time>2017-08-22T08:57:01Z</time>
      </trkpt>
      <trkpt lat="45.87835" lon="4.7757">
        <ele>221</ele>
        <time>2017-08-22T08:57:02Z</time>
      </trkpt>
      <trkpt lat="45.87831" lon="4.77567">
        <ele>222</ele>
        <time>2017-08-22T08:57:03Z</time>
      </trkpt>
      <trkpt lat="45.87826" lon="4.77563">
        <ele>222</ele>
        <time>2017-08-22T08:57:04Z</time>
      </trkpt>
      <trkpt lat="45.87822" lon="4.77559">
        <ele>223</ele>
        <time>2017-08-22T08:57:05Z</time>
      </trkpt>
      <trkpt lat="45.87818" lon="4.77555">
        <ele>223</ele>
        <time>2017-08-22T08:57:06Z</time>
      </trkpt>
      <trkpt lat="45.87814" lon="4.77552">
        <ele>223</ele>
        <time>2017-08-22T08:57:07Z</time>
      </trkpt>
      <trkpt lat="45.87809" lon="4.77549">
        <ele>223</ele>
        <time>2017-08-22T08:57:08Z</time>
      </trkpt>
      <trkpt lat="45.87805" lon="4.77546">
        <ele>223</ele>
        <time>2017-08-22T08:57:09Z</time>
      </trkpt>
      <trkpt lat="45.87801" lon="4.77541">
        <ele>223</ele>
        <time>2017-08-22T08:57:10Z</time>
      </trkpt>
      <trkpt lat="45.87797" lon="4.77537">
        <ele>223</ele>
        <time>2017-08-22T08:57:11Z</time>
      </trkpt>
      <trkpt lat="45.87793" lon="4.77533">
        <ele>223</ele>
        <time>2017-08-22T08:57:12Z</time>
      </trkpt>
      <trkpt lat="45.87789" lon="4.7753">
        <ele>223</ele>
        <time>2017-08-22T08:57:13Z</time>
      </trkpt>
      <trkpt lat="45.87784" lon="4.77528">
        <ele>223</ele>
        <time>2017-08-22T08:57:14Z</time>
      </trkpt>
      <trkpt lat="45.87779" lon="4.77526">
        <ele>223</ele>
        <time>2017-08-22T08:57:15Z</time>
      </trkpt>
      <trkpt lat="45.87775" lon="4.77523">
        <ele>223</ele>
        <time>2017-08-22T08:57:16Z</time>
      </trkpt>
      <trkpt lat="45.8777" lon="4.7752">
        <ele>223</ele>
        <time>2017-08-22T08:57:17Z</time>
      </trkpt>
      <trkpt lat="45.87766" lon="4.77517">
        <ele>223</ele>
        <time>2017-08-22T08:57:18Z</time>
      </trkpt>
      <trkpt lat="45.87759" lon="4.77512">
        <ele>224</ele>
        <time>2017-08-22T08:57:20Z</time>
      </trkpt>
      <trkpt lat="45.87755" lon="4.77509">
        <ele>224</ele>
        <time>2017-08-22T08:57:21Z</time>
      </trkpt>
      <trkpt lat="45.8775" lon="4.77506">
        <ele>224</ele>
        <time>2017-08-22T08:57:22Z</time>
      </trkpt>
      <trkpt lat="45.87746" lon="4.77503">
        <ele>224</ele>
        <time>2017-08-22T08:57:23Z</time>
      </trkpt>
      <trkpt lat="45.87738" lon="4.77498">
        <ele>225</ele>
        <time>2017-08-22T08:57:25Z</time>
      </trkpt>
      <trkpt lat="45.87734" lon="4.77496">
        <ele>225</ele>
        <time>2017-08-22T08:57:26Z</time>
      </trkpt>
      <trkpt lat="45.87726" lon="4.7749">
        <ele>226</ele>
        <time>2017-08-22T08:57:28Z</time>
      </trkpt>
      <trkpt lat="45.87721" lon="4.77489">
        <ele>226</ele>
        <time>2017-08-22T08:57:29Z</time>
      </trkpt>
      <trkpt lat="45.87717" lon="4.77488">
        <ele>226</ele>
        <time>2017-08-22T08:57:30Z</time>
      </trkpt>
      <trkpt lat="45.87712" lon="4.77487">
        <ele>226</ele>
        <time>2017-08-22T08:57:31Z</time>
      </trkpt>
      <trkpt lat="45.87703" lon="4.77486">
        <ele>227</ele>
        <time>2017-08-22T08:57:33Z</time>
      </trkpt>
      <trkpt lat="45.87699" lon="4.77487">
        <ele>227</ele>
        <time>2017-08-22T08:57:34Z</time>
      </trkpt>
      <trkpt lat="45.87694" lon="4.77486">
        <ele>227</ele>
        <time>2017-08-22T08:57:35Z</time>
      </trkpt>
      <trkpt lat="45.87689" lon="4.77485">
        <ele>227</ele>
        <time>2017-08-22T08:57:36Z</time>
      </trkpt>
      <trkpt lat="45.87681" lon="4.77486">
        <ele>227</ele>
        <time>2017-08-22T08:57:38Z</time>
      </trkpt>
      <trkpt lat="45.87676" lon="4.77487">
        <ele>228</ele>
        <time>2017-08-22T08:57:39Z</time>
      </trkpt>
      <trkpt lat="45.87668" lon="4.77487">
        <ele>228</ele>
        <time>2017-08-22T08:57:41Z</time>
      </trkpt>
      <trkpt lat="45.87664" lon="4.77487">
        <ele>230</ele>
        <time>2017-08-22T08:57:42Z</time>
      </trkpt>
      <trkpt lat="45.87656" lon="4.77489">
        <ele>230</ele>
        <time>2017-08-22T08:57:44Z</time>
      </trkpt>
      <trkpt lat="45.87652" lon="4.77489">
        <ele>230</ele>
        <time>2017-08-22T08:57:45Z</time>
      </trkpt>
      <trkpt lat="45.87648" lon="4.77488">
        <ele>230</ele>
        <time>2017-08-22T08:57:46Z</time>
      </trkpt>
      <trkpt lat="45.87643" lon="4.77489">
        <ele>230</ele>
        <time>2017-08-22T08:57:47Z</time>
      </trkpt>
      <trkpt lat="45.87635" lon="4.77489">
        <ele>231</ele>
        <time>2017-08-22T08:57:49Z</time>
      </trkpt>
      <trkpt lat="45.8763" lon="4.7749">
        <ele>231</ele>
        <time>2017-08-22T08:57:50Z</time>
      </trkpt>
      <trkpt lat="45.87626" lon="4.77491">
        <ele>231</ele>
        <time>2017-08-22T08:57:51Z</time>
      </trkpt>
      <trkpt lat="45.87621" lon="4.77492">
        <ele>231</ele>
        <time>2017-08-22T08:57:52Z</time>
      </trkpt>
      <trkpt lat="45.87613" lon="4.77495">
        <ele>231</ele>
        <time>2017-08-22T08:57:54Z</time>
      </trkpt>
      <trkpt lat="45.87609" lon="4.77495">
        <ele>231</ele>
        <time>2017-08-22T08:57:55Z</time>
      </trkpt>
      <trkpt lat="45.87602" lon="4.77498">
        <ele>231</ele>
        <time>2017-08-22T08:57:57Z</time>
      </trkpt>
      <trkpt lat="45.87598" lon="4.77499">
        <ele>232</ele>
        <time>2017-08-22T08:57:58Z</time>
      </trkpt>
      <trkpt lat="45.87591" lon="4.77499">
        <ele>232</ele>
        <time>2017-08-22T08:58:00Z</time>
      </trkpt>
      <trkpt lat="45.87588" lon="4.775">
        <ele>232</ele>
        <time>2017-08-22T08:58:01Z</time>
      </trkpt>
      <trkpt lat="45.87581" lon="4.775">
        <ele>232</ele>
        <time>2017-08-22T08:58:03Z</time>
      </trkpt>
      <trkpt lat="45.87577" lon="4.775">
        <ele>232</ele>
        <time>2017-08-22T08:58:04Z</time>
      </trkpt>
      <trkpt lat="45.87569" lon="4.775">
        <ele>232</ele>
        <time>2017-08-22T08:58:06Z</time>
      </trkpt>
      <trkpt lat="45.87565" lon="4.77499">
        <ele>233</ele>
        <time>2017-08-22T08:58:07Z</time>
      </trkpt>
      <trkpt lat="45.87558" lon="4.77495">
        <ele>233</ele>
        <time>2017-08-22T08:58:09Z</time>
      </trkpt>
      <trkpt lat="45.87556" lon="4.77492">
        <ele>233</ele>
        <time>2017-08-22T08:58:10Z</time>
      </trkpt>
      <trkpt lat="45.8755" lon="4.77484">
        <ele>233</ele>
        <time>2017-08-22T08:58:12Z</time>
      </trkpt>
      <trkpt lat="45.87547" lon="4.77481">
        <ele>233</ele>
        <time>2017-08-22T08:58:13Z</time>
      </trkpt>
      <trkpt lat="45.87541" lon="4.77473">
        <ele>233</ele>
        <time>2017-08-22T08:58:15Z</time>
      </trkpt>
      <trkpt lat="45.87538" lon="4.77468">
        <ele>233</ele>
        <time>2017-08-22T08:58:16Z</time>
      </trkpt>
      <trkpt lat="45.87533" lon="4.77459">
        <ele>233</ele>
        <time>2017-08-22T08:58:18Z</time>
      </trkpt>
      <trkpt lat="45.8753" lon="4.77455">
        <ele>234</ele>
        <time>2017-08-22T08:58:19Z</time>
      </trkpt>
      <trkpt lat="45.87524" lon="4.77446">
        <ele>233</ele>
        <time>2017-08-22T08:58:21Z</time>
      </trkpt>
      <trkpt lat="45.87521" lon="4.77442">
        <ele>233</ele>
        <time>2017-08-22T08:58:22Z</time>
      </trkpt>
      <trkpt lat="45.87516" lon="4.77433">
        <ele>233</ele>
        <time>2017-08-22T08:58:24Z</time>
      </trkpt>
      <trkpt lat="45.87513" lon="4.77429">
        <ele>233</ele>
        <time>2017-08-22T08:58:25Z</time>
      </trkpt>
      <trkpt lat="45.87508" lon="4.77419">
        <ele>233</ele>
        <time>2017-08-22T08:58:27Z</time>
      </trkpt>
      <trkpt lat="45.87504" lon="4.77414">
        <ele>233</ele>
        <time>2017-08-22T08:58:28Z</time>
      </trkpt>
      <trkpt lat="45.87501" lon="4.77409">
        <ele>233</ele>
        <time>2017-08-22T08:58:29Z</time>
      </trkpt>
      <trkpt lat="45.87498" lon="4.77404">
        <ele>234</ele>
        <time>2017-08-22T08:58:30Z</time>
      </trkpt>
      <trkpt lat="45.87494" lon="4.77393">
        <ele>235</ele>
        <time>2017-08-22T08:58:32Z</time>
      </trkpt>
      <trkpt lat="45.87492" lon="4.77387">
        <ele>235</ele>
        <time>2017-08-22T08:58:33Z</time>
      </trkpt>
      <trkpt lat="45.87489" lon="4.77377">
        <ele>235</ele>
        <time>2017-08-22T08:58:35Z</time>
      </trkpt>
      <trkpt lat="45.87487" lon="4.77372">
        <ele>235</ele>
        <time>2017-08-22T08:58:36Z</time>
      </trkpt>
      <trkpt lat="45.87485" lon="4.77361">
        <ele>235</ele>
        <time>2017-08-22T08:58:38Z</time>
      </trkpt>
      <trkpt lat="45.87483" lon="4.77355">
        <ele>235</ele>
        <time>2017-08-22T08:58:39Z</time>
      </trkpt>
      <trkpt lat="45.87481" lon="4.77345">
        <ele>235</ele>
        <time>2017-08-22T08:58:41Z</time>
      </trkpt>
      <trkpt lat="45.8748" lon="4.77339">
        <ele>235</ele>
        <time>2017-08-22T08:58:42Z</time>
      </trkpt>
      <trkpt lat="45.87478" lon="4.77328">
        <ele>235</ele>
        <time>2017-08-22T08:58:44Z</time>
      </trkpt>
      <trkpt lat="45.87477" lon="4.77323">
        <ele>235</ele>
        <time>2017-08-22T08:58:45Z</time>
      </trkpt>
      <trkpt lat="45.87474" lon="4.77311">
        <ele>235</ele>
        <time>2017-08-22T08:58:47Z</time>
      </trkpt>
      <trkpt lat="45.87473" lon="4.77305">
        <ele>235</ele>
        <time>2017-08-22T08:58:48Z</time>
      </trkpt>
      <trkpt lat="45.87469" lon="4.77293">
        <ele>235</ele>
        <time>2017-08-22T08:58:50Z</time>
      </trkpt>
      <trkpt lat="45.87468" lon="4.77288">
        <ele>235</ele>
        <time>2017-08-22T08:58:51Z</time>
      </trkpt>
      <trkpt lat="45.87464" lon="4.77276">
        <ele>235</ele>
        <time>2017-08-22T08:58:53Z</time>
      </trkpt>
      <trkpt lat="45.87462" lon="4.77271">
        <ele>235</ele>
        <time>2017-08-22T08:58:54Z</time>
      </trkpt>
      <trkpt lat="45.87456" lon="4.77262">
        <ele>235</ele>
        <time>2017-08-22T08:58:56Z</time>
      </trkpt>
      <trkpt lat="45.87454" lon="4.77257">
        <ele>235</ele>
        <time>2017-08-22T08:58:57Z</time>
      </trkpt>
      <trkpt lat="45.87448" lon="4.77249">
        <ele>235</ele>
        <time>2017-08-22T08:58:59Z</time>
      </trkpt>
      <trkpt lat="45.87445" lon="4.77244">
        <ele>235</ele>
        <time>2017-08-22T08:59:00Z</time>
      </trkpt>
      <trkpt lat="45.87439" lon="4.77239">
        <ele>235</ele>
        <time>2017-08-22T08:59:02Z</time>
      </trkpt>
      <trkpt lat="45.87435" lon="4.77236">
        <ele>235</ele>
        <time>2017-08-22T08:59:03Z</time>
      </trkpt>
      <trkpt lat="45.87427" lon="4.77231">
        <ele>235</ele>
        <time>2017-08-22T08:59:05Z</time>
      </trkpt>
      <trkpt lat="45.87422" lon="4.77228">
        <ele>235</ele>
        <time>2017-08-22T08:59:06Z</time>
      </trkpt>
      <trkpt lat="45.87417" lon="4.77226">
        <ele>235</ele>
        <time>2017-08-22T08:59:07Z</time>
      </trkpt>
      <trkpt lat="45.87413" lon="4.77223">
        <ele>238</ele>
        <time>2017-08-22T08:59:08Z</time>
      </trkpt>
      <trkpt lat="45.87408" lon="4.77222">
        <ele>238</ele>
        <time>2017-08-22T08:59:09Z</time>
      </trkpt>
      <trkpt lat="45.87403" lon="4.7722">
        <ele>238</ele>
        <time>2017-08-22T08:59:10Z</time>
      </trkpt>
      <trkpt lat="45.87399" lon="4.77219">
        <ele>238</ele>
        <time>2017-08-22T08:59:11Z</time>
      </trkpt>
      <trkpt lat="45.87394" lon="4.77217">
        <ele>239</ele>
        <time>2017-08-22T08:59:12Z</time>
      </trkpt>
      <trkpt lat="45.87389" lon="4.77216">
        <ele>239</ele>
        <time>2017-08-22T08:59:13Z</time>
      </trkpt>
      <trkpt lat="45.87385" lon="4.77215">
        <ele>239</ele>
        <time>2017-08-22T08:59:14Z</time>
      </trkpt>
      <trkpt lat="45.8738" lon="4.77215">
        <ele>239</ele>
        <time>2017-08-22T08:59:15Z</time>
      </trkpt>
      <trkpt lat="45.87376" lon="4.77215">
        <ele>239</ele>
        <time>2017-08-22T08:59:16Z</time>
      </trkpt>
      <trkpt lat="45.87367" lon="4.77216">
        <ele>240</ele>
        <time>2017-08-22T08:59:18Z</time>
      </trkpt>
      <trkpt lat="45.87363" lon="4.77217">
        <ele>240</ele>
        <time>2017-08-22T08:59:19Z</time>
      </trkpt>
      <trkpt lat="45.87354" lon="4.77218">
        <ele>240</ele>
        <time>2017-08-22T08:59:21Z</time>
      </trkpt>
      <trkpt lat="45.87351" lon="4.77218">
        <ele>240</ele>
        <time>2017-08-22T08:59:22Z</time>
      </trkpt>
      <trkpt lat="45.87342" lon="4.7722">
        <ele>240</ele>
        <time>2017-08-22T08:59:24Z</time>
      </trkpt>
      <trkpt lat="45.87337" lon="4.7722">
        <ele>241</ele>
        <time>2017-08-22T08:59:25Z</time>
      </trkpt>
      <trkpt lat="45.87329" lon="4.77221">
        <ele>243</ele>
        <time>2017-08-22T08:59:27Z</time>
      </trkpt>
      <trkpt lat="45.87325" lon="4.77222">
        <ele>244</ele>
        <time>2017-08-22T08:59:28Z</time>
      </trkpt>
      <trkpt lat="45.8732" lon="4.77222">
        <ele>244</ele>
        <time>2017-08-22T08:59:29Z</time>
      </trkpt>
      <trkpt lat="45.87315" lon="4.77223">
        <ele>244</ele>
        <time>2017-08-22T08:59:30Z</time>
      </trkpt>
      <trkpt lat="45.8731" lon="4.77223">
        <ele>244</ele>
        <time>2017-08-22T08:59:31Z</time>
      </trkpt>
      <trkpt lat="45.87305" lon="4.77222">
        <ele>244</ele>
        <time>2017-08-22T08:59:32Z</time>
      </trkpt>
      <trkpt lat="45.87296" lon="4.77219">
        <ele>244</ele>
        <time>2017-08-22T08:59:34Z</time>
      </trkpt>
      <trkpt lat="45.87292" lon="4.77218">
        <ele>244</ele>
        <time>2017-08-22T08:59:35Z</time>
      </trkpt>
      <trkpt lat="45.87286" lon="4.7721">
        <ele>244</ele>
        <time>2017-08-22T08:59:37Z</time>
      </trkpt>
      <trkpt lat="45.87284" lon="4.77204">
        <ele>244</ele>
        <time>2017-08-22T08:59:38Z</time>
      </trkpt>
      <trkpt lat="45.87281" lon="4.77199">
        <ele>244</ele>
        <time>2017-08-22T08:59:39Z</time>
      </trkpt>
      <trkpt lat="45.87278" lon="4.77193">
        <ele>244</ele>
        <time>2017-08-22T08:59:40Z</time>
      </trkpt>
      <trkpt lat="45.87276" lon="4.77186">
        <ele>244</ele>
        <time>2017-08-22T08:59:41Z</time>
      </trkpt>
      <trkpt lat="45.87275" lon="4.7718">
        <ele>244</ele>
        <time>2017-08-22T08:59:42Z</time>
      </trkpt>
      <trkpt lat="45.87274" lon="4.77173">
        <ele>244</ele>
        <time>2017-08-22T08:59:43Z</time>
      </trkpt>
      <trkpt lat="45.87274" lon="4.77167">
        <ele>242</ele>
        <time>2017-08-22T08:59:44Z</time>
      </trkpt>
      <trkpt lat="45.87274" lon="4.7716">
        <ele>242</ele>
        <time>2017-08-22T08:59:45Z</time>
      </trkpt>
      <trkpt lat="45.87273" lon="4.77153">
        <ele>242</ele>
        <time>2017-08-22T08:59:46Z</time>
      </trkpt>
      <trkpt lat="45.87273" lon="4.77142">
        <ele>241</ele>
        <time>2017-08-22T08:59:48Z</time>
      </trkpt>
      <trkpt lat="45.87274" lon="4.77136">
        <ele>241</ele>
        <time>2017-08-22T08:59:49Z</time>
      </trkpt>
      <trkpt lat="45.87274" lon="4.77125">
        <ele>241</ele>
        <time>2017-08-22T08:59:51Z</time>
      </trkpt>
      <trkpt lat="45.87274" lon="4.77119">
        <ele>240</ele>
        <time>2017-08-22T08:59:52Z</time>
      </trkpt>
      <trkpt lat="45.87275" lon="4.77112">
        <ele>240</ele>
        <time>2017-08-22T08:59:53Z</time>
      </trkpt>
      <trkpt lat="45.87275" lon="4.77105">
        <ele>240</ele>
        <time>2017-08-22T08:59:54Z</time>
      </trkpt>
      <trkpt lat="45.87275" lon="4.77098">
        <ele>240</ele>
        <time>2017-08-22T08:59:55Z</time>
      </trkpt>
      <trkpt lat="45.87275" lon="4.77092">
        <ele>240</ele>
        <time>2017-08-22T08:59:56Z</time>
      </trkpt>
      <trkpt lat="45.87277" lon="4.7708">
        <ele>239</ele>
        <time>2017-08-22T08:59:58Z</time>
      </trkpt>
      <trkpt lat="45.87276" lon="4.77073">
        <ele>239</ele>
        <time>2017-08-22T08:59:59Z</time>
      </trkpt>
      <trkpt lat="45.87274" lon="4.77061">
        <ele>239</ele>
        <time>2017-08-22T09:00:01Z</time>
      </trkpt>
      <trkpt lat="45.87274" lon="4.77054">
        <ele>239</ele>
        <time>2017-08-22T09:00:02Z</time>
      </trkpt>
      <trkpt lat="45.87273" lon="4.77046">
        <ele>239</ele>
        <time>2017-08-22T09:00:03Z</time>
      </trkpt>
      <trkpt lat="45.87272" lon="4.77038">
        <ele>239</ele>
        <time>2017-08-22T09:00:04Z</time>
      </trkpt>
      <trkpt lat="45.8727" lon="4.7703">
        <ele>239</ele>
        <time>2017-08-22T09:00:05Z</time>
      </trkpt>
      <trkpt lat="45.87269" lon="4.77023">
        <ele>239</ele>
        <time>2017-08-22T09:00:06Z</time>
      </trkpt>
      <trkpt lat="45.87268" lon="4.77016">
        <ele>239</ele>
        <time>2017-08-22T09:00:07Z</time>
      </trkpt>
      <trkpt lat="45.87268" lon="4.7701">
        <ele>239</ele>
        <time>2017-08-22T09:00:08Z</time>
      </trkpt>
      <trkpt lat="45.87269" lon="4.76997">
        <ele>240</ele>
        <time>2017-08-22T09:00:10Z</time>
      </trkpt>
      <trkpt lat="45.87269" lon="4.76991">
        <ele>240</ele>
        <time>2017-08-22T09:00:11Z</time>
      </trkpt>
      <trkpt lat="45.87269" lon="4.76979">
        <ele>240</ele>
        <time>2017-08-22T09:00:13Z</time>
      </trkpt>
      <trkpt lat="45.87269" lon="4.76972">
        <ele>240</ele>
        <time>2017-08-22T09:00:14Z</time>
      </trkpt>
      <trkpt lat="45.87267" lon="4.76964">
        <ele>240</ele>
        <time>2017-08-22T09:00:15Z</time>
      </trkpt>
      <trkpt lat="45.87266" lon="4.76957">
        <ele>240</ele>
        <time>2017-08-22T09:00:16Z</time>
      </trkpt>
      <trkpt lat="45.87266" lon="4.7695">
        <ele>240</ele>
        <time>2017-08-22T09:00:17Z</time>
      </trkpt>
      <trkpt lat="45.87266" lon="4.76944">
        <ele>241</ele>
        <time>2017-08-22T09:00:18Z</time>
      </trkpt>
      <trkpt lat="45.87266" lon="4.76937">
        <ele>241</ele>
        <time>2017-08-22T09:00:19Z</time>
      </trkpt>
      <trkpt lat="45.87266" lon="4.7693">
        <ele>241</ele>
        <time>2017-08-22T09:00:20Z</time>
      </trkpt>
      <trkpt lat="45.87266" lon="4.76923">
        <ele>241</ele>
        <time>2017-08-22T09:00:21Z</time>
      </trkpt>
      <trkpt lat="45.87265" lon="4.76916">
        <ele>241</ele>
        <time>2017-08-22T09:00:22Z</time>
      </trkpt>
      <trkpt lat="45.87265" lon="4.76908">
        <ele>241</ele>
        <time>2017-08-22T09:00:23Z</time>
      </trkpt>
      <trkpt lat="45.87265" lon="4.769">
        <ele>240</ele>
        <time>2017-08-22T09:00:24Z</time>
      </trkpt>
      <trkpt lat="45.87266" lon="4.76892">
        <ele>240</ele>
        <time>2017-08-22T09:00:25Z</time>
      </trkpt>
      <trkpt lat="45.87266" lon="4.76884">
        <ele>240</ele>
        <time>2017-08-22T09:00:26Z</time>
      </trkpt>
      <trkpt lat="45.87266" lon="4.76875">
        <ele>240</ele>
        <time>2017-08-22T09:00:27Z</time>
      </trkpt>
      <trkpt lat="45.87266" lon="4.76867">
        <ele>239</ele>
        <time>2017-08-22T09:00:28Z</time>
      </trkpt>
      <trkpt lat="45.87266" lon="4.76859">
        <ele>239</ele>
        <time>2017-08-22T09:00:29Z</time>
      </trkpt>
      <trkpt lat="45.87267" lon="4.76849">
        <ele>239</ele>
        <time>2017-08-22T09:00:30Z</time>
      </trkpt>
      <trkpt lat="45.87266" lon="4.76841">
        <ele>239</ele>
        <time>2017-08-22T09:00:31Z</time>
      </trkpt>
      <trkpt lat="45.87266" lon="4.76833">
        <ele>237</ele>
        <time>2017-08-22T09:00:32Z</time>
      </trkpt>
      <trkpt lat="45.87266" lon="4.76823">
        <ele>237</ele>
        <time>2017-08-22T09:00:33Z</time>
      </trkpt>
      <trkpt lat="45.87267" lon="4.76815">
        <ele>237</ele>
        <time>2017-08-22T09:00:34Z</time>
      </trkpt>
      <trkpt lat="45.87266" lon="4.76806">
        <ele>237</ele>
        <time>2017-08-22T09:00:35Z</time>
      </trkpt>
      <trkpt lat="45.87266" lon="4.76797">
        <ele>236</ele>
        <time>2017-08-22T09:00:36Z</time>
      </trkpt>
      <trkpt lat="45.87266" lon="4.76788">
        <ele>236</ele>
        <time>2017-08-22T09:00:37Z</time>
      </trkpt>
      <trkpt lat="45.87267" lon="4.7678">
        <ele>236</ele>
        <time>2017-08-22T09:00:38Z</time>
      </trkpt>
      <trkpt lat="45.87265" lon="4.76771">
        <ele>236</ele>
        <time>2017-08-22T09:00:39Z</time>
      </trkpt>
      <trkpt lat="45.87266" lon="4.76762">
        <ele>236</ele>
        <time>2017-08-22T09:00:40Z</time>
      </trkpt>
      <trkpt lat="45.87267" lon="4.76753">
        <ele>236</ele>
        <time>2017-08-22T09:00:41Z</time>
      </trkpt>
      <trkpt lat="45.87268" lon="4.76744">
        <ele>235</ele>
        <time>2017-08-22T09:00:42Z</time>
      </trkpt>
      <trkpt lat="45.87268" lon="4.76736">
        <ele>234</ele>
        <time>2017-08-22T09:00:43Z</time>
      </trkpt>
      <trkpt lat="45.87268" lon="4.76728">
        <ele>234</ele>
        <time>2017-08-22T09:00:44Z</time>
      </trkpt>
      <trkpt lat="45.87267" lon="4.76719">
        <ele>234</ele>
        <time>2017-08-22T09:00:45Z</time>
      </trkpt>
      <trkpt lat="45.87266" lon="4.76711">
        <ele>234</ele>
        <time>2017-08-22T09:00:46Z</time>
      </trkpt>
      <trkpt lat="45.87266" lon="4.76703">
        <ele>234</ele>
        <time>2017-08-22T09:00:47Z</time>
      </trkpt>
      <trkpt lat="45.87266" lon="4.76695">
        <ele>234</ele>
        <time>2017-08-22T09:00:48Z</time>
      </trkpt>
      <trkpt lat="45.87266" lon="4.76687">
        <ele>234</ele>
        <time>2017-08-22T09:00:49Z</time>
      </trkpt>
      <trkpt lat="45.87266" lon="4.76679">
        <ele>234</ele>
        <time>2017-08-22T09:00:50Z</time>
      </trkpt>
      <trkpt lat="45.87266" lon="4.76672">
        <ele>234</ele>
        <time>2017-08-22T09:00:51Z</time>
      </trkpt>
      <trkpt lat="45.87265" lon="4.76664">
        <ele>234</ele>
        <time>2017-08-22T09:00:52Z</time>
      </trkpt>
      <trkpt lat="45.87266" lon="4.76657">
        <ele>234</ele>
        <time>2017-08-22T09:00:53Z</time>
      </trkpt>
      <trkpt lat="45.87266" lon="4.7665">
        <ele>234</ele>
        <time>2017-08-22T09:00:54Z</time>
      </trkpt>
      <trkpt lat="45.87266" lon="4.76643">
        <ele>234</ele>
        <time>2017-08-22T09:00:55Z</time>
      </trkpt>
      <trkpt lat="45.87266" lon="4.76636">
        <ele>234</ele>
        <time>2017-08-22T09:00:56Z</time>
      </trkpt>
      <trkpt lat="45.87265" lon="4.76629">
        <ele>234</ele>
        <time>2017-08-22T09:00:57Z</time>
      </trkpt>
      <trkpt lat="45.87265" lon="4.76621">
        <ele>234</ele>
        <time>2017-08-22T09:00:58Z</time>
      </trkpt>
      <trkpt lat="45.87264" lon="4.76613">
        <ele>234</ele>
        <time>2017-08-22T09:00:59Z</time>
      </trkpt>
      <trkpt lat="45.87264" lon="4.76605">
        <ele>235</ele>
        <time>2017-08-22T09:01:00Z</time>
      </trkpt>
      <trkpt lat="45.87262" lon="4.76597">
        <ele>235</ele>
        <time>2017-08-22T09:01:01Z</time>
      </trkpt>
      <trkpt lat="45.87261" lon="4.76589">
        <ele>235</ele>
        <time>2017-08-22T09:01:02Z</time>
      </trkpt>
      <trkpt lat="45.87261" lon="4.7658">
        <ele>236</ele>
        <time>2017-08-22T09:01:03Z</time>
      </trkpt>
      <trkpt lat="45.8726" lon="4.76571">
        <ele>236</ele>
        <time>2017-08-22T09:01:04Z</time>
      </trkpt>
      <trkpt lat="45.87259" lon="4.76562">
        <ele>235</ele>
        <time>2017-08-22T09:01:05Z</time>
      </trkpt>
      <trkpt lat="45.87259" lon="4.76554">
        <ele>235</ele>
        <time>2017-08-22T09:01:06Z</time>
      </trkpt>
      <trkpt lat="45.87258" lon="4.76547">
        <ele>235</ele>
        <time>2017-08-22T09:01:07Z</time>
      </trkpt>
      <trkpt lat="45.87259" lon="4.7654">
        <ele>236</ele>
        <time>2017-08-22T09:01:08Z</time>
      </trkpt>
      <trkpt lat="45.87256" lon="4.76531">
        <ele>236</ele>
        <time>2017-08-22T09:01:09Z</time>
      </trkpt>
      <trkpt lat="45.87256" lon="4.76523">
        <ele>236</ele>
        <time>2017-08-22T09:01:10Z</time>
      </trkpt>
      <trkpt lat="45.87255" lon="4.76516">
        <ele>236</ele>
        <time>2017-08-22T09:01:11Z</time>
      </trkpt>
      <trkpt lat="45.87256" lon="4.76508">
        <ele>236</ele>
        <time>2017-08-22T09:01:12Z</time>
      </trkpt>
      <trkpt lat="45.87256" lon="4.76501">
        <ele>237</ele>
        <time>2017-08-22T09:01:13Z</time>
      </trkpt>
      <trkpt lat="45.87255" lon="4.76493">
        <ele>236</ele>
        <time>2017-08-22T09:01:14Z</time>
      </trkpt>
      <trkpt lat="45.87255" lon="4.76486">
        <ele>236</ele>
        <time>2017-08-22T09:01:15Z</time>
      </trkpt>
      <trkpt lat="45.87255" lon="4.76478">
        <ele>236</ele>
        <time>2017-08-22T09:01:16Z</time>
      </trkpt>
      <trkpt lat="45.87255" lon="4.7647">
        <ele>236</ele>
        <time>2017-08-22T09:01:17Z</time>
      </trkpt>
      <trkpt lat="45.87255" lon="4.76463">
        <ele>235</ele>
        <time>2017-08-22T09:01:18Z</time>
      </trkpt>
      <trkpt lat="45.87255" lon="4.76455">
        <ele>235</ele>
        <time>2017-08-22T09:01:19Z</time>
      </trkpt>
      <trkpt lat="45.87255" lon="4.76448">
        <ele>235</ele>
        <time>2017-08-22T09:01:20Z</time>
      </trkpt>
      <trkpt lat="45.87255" lon="4.7644">
        <ele>235</ele>
        <time>2017-08-22T09:01:21Z</time>
      </trkpt>
      <trkpt lat="45.87256" lon="4.76431">
        <ele>235</ele>
        <time>2017-08-22T09:01:22Z</time>
      </trkpt>
      <trkpt lat="45.87255" lon="4.76424">
        <ele>236</ele>
        <time>2017-08-22T09:01:23Z</time>
      </trkpt>
      <trkpt lat="45.87255" lon="4.76416">
        <ele>235</ele>
        <time>2017-08-22T09:01:24Z</time>
      </trkpt>
      <trkpt lat="45.87256" lon="4.76409">
        <ele>235</ele>
        <time>2017-08-22T09:01:25Z</time>
      </trkpt>
      <trkpt lat="45.87256" lon="4.76402">
        <ele>235</ele>
        <time>2017-08-22T09:01:26Z</time>
      </trkpt>
      <trkpt lat="45.87256" lon="4.76395">
        <ele>234</ele>
        <time>2017-08-22T09:01:27Z</time>
      </trkpt>
      <trkpt lat="45.87256" lon="4.76387">
        <ele>234</ele>
        <time>2017-08-22T09:01:28Z</time>
      </trkpt>
      <trkpt lat="45.87256" lon="4.7638">
        <ele>234</ele>
        <time>2017-08-22T09:01:29Z</time>
      </trkpt>
      <trkpt lat="45.87256" lon="4.76372">
        <ele>234</ele>
        <time>2017-08-22T09:01:30Z</time>
      </trkpt>
      <trkpt lat="45.87255" lon="4.76364">
        <ele>234</ele>
        <time>2017-08-22T09:01:31Z</time>
      </trkpt>
      <trkpt lat="45.87256" lon="4.76356">
        <ele>234</ele>
        <time>2017-08-22T09:01:32Z</time>
      </trkpt>
      <trkpt lat="45.87256" lon="4.76349">
        <ele>234</ele>
        <time>2017-08-22T09:01:33Z</time>
      </trkpt>
      <trkpt lat="45.87256" lon="4.76341">
        <ele>234</ele>
        <time>2017-08-22T09:01:34Z</time>
      </trkpt>
      <trkpt lat="45.87254" lon="4.76333">
        <ele>234</ele>
        <time>2017-08-22T09:01:35Z</time>
      </trkpt>
      <trkpt lat="45.87254" lon="4.76325">
        <ele>233</ele>
        <time>2017-08-22T09:01:36Z</time>
      </trkpt>
      <trkpt lat="45.87253" lon="4.76317">
        <ele>233</ele>
        <time>2017-08-22T09:01:37Z</time>
      </trkpt>
      <trkpt lat="45.87253" lon="4.76309">
        <ele>233</ele>
        <time>2017-08-22T09:01:38Z</time>
      </trkpt>
      <trkpt lat="45.87253" lon="4.76301">
        <ele>233</ele>
        <time>2017-08-22T09:01:39Z</time>
      </trkpt>
      <trkpt lat="45.87253" lon="4.76293">
        <ele>233</ele>
        <time>2017-08-22T09:01:40Z</time>
      </trkpt>
      <trkpt lat="45.87253" lon="4.76285">
        <ele>233</ele>
        <time>2017-08-22T09:01:41Z</time>
      </trkpt>
      <trkpt lat="45.87253" lon="4.76277">
        <ele>233</ele>
        <time>2017-08-22T09:01:42Z</time>
      </trkpt>
      <trkpt lat="45.87251" lon="4.76268">
        <ele>234</ele>
        <time>2017-08-22T09:01:43Z</time>
      </trkpt>
      <trkpt lat="45.87251" lon="4.76261">
        <ele>234</ele>
        <time>2017-08-22T09:01:44Z</time>
      </trkpt>
      <trkpt lat="45.8725" lon="4.76253">
        <ele>235</ele>
        <time>2017-08-22T09:01:45Z</time>
      </trkpt>
      <trkpt lat="45.87249" lon="4.76245">
        <ele>235</ele>
        <time>2017-08-22T09:01:46Z</time>
      </trkpt>
      <trkpt lat="45.87248" lon="4.76237">
        <ele>235</ele>
        <time>2017-08-22T09:01:47Z</time>
      </trkpt>
      <trkpt lat="45.87247" lon="4.76228">
        <ele>235</ele>
        <time>2017-08-22T09:01:48Z</time>
      </trkpt>
      <trkpt lat="45.87248" lon="4.76221">
        <ele>235</ele>
        <time>2017-08-22T09:01:49Z</time>
      </trkpt>
      <trkpt lat="45.87248" lon="4.76213">
        <ele>234</ele>
        <time>2017-08-22T09:01:50Z</time>
      </trkpt>
      <trkpt lat="45.87248" lon="4.76205">
        <ele>234</ele>
        <time>2017-08-22T09:01:51Z</time>
      </trkpt>
      <trkpt lat="45.87248" lon="4.76196">
        <ele>234</ele>
        <time>2017-08-22T09:01:52Z</time>
      </trkpt>
      <trkpt lat="45.87248" lon="4.76188">
        <ele>234</ele>
        <time>2017-08-22T09:01:53Z</time>
      </trkpt>
      <trkpt lat="45.87248" lon="4.76179">
        <ele>233</ele>
        <time>2017-08-22T09:01:54Z</time>
      </trkpt>
      <trkpt lat="45.87248" lon="4.7617">
        <ele>232</ele>
        <time>2017-08-22T09:01:55Z</time>
      </trkpt>
      <trkpt lat="45.87247" lon="4.7616">
        <ele>232</ele>
        <time>2017-08-22T09:01:56Z</time>
      </trkpt>
      <trkpt lat="45.87247" lon="4.7615">
        <ele>232</ele>
        <time>2017-08-22T09:01:57Z</time>
      </trkpt>
      <trkpt lat="45.87247" lon="4.76141">
        <ele>232</ele>
        <time>2017-08-22T09:01:58Z</time>
      </trkpt>
      <trkpt lat="45.87246" lon="4.76131">
        <ele>232</ele>
        <time>2017-08-22T09:01:59Z</time>
      </trkpt>
      <trkpt lat="45.87246" lon="4.76122">
        <ele>232</ele>
        <time>2017-08-22T09:02:00Z</time>
      </trkpt>
      <trkpt lat="45.87246" lon="4.76113">
        <ele>232</ele>
        <time>2017-08-22T09:02:01Z</time>
      </trkpt>
      <trkpt lat="45.87245" lon="4.76104">
        <ele>231</ele>
        <time>2017-08-22T09:02:02Z</time>
      </trkpt>
      <trkpt lat="45.87245" lon="4.76095">
        <ele>231</ele>
        <time>2017-08-22T09:02:03Z</time>
      </trkpt>
      <trkpt lat="45.87247" lon="4.76085">
        <ele>230</ele>
        <time>2017-08-22T09:02:04Z</time>
      </trkpt>
      <trkpt lat="45.87246" lon="4.76077">
        <ele>230</ele>
        <time>2017-08-22T09:02:05Z</time>
      </trkpt>
      <trkpt lat="45.87245" lon="4.76069">
        <ele>230</ele>
        <time>2017-08-22T09:02:06Z</time>
      </trkpt>
      <trkpt lat="45.87245" lon="4.76061">
        <ele>230</ele>
        <time>2017-08-22T09:02:07Z</time>
      </trkpt>
      <trkpt lat="45.87244" lon="4.76053">
        <ele>230</ele>
        <time>2017-08-22T09:02:08Z</time>
      </trkpt>
      <trkpt lat="45.87243" lon="4.76044">
        <ele>230</ele>
        <time>2017-08-22T09:02:09Z</time>
      </trkpt>
      <trkpt lat="45.87242" lon="4.76036">
        <ele>230</ele>
        <time>2017-08-22T09:02:10Z</time>
      </trkpt>
      <trkpt lat="45.87241" lon="4.76027">
        <ele>230</ele>
        <time>2017-08-22T09:02:11Z</time>
      </trkpt>
      <trkpt lat="45.8724" lon="4.76018">
        <ele>230</ele>
        <time>2017-08-22T09:02:12Z</time>
      </trkpt>
      <trkpt lat="45.8724" lon="4.76009">
        <ele>229</ele>
        <time>2017-08-22T09:02:13Z</time>
      </trkpt>
      <trkpt lat="45.87239" lon="4.76">
        <ele>229</ele>
        <time>2017-08-22T09:02:14Z</time>
      </trkpt>
      <trkpt lat="45.87238" lon="4.75991">
        <ele>228</ele>
        <time>2017-08-22T09:02:15Z</time>
      </trkpt>
      <trkpt lat="45.87237" lon="4.75981">
        <ele>228</ele>
        <time>2017-08-22T09:02:16Z</time>
      </trkpt>
      <trkpt lat="45.87236" lon="4.75972">
        <ele>228</ele>
        <time>2017-08-22T09:02:17Z</time>
      </trkpt>
      <trkpt lat="45.87235" lon="4.75962">
        <ele>228</ele>
        <time>2017-08-22T09:02:18Z</time>
      </trkpt>
      <trkpt lat="45.87234" lon="4.75951">
        <ele>228</ele>
        <time>2017-08-22T09:02:19Z</time>
      </trkpt>
      <trkpt lat="45.87233" lon="4.75941">
        <ele>228</ele>
        <time>2017-08-22T09:02:20Z</time>
      </trkpt>
      <trkpt lat="45.87231" lon="4.75931">
        <ele>228</ele>
        <time>2017-08-22T09:02:21Z</time>
      </trkpt>
      <trkpt lat="45.8723" lon="4.75921">
        <ele>228</ele>
        <time>2017-08-22T09:02:22Z</time>
      </trkpt>
      <trkpt lat="45.87229" lon="4.7591">
        <ele>227</ele>
        <time>2017-08-22T09:02:23Z</time>
      </trkpt>
      <trkpt lat="45.87228" lon="4.75899">
        <ele>227</ele>
        <time>2017-08-22T09:02:24Z</time>
      </trkpt>
      <trkpt lat="45.87228" lon="4.75888">
        <ele>227</ele>
        <time>2017-08-22T09:02:25Z</time>
      </trkpt>
      <trkpt lat="45.87226" lon="4.75877">
        <ele>226</ele>
        <time>2017-08-22T09:02:26Z</time>
      </trkpt>
      <trkpt lat="45.87224" lon="4.75867">
        <ele>226</ele>
        <time>2017-08-22T09:02:27Z</time>
      </trkpt>
      <trkpt lat="45.87223" lon="4.75856">
        <ele>226</ele>
        <time>2017-08-22T09:02:28Z</time>
      </trkpt>
      <trkpt lat="45.87221" lon="4.75845">
        <ele>226</ele>
        <time>2017-08-22T09:02:29Z</time>
      </trkpt>
      <trkpt lat="45.8722" lon="4.75834">
        <ele>226</ele>
        <time>2017-08-22T09:02:30Z</time>
      </trkpt>
      <trkpt lat="45.87218" lon="4.75824">
        <ele>224</ele>
        <time>2017-08-22T09:02:31Z</time>
      </trkpt>
      <trkpt lat="45.87216" lon="4.75813">
        <ele>224</ele>
        <time>2017-08-22T09:02:32Z</time>
      </trkpt>
      <trkpt lat="45.87213" lon="4.75803">
        <ele>224</ele>
        <time>2017-08-22T09:02:33Z</time>
      </trkpt>
      <trkpt lat="45.8721" lon="4.75793">
        <ele>224</ele>
        <time>2017-08-22T09:02:34Z</time>
      </trkpt>
      <trkpt lat="45.87207" lon="4.75782">
        <ele>224</ele>
        <time>2017-08-22T09:02:35Z</time>
      </trkpt>
      <trkpt lat="45.87203" lon="4.75773">
        <ele>224</ele>
        <time>2017-08-22T09:02:36Z</time>
      </trkpt>
      <trkpt lat="45.87199" lon="4.75763">
        <ele>224</ele>
        <time>2017-08-22T09:02:37Z</time>
      </trkpt>
      <trkpt lat="45.87196" lon="4.75754">
        <ele>224</ele>
        <time>2017-08-22T09:02:38Z</time>
      </trkpt>
      <trkpt lat="45.87194" lon="4.75745">
        <ele>223</ele>
        <time>2017-08-22T09:02:39Z</time>
      </trkpt>
      <trkpt lat="45.87191" lon="4.75737">
        <ele>223</ele>
        <time>2017-08-22T09:02:40Z</time>
      </trkpt>
      <trkpt lat="45.87189" lon="4.75728">
        <ele>223</ele>
        <time>2017-08-22T09:02:41Z</time>
      </trkpt>
      <trkpt lat="45.87188" lon="4.7572">
        <ele>223</ele>
        <time>2017-08-22T09:02:42Z</time>
      </trkpt>
      <trkpt lat="45.87186" lon="4.75713">
        <ele>223</ele>
        <time>2017-08-22T09:02:43Z</time>
      </trkpt>
      <trkpt lat="45.87184" lon="4.75705">
        <ele>223</ele>
        <time>2017-08-22T09:02:44Z</time>
      </trkpt>
      <trkpt lat="45.87183" lon="4.75698">
        <ele>223</ele>
        <time>2017-08-22T09:02:45Z</time>
      </trkpt>
      <trkpt lat="45.87182" lon="4.75691">
        <ele>223</ele>
        <time>2017-08-22T09:02:46Z</time>
      </trkpt>
      <trkpt lat="45.87181" lon="4.75683">
        <ele>223</ele>
        <time>2017-08-22T09:02:47Z</time>
      </trkpt>
      <trkpt lat="45.8718" lon="4.75674">
        <ele>223</ele>
        <time>2017-08-22T09:02:48Z</time>
      </trkpt>
      <trkpt lat="45.8718" lon="4.75666">
        <ele>223</ele>
        <time>2017-08-22T09:02:49Z</time>
      </trkpt>
      <trkpt lat="45.87179" lon="4.75658">
        <ele>222</ele>
        <time>2017-08-22T09:02:50Z</time>
      </trkpt>
      <trkpt lat="45.87179" lon="4.75649">
        <ele>222</ele>
        <time>2017-08-22T09:02:51Z</time>
      </trkpt>
      <trkpt lat="45.87179" lon="4.75641">
        <ele>222</ele>
        <time>2017-08-22T09:02:52Z</time>
      </trkpt>
      <trkpt lat="45.87179" lon="4.75632">
        <ele>222</ele>
        <time>2017-08-22T09:02:53Z</time>
      </trkpt>
      <trkpt lat="45.87179" lon="4.75624">
        <ele>222</ele>
        <time>2017-08-22T09:02:54Z</time>
      </trkpt>
      <trkpt lat="45.8718" lon="4.75615">
        <ele>222</ele>
        <time>2017-08-22T09:02:55Z</time>
      </trkpt>
      <trkpt lat="45.8718" lon="4.75607">
        <ele>222</ele>
        <time>2017-08-22T09:02:56Z</time>
      </trkpt>
      <trkpt lat="45.8718" lon="4.75598">
        <ele>222</ele>
        <time>2017-08-22T09:02:57Z</time>
      </trkpt>
      <trkpt lat="45.8718" lon="4.7559">
        <ele>222</ele>
        <time>2017-08-22T09:02:58Z</time>
      </trkpt>
      <trkpt lat="45.8718" lon="4.75582">
        <ele>222</ele>
        <time>2017-08-22T09:02:59Z</time>
      </trkpt>
      <trkpt lat="45.8718" lon="4.75573">
        <ele>222</ele>
        <time>2017-08-22T09:03:00Z</time>
      </trkpt>
      <trkpt lat="45.87181" lon="4.75565">
        <ele>222</ele>
        <time>2017-08-22T09:03:01Z</time>
      </trkpt>
      <trkpt lat="45.87181" lon="4.75556">
        <ele>222</ele>
        <time>2017-08-22T09:03:02Z</time>
      </trkpt>
      <trkpt lat="45.87181" lon="4.75546">
        <ele>222</ele>
        <time>2017-08-22T09:03:03Z</time>
      </trkpt>
      <trkpt lat="45.8718" lon="4.75536">
        <ele>222</ele>
        <time>2017-08-22T09:03:04Z</time>
      </trkpt>
      <trkpt lat="45.8718" lon="4.75526">
        <ele>222</ele>
        <time>2017-08-22T09:03:05Z</time>
      </trkpt>
      <trkpt lat="45.8718" lon="4.75516">
        <ele>222</ele>
        <time>2017-08-22T09:03:06Z</time>
      </trkpt>
      <trkpt lat="45.87181" lon="4.75507">
        <ele>222</ele>
        <time>2017-08-22T09:03:07Z</time>
      </trkpt>
      <trkpt lat="45.87181" lon="4.75497">
        <ele>223</ele>
        <time>2017-08-22T09:03:08Z</time>
      </trkpt>
      <trkpt lat="45.87181" lon="4.75488">
        <ele>222</ele>
        <time>2017-08-22T09:03:09Z</time>
      </trkpt>
      <trkpt lat="45.8718" lon="4.75478">
        <ele>222</ele>
        <time>2017-08-22T09:03:10Z</time>
      </trkpt>
      <trkpt lat="45.87181" lon="4.7547">
        <ele>222</ele>
        <time>2017-08-22T09:03:11Z</time>
      </trkpt>
      <trkpt lat="45.87181" lon="4.75461">
        <ele>222</ele>
        <time>2017-08-22T09:03:12Z</time>
      </trkpt>
      <trkpt lat="45.8718" lon="4.75453">
        <ele>222</ele>
        <time>2017-08-22T09:03:13Z</time>
      </trkpt>
      <trkpt lat="45.8718" lon="4.75444">
        <ele>222</ele>
        <time>2017-08-22T09:03:14Z</time>
      </trkpt>
      <trkpt lat="45.8718" lon="4.75436">
        <ele>222</ele>
        <time>2017-08-22T09:03:15Z</time>
      </trkpt>
      <trkpt lat="45.8718" lon="4.75427">
        <ele>223</ele>
        <time>2017-08-22T09:03:16Z</time>
      </trkpt>
      <trkpt lat="45.87179" lon="4.75418">
        <ele>223</ele>
        <time>2017-08-22T09:03:17Z</time>
      </trkpt>
      <trkpt lat="45.87179" lon="4.75409">
        <ele>223</ele>
        <time>2017-08-22T09:03:18Z</time>
      </trkpt>
      <trkpt lat="45.87178" lon="4.75401">
        <ele>223</ele>
        <time>2017-08-22T09:03:19Z</time>
      </trkpt>
      <trkpt lat="45.87178" lon="4.75392">
        <ele>223</ele>
        <time>2017-08-22T09:03:20Z</time>
      </trkpt>
      <trkpt lat="45.87177" lon="4.75383">
        <ele>223</ele>
        <time>2017-08-22T09:03:21Z</time>
      </trkpt>
      <trkpt lat="45.87177" lon="4.75374">
        <ele>223</ele>
        <time>2017-08-22T09:03:22Z</time>
      </trkpt>
      <trkpt lat="45.87177" lon="4.75365">
        <ele>223</ele>
        <time>2017-08-22T09:03:23Z</time>
      </trkpt>
      <trkpt lat="45.87177" lon="4.75356">
        <ele>223</ele>
        <time>2017-08-22T09:03:24Z</time>
      </trkpt>
      <trkpt lat="45.87176" lon="4.75347">
        <ele>223</ele>
        <time>2017-08-22T09:03:25Z</time>
      </trkpt>
      <trkpt lat="45.87176" lon="4.75338">
        <ele>224</ele>
        <time>2017-08-22T09:03:26Z</time>
      </trkpt>
      <trkpt lat="45.87175" lon="4.75329">
        <ele>224</ele>
        <time>2017-08-22T09:03:27Z</time>
      </trkpt>
      <trkpt lat="45.87175" lon="4.7532">
        <ele>223</ele>
        <time>2017-08-22T09:03:28Z</time>
      </trkpt>
      <trkpt lat="45.87174" lon="4.75312">
        <ele>223</ele>
        <time>2017-08-22T09:03:29Z</time>
      </trkpt>
      <trkpt lat="45.87173" lon="4.75304">
        <ele>223</ele>
        <time>2017-08-22T09:03:30Z</time>
      </trkpt>
      <trkpt lat="45.87173" lon="4.75296">
        <ele>223</ele>
        <time>2017-08-22T09:03:31Z</time>
      </trkpt>
      <trkpt lat="45.87172" lon="4.75289">
        <ele>223</ele>
        <time>2017-08-22T09:03:32Z</time>
      </trkpt>
      <trkpt lat="45.87171" lon="4.75282">
        <ele>223</ele>
        <time>2017-08-22T09:03:33Z</time>
      </trkpt>
      <trkpt lat="45.8717" lon="4.75275">
        <ele>223</ele>
        <time>2017-08-22T09:03:34Z</time>
      </trkpt>
      <trkpt lat="45.87169" lon="4.75267">
        <ele>223</ele>
        <time>2017-08-22T09:03:35Z</time>
      </trkpt>
      <trkpt lat="45.87167" lon="4.75259">
        <ele>223</ele>
        <time>2017-08-22T09:03:36Z</time>
      </trkpt>
      <trkpt lat="45.87165" lon="4.75251">
        <ele>223</ele>
        <time>2017-08-22T09:03:37Z</time>
      </trkpt>
      <trkpt lat="45.87163" lon="4.75243">
        <ele>224</ele>
        <time>2017-08-22T09:03:38Z</time>
      </trkpt>
      <trkpt lat="45.87162" lon="4.75235">
        <ele>224</ele>
        <time>2017-08-22T09:03:39Z</time>
      </trkpt>
      <trkpt lat="45.8716" lon="4.75227">
        <ele>224</ele>
        <time>2017-08-22T09:03:40Z</time>
      </trkpt>
      <trkpt lat="45.87159" lon="4.75218">
        <ele>225</ele>
        <time>2017-08-22T09:03:41Z</time>
      </trkpt>
      <trkpt lat="45.87157" lon="4.7521">
        <ele>225</ele>
        <time>2017-08-22T09:03:42Z</time>
      </trkpt>
      <trkpt lat="45.87156" lon="4.75201">
        <ele>225</ele>
        <time>2017-08-22T09:03:43Z</time>
      </trkpt>
      <trkpt lat="45.87154" lon="4.75193">
        <ele>225</ele>
        <time>2017-08-22T09:03:44Z</time>
      </trkpt>
      <trkpt lat="45.87153" lon="4.75184">
        <ele>225</ele>
        <time>2017-08-22T09:03:45Z</time>
      </trkpt>
      <trkpt lat="45.87151" lon="4.75175">
        <ele>225</ele>
        <time>2017-08-22T09:03:46Z</time>
      </trkpt>
      <trkpt lat="45.87149" lon="4.75167">
        <ele>225</ele>
        <time>2017-08-22T09:03:47Z</time>
      </trkpt>
      <trkpt lat="45.87148" lon="4.75158">
        <ele>225</ele>
        <time>2017-08-22T09:03:48Z</time>
      </trkpt>
      <trkpt lat="45.87146" lon="4.75149">
        <ele>225</ele>
        <time>2017-08-22T09:03:49Z</time>
      </trkpt>
      <trkpt lat="45.87144" lon="4.7514">
        <ele>225</ele>
        <time>2017-08-22T09:03:50Z</time>
      </trkpt>
      <trkpt lat="45.87142" lon="4.75131">
        <ele>225</ele>
        <time>2017-08-22T09:03:51Z</time>
      </trkpt>
      <trkpt lat="45.87141" lon="4.75123">
        <ele>225</ele>
        <time>2017-08-22T09:03:52Z</time>
      </trkpt>
      <trkpt lat="45.87139" lon="4.75115">
        <ele>225</ele>
        <time>2017-08-22T09:03:53Z</time>
      </trkpt>
      <trkpt lat="45.87138" lon="4.75107">
        <ele>225</ele>
        <time>2017-08-22T09:03:54Z</time>
      </trkpt>
      <trkpt lat="45.87137" lon="4.751">
        <ele>225</ele>
        <time>2017-08-22T09:03:55Z</time>
      </trkpt>
      <trkpt lat="45.87136" lon="4.75092">
        <ele>225</ele>
        <time>2017-08-22T09:03:56Z</time>
      </trkpt>
      <trkpt lat="45.87135" lon="4.75084">
        <ele>225</ele>
        <time>2017-08-22T09:03:57Z</time>
      </trkpt>
      <trkpt lat="45.87134" lon="4.75076">
        <ele>225</ele>
        <time>2017-08-22T09:03:58Z</time>
      </trkpt>
      <trkpt lat="45.87133" lon="4.75068">
        <ele>225</ele>
        <time>2017-08-22T09:03:59Z</time>
      </trkpt>
      <trkpt lat="45.87132" lon="4.7506">
        <ele>225</ele>
        <time>2017-08-22T09:04:00Z</time>
      </trkpt>
      <trkpt lat="45.87131" lon="4.75052">
        <ele>225</ele>
        <time>2017-08-22T09:04:01Z</time>
      </trkpt>
      <trkpt lat="45.8713" lon="4.75044">
        <ele>225</ele>
        <time>2017-08-22T09:04:02Z</time>
      </trkpt>
      <trkpt lat="45.87129" lon="4.75036">
        <ele>225</ele>
        <time>2017-08-22T09:04:03Z</time>
      </trkpt>
      <trkpt lat="45.87129" lon="4.75028">
        <ele>226</ele>
        <time>2017-08-22T09:04:04Z</time>
      </trkpt>
      <trkpt lat="45.87128" lon="4.7502">
        <ele>226</ele>
        <time>2017-08-22T09:04:05Z</time>
      </trkpt>
      <trkpt lat="45.87128" lon="4.75012">
        <ele>226</ele>
        <time>2017-08-22T09:04:06Z</time>
      </trkpt>
      <trkpt lat="45.8713" lon="4.75004">
        <ele>226</ele>
        <time>2017-08-22T09:04:07Z</time>
      </trkpt>
      <trkpt lat="45.87131" lon="4.74996">
        <ele>226</ele>
        <time>2017-08-22T09:04:08Z</time>
      </trkpt>
      <trkpt lat="45.87132" lon="4.74989">
        <ele>226</ele>
        <time>2017-08-22T09:04:09Z</time>
      </trkpt>
      <trkpt lat="45.87132" lon="4.74981">
        <ele>226</ele>
        <time>2017-08-22T09:04:10Z</time>
      </trkpt>
      <trkpt lat="45.87132" lon="4.74973">
        <ele>226</ele>
        <time>2017-08-22T09:04:11Z</time>
      </trkpt>
      <trkpt lat="45.87133" lon="4.74965">
        <ele>226</ele>
        <time>2017-08-22T09:04:12Z</time>
      </trkpt>
      <trkpt lat="45.87133" lon="4.74958">
        <ele>226</ele>
        <time>2017-08-22T09:04:13Z</time>
      </trkpt>
      <trkpt lat="45.87136" lon="4.74951">
        <ele>226</ele>
        <time>2017-08-22T09:04:14Z</time>
      </trkpt>
      <trkpt lat="45.87139" lon="4.74945">
        <ele>226</ele>
        <time>2017-08-22T09:04:15Z</time>
      </trkpt>
      <trkpt lat="45.87143" lon="4.74939">
        <ele>226</ele>
        <time>2017-08-22T09:04:16Z</time>
      </trkpt>
      <trkpt lat="45.87146" lon="4.74932">
        <ele>226</ele>
        <time>2017-08-22T09:04:17Z</time>
      </trkpt>
      <trkpt lat="45.87147" lon="4.74923">
        <ele>226</ele>
        <time>2017-08-22T09:04:18Z</time>
      </trkpt>
      <trkpt lat="45.87145" lon="4.74914">
        <ele>225</ele>
        <time>2017-08-22T09:04:19Z</time>
      </trkpt>
      <trkpt lat="45.87142" lon="4.74905">
        <ele>225</ele>
        <time>2017-08-22T09:04:20Z</time>
      </trkpt>
      <trkpt lat="45.87139" lon="4.74898">
        <ele>225</ele>
        <time>2017-08-22T09:04:21Z</time>
      </trkpt>
      <trkpt lat="45.87136" lon="4.74889">
        <ele>225</ele>
        <time>2017-08-22T09:04:22Z</time>
      </trkpt>
      <trkpt lat="45.87135" lon="4.74881">
        <ele>225</ele>
        <time>2017-08-22T09:04:23Z</time>
      </trkpt>
      <trkpt lat="45.87134" lon="4.74872">
        <ele>225</ele>
        <time>2017-08-22T09:04:24Z</time>
      </trkpt>
      <trkpt lat="45.87135" lon="4.74862">
        <ele>225</ele>
        <time>2017-08-22T09:04:25Z</time>
      </trkpt>
      <trkpt lat="45.87135" lon="4.74852">
        <ele>224</ele>
        <time>2017-08-22T09:04:26Z</time>
      </trkpt>
      <trkpt lat="45.87135" lon="4.74843">
        <ele>224</ele>
        <time>2017-08-22T09:04:27Z</time>
      </trkpt>
      <trkpt lat="45.87134" lon="4.74833">
        <ele>223</ele>
        <time>2017-08-22T09:04:28Z</time>
      </trkpt>
      <trkpt lat="45.87134" lon="4.74823">
        <ele>223</ele>
        <time>2017-08-22T09:04:29Z</time>
      </trkpt>
      <trkpt lat="45.87134" lon="4.74813">
        <ele>222</ele>
        <time>2017-08-22T09:04:30Z</time>
      </trkpt>
      <trkpt lat="45.87133" lon="4.74803">
        <ele>222</ele>
        <time>2017-08-22T09:04:31Z</time>
      </trkpt>
      <trkpt lat="45.87133" lon="4.74793">
        <ele>222</ele>
        <time>2017-08-22T09:04:32Z</time>
      </trkpt>
      <trkpt lat="45.87132" lon="4.74784">
        <ele>222</ele>
        <time>2017-08-22T09:04:33Z</time>
      </trkpt>
      <trkpt lat="45.87132" lon="4.74774">
        <ele>222</ele>
        <time>2017-08-22T09:04:34Z</time>
      </trkpt>
      <trkpt lat="45.87131" lon="4.74764">
        <ele>222</ele>
        <time>2017-08-22T09:04:35Z</time>
      </trkpt>
      <trkpt lat="45.87131" lon="4.74754">
        <ele>222</ele>
        <time>2017-08-22T09:04:36Z</time>
      </trkpt>
      <trkpt lat="45.87131" lon="4.74745">
        <ele>221</ele>
        <time>2017-08-22T09:04:37Z</time>
      </trkpt>
      <trkpt lat="45.8713" lon="4.74734">
        <ele>221</ele>
        <time>2017-08-22T09:04:38Z</time>
      </trkpt>
      <trkpt lat="45.8713" lon="4.74725">
        <ele>221</ele>
        <time>2017-08-22T09:04:39Z</time>
      </trkpt>
      <trkpt lat="45.87129" lon="4.74716">
        <ele>221</ele>
        <time>2017-08-22T09:04:40Z</time>
      </trkpt>
      <trkpt lat="45.87128" lon="4.74706">
        <ele>221</ele>
        <time>2017-08-22T09:04:41Z</time>
      </trkpt>
      <trkpt lat="45.87128" lon="4.74696">
        <ele>221</ele>
        <time>2017-08-22T09:04:42Z</time>
      </trkpt>
      <trkpt lat="45.87128" lon="4.74687">
        <ele>221</ele>
        <time>2017-08-22T09:04:43Z</time>
      </trkpt>
      <trkpt lat="45.87127" lon="4.74678">
        <ele>221</ele>
        <time>2017-08-22T09:04:44Z</time>
      </trkpt>
      <trkpt lat="45.87126" lon="4.74669">
        <ele>221</ele>
        <time>2017-08-22T09:04:45Z</time>
      </trkpt>
      <trkpt lat="45.87126" lon="4.7466">
        <ele>221</ele>
        <time>2017-08-22T09:04:46Z</time>
      </trkpt>
      <trkpt lat="45.87125" lon="4.7465">
        <ele>222</ele>
        <time>2017-08-22T09:04:47Z</time>
      </trkpt>
      <trkpt lat="45.87124" lon="4.74641">
        <ele>222</ele>
        <time>2017-08-22T09:04:48Z</time>
      </trkpt>
      <trkpt lat="45.87124" lon="4.74632">
        <ele>222</ele>
        <time>2017-08-22T09:04:49Z</time>
      </trkpt>
      <trkpt lat="45.87123" lon="4.74623">
        <ele>222</ele>
        <time>2017-08-22T09:04:50Z</time>
      </trkpt>
      <trkpt lat="45.87123" lon="4.74613">
        <ele>222</ele>
        <time>2017-08-22T09:04:51Z</time>
      </trkpt>
      <trkpt lat="45.87121" lon="4.74604">
        <ele>222</ele>
        <time>2017-08-22T09:04:52Z</time>
      </trkpt>
      <trkpt lat="45.8712" lon="4.74594">
        <ele>222</ele>
        <time>2017-08-22T09:04:53Z</time>
      </trkpt>
      <trkpt lat="45.87118" lon="4.74585">
        <ele>222</ele>
        <time>2017-08-22T09:04:54Z</time>
      </trkpt>
      <trkpt lat="45.87116" lon="4.74576">
        <ele>220</ele>
        <time>2017-08-22T09:04:55Z</time>
      </trkpt>
      <trkpt lat="45.87113" lon="4.74568">
        <ele>220</ele>
        <time>2017-08-22T09:04:56Z</time>
      </trkpt>
      <trkpt lat="45.87111" lon="4.7456">
        <ele>220</ele>
        <time>2017-08-22T09:04:57Z</time>
      </trkpt>
      <trkpt lat="45.8711" lon="4.74552">
        <ele>220</ele>
        <time>2017-08-22T09:04:58Z</time>
      </trkpt>
      <trkpt lat="45.87109" lon="4.74543">
        <ele>220</ele>
        <time>2017-08-22T09:04:59Z</time>
      </trkpt>
      <trkpt lat="45.87111" lon="4.74535">
        <ele>220</ele>
        <time>2017-08-22T09:05:00Z</time>
      </trkpt>
      <trkpt lat="45.87113" lon="4.74528">
        <ele>220</ele>
        <time>2017-08-22T09:05:01Z</time>
      </trkpt>
      <trkpt lat="45.87116" lon="4.74521">
        <ele>219</ele>
        <time>2017-08-22T09:05:02Z</time>
      </trkpt>
      <trkpt lat="45.87119" lon="4.74514">
        <ele>219</ele>
        <time>2017-08-22T09:05:03Z</time>
      </trkpt>
      <trkpt lat="45.8712" lon="4.74507">
        <ele>219</ele>
        <time>2017-08-22T09:05:04Z</time>
      </trkpt>
      <trkpt lat="45.87119" lon="4.745">
        <ele>219</ele>
        <time>2017-08-22T09:05:05Z</time>
      </trkpt>
      <trkpt lat="45.87118" lon="4.74493">
        <ele>218</ele>
        <time>2017-08-22T09:05:06Z</time>
      </trkpt>
      <trkpt lat="45.87116" lon="4.74485">
        <ele>218</ele>
        <time>2017-08-22T09:05:07Z</time>
      </trkpt>
      <trkpt lat="45.87114" lon="4.74476">
        <ele>218</ele>
        <time>2017-08-22T09:05:08Z</time>
      </trkpt>
      <trkpt lat="45.8711" lon="4.74467">
        <ele>218</ele>
        <time>2017-08-22T09:05:09Z</time>
      </trkpt>
      <trkpt lat="45.87108" lon="4.74458">
        <ele>218</ele>
        <time>2017-08-22T09:05:10Z</time>
      </trkpt>
      <trkpt lat="45.87106" lon="4.74449">
        <ele>218</ele>
        <time>2017-08-22T09:05:11Z</time>
      </trkpt>
      <trkpt lat="45.87104" lon="4.7444">
        <ele>218</ele>
        <time>2017-08-22T09:05:12Z</time>
      </trkpt>
      <trkpt lat="45.87103" lon="4.74431">
        <ele>218</ele>
        <time>2017-08-22T09:05:13Z</time>
      </trkpt>
      <trkpt lat="45.87101" lon="4.74422">
        <ele>218</ele>
        <time>2017-08-22T09:05:14Z</time>
      </trkpt>
      <trkpt lat="45.871" lon="4.74413">
        <ele>218</ele>
        <time>2017-08-22T09:05:15Z</time>
      </trkpt>
      <trkpt lat="45.87098" lon="4.74405">
        <ele>218</ele>
        <time>2017-08-22T09:05:16Z</time>
      </trkpt>
      <trkpt lat="45.87096" lon="4.74396">
        <ele>218</ele>
        <time>2017-08-22T09:05:17Z</time>
      </trkpt>
      <trkpt lat="45.87095" lon="4.74387">
        <ele>218</ele>
        <time>2017-08-22T09:05:18Z</time>
      </trkpt>
      <trkpt lat="45.87093" lon="4.74379">
        <ele>218</ele>
        <time>2017-08-22T09:05:19Z</time>
      </trkpt>
      <trkpt lat="45.87091" lon="4.74371">
        <ele>218</ele>
        <time>2017-08-22T09:05:20Z</time>
      </trkpt>
      <trkpt lat="45.87089" lon="4.74363">
        <ele>218</ele>
        <time>2017-08-22T09:05:21Z</time>
      </trkpt>
      <trkpt lat="45.87087" lon="4.74354">
        <ele>218</ele>
        <time>2017-08-22T09:05:22Z</time>
      </trkpt>
      <trkpt lat="45.87086" lon="4.74346">
        <ele>218</ele>
        <time>2017-08-22T09:05:23Z</time>
      </trkpt>
      <trkpt lat="45.87084" lon="4.74337">
        <ele>219</ele>
        <time>2017-08-22T09:05:24Z</time>
      </trkpt>
      <trkpt lat="45.87083" lon="4.74328">
        <ele>219</ele>
        <time>2017-08-22T09:05:25Z</time>
      </trkpt>
      <trkpt lat="45.87082" lon="4.74319">
        <ele>218</ele>
        <time>2017-08-22T09:05:26Z</time>
      </trkpt>
      <trkpt lat="45.8708" lon="4.74309">
        <ele>218</ele>
        <time>2017-08-22T09:05:27Z</time>
      </trkpt>
      <trkpt lat="45.87079" lon="4.743">
        <ele>218</ele>
        <time>2017-08-22T09:05:28Z</time>
      </trkpt>
      <trkpt lat="45.87078" lon="4.7429">
        <ele>217</ele>
        <time>2017-08-22T09:05:29Z</time>
      </trkpt>
      <trkpt lat="45.87078" lon="4.7428">
        <ele>217</ele>
        <time>2017-08-22T09:05:30Z</time>
      </trkpt>
      <trkpt lat="45.87077" lon="4.7427">
        <ele>216</ele>
        <time>2017-08-22T09:05:31Z</time>
      </trkpt>
      <trkpt lat="45.87077" lon="4.7426">
        <ele>215</ele>
        <time>2017-08-22T09:05:32Z</time>
      </trkpt>
      <trkpt lat="45.87077" lon="4.7425">
        <ele>214</ele>
        <time>2017-08-22T09:05:33Z</time>
      </trkpt>
      <trkpt lat="45.87077" lon="4.7424">
        <ele>214</ele>
        <time>2017-08-22T09:05:34Z</time>
      </trkpt>
      <trkpt lat="45.87077" lon="4.74229">
        <ele>214</ele>
        <time>2017-08-22T09:05:35Z</time>
      </trkpt>
      <trkpt lat="45.87077" lon="4.74218">
        <ele>214</ele>
        <time>2017-08-22T09:05:36Z</time>
      </trkpt>
      <trkpt lat="45.87077" lon="4.74207">
        <ele>213</ele>
        <time>2017-08-22T09:05:37Z</time>
      </trkpt>
      <trkpt lat="45.87077" lon="4.74196">
        <ele>213</ele>
        <time>2017-08-22T09:05:38Z</time>
      </trkpt>
      <trkpt lat="45.87078" lon="4.74186">
        <ele>213</ele>
        <time>2017-08-22T09:05:39Z</time>
      </trkpt>
      <trkpt lat="45.87078" lon="4.74175">
        <ele>212</ele>
        <time>2017-08-22T09:05:40Z</time>
      </trkpt>
      <trkpt lat="45.87078" lon="4.74165">
        <ele>211</ele>
        <time>2017-08-22T09:05:41Z</time>
      </trkpt>
      <trkpt lat="45.87079" lon="4.74156">
        <ele>212</ele>
        <time>2017-08-22T09:05:42Z</time>
      </trkpt>
      <trkpt lat="45.87079" lon="4.74147">
        <ele>212</ele>
        <time>2017-08-22T09:05:43Z</time>
      </trkpt>
      <trkpt lat="45.87079" lon="4.74139">
        <ele>212</ele>
        <time>2017-08-22T09:05:44Z</time>
      </trkpt>
      <trkpt lat="45.87079" lon="4.74132">
        <ele>212</ele>
        <time>2017-08-22T09:05:45Z</time>
      </trkpt>
      <trkpt lat="45.87079" lon="4.74124">
        <ele>212</ele>
        <time>2017-08-22T09:05:46Z</time>
      </trkpt>
      <trkpt lat="45.87078" lon="4.74117">
        <ele>212</ele>
        <time>2017-08-22T09:05:47Z</time>
      </trkpt>
      <trkpt lat="45.87078" lon="4.74109">
        <ele>212</ele>
        <time>2017-08-22T09:05:48Z</time>
      </trkpt>
      <trkpt lat="45.87078" lon="4.74101">
        <ele>212</ele>
        <time>2017-08-22T09:05:49Z</time>
      </trkpt>
      <trkpt lat="45.87078" lon="4.74093">
        <ele>212</ele>
        <time>2017-08-22T09:05:50Z</time>
      </trkpt>
      <trkpt lat="45.87078" lon="4.74085">
        <ele>212</ele>
        <time>2017-08-22T09:05:51Z</time>
      </trkpt>
      <trkpt lat="45.87078" lon="4.74076">
        <ele>213</ele>
        <time>2017-08-22T09:05:52Z</time>
      </trkpt>
      <trkpt lat="45.87078" lon="4.74067">
        <ele>213</ele>
        <time>2017-08-22T09:05:53Z</time>
      </trkpt>
      <trkpt lat="45.87078" lon="4.74059">
        <ele>214</ele>
        <time>2017-08-22T09:05:54Z</time>
      </trkpt>
      <trkpt lat="45.87077" lon="4.7405">
        <ele>214</ele>
        <time>2017-08-22T09:05:55Z</time>
      </trkpt>
      <trkpt lat="45.87077" lon="4.74041">
        <ele>215</ele>
        <time>2017-08-22T09:05:56Z</time>
      </trkpt>
      <trkpt lat="45.87077" lon="4.74032">
        <ele>215</ele>
        <time>2017-08-22T09:05:57Z</time>
      </trkpt>
      <trkpt lat="45.87077" lon="4.74023">
        <ele>215</ele>
        <time>2017-08-22T09:05:58Z</time>
      </trkpt>
      <trkpt lat="45.87077" lon="4.74014">
        <ele>215</ele>
        <time>2017-08-22T09:05:59Z</time>
      </trkpt>
      <trkpt lat="45.87077" lon="4.74005">
        <ele>216</ele>
        <time>2017-08-22T09:06:00Z</time>
      </trkpt>
      <trkpt lat="45.87077" lon="4.73996">
        <ele>216</ele>
        <time>2017-08-22T09:06:01Z</time>
      </trkpt>
      <trkpt lat="45.87077" lon="4.73988">
        <ele>217</ele>
        <time>2017-08-22T09:06:02Z</time>
      </trkpt>
      <trkpt lat="45.87077" lon="4.73979">
        <ele>217</ele>
        <time>2017-08-22T09:06:03Z</time>
      </trkpt>
      <trkpt lat="45.87077" lon="4.73971">
        <ele>217</ele>
        <time>2017-08-22T09:06:04Z</time>
      </trkpt>
      <trkpt lat="45.87077" lon="4.73963">
        <ele>217</ele>
        <time>2017-08-22T09:06:05Z</time>
      </trkpt>
      <trkpt lat="45.87076" lon="4.73955">
        <ele>218</ele>
        <time>2017-08-22T09:06:06Z</time>
      </trkpt>
      <trkpt lat="45.87076" lon="4.73946">
        <ele>218</ele>
        <time>2017-08-22T09:06:07Z</time>
      </trkpt>
      <trkpt lat="45.87076" lon="4.73938">
        <ele>218</ele>
        <time>2017-08-22T09:06:08Z</time>
      </trkpt>
      <trkpt lat="45.87076" lon="4.7393">
        <ele>218</ele>
        <time>2017-08-22T09:06:09Z</time>
      </trkpt>
      <trkpt lat="45.87076" lon="4.73923">
        <ele>218</ele>
        <time>2017-08-22T09:06:10Z</time>
      </trkpt>
      <trkpt lat="45.87075" lon="4.73915">
        <ele>218</ele>
        <time>2017-08-22T09:06:11Z</time>
      </trkpt>
      <trkpt lat="45.87075" lon="4.73907">
        <ele>218</ele>
        <time>2017-08-22T09:06:12Z</time>
      </trkpt>
      <trkpt lat="45.87075" lon="4.73899">
        <ele>218</ele>
        <time>2017-08-22T09:06:13Z</time>
      </trkpt>
      <trkpt lat="45.87075" lon="4.73891">
        <ele>218</ele>
        <time>2017-08-22T09:06:14Z</time>
      </trkpt>
      <trkpt lat="45.87075" lon="4.73883">
        <ele>218</ele>
        <time>2017-08-22T09:06:15Z</time>
      </trkpt>
      <trkpt lat="45.87075" lon="4.73874">
        <ele>218</ele>
        <time>2017-08-22T09:06:16Z</time>
      </trkpt>
      <trkpt lat="45.87075" lon="4.73865">
        <ele>218</ele>
        <time>2017-08-22T09:06:17Z</time>
      </trkpt>
      <trkpt lat="45.87075" lon="4.73857">
        <ele>218</ele>
        <time>2017-08-22T09:06:18Z</time>
      </trkpt>
      <trkpt lat="45.87075" lon="4.73848">
        <ele>218</ele>
        <time>2017-08-22T09:06:19Z</time>
      </trkpt>
      <trkpt lat="45.87075" lon="4.73839">
        <ele>217</ele>
        <time>2017-08-22T09:06:20Z</time>
      </trkpt>
      <trkpt lat="45.87075" lon="4.73829">
        <ele>217</ele>
        <time>2017-08-22T09:06:21Z</time>
      </trkpt>
      <trkpt lat="45.87075" lon="4.7382">
        <ele>217</ele>
        <time>2017-08-22T09:06:22Z</time>
      </trkpt>
      <trkpt lat="45.87075" lon="4.73811">
        <ele>217</ele>
        <time>2017-08-22T09:06:23Z</time>
      </trkpt>
      <trkpt lat="45.87075" lon="4.73802">
        <ele>217</ele>
        <time>2017-08-22T09:06:24Z</time>
      </trkpt>
      <trkpt lat="45.87076" lon="4.73792">
        <ele>217</ele>
        <time>2017-08-22T09:06:25Z</time>
      </trkpt>
      <trkpt lat="45.87077" lon="4.73783">
        <ele>217</ele>
        <time>2017-08-22T09:06:26Z</time>
      </trkpt>
      <trkpt lat="45.87077" lon="4.73774">
        <ele>217</ele>
        <time>2017-08-22T09:06:27Z</time>
      </trkpt>
      <trkpt lat="45.87078" lon="4.73764">
        <ele>216</ele>
        <time>2017-08-22T09:06:28Z</time>
      </trkpt>
      <trkpt lat="45.87079" lon="4.73755">
        <ele>216</ele>
        <time>2017-08-22T09:06:29Z</time>
      </trkpt>
      <trkpt lat="45.87079" lon="4.73746">
        <ele>216</ele>
        <time>2017-08-22T09:06:30Z</time>
      </trkpt>
      <trkpt lat="45.8708" lon="4.73737">
        <ele>216</ele>
        <time>2017-08-22T09:06:31Z</time>
      </trkpt>
      <trkpt lat="45.87081" lon="4.73728">
        <ele>216</ele>
        <time>2017-08-22T09:06:32Z</time>
      </trkpt>
      <trkpt lat="45.87082" lon="4.7372">
        <ele>217</ele>
        <time>2017-08-22T09:06:33Z</time>
      </trkpt>
      <trkpt lat="45.87083" lon="4.73711">
        <ele>217</ele>
        <time>2017-08-22T09:06:34Z</time>
      </trkpt>
      <trkpt lat="45.87085" lon="4.73702">
        <ele>214</ele>
        <time>2017-08-22T09:06:35Z</time>
      </trkpt>
      <trkpt lat="45.87086" lon="4.73693">
        <ele>214</ele>
        <time>2017-08-22T09:06:36Z</time>
      </trkpt>
      <trkpt lat="45.87087" lon="4.73684">
        <ele>215</ele>
        <time>2017-08-22T09:06:37Z</time>
      </trkpt>
      <trkpt lat="45.87088" lon="4.73675">
        <ele>215</ele>
        <time>2017-08-22T09:06:38Z</time>
      </trkpt>
      <trkpt lat="45.87089" lon="4.73666">
        <ele>215</ele>
        <time>2017-08-22T09:06:39Z</time>
      </trkpt>
      <trkpt lat="45.8709" lon="4.73658">
        <ele>215</ele>
        <time>2017-08-22T09:06:40Z</time>
      </trkpt>
      <trkpt lat="45.87091" lon="4.73649">
        <ele>214</ele>
        <time>2017-08-22T09:06:41Z</time>
      </trkpt>
      <trkpt lat="45.87092" lon="4.7364">
        <ele>214</ele>
        <time>2017-08-22T09:06:42Z</time>
      </trkpt>
      <trkpt lat="45.87093" lon="4.73631">
        <ele>214</ele>
        <time>2017-08-22T09:06:43Z</time>
      </trkpt>
      <trkpt lat="45.87094" lon="4.73622">
        <ele>214</ele>
        <time>2017-08-22T09:06:44Z</time>
      </trkpt>
      <trkpt lat="45.87095" lon="4.73613">
        <ele>214</ele>
        <time>2017-08-22T09:06:45Z</time>
      </trkpt>
      <trkpt lat="45.87097" lon="4.73604">
        <ele>214</ele>
        <time>2017-08-22T09:06:46Z</time>
      </trkpt>
      <trkpt lat="45.87098" lon="4.73594">
        <ele>214</ele>
        <time>2017-08-22T09:06:47Z</time>
      </trkpt>
      <trkpt lat="45.87099" lon="4.73585">
        <ele>214</ele>
        <time>2017-08-22T09:06:48Z</time>
      </trkpt>
      <trkpt lat="45.871" lon="4.73576">
        <ele>213</ele>
        <time>2017-08-22T09:06:49Z</time>
      </trkpt>
      <trkpt lat="45.87101" lon="4.73567">
        <ele>213</ele>
        <time>2017-08-22T09:06:50Z</time>
      </trkpt>
      <trkpt lat="45.87102" lon="4.73557">
        <ele>213</ele>
        <time>2017-08-22T09:06:51Z</time>
      </trkpt>
      <trkpt lat="45.87103" lon="4.73547">
        <ele>213</ele>
        <time>2017-08-22T09:06:52Z</time>
      </trkpt>
      <trkpt lat="45.87103" lon="4.73536">
        <ele>213</ele>
        <time>2017-08-22T09:06:53Z</time>
      </trkpt>
      <trkpt lat="45.87104" lon="4.73525">
        <ele>213</ele>
        <time>2017-08-22T09:06:54Z</time>
      </trkpt>
      <trkpt lat="45.87104" lon="4.73514">
        <ele>213</ele>
        <time>2017-08-22T09:06:55Z</time>
      </trkpt>
      <trkpt lat="45.87105" lon="4.73503">
        <ele>213</ele>
        <time>2017-08-22T09:06:56Z</time>
      </trkpt>
      <trkpt lat="45.87106" lon="4.73492">
        <ele>212</ele>
        <time>2017-08-22T09:06:57Z</time>
      </trkpt>
      <trkpt lat="45.87106" lon="4.73481">
        <ele>212</ele>
        <time>2017-08-22T09:06:58Z</time>
      </trkpt>
      <trkpt lat="45.87106" lon="4.73471">
        <ele>212</ele>
        <time>2017-08-22T09:06:59Z</time>
      </trkpt>
      <trkpt lat="45.87106" lon="4.73459">
        <ele>212</ele>
        <time>2017-08-22T09:07:00Z</time>
      </trkpt>
      <trkpt lat="45.87107" lon="4.73448">
        <ele>212</ele>
        <time>2017-08-22T09:07:01Z</time>
      </trkpt>
      <trkpt lat="45.87107" lon="4.73437">
        <ele>212</ele>
        <time>2017-08-22T09:07:02Z</time>
      </trkpt>
      <trkpt lat="45.87108" lon="4.73426">
        <ele>212</ele>
        <time>2017-08-22T09:07:03Z</time>
      </trkpt>
      <trkpt lat="45.87108" lon="4.73415">
        <ele>212</ele>
        <time>2017-08-22T09:07:04Z</time>
      </trkpt>
      <trkpt lat="45.87109" lon="4.73404">
        <ele>211</ele>
        <time>2017-08-22T09:07:05Z</time>
      </trkpt>
      <trkpt lat="45.87109" lon="4.73393">
        <ele>211</ele>
        <time>2017-08-22T09:07:06Z</time>
      </trkpt>
      <trkpt lat="45.8711" lon="4.73382">
        <ele>211</ele>
        <time>2017-08-22T09:07:07Z</time>
      </trkpt>
      <trkpt lat="45.87111" lon="4.73371">
        <ele>211</ele>
        <time>2017-08-22T09:07:08Z</time>
      </trkpt>
      <trkpt lat="45.87112" lon="4.7336">
        <ele>211</ele>
        <time>2017-08-22T09:07:09Z</time>
      </trkpt>
      <trkpt lat="45.87113" lon="4.73349">
        <ele>210</ele>
        <time>2017-08-22T09:07:10Z</time>
      </trkpt>
      <trkpt lat="45.87114" lon="4.73338">
        <ele>210</ele>
        <time>2017-08-22T09:07:11Z</time>
      </trkpt>
      <trkpt lat="45.87115" lon="4.73327">
        <ele>209</ele>
        <time>2017-08-22T09:07:12Z</time>
      </trkpt>
      <trkpt lat="45.87117" lon="4.73316">
        <ele>209</ele>
        <time>2017-08-22T09:07:13Z</time>
      </trkpt>
      <trkpt lat="45.87118" lon="4.73306">
        <ele>208</ele>
        <time>2017-08-22T09:07:14Z</time>
      </trkpt>
      <trkpt lat="45.8712" lon="4.73295">
        <ele>208</ele>
        <time>2017-08-22T09:07:15Z</time>
      </trkpt>
      <trkpt lat="45.87122" lon="4.73284">
        <ele>208</ele>
        <time>2017-08-22T09:07:16Z</time>
      </trkpt>
      <trkpt lat="45.87123" lon="4.73273">
        <ele>208</ele>
        <time>2017-08-22T09:07:17Z</time>
      </trkpt>
      <trkpt lat="45.87125" lon="4.73263">
        <ele>208</ele>
        <time>2017-08-22T09:07:18Z</time>
      </trkpt>
      <trkpt lat="45.87127" lon="4.73252">
        <ele>207</ele>
        <time>2017-08-22T09:07:19Z</time>
      </trkpt>
      <trkpt lat="45.8713" lon="4.73241">
        <ele>206</ele>
        <time>2017-08-22T09:07:20Z</time>
      </trkpt>
      <trkpt lat="45.87134" lon="4.73231">
        <ele>206</ele>
        <time>2017-08-22T09:07:21Z</time>
      </trkpt>
      <trkpt lat="45.87138" lon="4.73221">
        <ele>206</ele>
        <time>2017-08-22T09:07:22Z</time>
      </trkpt>
      <trkpt lat="45.87142" lon="4.73211">
        <ele>206</ele>
        <time>2017-08-22T09:07:23Z</time>
      </trkpt>
      <trkpt lat="45.87145" lon="4.73202">
        <ele>205</ele>
        <time>2017-08-22T09:07:24Z</time>
      </trkpt>
      <trkpt lat="45.87149" lon="4.73192">
        <ele>205</ele>
        <time>2017-08-22T09:07:25Z</time>
      </trkpt>
      <trkpt lat="45.87152" lon="4.73182">
        <ele>205</ele>
        <time>2017-08-22T09:07:26Z</time>
      </trkpt>
      <trkpt lat="45.87156" lon="4.73172">
        <ele>204</ele>
        <time>2017-08-22T09:07:27Z</time>
      </trkpt>
      <trkpt lat="45.87159" lon="4.73162">
        <ele>204</ele>
        <time>2017-08-22T09:07:28Z</time>
      </trkpt>
      <trkpt lat="45.87163" lon="4.73152">
        <ele>204</ele>
        <time>2017-08-22T09:07:29Z</time>
      </trkpt>
      <trkpt lat="45.87165" lon="4.73142">
        <ele>204</ele>
        <time>2017-08-22T09:07:30Z</time>
      </trkpt>
      <trkpt lat="45.87167" lon="4.73131">
        <ele>202</ele>
        <time>2017-08-22T09:07:31Z</time>
      </trkpt>
      <trkpt lat="45.87169" lon="4.73121">
        <ele>202</ele>
        <time>2017-08-22T09:07:32Z</time>
      </trkpt>
      <trkpt lat="45.87169" lon="4.7311">
        <ele>202</ele>
        <time>2017-08-22T09:07:33Z</time>
      </trkpt>
      <trkpt lat="45.8717" lon="4.73099">
        <ele>202</ele>
        <time>2017-08-22T09:07:34Z</time>
      </trkpt>
      <trkpt lat="45.8717" lon="4.73088">
        <ele>203</ele>
        <time>2017-08-22T09:07:35Z</time>
      </trkpt>
      <trkpt lat="45.8717" lon="4.73077">
        <ele>202</ele>
        <time>2017-08-22T09:07:36Z</time>
      </trkpt>
      <trkpt lat="45.8717" lon="4.73067">
        <ele>202</ele>
        <time>2017-08-22T09:07:37Z</time>
      </trkpt>
      <trkpt lat="45.8717" lon="4.73057">
        <ele>201</ele>
        <time>2017-08-22T09:07:38Z</time>
      </trkpt>
      <trkpt lat="45.8717" lon="4.73047">
        <ele>201</ele>
        <time>2017-08-22T09:07:39Z</time>
      </trkpt>
      <trkpt lat="45.8717" lon="4.73037">
        <ele>201</ele>
        <time>2017-08-22T09:07:40Z</time>
      </trkpt>
      <trkpt lat="45.8717" lon="4.73027">
        <ele>202</ele>
        <time>2017-08-22T09:07:41Z</time>
      </trkpt>
      <trkpt lat="45.8717" lon="4.73017">
        <ele>202</ele>
        <time>2017-08-22T09:07:42Z</time>
      </trkpt>
      <trkpt lat="45.8717" lon="4.73007">
        <ele>203</ele>
        <time>2017-08-22T09:07:43Z</time>
      </trkpt>
      <trkpt lat="45.8717" lon="4.72996">
        <ele>203</ele>
        <time>2017-08-22T09:07:44Z</time>
      </trkpt>
      <trkpt lat="45.8717" lon="4.72985">
        <ele>202</ele>
        <time>2017-08-22T09:07:45Z</time>
      </trkpt>
      <trkpt lat="45.87171" lon="4.72974">
        <ele>202</ele>
        <time>2017-08-22T09:07:46Z</time>
      </trkpt>
      <trkpt lat="45.87171" lon="4.72964">
        <ele>201</ele>
        <time>2017-08-22T09:07:47Z</time>
      </trkpt>
      <trkpt lat="45.87172" lon="4.72953">
        <ele>201</ele>
        <time>2017-08-22T09:07:48Z</time>
      </trkpt>
      <trkpt lat="45.87171" lon="4.72941">
        <ele>202</ele>
        <time>2017-08-22T09:07:49Z</time>
      </trkpt>
      <trkpt lat="45.87171" lon="4.7293">
        <ele>202</ele>
        <time>2017-08-22T09:07:50Z</time>
      </trkpt>
      <trkpt lat="45.87171" lon="4.7292">
        <ele>203</ele>
        <time>2017-08-22T09:07:51Z</time>
      </trkpt>
      <trkpt lat="45.87172" lon="4.72909">
        <ele>202</ele>
        <time>2017-08-22T09:07:52Z</time>
      </trkpt>
      <trkpt lat="45.87172" lon="4.72898">
        <ele>201</ele>
        <time>2017-08-22T09:07:53Z</time>
      </trkpt>
      <trkpt lat="45.87173" lon="4.72887">
        <ele>201</ele>
        <time>2017-08-22T09:07:54Z</time>
      </trkpt>
      <trkpt lat="45.87174" lon="4.72876">
        <ele>200</ele>
        <time>2017-08-22T09:07:55Z</time>
      </trkpt>
      <trkpt lat="45.87174" lon="4.72865">
        <ele>200</ele>
        <time>2017-08-22T09:07:56Z</time>
      </trkpt>
      <trkpt lat="45.87174" lon="4.72854">
        <ele>200</ele>
        <time>2017-08-22T09:07:57Z</time>
      </trkpt>
      <trkpt lat="45.87175" lon="4.72842">
        <ele>201</ele>
        <time>2017-08-22T09:07:58Z</time>
      </trkpt>
      <trkpt lat="45.87175" lon="4.72831">
        <ele>201</ele>
        <time>2017-08-22T09:07:59Z</time>
      </trkpt>
      <trkpt lat="45.87176" lon="4.72819">
        <ele>200</ele>
        <time>2017-08-22T09:08:00Z</time>
      </trkpt>
      <trkpt lat="45.87176" lon="4.72808">
        <ele>199</ele>
        <time>2017-08-22T09:08:01Z</time>
      </trkpt>
      <trkpt lat="45.87176" lon="4.72796">
        <ele>199</ele>
        <time>2017-08-22T09:08:02Z</time>
      </trkpt>
      <trkpt lat="45.87175" lon="4.72784">
        <ele>199</ele>
        <time>2017-08-22T09:08:03Z</time>
      </trkpt>
      <trkpt lat="45.87174" lon="4.72772">
        <ele>199</ele>
        <time>2017-08-22T09:08:04Z</time>
      </trkpt>
      <trkpt lat="45.87174" lon="4.7276">
        <ele>200</ele>
        <time>2017-08-22T09:08:05Z</time>
      </trkpt>
      <trkpt lat="45.87176" lon="4.72748">
        <ele>200</ele>
        <time>2017-08-22T09:08:06Z</time>
      </trkpt>
      <trkpt lat="45.87178" lon="4.72736">
        <ele>200</ele>
        <time>2017-08-22T09:08:07Z</time>
      </trkpt>
      <trkpt lat="45.8718" lon="4.72725">
        <ele>199</ele>
        <time>2017-08-22T09:08:08Z</time>
      </trkpt>
      <trkpt lat="45.87182" lon="4.72713">
        <ele>199</ele>
        <time>2017-08-22T09:08:09Z</time>
      </trkpt>
      <trkpt lat="45.87185" lon="4.72703">
        <ele>199</ele>
        <time>2017-08-22T09:08:10Z</time>
      </trkpt>
      <trkpt lat="45.87188" lon="4.72692">
        <ele>199</ele>
        <time>2017-08-22T09:08:11Z</time>
      </trkpt>
      <trkpt lat="45.8719" lon="4.72681">
        <ele>199</ele>
        <time>2017-08-22T09:08:12Z</time>
      </trkpt>
      <trkpt lat="45.87193" lon="4.7267">
        <ele>199</ele>
        <time>2017-08-22T09:08:13Z</time>
      </trkpt>
      <trkpt lat="45.87196" lon="4.7266">
        <ele>199</ele>
        <time>2017-08-22T09:08:14Z</time>
      </trkpt>
      <trkpt lat="45.87198" lon="4.72648">
        <ele>199</ele>
        <time>2017-08-22T09:08:15Z</time>
      </trkpt>
      <trkpt lat="45.872" lon="4.72637">
        <ele>199</ele>
        <time>2017-08-22T09:08:16Z</time>
      </trkpt>
      <trkpt lat="45.87203" lon="4.72625">
        <ele>199</ele>
        <time>2017-08-22T09:08:17Z</time>
      </trkpt>
      <trkpt lat="45.87205" lon="4.72614">
        <ele>199</ele>
        <time>2017-08-22T09:08:18Z</time>
      </trkpt>
      <trkpt lat="45.87208" lon="4.72603">
        <ele>199</ele>
        <time>2017-08-22T09:08:19Z</time>
      </trkpt>
      <trkpt lat="45.87211" lon="4.72592">
        <ele>199</ele>
        <time>2017-08-22T09:08:20Z</time>
      </trkpt>
      <trkpt lat="45.87212" lon="4.72582">
        <ele>199</ele>
        <time>2017-08-22T09:08:21Z</time>
      </trkpt>
      <trkpt lat="45.87213" lon="4.7257">
        <ele>198</ele>
        <time>2017-08-22T09:08:22Z</time>
      </trkpt>
      <trkpt lat="45.87215" lon="4.72558">
        <ele>198</ele>
        <time>2017-08-22T09:08:23Z</time>
      </trkpt>
      <trkpt lat="45.87216" lon="4.72547">
        <ele>198</ele>
        <time>2017-08-22T09:08:24Z</time>
      </trkpt>
      <trkpt lat="45.87216" lon="4.72536">
        <ele>198</ele>
        <time>2017-08-22T09:08:25Z</time>
      </trkpt>
      <trkpt lat="45.87215" lon="4.72526">
        <ele>198</ele>
        <time>2017-08-22T09:08:26Z</time>
      </trkpt>
      <trkpt lat="45.87213" lon="4.72515">
        <ele>198</ele>
        <time>2017-08-22T09:08:27Z</time>
      </trkpt>
      <trkpt lat="45.8721" lon="4.72503">
        <ele>198</ele>
        <time>2017-08-22T09:08:28Z</time>
      </trkpt>
      <trkpt lat="45.87207" lon="4.72492">
        <ele>195</ele>
        <time>2017-08-22T09:08:29Z</time>
      </trkpt>
      <trkpt lat="45.87203" lon="4.7248">
        <ele>195</ele>
        <time>2017-08-22T09:08:30Z</time>
      </trkpt>
      <trkpt lat="45.87199" lon="4.7247">
        <ele>195</ele>
        <time>2017-08-22T09:08:31Z</time>
      </trkpt>
      <trkpt lat="45.87195" lon="4.7246">
        <ele>195</ele>
        <time>2017-08-22T09:08:32Z</time>
      </trkpt>
      <trkpt lat="45.87191" lon="4.7245">
        <ele>194</ele>
        <time>2017-08-22T09:08:33Z</time>
      </trkpt>
      <trkpt lat="45.87188" lon="4.72441">
        <ele>194</ele>
        <time>2017-08-22T09:08:34Z</time>
      </trkpt>
      <trkpt lat="45.87184" lon="4.72432">
        <ele>194</ele>
        <time>2017-08-22T09:08:35Z</time>
      </trkpt>
      <trkpt lat="45.87181" lon="4.72423">
        <ele>194</ele>
        <time>2017-08-22T09:08:36Z</time>
      </trkpt>
      <trkpt lat="45.87177" lon="4.72414">
        <ele>192</ele>
        <time>2017-08-22T09:08:37Z</time>
      </trkpt>
      <trkpt lat="45.87173" lon="4.72405">
        <ele>192</ele>
        <time>2017-08-22T09:08:38Z</time>
      </trkpt>
      <trkpt lat="45.87169" lon="4.72397">
        <ele>191</ele>
        <time>2017-08-22T09:08:39Z</time>
      </trkpt>
      <trkpt lat="45.87165" lon="4.72388">
        <ele>197</ele>
        <time>2017-08-22T09:08:40Z</time>
      </trkpt>
      <trkpt lat="45.87162" lon="4.7238">
        <ele>197</ele>
        <time>2017-08-22T09:08:41Z</time>
      </trkpt>
      <trkpt lat="45.87158" lon="4.72372">
        <ele>197</ele>
        <time>2017-08-22T09:08:42Z</time>
      </trkpt>
      <trkpt lat="45.87155" lon="4.72364">
        <ele>196</ele>
        <time>2017-08-22T09:08:43Z</time>
      </trkpt>
      <trkpt lat="45.87151" lon="4.72357">
        <ele>196</ele>
        <time>2017-08-22T09:08:44Z</time>
      </trkpt>
      <trkpt lat="45.87148" lon="4.72349">
        <ele>196</ele>
        <time>2017-08-22T09:08:45Z</time>
      </trkpt>
      <trkpt lat="45.87144" lon="4.72341">
        <ele>196</ele>
        <time>2017-08-22T09:08:46Z</time>
      </trkpt>
      <trkpt lat="45.8714" lon="4.72333">
        <ele>194</ele>
        <time>2017-08-22T09:08:47Z</time>
      </trkpt>
      <trkpt lat="45.87136" lon="4.72325">
        <ele>195</ele>
        <time>2017-08-22T09:08:48Z</time>
      </trkpt>
      <trkpt lat="45.87132" lon="4.72317">
        <ele>196</ele>
        <time>2017-08-22T09:08:49Z</time>
      </trkpt>
      <trkpt lat="45.87128" lon="4.72308">
        <ele>196</ele>
        <time>2017-08-22T09:08:50Z</time>
      </trkpt>
      <trkpt lat="45.87123" lon="4.723">
        <ele>196</ele>
        <time>2017-08-22T09:08:51Z</time>
      </trkpt>
      <trkpt lat="45.87118" lon="4.72292">
        <ele>197</ele>
        <time>2017-08-22T09:08:52Z</time>
      </trkpt>
      <trkpt lat="45.87112" lon="4.72284">
        <ele>197</ele>
        <time>2017-08-22T09:08:53Z</time>
      </trkpt>
      <trkpt lat="45.87107" lon="4.72276">
        <ele>197</ele>
        <time>2017-08-22T09:08:54Z</time>
      </trkpt>
      <trkpt lat="45.87102" lon="4.72269">
        <ele>197</ele>
        <time>2017-08-22T09:08:55Z</time>
      </trkpt>
      <trkpt lat="45.87096" lon="4.72262">
        <ele>198</ele>
        <time>2017-08-22T09:08:56Z</time>
      </trkpt>
      <trkpt lat="45.87091" lon="4.72256">
        <ele>198</ele>
        <time>2017-08-22T09:08:57Z</time>
      </trkpt>
      <trkpt lat="45.87085" lon="4.7225">
        <ele>198</ele>
        <time>2017-08-22T09:08:58Z</time>
      </trkpt>
      <trkpt lat="45.8708" lon="4.72244">
        <ele>199</ele>
        <time>2017-08-22T09:08:59Z</time>
      </trkpt>
      <trkpt lat="45.87075" lon="4.72238">
        <ele>200</ele>
        <time>2017-08-22T09:09:00Z</time>
      </trkpt>
      <trkpt lat="45.87069" lon="4.72232">
        <ele>200</ele>
        <time>2017-08-22T09:09:01Z</time>
      </trkpt>
      <trkpt lat="45.87064" lon="4.72227">
        <ele>200</ele>
        <time>2017-08-22T09:09:02Z</time>
      </trkpt>
      <trkpt lat="45.87059" lon="4.72223">
        <ele>200</ele>
        <time>2017-08-22T09:09:03Z</time>
      </trkpt>
      <trkpt lat="45.87053" lon="4.72218">
        <ele>200</ele>
        <time>2017-08-22T09:09:04Z</time>
      </trkpt>
      <trkpt lat="45.87047" lon="4.72213">
        <ele>201</ele>
        <time>2017-08-22T09:09:05Z</time>
      </trkpt>
      <trkpt lat="45.87041" lon="4.72209">
        <ele>201</ele>
        <time>2017-08-22T09:09:06Z</time>
      </trkpt>
      <trkpt lat="45.87035" lon="4.72205">
        <ele>201</ele>
        <time>2017-08-22T09:09:07Z</time>
      </trkpt>
      <trkpt lat="45.87029" lon="4.72201">
        <ele>201</ele>
        <time>2017-08-22T09:09:08Z</time>
      </trkpt>
      <trkpt lat="45.87022" lon="4.72196">
        <ele>201</ele>
        <time>2017-08-22T09:09:09Z</time>
      </trkpt>
      <trkpt lat="45.87016" lon="4.72192">
        <ele>201</ele>
        <time>2017-08-22T09:09:10Z</time>
      </trkpt>
      <trkpt lat="45.87009" lon="4.72188">
        <ele>201</ele>
        <time>2017-08-22T09:09:11Z</time>
      </trkpt>
      <trkpt lat="45.87002" lon="4.72183">
        <ele>201</ele>
        <time>2017-08-22T09:09:12Z</time>
      </trkpt>
      <trkpt lat="45.86996" lon="4.72179">
        <ele>206</ele>
        <time>2017-08-22T09:09:13Z</time>
      </trkpt>
      <trkpt lat="45.86989" lon="4.72175">
        <ele>206</ele>
        <time>2017-08-22T09:09:14Z</time>
      </trkpt>
      <trkpt lat="45.86983" lon="4.7217">
        <ele>207</ele>
        <time>2017-08-22T09:09:15Z</time>
      </trkpt>
      <trkpt lat="45.86977" lon="4.72166">
        <ele>201</ele>
        <time>2017-08-22T09:09:16Z</time>
      </trkpt>
      <trkpt lat="45.8697" lon="4.72162">
        <ele>201</ele>
        <time>2017-08-22T09:09:17Z</time>
      </trkpt>
      <trkpt lat="45.86965" lon="4.72159">
        <ele>201</ele>
        <time>2017-08-22T09:09:18Z</time>
      </trkpt>
      <trkpt lat="45.86959" lon="4.72155">
        <ele>201</ele>
        <time>2017-08-22T09:09:19Z</time>
      </trkpt>
      <trkpt lat="45.86954" lon="4.72151">
        <ele>201</ele>
        <time>2017-08-22T09:09:20Z</time>
      </trkpt>
      <trkpt lat="45.86948" lon="4.72148">
        <ele>202</ele>
        <time>2017-08-22T09:09:21Z</time>
      </trkpt>
      <trkpt lat="45.86943" lon="4.72144">
        <ele>202</ele>
        <time>2017-08-22T09:09:22Z</time>
      </trkpt>
      <trkpt lat="45.86937" lon="4.7214">
        <ele>202</ele>
        <time>2017-08-22T09:09:23Z</time>
      </trkpt>
      <trkpt lat="45.86932" lon="4.72137">
        <ele>202</ele>
        <time>2017-08-22T09:09:24Z</time>
      </trkpt>
      <trkpt lat="45.86925" lon="4.72134">
        <ele>201</ele>
        <time>2017-08-22T09:09:25Z</time>
      </trkpt>
      <trkpt lat="45.86919" lon="4.72131">
        <ele>201</ele>
        <time>2017-08-22T09:09:26Z</time>
      </trkpt>
      <trkpt lat="45.86912" lon="4.72129">
        <ele>203</ele>
        <time>2017-08-22T09:09:27Z</time>
      </trkpt>
      <trkpt lat="45.86906" lon="4.72127">
        <ele>203</ele>
        <time>2017-08-22T09:09:28Z</time>
      </trkpt>
      <trkpt lat="45.869" lon="4.72125">
        <ele>202</ele>
        <time>2017-08-22T09:09:29Z</time>
      </trkpt>
      <trkpt lat="45.86893" lon="4.72123">
        <ele>202</ele>
        <time>2017-08-22T09:09:30Z</time>
      </trkpt>
      <trkpt lat="45.86887" lon="4.72121">
        <ele>202</ele>
        <time>2017-08-22T09:09:31Z</time>
      </trkpt>
      <trkpt lat="45.86881" lon="4.72119">
        <ele>202</ele>
        <time>2017-08-22T09:09:32Z</time>
      </trkpt>
      <trkpt lat="45.86875" lon="4.72116">
        <ele>202</ele>
        <time>2017-08-22T09:09:33Z</time>
      </trkpt>
      <trkpt lat="45.86869" lon="4.72114">
        <ele>201</ele>
        <time>2017-08-22T09:09:34Z</time>
      </trkpt>
      <trkpt lat="45.86863" lon="4.72112">
        <ele>201</ele>
        <time>2017-08-22T09:09:35Z</time>
      </trkpt>
      <trkpt lat="45.86858" lon="4.7211">
        <ele>201</ele>
        <time>2017-08-22T09:09:36Z</time>
      </trkpt>
      <trkpt lat="45.86852" lon="4.72107">
        <ele>200</ele>
        <time>2017-08-22T09:09:37Z</time>
      </trkpt>
      <trkpt lat="45.86846" lon="4.72104">
        <ele>199</ele>
        <time>2017-08-22T09:09:38Z</time>
      </trkpt>
      <trkpt lat="45.86839" lon="4.721">
        <ele>198</ele>
        <time>2017-08-22T09:09:39Z</time>
      </trkpt>
      <trkpt lat="45.86834" lon="4.72098">
        <ele>197</ele>
        <time>2017-08-22T09:09:40Z</time>
      </trkpt>
      <trkpt lat="45.86828" lon="4.72094">
        <ele>198</ele>
        <time>2017-08-22T09:09:41Z</time>
      </trkpt>
      <trkpt lat="45.86822" lon="4.72092">
        <ele>198</ele>
        <time>2017-08-22T09:09:42Z</time>
      </trkpt>
      <trkpt lat="45.86816" lon="4.72089">
        <ele>199</ele>
        <time>2017-08-22T09:09:43Z</time>
      </trkpt>
      <trkpt lat="45.86809" lon="4.72086">
        <ele>200</ele>
        <time>2017-08-22T09:09:44Z</time>
      </trkpt>
      <trkpt lat="45.86803" lon="4.72082">
        <ele>194</ele>
        <time>2017-08-22T09:09:45Z</time>
      </trkpt>
      <trkpt lat="45.86797" lon="4.72079">
        <ele>194</ele>
        <time>2017-08-22T09:09:46Z</time>
      </trkpt>
      <trkpt lat="45.86791" lon="4.72077">
        <ele>194</ele>
        <time>2017-08-22T09:09:47Z</time>
      </trkpt>
      <trkpt lat="45.86785" lon="4.72075">
        <ele>194</ele>
        <time>2017-08-22T09:09:48Z</time>
      </trkpt>
      <trkpt lat="45.86779" lon="4.72072">
        <ele>194</ele>
        <time>2017-08-22T09:09:49Z</time>
      </trkpt>
      <trkpt lat="45.86773" lon="4.7207">
        <ele>195</ele>
        <time>2017-08-22T09:09:50Z</time>
      </trkpt>
      <trkpt lat="45.86766" lon="4.72067">
        <ele>195</ele>
        <time>2017-08-22T09:09:51Z</time>
      </trkpt>
      <trkpt lat="45.8676" lon="4.72064">
        <ele>195</ele>
        <time>2017-08-22T09:09:52Z</time>
      </trkpt>
      <trkpt lat="45.86755" lon="4.72061">
        <ele>195</ele>
        <time>2017-08-22T09:09:53Z</time>
      </trkpt>
      <trkpt lat="45.8675" lon="4.72058">
        <ele>197</ele>
        <time>2017-08-22T09:09:54Z</time>
      </trkpt>
      <trkpt lat="45.86744" lon="4.72056">
        <ele>197</ele>
        <time>2017-08-22T09:09:55Z</time>
      </trkpt>
      <trkpt lat="45.86739" lon="4.72054">
        <ele>197</ele>
        <time>2017-08-22T09:09:56Z</time>
      </trkpt>
      <trkpt lat="45.86734" lon="4.72052">
        <ele>197</ele>
        <time>2017-08-22T09:09:57Z</time>
      </trkpt>
      <trkpt lat="45.86729" lon="4.72049">
        <ele>197</ele>
        <time>2017-08-22T09:09:58Z</time>
      </trkpt>
      <trkpt lat="45.86724" lon="4.72046">
        <ele>197</ele>
        <time>2017-08-22T09:09:59Z</time>
      </trkpt>
      <trkpt lat="45.86718" lon="4.72043">
        <ele>197</ele>
        <time>2017-08-22T09:10:00Z</time>
      </trkpt>
      <trkpt lat="45.86713" lon="4.72039">
        <ele>197</ele>
        <time>2017-08-22T09:10:01Z</time>
      </trkpt>
      <trkpt lat="45.86707" lon="4.72035">
        <ele>197</ele>
        <time>2017-08-22T09:10:02Z</time>
      </trkpt>
      <trkpt lat="45.86701" lon="4.72031">
        <ele>197</ele>
        <time>2017-08-22T09:10:03Z</time>
      </trkpt>
      <trkpt lat="45.86696" lon="4.72026">
        <ele>197</ele>
        <time>2017-08-22T09:10:04Z</time>
      </trkpt>
      <trkpt lat="45.8669" lon="4.72021">
        <ele>197</ele>
        <time>2017-08-22T09:10:05Z</time>
      </trkpt>
      <trkpt lat="45.86684" lon="4.72017">
        <ele>196</ele>
        <time>2017-08-22T09:10:06Z</time>
      </trkpt>
      <trkpt lat="45.86678" lon="4.72012">
        <ele>196</ele>
        <time>2017-08-22T09:10:07Z</time>
      </trkpt>
      <trkpt lat="45.86672" lon="4.72007">
        <ele>196</ele>
        <time>2017-08-22T09:10:08Z</time>
      </trkpt>
      <trkpt lat="45.86666" lon="4.72002">
        <ele>195</ele>
        <time>2017-08-22T09:10:09Z</time>
      </trkpt>
      <trkpt lat="45.86659" lon="4.71997">
        <ele>195</ele>
        <time>2017-08-22T09:10:10Z</time>
      </trkpt>
      <trkpt lat="45.86653" lon="4.71993">
        <ele>195</ele>
        <time>2017-08-22T09:10:11Z</time>
      </trkpt>
      <trkpt lat="45.86647" lon="4.71988">
        <ele>195</ele>
        <time>2017-08-22T09:10:12Z</time>
      </trkpt>
      <trkpt lat="45.86641" lon="4.71983">
        <ele>195</ele>
        <time>2017-08-22T09:10:13Z</time>
      </trkpt>
      <trkpt lat="45.86635" lon="4.71978">
        <ele>195</ele>
        <time>2017-08-22T09:10:14Z</time>
      </trkpt>
      <trkpt lat="45.86629" lon="4.71973">
        <ele>195</ele>
        <time>2017-08-22T09:10:15Z</time>
      </trkpt>
      <trkpt lat="45.86623" lon="4.71968">
        <ele>195</ele>
        <time>2017-08-22T09:10:16Z</time>
      </trkpt>
      <trkpt lat="45.86617" lon="4.71963">
        <ele>195</ele>
        <time>2017-08-22T09:10:17Z</time>
      </trkpt>
      <trkpt lat="45.86612" lon="4.71959">
        <ele>195</ele>
        <time>2017-08-22T09:10:18Z</time>
      </trkpt>
      <trkpt lat="45.86607" lon="4.71954">
        <ele>194</ele>
        <time>2017-08-22T09:10:19Z</time>
      </trkpt>
      <trkpt lat="45.86602" lon="4.7195">
        <ele>194</ele>
        <time>2017-08-22T09:10:20Z</time>
      </trkpt>
      <trkpt lat="45.86597" lon="4.71946">
        <ele>194</ele>
        <time>2017-08-22T09:10:21Z</time>
      </trkpt>
      <trkpt lat="45.86592" lon="4.71942">
        <ele>194</ele>
        <time>2017-08-22T09:10:22Z</time>
      </trkpt>
      <trkpt lat="45.86588" lon="4.71937">
        <ele>194</ele>
        <time>2017-08-22T09:10:23Z</time>
      </trkpt>
      <trkpt lat="45.86583" lon="4.71933">
        <ele>195</ele>
        <time>2017-08-22T09:10:24Z</time>
      </trkpt>
      <trkpt lat="45.86577" lon="4.71929">
        <ele>195</ele>
        <time>2017-08-22T09:10:25Z</time>
      </trkpt>
      <trkpt lat="45.86571" lon="4.71924">
        <ele>195</ele>
        <time>2017-08-22T09:10:26Z</time>
      </trkpt>
      <trkpt lat="45.86565" lon="4.7192">
        <ele>195</ele>
        <time>2017-08-22T09:10:27Z</time>
      </trkpt>
      <trkpt lat="45.8656" lon="4.71915">
        <ele>195</ele>
        <time>2017-08-22T09:10:28Z</time>
      </trkpt>
      <trkpt lat="45.86555" lon="4.71909">
        <ele>195</ele>
        <time>2017-08-22T09:10:29Z</time>
      </trkpt>
      <trkpt lat="45.8655" lon="4.71905">
        <ele>195</ele>
        <time>2017-08-22T09:10:30Z</time>
      </trkpt>
      <trkpt lat="45.86544" lon="4.719">
        <ele>195</ele>
        <time>2017-08-22T09:10:31Z</time>
      </trkpt>
      <trkpt lat="45.86538" lon="4.71896">
        <ele>195</ele>
        <time>2017-08-22T09:10:32Z</time>
      </trkpt>
      <trkpt lat="45.86533" lon="4.71892">
        <ele>195</ele>
        <time>2017-08-22T09:10:33Z</time>
      </trkpt>
      <trkpt lat="45.86528" lon="4.71888">
        <ele>195</ele>
        <time>2017-08-22T09:10:34Z</time>
      </trkpt>
      <trkpt lat="45.86523" lon="4.71884">
        <ele>195</ele>
        <time>2017-08-22T09:10:35Z</time>
      </trkpt>
      <trkpt lat="45.86517" lon="4.7188">
        <ele>195</ele>
        <time>2017-08-22T09:10:36Z</time>
      </trkpt>
      <trkpt lat="45.86513" lon="4.71876">
        <ele>195</ele>
        <time>2017-08-22T09:10:37Z</time>
      </trkpt>
      <trkpt lat="45.86508" lon="4.71873">
        <ele>195</ele>
        <time>2017-08-22T09:10:38Z</time>
      </trkpt>
      <trkpt lat="45.86503" lon="4.71869">
        <ele>195</ele>
        <time>2017-08-22T09:10:39Z</time>
      </trkpt>
      <trkpt lat="45.86498" lon="4.71866">
        <ele>198</ele>
        <time>2017-08-22T09:10:40Z</time>
      </trkpt>
      <trkpt lat="45.86493" lon="4.71862">
        <ele>198</ele>
        <time>2017-08-22T09:10:41Z</time>
      </trkpt>
      <trkpt lat="45.86488" lon="4.71858">
        <ele>198</ele>
        <time>2017-08-22T09:10:42Z</time>
      </trkpt>
      <trkpt lat="45.86483" lon="4.71854">
        <ele>198</ele>
        <time>2017-08-22T09:10:43Z</time>
      </trkpt>
      <trkpt lat="45.86478" lon="4.7185">
        <ele>198</ele>
        <time>2017-08-22T09:10:44Z</time>
      </trkpt>
      <trkpt lat="45.86473" lon="4.71845">
        <ele>199</ele>
        <time>2017-08-22T09:10:45Z</time>
      </trkpt>
      <trkpt lat="45.86467" lon="4.71841">
        <ele>199</ele>
        <time>2017-08-22T09:10:46Z</time>
      </trkpt>
      <trkpt lat="45.86461" lon="4.71838">
        <ele>199</ele>
        <time>2017-08-22T09:10:47Z</time>
      </trkpt>
      <trkpt lat="45.86456" lon="4.71833">
        <ele>197</ele>
        <time>2017-08-22T09:10:48Z</time>
      </trkpt>
      <trkpt lat="45.86449" lon="4.71829">
        <ele>197</ele>
        <time>2017-08-22T09:10:49Z</time>
      </trkpt>
      <trkpt lat="45.86443" lon="4.71825">
        <ele>197</ele>
        <time>2017-08-22T09:10:50Z</time>
      </trkpt>
      <trkpt lat="45.86438" lon="4.71821">
        <ele>198</ele>
        <time>2017-08-22T09:10:51Z</time>
      </trkpt>
      <trkpt lat="45.86433" lon="4.71816">
        <ele>198</ele>
        <time>2017-08-22T09:10:52Z</time>
      </trkpt>
      <trkpt lat="45.86427" lon="4.71812">
        <ele>198</ele>
        <time>2017-08-22T09:10:53Z</time>
      </trkpt>
      <trkpt lat="45.86421" lon="4.71807">
        <ele>198</ele>
        <time>2017-08-22T09:10:54Z</time>
      </trkpt>
      <trkpt lat="45.86416" lon="4.71804">
        <ele>199</ele>
        <time>2017-08-22T09:10:55Z</time>
      </trkpt>
      <trkpt lat="45.8641" lon="4.718">
        <ele>199</ele>
        <time>2017-08-22T09:10:56Z</time>
      </trkpt>
      <trkpt lat="45.86405" lon="4.71796">
        <ele>199</ele>
        <time>2017-08-22T09:10:57Z</time>
      </trkpt>
      <trkpt lat="45.864" lon="4.71792">
        <ele>199</ele>
        <time>2017-08-22T09:10:58Z</time>
      </trkpt>
      <trkpt lat="45.86394" lon="4.71788">
        <ele>198</ele>
        <time>2017-08-22T09:10:59Z</time>
      </trkpt>
      <trkpt lat="45.86388" lon="4.71783">
        <ele>198</ele>
        <time>2017-08-22T09:11:00Z</time>
      </trkpt>
      <trkpt lat="45.86383" lon="4.71779">
        <ele>198</ele>
        <time>2017-08-22T09:11:01Z</time>
      </trkpt>
      <trkpt lat="45.86378" lon="4.71775">
        <ele>198</ele>
        <time>2017-08-22T09:11:02Z</time>
      </trkpt>
      <trkpt lat="45.86372" lon="4.71772">
        <ele>198</ele>
        <time>2017-08-22T09:11:03Z</time>
      </trkpt>
      <trkpt lat="45.86367" lon="4.71767">
        <ele>198</ele>
        <time>2017-08-22T09:11:04Z</time>
      </trkpt>
      <trkpt lat="45.86362" lon="4.71763">
        <ele>198</ele>
        <time>2017-08-22T09:11:05Z</time>
      </trkpt>
      <trkpt lat="45.86356" lon="4.71759">
        <ele>198</ele>
        <time>2017-08-22T09:11:06Z</time>
      </trkpt>
      <trkpt lat="45.86351" lon="4.71754">
        <ele>197</ele>
        <time>2017-08-22T09:11:07Z</time>
      </trkpt>
      <trkpt lat="45.86346" lon="4.7175">
        <ele>195</ele>
        <time>2017-08-22T09:11:08Z</time>
      </trkpt>
      <trkpt lat="45.8634" lon="4.71746">
        <ele>195</ele>
        <time>2017-08-22T09:11:09Z</time>
      </trkpt>
      <trkpt lat="45.86335" lon="4.71742">
        <ele>195</ele>
        <time>2017-08-22T09:11:10Z</time>
      </trkpt>
      <trkpt lat="45.86329" lon="4.71738">
        <ele>196</ele>
        <time>2017-08-22T09:11:11Z</time>
      </trkpt>
      <trkpt lat="45.86323" lon="4.71734">
        <ele>196</ele>
        <time>2017-08-22T09:11:12Z</time>
      </trkpt>
      <trkpt lat="45.86317" lon="4.71729">
        <ele>196</ele>
        <time>2017-08-22T09:11:13Z</time>
      </trkpt>
      <trkpt lat="45.86312" lon="4.71724">
        <ele>196</ele>
        <time>2017-08-22T09:11:14Z</time>
      </trkpt>
      <trkpt lat="45.86307" lon="4.71719">
        <ele>196</ele>
        <time>2017-08-22T09:11:15Z</time>
      </trkpt>
      <trkpt lat="45.86301" lon="4.71714">
        <ele>196</ele>
        <time>2017-08-22T09:11:16Z</time>
      </trkpt>
      <trkpt lat="45.86296" lon="4.7171">
        <ele>195</ele>
        <time>2017-08-22T09:11:17Z</time>
      </trkpt>
      <trkpt lat="45.86291" lon="4.71705">
        <ele>195</ele>
        <time>2017-08-22T09:11:18Z</time>
      </trkpt>
      <trkpt lat="45.86286" lon="4.717">
        <ele>195</ele>
        <time>2017-08-22T09:11:19Z</time>
      </trkpt>
      <trkpt lat="45.86281" lon="4.71696">
        <ele>195</ele>
        <time>2017-08-22T09:11:20Z</time>
      </trkpt>
      <trkpt lat="45.86276" lon="4.71692">
        <ele>195</ele>
        <time>2017-08-22T09:11:21Z</time>
      </trkpt>
      <trkpt lat="45.8627" lon="4.71688">
        <ele>195</ele>
        <time>2017-08-22T09:11:22Z</time>
      </trkpt>
      <trkpt lat="45.86265" lon="4.71684">
        <ele>195</ele>
        <time>2017-08-22T09:11:23Z</time>
      </trkpt>
      <trkpt lat="45.8626" lon="4.7168">
        <ele>195</ele>
        <time>2017-08-22T09:11:24Z</time>
      </trkpt>
      <trkpt lat="45.86255" lon="4.71676">
        <ele>195</ele>
        <time>2017-08-22T09:11:25Z</time>
      </trkpt>
      <trkpt lat="45.8625" lon="4.71672">
        <ele>195</ele>
        <time>2017-08-22T09:11:26Z</time>
      </trkpt>
      <trkpt lat="45.86244" lon="4.71668">
        <ele>195</ele>
        <time>2017-08-22T09:11:27Z</time>
      </trkpt>
      <trkpt lat="45.86239" lon="4.71664">
        <ele>195</ele>
        <time>2017-08-22T09:11:28Z</time>
      </trkpt>
      <trkpt lat="45.86234" lon="4.7166">
        <ele>195</ele>
        <time>2017-08-22T09:11:29Z</time>
      </trkpt>
      <trkpt lat="45.8623" lon="4.71656">
        <ele>195</ele>
        <time>2017-08-22T09:11:30Z</time>
      </trkpt>
      <trkpt lat="45.86225" lon="4.71653">
        <ele>195</ele>
        <time>2017-08-22T09:11:31Z</time>
      </trkpt>
      <trkpt lat="45.8622" lon="4.71649">
        <ele>195</ele>
        <time>2017-08-22T09:11:32Z</time>
      </trkpt>
      <trkpt lat="45.86216" lon="4.71645">
        <ele>195</ele>
        <time>2017-08-22T09:11:33Z</time>
      </trkpt>
      <trkpt lat="45.86212" lon="4.71641">
        <ele>195</ele>
        <time>2017-08-22T09:11:34Z</time>
      </trkpt>
      <trkpt lat="45.86209" lon="4.71632">
        <ele>195</ele>
        <time>2017-08-22T09:11:36Z</time>
      </trkpt>
      <trkpt lat="45.86208" lon="4.71626">
        <ele>195</ele>
        <time>2017-08-22T09:11:37Z</time>
      </trkpt>
      <trkpt lat="45.86206" lon="4.71614">
        <ele>195</ele>
        <time>2017-08-22T09:11:39Z</time>
      </trkpt>
      <trkpt lat="45.86204" lon="4.71607">
        <ele>195</ele>
        <time>2017-08-22T09:11:40Z</time>
      </trkpt>
      <trkpt lat="45.86201" lon="4.71602">
        <ele>195</ele>
        <time>2017-08-22T09:11:41Z</time>
      </trkpt>
      <trkpt lat="45.86198" lon="4.71597">
        <ele>195</ele>
        <time>2017-08-22T09:11:42Z</time>
      </trkpt>
      <trkpt lat="45.86194" lon="4.71591">
        <ele>195</ele>
        <time>2017-08-22T09:11:43Z</time>
      </trkpt>
      <trkpt lat="45.8619" lon="4.71585">
        <ele>195</ele>
        <time>2017-08-22T09:11:44Z</time>
      </trkpt>
      <trkpt lat="45.86187" lon="4.71579">
        <ele>195</ele>
        <time>2017-08-22T09:11:45Z</time>
      </trkpt>
      <trkpt lat="45.86184" lon="4.71574">
        <ele>195</ele>
        <time>2017-08-22T09:11:46Z</time>
      </trkpt>
      <trkpt lat="45.86178" lon="4.71564">
        <ele>195</ele>
        <time>2017-08-22T09:11:48Z</time>
      </trkpt>
      <trkpt lat="45.86175" lon="4.71558">
        <ele>195</ele>
        <time>2017-08-22T09:11:49Z</time>
      </trkpt>
      <trkpt lat="45.86172" lon="4.71554">
        <ele>195</ele>
        <time>2017-08-22T09:11:50Z</time>
      </trkpt>
      <trkpt lat="45.86169" lon="4.71548">
        <ele>195</ele>
        <time>2017-08-22T09:11:51Z</time>
      </trkpt>
      <trkpt lat="45.86165" lon="4.71543">
        <ele>196</ele>
        <time>2017-08-22T09:11:52Z</time>
      </trkpt>
      <trkpt lat="45.86161" lon="4.71537">
        <ele>195</ele>
        <time>2017-08-22T09:11:53Z</time>
      </trkpt>
      <trkpt lat="45.86157" lon="4.71531">
        <ele>195</ele>
        <time>2017-08-22T09:11:54Z</time>
      </trkpt>
      <trkpt lat="45.86154" lon="4.71524">
        <ele>195</ele>
        <time>2017-08-22T09:11:55Z</time>
      </trkpt>
      <trkpt lat="45.86151" lon="4.71517">
        <ele>195</ele>
        <time>2017-08-22T09:11:56Z</time>
      </trkpt>
      <trkpt lat="45.86148" lon="4.7151">
        <ele>195</ele>
        <time>2017-08-22T09:11:57Z</time>
      </trkpt>
      <trkpt lat="45.86145" lon="4.71504">
        <ele>195</ele>
        <time>2017-08-22T09:11:58Z</time>
      </trkpt>
      <trkpt lat="45.86142" lon="4.71497">
        <ele>195</ele>
        <time>2017-08-22T09:11:59Z</time>
      </trkpt>
      <trkpt lat="45.86139" lon="4.71491">
        <ele>195</ele>
        <time>2017-08-22T09:12:00Z</time>
      </trkpt>
      <trkpt lat="45.86137" lon="4.71485">
        <ele>195</ele>
        <time>2017-08-22T09:12:01Z</time>
      </trkpt>
      <trkpt lat="45.86135" lon="4.71479">
        <ele>195</ele>
        <time>2017-08-22T09:12:02Z</time>
      </trkpt>
      <trkpt lat="45.86133" lon="4.71473">
        <ele>195</ele>
        <time>2017-08-22T09:12:03Z</time>
      </trkpt>
      <trkpt lat="45.86131" lon="4.71466">
        <ele>195</ele>
        <time>2017-08-22T09:12:04Z</time>
      </trkpt>
      <trkpt lat="45.8613" lon="4.71459">
        <ele>195</ele>
        <time>2017-08-22T09:12:05Z</time>
      </trkpt>
      <trkpt lat="45.86128" lon="4.71452">
        <ele>195</ele>
        <time>2017-08-22T09:12:06Z</time>
      </trkpt>
      <trkpt lat="45.86126" lon="4.71444">
        <ele>195</ele>
        <time>2017-08-22T09:12:07Z</time>
      </trkpt>
      <trkpt lat="45.86124" lon="4.71436">
        <ele>195</ele>
        <time>2017-08-22T09:12:08Z</time>
      </trkpt>
      <trkpt lat="45.86122" lon="4.71428">
        <ele>195</ele>
        <time>2017-08-22T09:12:09Z</time>
      </trkpt>
      <trkpt lat="45.8612" lon="4.7142">
        <ele>195</ele>
        <time>2017-08-22T09:12:10Z</time>
      </trkpt>
      <trkpt lat="45.8612" lon="4.71412">
        <ele>196</ele>
        <time>2017-08-22T09:12:11Z</time>
      </trkpt>
      <trkpt lat="45.8612" lon="4.71404">
        <ele>196</ele>
        <time>2017-08-22T09:12:12Z</time>
      </trkpt>
      <trkpt lat="45.8612" lon="4.71397">
        <ele>196</ele>
        <time>2017-08-22T09:12:13Z</time>
      </trkpt>
      <trkpt lat="45.86119" lon="4.7139">
        <ele>196</ele>
        <time>2017-08-22T09:12:14Z</time>
      </trkpt>
      <trkpt lat="45.86118" lon="4.71384">
        <ele>196</ele>
        <time>2017-08-22T09:12:15Z</time>
      </trkpt>
      <trkpt lat="45.86116" lon="4.71377">
        <ele>196</ele>
        <time>2017-08-22T09:12:16Z</time>
      </trkpt>
      <trkpt lat="45.86116" lon="4.7137">
        <ele>196</ele>
        <time>2017-08-22T09:12:17Z</time>
      </trkpt>
      <trkpt lat="45.86115" lon="4.71363">
        <ele>196</ele>
        <time>2017-08-22T09:12:18Z</time>
      </trkpt>
      <trkpt lat="45.86115" lon="4.71356">
        <ele>196</ele>
        <time>2017-08-22T09:12:19Z</time>
      </trkpt>
      <trkpt lat="45.86115" lon="4.71348">
        <ele>196</ele>
        <time>2017-08-22T09:12:20Z</time>
      </trkpt>
      <trkpt lat="45.86113" lon="4.7134">
        <ele>196</ele>
        <time>2017-08-22T09:12:21Z</time>
      </trkpt>
      <trkpt lat="45.86112" lon="4.71332">
        <ele>196</ele>
        <time>2017-08-22T09:12:22Z</time>
      </trkpt>
      <trkpt lat="45.86111" lon="4.71325">
        <ele>196</ele>
        <time>2017-08-22T09:12:23Z</time>
      </trkpt>
      <trkpt lat="45.8611" lon="4.71317">
        <ele>196</ele>
        <time>2017-08-22T09:12:24Z</time>
      </trkpt>
      <trkpt lat="45.86109" lon="4.71309">
        <ele>196</ele>
        <time>2017-08-22T09:12:25Z</time>
      </trkpt>
      <trkpt lat="45.86108" lon="4.71302">
        <ele>196</ele>
        <time>2017-08-22T09:12:26Z</time>
      </trkpt>
      <trkpt lat="45.86106" lon="4.71295">
        <ele>196</ele>
        <time>2017-08-22T09:12:27Z</time>
      </trkpt>
      <trkpt lat="45.86105" lon="4.71289">
        <ele>197</ele>
        <time>2017-08-22T09:12:28Z</time>
      </trkpt>
      <trkpt lat="45.86104" lon="4.71283">
        <ele>197</ele>
        <time>2017-08-22T09:12:29Z</time>
      </trkpt>
      <trkpt lat="45.86101" lon="4.71277">
        <ele>197</ele>
        <time>2017-08-22T09:12:30Z</time>
      </trkpt>
      <trkpt lat="45.86099" lon="4.71271">
        <ele>197</ele>
        <time>2017-08-22T09:12:31Z</time>
      </trkpt>
      <trkpt lat="45.86094" lon="4.71263">
        <ele>197</ele>
        <time>2017-08-22T09:12:33Z</time>
      </trkpt>
      <trkpt lat="45.86092" lon="4.71259">
        <ele>197</ele>
        <time>2017-08-22T09:12:34Z</time>
      </trkpt>
      <trkpt lat="45.86088" lon="4.7125">
        <ele>198</ele>
        <time>2017-08-22T09:12:36Z</time>
      </trkpt>
      <trkpt lat="45.86086" lon="4.71244">
        <ele>198</ele>
        <time>2017-08-22T09:12:37Z</time>
      </trkpt>
      <trkpt lat="45.86086" lon="4.71236">
        <ele>197</ele>
        <time>2017-08-22T09:12:38Z</time>
      </trkpt>
      <trkpt lat="45.86086" lon="4.71229">
        <ele>197</ele>
        <time>2017-08-22T09:12:39Z</time>
      </trkpt>
      <trkpt lat="45.86087" lon="4.71221">
        <ele>197</ele>
        <time>2017-08-22T09:12:40Z</time>
      </trkpt>
      <trkpt lat="45.86087" lon="4.71214">
        <ele>197</ele>
        <time>2017-08-22T09:12:41Z</time>
      </trkpt>
      <trkpt lat="45.86087" lon="4.71206">
        <ele>197</ele>
        <time>2017-08-22T09:12:42Z</time>
      </trkpt>
      <trkpt lat="45.86088" lon="4.71198">
        <ele>197</ele>
        <time>2017-08-22T09:12:43Z</time>
      </trkpt>
      <trkpt lat="45.86088" lon="4.7119">
        <ele>197</ele>
        <time>2017-08-22T09:12:44Z</time>
      </trkpt>
      <trkpt lat="45.86089" lon="4.71183">
        <ele>197</ele>
        <time>2017-08-22T09:12:45Z</time>
      </trkpt>
      <trkpt lat="45.8609" lon="4.71176">
        <ele>197</ele>
        <time>2017-08-22T09:12:46Z</time>
      </trkpt>
      <trkpt lat="45.86091" lon="4.71168">
        <ele>198</ele>
        <time>2017-08-22T09:12:47Z</time>
      </trkpt>
      <trkpt lat="45.86092" lon="4.71161">
        <ele>197</ele>
        <time>2017-08-22T09:12:48Z</time>
      </trkpt>
      <trkpt lat="45.86093" lon="4.71154">
        <ele>197</ele>
        <time>2017-08-22T09:12:49Z</time>
      </trkpt>
      <trkpt lat="45.86092" lon="4.71147">
        <ele>197</ele>
        <time>2017-08-22T09:12:50Z</time>
      </trkpt>
      <trkpt lat="45.86089" lon="4.71141">
        <ele>197</ele>
        <time>2017-08-22T09:12:51Z</time>
      </trkpt>
      <trkpt lat="45.86084" lon="4.71137">
        <ele>197</ele>
        <time>2017-08-22T09:12:52Z</time>
      </trkpt>
      <trkpt lat="45.86079" lon="4.71133">
        <ele>197</ele>
        <time>2017-08-22T09:12:53Z</time>
      </trkpt>
      <trkpt lat="45.86075" lon="4.71133">
        <ele>197</ele>
        <time>2017-08-22T09:12:54Z</time>
      </trkpt>
      <trkpt lat="45.86071" lon="4.71127">
        <ele>197</ele>
        <time>2017-08-22T09:12:55Z</time>
      </trkpt>
      <trkpt lat="45.86067" lon="4.71124">
        <ele>197</ele>
        <time>2017-08-22T09:12:56Z</time>
      </trkpt>
      <trkpt lat="45.86063" lon="4.71119">
        <ele>197</ele>
        <time>2017-08-22T09:12:57Z</time>
      </trkpt>
      <trkpt lat="45.86058" lon="4.71114">
        <ele>197</ele>
        <time>2017-08-22T09:12:58Z</time>
      </trkpt>
      <trkpt lat="45.86055" lon="4.7111">
        <ele>197</ele>
        <time>2017-08-22T09:12:59Z</time>
      </trkpt>
      <trkpt lat="45.86051" lon="4.71104">
        <ele>197</ele>
        <time>2017-08-22T09:13:00Z</time>
      </trkpt>
      <trkpt lat="45.86048" lon="4.71099">
        <ele>197</ele>
        <time>2017-08-22T09:13:01Z</time>
      </trkpt>
      <trkpt lat="45.86045" lon="4.71092">
        <ele>197</ele>
        <time>2017-08-22T09:13:02Z</time>
      </trkpt>
      <trkpt lat="45.86044" lon="4.71085">
        <ele>197</ele>
        <time>2017-08-22T09:13:03Z</time>
      </trkpt>
      <trkpt lat="45.86041" lon="4.71078">
        <ele>197</ele>
        <time>2017-08-22T09:13:04Z</time>
      </trkpt>
      <trkpt lat="45.8604" lon="4.7107">
        <ele>197</ele>
        <time>2017-08-22T09:13:05Z</time>
      </trkpt>
      <trkpt lat="45.86039" lon="4.71062">
        <ele>197</ele>
        <time>2017-08-22T09:13:06Z</time>
      </trkpt>
      <trkpt lat="45.86038" lon="4.71053">
        <ele>197</ele>
        <time>2017-08-22T09:13:07Z</time>
      </trkpt>
      <trkpt lat="45.86037" lon="4.71045">
        <ele>197</ele>
        <time>2017-08-22T09:13:08Z</time>
      </trkpt>
      <trkpt lat="45.86036" lon="4.71038">
        <ele>197</ele>
        <time>2017-08-22T09:13:09Z</time>
      </trkpt>
      <trkpt lat="45.86033" lon="4.71031">
        <ele>197</ele>
        <time>2017-08-22T09:13:10Z</time>
      </trkpt>
      <trkpt lat="45.8603" lon="4.71024">
        <ele>197</ele>
        <time>2017-08-22T09:13:11Z</time>
      </trkpt>
      <trkpt lat="45.86027" lon="4.71019">
        <ele>197</ele>
        <time>2017-08-22T09:13:12Z</time>
      </trkpt>
      <trkpt lat="45.86024" lon="4.71014">
        <ele>197</ele>
        <time>2017-08-22T09:13:13Z</time>
      </trkpt>
      <trkpt lat="45.86021" lon="4.71009">
        <ele>197</ele>
        <time>2017-08-22T09:13:14Z</time>
      </trkpt>
      <trkpt lat="45.86017" lon="4.71003">
        <ele>197</ele>
        <time>2017-08-22T09:13:15Z</time>
      </trkpt>
      <trkpt lat="45.86013" lon="4.70998">
        <ele>197</ele>
        <time>2017-08-22T09:13:16Z</time>
      </trkpt>
      <trkpt lat="45.86008" lon="4.70993">
        <ele>197</ele>
        <time>2017-08-22T09:13:17Z</time>
      </trkpt>
      <trkpt lat="45.86003" lon="4.70988">
        <ele>197</ele>
        <time>2017-08-22T09:13:18Z</time>
      </trkpt>
      <trkpt lat="45.85997" lon="4.70984">
        <ele>197</ele>
        <time>2017-08-22T09:13:19Z</time>
      </trkpt>
      <trkpt lat="45.85992" lon="4.70981">
        <ele>197</ele>
        <time>2017-08-22T09:13:20Z</time>
      </trkpt>
      <trkpt lat="45.85986" lon="4.70977">
        <ele>197</ele>
        <time>2017-08-22T09:13:21Z</time>
      </trkpt>
      <trkpt lat="45.85981" lon="4.70975">
        <ele>197</ele>
        <time>2017-08-22T09:13:22Z</time>
      </trkpt>
      <trkpt lat="45.85975" lon="4.70972">
        <ele>197</ele>
        <time>2017-08-22T09:13:23Z</time>
      </trkpt>
      <trkpt lat="45.85969" lon="4.70972">
        <ele>197</ele>
        <time>2017-08-22T09:13:24Z</time>
      </trkpt>
      <trkpt lat="45.85963" lon="4.70971">
        <ele>197</ele>
        <time>2017-08-22T09:13:25Z</time>
      </trkpt>
      <trkpt lat="45.85958" lon="4.7097">
        <ele>197</ele>
        <time>2017-08-22T09:13:26Z</time>
      </trkpt>
      <trkpt lat="45.85952" lon="4.70969">
        <ele>197</ele>
        <time>2017-08-22T09:13:27Z</time>
      </trkpt>
      <trkpt lat="45.85947" lon="4.70968">
        <ele>197</ele>
        <time>2017-08-22T09:13:28Z</time>
      </trkpt>
      <trkpt lat="45.85943" lon="4.70965">
        <ele>197</ele>
        <time>2017-08-22T09:13:29Z</time>
      </trkpt>
      <trkpt lat="45.85941" lon="4.70953">
        <ele>197</ele>
        <time>2017-08-22T09:13:31Z</time>
      </trkpt>
      <trkpt lat="45.85943" lon="4.70947">
        <ele>197</ele>
        <time>2017-08-22T09:13:32Z</time>
      </trkpt>
      <trkpt lat="45.85945" lon="4.70935">
        <ele>197</ele>
        <time>2017-08-22T09:13:34Z</time>
      </trkpt>
      <trkpt lat="45.85947" lon="4.70928">
        <ele>197</ele>
        <time>2017-08-22T09:13:35Z</time>
      </trkpt>
      <trkpt lat="45.85949" lon="4.70921">
        <ele>197</ele>
        <time>2017-08-22T09:13:36Z</time>
      </trkpt>
      <trkpt lat="45.85951" lon="4.70913">
        <ele>197</ele>
        <time>2017-08-22T09:13:37Z</time>
      </trkpt>
      <trkpt lat="45.85953" lon="4.70905">
        <ele>197</ele>
        <time>2017-08-22T09:13:38Z</time>
      </trkpt>
      <trkpt lat="45.85955" lon="4.70897">
        <ele>197</ele>
        <time>2017-08-22T09:13:39Z</time>
      </trkpt>
      <trkpt lat="45.85956" lon="4.70889">
        <ele>197</ele>
        <time>2017-08-22T09:13:40Z</time>
      </trkpt>
      <trkpt lat="45.85959" lon="4.70881">
        <ele>197</ele>
        <time>2017-08-22T09:13:41Z</time>
      </trkpt>
      <trkpt lat="45.85961" lon="4.70873">
        <ele>196</ele>
        <time>2017-08-22T09:13:42Z</time>
      </trkpt>
      <trkpt lat="45.85963" lon="4.70865">
        <ele>196</ele>
        <time>2017-08-22T09:13:43Z</time>
      </trkpt>
      <trkpt lat="45.85964" lon="4.70857">
        <ele>196</ele>
        <time>2017-08-22T09:13:44Z</time>
      </trkpt>
      <trkpt lat="45.85964" lon="4.70849">
        <ele>196</ele>
        <time>2017-08-22T09:13:45Z</time>
      </trkpt>
      <trkpt lat="45.85963" lon="4.70841">
        <ele>196</ele>
        <time>2017-08-22T09:13:46Z</time>
      </trkpt>
      <trkpt lat="45.85963" lon="4.70833">
        <ele>196</ele>
        <time>2017-08-22T09:13:47Z</time>
      </trkpt>
      <trkpt lat="45.85962" lon="4.70825">
        <ele>196</ele>
        <time>2017-08-22T09:13:48Z</time>
      </trkpt>
      <trkpt lat="45.85962" lon="4.70818">
        <ele>195</ele>
        <time>2017-08-22T09:13:49Z</time>
      </trkpt>
      <trkpt lat="45.8596" lon="4.70811">
        <ele>195</ele>
        <time>2017-08-22T09:13:50Z</time>
      </trkpt>
      <trkpt lat="45.85958" lon="4.70804">
        <ele>195</ele>
        <time>2017-08-22T09:13:51Z</time>
      </trkpt>
      <trkpt lat="45.85958" lon="4.70797">
        <ele>195</ele>
        <time>2017-08-22T09:13:52Z</time>
      </trkpt>
      <trkpt lat="45.85958" lon="4.70789">
        <ele>195</ele>
        <time>2017-08-22T09:13:53Z</time>
      </trkpt>
      <trkpt lat="45.85958" lon="4.70782">
        <ele>195</ele>
        <time>2017-08-22T09:13:54Z</time>
      </trkpt>
      <trkpt lat="45.85958" lon="4.70775">
        <ele>195</ele>
        <time>2017-08-22T09:13:55Z</time>
      </trkpt>
      <trkpt lat="45.85959" lon="4.70769">
        <ele>195</ele>
        <time>2017-08-22T09:13:56Z</time>
      </trkpt>
      <trkpt lat="45.8596" lon="4.70762">
        <ele>195</ele>
        <time>2017-08-22T09:13:57Z</time>
      </trkpt>
      <trkpt lat="45.85961" lon="4.70754">
        <ele>195</ele>
        <time>2017-08-22T09:13:58Z</time>
      </trkpt>
      <trkpt lat="45.85963" lon="4.70746">
        <ele>194</ele>
        <time>2017-08-22T09:13:59Z</time>
      </trkpt>
      <trkpt lat="45.85965" lon="4.70737">
        <ele>194</ele>
        <time>2017-08-22T09:14:00Z</time>
      </trkpt>
      <trkpt lat="45.85966" lon="4.70729">
        <ele>194</ele>
        <time>2017-08-22T09:14:01Z</time>
      </trkpt>
      <trkpt lat="45.85966" lon="4.7072">
        <ele>194</ele>
        <time>2017-08-22T09:14:02Z</time>
      </trkpt>
      <trkpt lat="45.85967" lon="4.70712">
        <ele>194</ele>
        <time>2017-08-22T09:14:03Z</time>
      </trkpt>
      <trkpt lat="45.85967" lon="4.70703">
        <ele>194</ele>
        <time>2017-08-22T09:14:04Z</time>
      </trkpt>
      <trkpt lat="45.85967" lon="4.70696">
        <ele>194</ele>
        <time>2017-08-22T09:14:05Z</time>
      </trkpt>
      <trkpt lat="45.85967" lon="4.70688">
        <ele>194</ele>
        <time>2017-08-22T09:14:06Z</time>
      </trkpt>
      <trkpt lat="45.85965" lon="4.70682">
        <ele>194</ele>
        <time>2017-08-22T09:14:07Z</time>
      </trkpt>
      <trkpt lat="45.85962" lon="4.70676">
        <ele>194</ele>
        <time>2017-08-22T09:14:08Z</time>
      </trkpt>
      <trkpt lat="45.85959" lon="4.7067">
        <ele>194</ele>
        <time>2017-08-22T09:14:09Z</time>
      </trkpt>
      <trkpt lat="45.85955" lon="4.70664">
        <ele>194</ele>
        <time>2017-08-22T09:14:10Z</time>
      </trkpt>
      <trkpt lat="45.85952" lon="4.70657">
        <ele>194</ele>
        <time>2017-08-22T09:14:11Z</time>
      </trkpt>
      <trkpt lat="45.85947" lon="4.7065">
        <ele>194</ele>
        <time>2017-08-22T09:14:12Z</time>
      </trkpt>
      <trkpt lat="45.85943" lon="4.70643">
        <ele>194</ele>
        <time>2017-08-22T09:14:13Z</time>
      </trkpt>
      <trkpt lat="45.85939" lon="4.70635">
        <ele>194</ele>
        <time>2017-08-22T09:14:14Z</time>
      </trkpt>
      <trkpt lat="45.85935" lon="4.70628">
        <ele>194</ele>
        <time>2017-08-22T09:14:15Z</time>
      </trkpt>
      <trkpt lat="45.8593" lon="4.7062">
        <ele>194</ele>
        <time>2017-08-22T09:14:16Z</time>
      </trkpt>
      <trkpt lat="45.85925" lon="4.70613">
        <ele>194</ele>
        <time>2017-08-22T09:14:17Z</time>
      </trkpt>
      <trkpt lat="45.85921" lon="4.70606">
        <ele>194</ele>
        <time>2017-08-22T09:14:18Z</time>
      </trkpt>
      <trkpt lat="45.85917" lon="4.70599">
        <ele>194</ele>
        <time>2017-08-22T09:14:19Z</time>
      </trkpt>
      <trkpt lat="45.85913" lon="4.70592">
        <ele>195</ele>
        <time>2017-08-22T09:14:20Z</time>
      </trkpt>
      <trkpt lat="45.85909" lon="4.70586">
        <ele>195</ele>
        <time>2017-08-22T09:14:21Z</time>
      </trkpt>
      <trkpt lat="45.85904" lon="4.70581">
        <ele>195</ele>
        <time>2017-08-22T09:14:22Z</time>
      </trkpt>
      <trkpt lat="45.85898" lon="4.70579">
        <ele>195</ele>
        <time>2017-08-22T09:14:23Z</time>
      </trkpt>
      <trkpt lat="45.85892" lon="4.70577">
        <ele>195</ele>
        <time>2017-08-22T09:14:24Z</time>
      </trkpt>
      <trkpt lat="45.85887" lon="4.70576">
        <ele>195</ele>
        <time>2017-08-22T09:14:25Z</time>
      </trkpt>
      <trkpt lat="45.85881" lon="4.70575">
        <ele>195</ele>
        <time>2017-08-22T09:14:26Z</time>
      </trkpt>
      <trkpt lat="45.85876" lon="4.70574">
        <ele>195</ele>
        <time>2017-08-22T09:14:27Z</time>
      </trkpt>
      <trkpt lat="45.8587" lon="4.70573">
        <ele>195</ele>
        <time>2017-08-22T09:14:28Z</time>
      </trkpt>
      <trkpt lat="45.85868" lon="4.70568">
        <ele>195</ele>
        <time>2017-08-22T09:14:29Z</time>
      </trkpt>
      <trkpt lat="45.85863" lon="4.70565">
        <ele>195</ele>
        <time>2017-08-22T09:14:30Z</time>
      </trkpt>
      <trkpt lat="45.85856" lon="4.70564">
        <ele>195</ele>
        <time>2017-08-22T09:14:31Z</time>
      </trkpt>
      <trkpt lat="45.8585" lon="4.70561">
        <ele>195</ele>
        <time>2017-08-22T09:14:32Z</time>
      </trkpt>
      <trkpt lat="45.85844" lon="4.70559">
        <ele>195</ele>
        <time>2017-08-22T09:14:33Z</time>
      </trkpt>
      <trkpt lat="45.85838" lon="4.70557">
        <ele>195</ele>
        <time>2017-08-22T09:14:34Z</time>
      </trkpt>
      <trkpt lat="45.85832" lon="4.70554">
        <ele>195</ele>
        <time>2017-08-22T09:14:35Z</time>
      </trkpt>
      <trkpt lat="45.85826" lon="4.70552">
        <ele>195</ele>
        <time>2017-08-22T09:14:36Z</time>
      </trkpt>
      <trkpt lat="45.8582" lon="4.7055">
        <ele>195</ele>
        <time>2017-08-22T09:14:37Z</time>
      </trkpt>
      <trkpt lat="45.85814" lon="4.70548">
        <ele>195</ele>
        <time>2017-08-22T09:14:38Z</time>
      </trkpt>
      <trkpt lat="45.85809" lon="4.70546">
        <ele>195</ele>
        <time>2017-08-22T09:14:39Z</time>
      </trkpt>
      <trkpt lat="45.85804" lon="4.70544">
        <ele>195</ele>
        <time>2017-08-22T09:14:40Z</time>
      </trkpt>
      <trkpt lat="45.85799" lon="4.70541">
        <ele>195</ele>
        <time>2017-08-22T09:14:41Z</time>
      </trkpt>
      <trkpt lat="45.85794" lon="4.70538">
        <ele>195</ele>
        <time>2017-08-22T09:14:42Z</time>
      </trkpt>
      <trkpt lat="45.85789" lon="4.70535">
        <ele>196</ele>
        <time>2017-08-22T09:14:43Z</time>
      </trkpt>
      <trkpt lat="45.85784" lon="4.70532">
        <ele>196</ele>
        <time>2017-08-22T09:14:44Z</time>
      </trkpt>
      <trkpt lat="45.85779" lon="4.70529">
        <ele>196</ele>
        <time>2017-08-22T09:14:45Z</time>
      </trkpt>
      <trkpt lat="45.85774" lon="4.70525">
        <ele>196</ele>
        <time>2017-08-22T09:14:46Z</time>
      </trkpt>
      <trkpt lat="45.85769" lon="4.70521">
        <ele>196</ele>
        <time>2017-08-22T09:14:47Z</time>
      </trkpt>
      <trkpt lat="45.85764" lon="4.70516">
        <ele>196</ele>
        <time>2017-08-22T09:14:48Z</time>
      </trkpt>
      <trkpt lat="45.85758" lon="4.70513">
        <ele>196</ele>
        <time>2017-08-22T09:14:49Z</time>
      </trkpt>
      <trkpt lat="45.85752" lon="4.7051">
        <ele>196</ele>
        <time>2017-08-22T09:14:50Z</time>
      </trkpt>
      <trkpt lat="45.85747" lon="4.70506">
        <ele>196</ele>
        <time>2017-08-22T09:14:51Z</time>
      </trkpt>
      <trkpt lat="45.85743" lon="4.70501">
        <ele>196</ele>
        <time>2017-08-22T09:14:52Z</time>
      </trkpt>
      <trkpt lat="45.85738" lon="4.70495">
        <ele>196</ele>
        <time>2017-08-22T09:14:53Z</time>
      </trkpt>
      <trkpt lat="45.85734" lon="4.70489">
        <ele>196</ele>
        <time>2017-08-22T09:14:54Z</time>
      </trkpt>
      <trkpt lat="45.85731" lon="4.70481">
        <ele>196</ele>
        <time>2017-08-22T09:14:55Z</time>
      </trkpt>
      <trkpt lat="45.8573" lon="4.70472">
        <ele>196</ele>
        <time>2017-08-22T09:14:56Z</time>
      </trkpt>
      <trkpt lat="45.85728" lon="4.70462">
        <ele>196</ele>
        <time>2017-08-22T09:14:57Z</time>
      </trkpt>
      <trkpt lat="45.85726" lon="4.70453">
        <ele>196</ele>
        <time>2017-08-22T09:14:58Z</time>
      </trkpt>
      <trkpt lat="45.85725" lon="4.70443">
        <ele>196</ele>
        <time>2017-08-22T09:14:59Z</time>
      </trkpt>
      <trkpt lat="45.85724" lon="4.70433">
        <ele>196</ele>
        <time>2017-08-22T09:15:00Z</time>
      </trkpt>
      <trkpt lat="45.85723" lon="4.70424">
        <ele>196</ele>
        <time>2017-08-22T09:15:01Z</time>
      </trkpt>
      <trkpt lat="45.85722" lon="4.70414">
        <ele>196</ele>
        <time>2017-08-22T09:15:02Z</time>
      </trkpt>
      <trkpt lat="45.85721" lon="4.70405">
        <ele>196</ele>
        <time>2017-08-22T09:15:03Z</time>
      </trkpt>
      <trkpt lat="45.8572" lon="4.70395">
        <ele>196</ele>
        <time>2017-08-22T09:15:04Z</time>
      </trkpt>
      <trkpt lat="45.8572" lon="4.70387">
        <ele>196</ele>
        <time>2017-08-22T09:15:05Z</time>
      </trkpt>
      <trkpt lat="45.85719" lon="4.70378">
        <ele>196</ele>
        <time>2017-08-22T09:15:06Z</time>
      </trkpt>
      <trkpt lat="45.85718" lon="4.7037">
        <ele>196</ele>
        <time>2017-08-22T09:15:07Z</time>
      </trkpt>
      <trkpt lat="45.85718" lon="4.70363">
        <ele>196</ele>
        <time>2017-08-22T09:15:08Z</time>
      </trkpt>
      <trkpt lat="45.85717" lon="4.70355">
        <ele>196</ele>
        <time>2017-08-22T09:15:09Z</time>
      </trkpt>
      <trkpt lat="45.85716" lon="4.70348">
        <ele>196</ele>
        <time>2017-08-22T09:15:10Z</time>
      </trkpt>
      <trkpt lat="45.85715" lon="4.7034">
        <ele>196</ele>
        <time>2017-08-22T09:15:11Z</time>
      </trkpt>
      <trkpt lat="45.85714" lon="4.70331">
        <ele>197</ele>
        <time>2017-08-22T09:15:12Z</time>
      </trkpt>
      <trkpt lat="45.85713" lon="4.70323">
        <ele>197</ele>
        <time>2017-08-22T09:15:13Z</time>
      </trkpt>
      <trkpt lat="45.85712" lon="4.70315">
        <ele>197</ele>
        <time>2017-08-22T09:15:14Z</time>
      </trkpt>
      <trkpt lat="45.8571" lon="4.70306">
        <ele>197</ele>
        <time>2017-08-22T09:15:15Z</time>
      </trkpt>
      <trkpt lat="45.85709" lon="4.70298">
        <ele>197</ele>
        <time>2017-08-22T09:15:16Z</time>
      </trkpt>
      <trkpt lat="45.85708" lon="4.70289">
        <ele>197</ele>
        <time>2017-08-22T09:15:17Z</time>
      </trkpt>
      <trkpt lat="45.85707" lon="4.7028">
        <ele>197</ele>
        <time>2017-08-22T09:15:18Z</time>
      </trkpt>
      <trkpt lat="45.85706" lon="4.70271">
        <ele>197</ele>
        <time>2017-08-22T09:15:19Z</time>
      </trkpt>
      <trkpt lat="45.85705" lon="4.70263">
        <ele>197</ele>
        <time>2017-08-22T09:15:20Z</time>
      </trkpt>
      <trkpt lat="45.85704" lon="4.70254">
        <ele>197</ele>
        <time>2017-08-22T09:15:21Z</time>
      </trkpt>
      <trkpt lat="45.85704" lon="4.70246">
        <ele>197</ele>
        <time>2017-08-22T09:15:22Z</time>
      </trkpt>
      <trkpt lat="45.85703" lon="4.70238">
        <ele>197</ele>
        <time>2017-08-22T09:15:23Z</time>
      </trkpt>
      <trkpt lat="45.85702" lon="4.70229">
        <ele>197</ele>
        <time>2017-08-22T09:15:24Z</time>
      </trkpt>
      <trkpt lat="45.85702" lon="4.70221">
        <ele>197</ele>
        <time>2017-08-22T09:15:25Z</time>
      </trkpt>
      <trkpt lat="45.85701" lon="4.70212">
        <ele>197</ele>
        <time>2017-08-22T09:15:26Z</time>
      </trkpt>
      <trkpt lat="45.85699" lon="4.70204">
        <ele>197</ele>
        <time>2017-08-22T09:15:27Z</time>
      </trkpt>
      <trkpt lat="45.85698" lon="4.70197">
        <ele>197</ele>
        <time>2017-08-22T09:15:28Z</time>
      </trkpt>
      <trkpt lat="45.85697" lon="4.70189">
        <ele>197</ele>
        <time>2017-08-22T09:15:29Z</time>
      </trkpt>
      <trkpt lat="45.85695" lon="4.70182">
        <ele>197</ele>
        <time>2017-08-22T09:15:30Z</time>
      </trkpt>
      <trkpt lat="45.85694" lon="4.70174">
        <ele>197</ele>
        <time>2017-08-22T09:15:31Z</time>
      </trkpt>
      <trkpt lat="45.85692" lon="4.70167">
        <ele>197</ele>
        <time>2017-08-22T09:15:32Z</time>
      </trkpt>
      <trkpt lat="45.8569" lon="4.70159">
        <ele>197</ele>
        <time>2017-08-22T09:15:33Z</time>
      </trkpt>
      <trkpt lat="45.85688" lon="4.70151">
        <ele>197</ele>
        <time>2017-08-22T09:15:34Z</time>
      </trkpt>
      <trkpt lat="45.85687" lon="4.70142">
        <ele>197</ele>
        <time>2017-08-22T09:15:35Z</time>
      </trkpt>
      <trkpt lat="45.85686" lon="4.70132">
        <ele>197</ele>
        <time>2017-08-22T09:15:36Z</time>
      </trkpt>
      <trkpt lat="45.85684" lon="4.70123">
        <ele>197</ele>
        <time>2017-08-22T09:15:37Z</time>
      </trkpt>
      <trkpt lat="45.85684" lon="4.70114">
        <ele>197</ele>
        <time>2017-08-22T09:15:38Z</time>
      </trkpt>
      <trkpt lat="45.85684" lon="4.70105">
        <ele>196</ele>
        <time>2017-08-22T09:15:39Z</time>
      </trkpt>
      <trkpt lat="45.85684" lon="4.70098">
        <ele>196</ele>
        <time>2017-08-22T09:15:40Z</time>
      </trkpt>
      <trkpt lat="45.85685" lon="4.70091">
        <ele>196</ele>
        <time>2017-08-22T09:15:41Z</time>
      </trkpt>
      <trkpt lat="45.85686" lon="4.70078">
        <ele>196</ele>
        <time>2017-08-22T09:15:43Z</time>
      </trkpt>
      <trkpt lat="45.85687" lon="4.70072">
        <ele>196</ele>
        <time>2017-08-22T09:15:44Z</time>
      </trkpt>
      <trkpt lat="45.85689" lon="4.7006">
        <ele>195</ele>
        <time>2017-08-22T09:15:46Z</time>
      </trkpt>
      <trkpt lat="45.85691" lon="4.70054">
        <ele>195</ele>
        <time>2017-08-22T09:15:47Z</time>
      </trkpt>
      <trkpt lat="45.85693" lon="4.70042">
        <ele>195</ele>
        <time>2017-08-22T09:15:49Z</time>
      </trkpt>
      <trkpt lat="45.85694" lon="4.70035">
        <ele>195</ele>
        <time>2017-08-22T09:15:50Z</time>
      </trkpt>
      <trkpt lat="45.85695" lon="4.70027">
        <ele>195</ele>
        <time>2017-08-22T09:15:51Z</time>
      </trkpt>
      <trkpt lat="45.85696" lon="4.70019">
        <ele>195</ele>
        <time>2017-08-22T09:15:52Z</time>
      </trkpt>
      <trkpt lat="45.85697" lon="4.70011">
        <ele>195</ele>
        <time>2017-08-22T09:15:53Z</time>
      </trkpt>
      <trkpt lat="45.85697" lon="4.70002">
        <ele>195</ele>
        <time>2017-08-22T09:15:54Z</time>
      </trkpt>
      <trkpt lat="45.85696" lon="4.69992">
        <ele>195</ele>
        <time>2017-08-22T09:15:55Z</time>
      </trkpt>
      <trkpt lat="45.85695" lon="4.69983">
        <ele>195</ele>
        <time>2017-08-22T09:15:56Z</time>
      </trkpt>
      <trkpt lat="45.85693" lon="4.69974">
        <ele>195</ele>
        <time>2017-08-22T09:15:57Z</time>
      </trkpt>
      <trkpt lat="45.85692" lon="4.69966">
        <ele>195</ele>
        <time>2017-08-22T09:15:58Z</time>
      </trkpt>
      <trkpt lat="45.8569" lon="4.69957">
        <ele>195</ele>
        <time>2017-08-22T09:15:59Z</time>
      </trkpt>
      <trkpt lat="45.85687" lon="4.69948">
        <ele>195</ele>
        <time>2017-08-22T09:16:00Z</time>
      </trkpt>
      <trkpt lat="45.85685" lon="4.69939">
        <ele>195</ele>
        <time>2017-08-22T09:16:01Z</time>
      </trkpt>
      <trkpt lat="45.85683" lon="4.69931">
        <ele>195</ele>
        <time>2017-08-22T09:16:02Z</time>
      </trkpt>
      <trkpt lat="45.85681" lon="4.69923">
        <ele>195</ele>
        <time>2017-08-22T09:16:03Z</time>
      </trkpt>
      <trkpt lat="45.85679" lon="4.69915">
        <ele>195</ele>
        <time>2017-08-22T09:16:04Z</time>
      </trkpt>
      <trkpt lat="45.85678" lon="4.69907">
        <ele>195</ele>
        <time>2017-08-22T09:16:05Z</time>
      </trkpt>
      <trkpt lat="45.85676" lon="4.699">
        <ele>195</ele>
        <time>2017-08-22T09:16:06Z</time>
      </trkpt>
      <trkpt lat="45.85675" lon="4.69892">
        <ele>195</ele>
        <time>2017-08-22T09:16:07Z</time>
      </trkpt>
      <trkpt lat="45.85674" lon="4.69885">
        <ele>195</ele>
        <time>2017-08-22T09:16:08Z</time>
      </trkpt>
      <trkpt lat="45.85673" lon="4.69878">
        <ele>195</ele>
        <time>2017-08-22T09:16:09Z</time>
      </trkpt>
      <trkpt lat="45.85673" lon="4.6987">
        <ele>195</ele>
        <time>2017-08-22T09:16:10Z</time>
      </trkpt>
      <trkpt lat="45.85671" lon="4.69863">
        <ele>195</ele>
        <time>2017-08-22T09:16:11Z</time>
      </trkpt>
      <trkpt lat="45.8567" lon="4.69856">
        <ele>195</ele>
        <time>2017-08-22T09:16:12Z</time>
      </trkpt>
      <trkpt lat="45.85669" lon="4.69848">
        <ele>195</ele>
        <time>2017-08-22T09:16:13Z</time>
      </trkpt>
      <trkpt lat="45.85669" lon="4.6984">
        <ele>195</ele>
        <time>2017-08-22T09:16:14Z</time>
      </trkpt>
      <trkpt lat="45.85668" lon="4.69832">
        <ele>195</ele>
        <time>2017-08-22T09:16:15Z</time>
      </trkpt>
      <trkpt lat="45.85667" lon="4.69823">
        <ele>195</ele>
        <time>2017-08-22T09:16:16Z</time>
      </trkpt>
      <trkpt lat="45.85666" lon="4.69814">
        <ele>195</ele>
        <time>2017-08-22T09:16:17Z</time>
      </trkpt>
      <trkpt lat="45.85665" lon="4.69806">
        <ele>195</ele>
        <time>2017-08-22T09:16:18Z</time>
      </trkpt>
      <trkpt lat="45.85664" lon="4.69797">
        <ele>195</ele>
        <time>2017-08-22T09:16:19Z</time>
      </trkpt>
      <trkpt lat="45.85663" lon="4.69787">
        <ele>195</ele>
        <time>2017-08-22T09:16:20Z</time>
      </trkpt>
      <trkpt lat="45.85661" lon="4.69777">
        <ele>195</ele>
        <time>2017-08-22T09:16:21Z</time>
      </trkpt>
      <trkpt lat="45.8566" lon="4.69768">
        <ele>195</ele>
        <time>2017-08-22T09:16:22Z</time>
      </trkpt>
      <trkpt lat="45.8566" lon="4.69759">
        <ele>194</ele>
        <time>2017-08-22T09:16:23Z</time>
      </trkpt>
      <trkpt lat="45.85659" lon="4.6975">
        <ele>195</ele>
        <time>2017-08-22T09:16:24Z</time>
      </trkpt>
      <trkpt lat="45.85658" lon="4.69741">
        <ele>195</ele>
        <time>2017-08-22T09:16:25Z</time>
      </trkpt>
      <trkpt lat="45.85657" lon="4.69733">
        <ele>195</ele>
        <time>2017-08-22T09:16:26Z</time>
      </trkpt>
      <trkpt lat="45.85656" lon="4.69726">
        <ele>195</ele>
        <time>2017-08-22T09:16:27Z</time>
      </trkpt>
      <trkpt lat="45.85655" lon="4.69719">
        <ele>196</ele>
        <time>2017-08-22T09:16:28Z</time>
      </trkpt>
      <trkpt lat="45.85655" lon="4.69712">
        <ele>196</ele>
        <time>2017-08-22T09:16:29Z</time>
      </trkpt>
      <trkpt lat="45.85654" lon="4.69704">
        <ele>196</ele>
        <time>2017-08-22T09:16:30Z</time>
      </trkpt>
      <trkpt lat="45.85654" lon="4.69697">
        <ele>196</ele>
        <time>2017-08-22T09:16:31Z</time>
      </trkpt>
      <trkpt lat="45.85653" lon="4.69689">
        <ele>196</ele>
        <time>2017-08-22T09:16:32Z</time>
      </trkpt>
      <trkpt lat="45.85652" lon="4.6968">
        <ele>196</ele>
        <time>2017-08-22T09:16:33Z</time>
      </trkpt>
      <trkpt lat="45.85652" lon="4.69672">
        <ele>196</ele>
        <time>2017-08-22T09:16:34Z</time>
      </trkpt>
      <trkpt lat="45.85651" lon="4.69663">
        <ele>196</ele>
        <time>2017-08-22T09:16:35Z</time>
      </trkpt>
      <trkpt lat="45.8565" lon="4.69655">
        <ele>197</ele>
        <time>2017-08-22T09:16:36Z</time>
      </trkpt>
      <trkpt lat="45.85649" lon="4.69647">
        <ele>197</ele>
        <time>2017-08-22T09:16:37Z</time>
      </trkpt>
      <trkpt lat="45.85649" lon="4.69639">
        <ele>197</ele>
        <time>2017-08-22T09:16:38Z</time>
      </trkpt>
      <trkpt lat="45.85648" lon="4.69632">
        <ele>197</ele>
        <time>2017-08-22T09:16:39Z</time>
      </trkpt>
      <trkpt lat="45.85648" lon="4.69624">
        <ele>197</ele>
        <time>2017-08-22T09:16:40Z</time>
      </trkpt>
      <trkpt lat="45.85647" lon="4.69617">
        <ele>197</ele>
        <time>2017-08-22T09:16:41Z</time>
      </trkpt>
      <trkpt lat="45.85646" lon="4.69609">
        <ele>197</ele>
        <time>2017-08-22T09:16:42Z</time>
      </trkpt>
      <trkpt lat="45.85645" lon="4.69601">
        <ele>197</ele>
        <time>2017-08-22T09:16:43Z</time>
      </trkpt>
      <trkpt lat="45.85645" lon="4.69593">
        <ele>197</ele>
        <time>2017-08-22T09:16:44Z</time>
      </trkpt>
      <trkpt lat="45.85644" lon="4.69585">
        <ele>197</ele>
        <time>2017-08-22T09:16:45Z</time>
      </trkpt>
      <trkpt lat="45.85643" lon="4.69577">
        <ele>198</ele>
        <time>2017-08-22T09:16:46Z</time>
      </trkpt>
      <trkpt lat="45.85643" lon="4.69568">
        <ele>198</ele>
        <time>2017-08-22T09:16:47Z</time>
      </trkpt>
      <trkpt lat="45.85642" lon="4.6956">
        <ele>198</ele>
        <time>2017-08-22T09:16:48Z</time>
      </trkpt>
      <trkpt lat="45.85641" lon="4.69551">
        <ele>198</ele>
        <time>2017-08-22T09:16:49Z</time>
      </trkpt>
      <trkpt lat="45.85641" lon="4.69542">
        <ele>198</ele>
        <time>2017-08-22T09:16:50Z</time>
      </trkpt>
      <trkpt lat="45.8564" lon="4.69533">
        <ele>198</ele>
        <time>2017-08-22T09:16:51Z</time>
      </trkpt>
      <trkpt lat="45.85639" lon="4.69523">
        <ele>198</ele>
        <time>2017-08-22T09:16:52Z</time>
      </trkpt>
      <trkpt lat="45.85638" lon="4.69514">
        <ele>198</ele>
        <time>2017-08-22T09:16:53Z</time>
      </trkpt>
      <trkpt lat="45.85637" lon="4.69506">
        <ele>198</ele>
        <time>2017-08-22T09:16:54Z</time>
      </trkpt>
      <trkpt lat="45.85636" lon="4.69498">
        <ele>198</ele>
        <time>2017-08-22T09:16:55Z</time>
      </trkpt>
      <trkpt lat="45.85635" lon="4.6949">
        <ele>198</ele>
        <time>2017-08-22T09:16:56Z</time>
      </trkpt>
      <trkpt lat="45.85635" lon="4.69482">
        <ele>198</ele>
        <time>2017-08-22T09:16:57Z</time>
      </trkpt>
      <trkpt lat="45.85634" lon="4.69475">
        <ele>198</ele>
        <time>2017-08-22T09:16:58Z</time>
      </trkpt>
      <trkpt lat="45.85633" lon="4.69468">
        <ele>198</ele>
        <time>2017-08-22T09:16:59Z</time>
      </trkpt>
      <trkpt lat="45.85632" lon="4.69461">
        <ele>198</ele>
        <time>2017-08-22T09:17:00Z</time>
      </trkpt>
      <trkpt lat="45.85632" lon="4.69454">
        <ele>198</ele>
        <time>2017-08-22T09:17:01Z</time>
      </trkpt>
      <trkpt lat="45.85631" lon="4.69446">
        <ele>198</ele>
        <time>2017-08-22T09:17:02Z</time>
      </trkpt>
      <trkpt lat="45.8563" lon="4.69438">
        <ele>198</ele>
        <time>2017-08-22T09:17:03Z</time>
      </trkpt>
      <trkpt lat="45.8563" lon="4.6943">
        <ele>198</ele>
        <time>2017-08-22T09:17:04Z</time>
      </trkpt>
      <trkpt lat="45.85629" lon="4.69421">
        <ele>198</ele>
        <time>2017-08-22T09:17:05Z</time>
      </trkpt>
      <trkpt lat="45.85628" lon="4.69412">
        <ele>198</ele>
        <time>2017-08-22T09:17:06Z</time>
      </trkpt>
      <trkpt lat="45.85627" lon="4.69403">
        <ele>198</ele>
        <time>2017-08-22T09:17:07Z</time>
      </trkpt>
      <trkpt lat="45.85626" lon="4.69395">
        <ele>198</ele>
        <time>2017-08-22T09:17:08Z</time>
      </trkpt>
      <trkpt lat="45.85625" lon="4.69386">
        <ele>198</ele>
        <time>2017-08-22T09:17:09Z</time>
      </trkpt>
      <trkpt lat="45.85624" lon="4.69379">
        <ele>198</ele>
        <time>2017-08-22T09:17:10Z</time>
      </trkpt>
      <trkpt lat="45.85624" lon="4.69371">
        <ele>198</ele>
        <time>2017-08-22T09:17:11Z</time>
      </trkpt>
      <trkpt lat="45.85623" lon="4.69364">
        <ele>198</ele>
        <time>2017-08-22T09:17:12Z</time>
      </trkpt>
      <trkpt lat="45.85623" lon="4.69356">
        <ele>198</ele>
        <time>2017-08-22T09:17:13Z</time>
      </trkpt>
      <trkpt lat="45.85622" lon="4.69349">
        <ele>198</ele>
        <time>2017-08-22T09:17:14Z</time>
      </trkpt>
      <trkpt lat="45.85621" lon="4.69342">
        <ele>198</ele>
        <time>2017-08-22T09:17:15Z</time>
      </trkpt>
      <trkpt lat="45.8562" lon="4.69334">
        <ele>198</ele>
        <time>2017-08-22T09:17:16Z</time>
      </trkpt>
      <trkpt lat="45.85619" lon="4.69327">
        <ele>198</ele>
        <time>2017-08-22T09:17:17Z</time>
      </trkpt>
      <trkpt lat="45.85617" lon="4.69318">
        <ele>198</ele>
        <time>2017-08-22T09:17:18Z</time>
      </trkpt>
      <trkpt lat="45.85616" lon="4.6931">
        <ele>198</ele>
        <time>2017-08-22T09:17:19Z</time>
      </trkpt>
      <trkpt lat="45.85616" lon="4.69303">
        <ele>198</ele>
        <time>2017-08-22T09:17:20Z</time>
      </trkpt>
      <trkpt lat="45.85615" lon="4.69296">
        <ele>198</ele>
        <time>2017-08-22T09:17:21Z</time>
      </trkpt>
      <trkpt lat="45.85615" lon="4.69289">
        <ele>198</ele>
        <time>2017-08-22T09:17:22Z</time>
      </trkpt>
      <trkpt lat="45.85616" lon="4.69282">
        <ele>198</ele>
        <time>2017-08-22T09:17:23Z</time>
      </trkpt>
      <trkpt lat="45.85617" lon="4.69275">
        <ele>198</ele>
        <time>2017-08-22T09:17:24Z</time>
      </trkpt>
      <trkpt lat="45.85619" lon="4.69268">
        <ele>198</ele>
        <time>2017-08-22T09:17:25Z</time>
      </trkpt>
      <trkpt lat="45.85619" lon="4.69261">
        <ele>198</ele>
        <time>2017-08-22T09:17:26Z</time>
      </trkpt>
      <trkpt lat="45.85619" lon="4.69254">
        <ele>198</ele>
        <time>2017-08-22T09:17:27Z</time>
      </trkpt>
      <trkpt lat="45.85617" lon="4.69246">
        <ele>199</ele>
        <time>2017-08-22T09:17:28Z</time>
      </trkpt>
      <trkpt lat="45.85614" lon="4.69239">
        <ele>199</ele>
        <time>2017-08-22T09:17:29Z</time>
      </trkpt>
      <trkpt lat="45.85612" lon="4.69232">
        <ele>199</ele>
        <time>2017-08-22T09:17:30Z</time>
      </trkpt>
      <trkpt lat="45.8561" lon="4.69223">
        <ele>199</ele>
        <time>2017-08-22T09:17:31Z</time>
      </trkpt>
      <trkpt lat="45.85609" lon="4.69214">
        <ele>199</ele>
        <time>2017-08-22T09:17:32Z</time>
      </trkpt>
      <trkpt lat="45.85608" lon="4.69205">
        <ele>199</ele>
        <time>2017-08-22T09:17:33Z</time>
      </trkpt>
      <trkpt lat="45.85607" lon="4.69195">
        <ele>199</ele>
        <time>2017-08-22T09:17:34Z</time>
      </trkpt>
      <trkpt lat="45.85605" lon="4.69184">
        <ele>199</ele>
        <time>2017-08-22T09:17:35Z</time>
      </trkpt>
      <trkpt lat="45.85604" lon="4.69175">
        <ele>199</ele>
        <time>2017-08-22T09:17:36Z</time>
      </trkpt>
      <trkpt lat="45.85602" lon="4.69165">
        <ele>199</ele>
        <time>2017-08-22T09:17:37Z</time>
      </trkpt>
      <trkpt lat="45.85601" lon="4.69155">
        <ele>199</ele>
        <time>2017-08-22T09:17:38Z</time>
      </trkpt>
      <trkpt lat="45.85601" lon="4.69146">
        <ele>199</ele>
        <time>2017-08-22T09:17:39Z</time>
      </trkpt>
      <trkpt lat="45.85601" lon="4.69137">
        <ele>198</ele>
        <time>2017-08-22T09:17:40Z</time>
      </trkpt>
      <trkpt lat="45.856" lon="4.69128">
        <ele>198</ele>
        <time>2017-08-22T09:17:41Z</time>
      </trkpt>
      <trkpt lat="45.85599" lon="4.69118">
        <ele>198</ele>
        <time>2017-08-22T09:17:42Z</time>
      </trkpt>
      <trkpt lat="45.85599" lon="4.6911">
        <ele>198</ele>
        <time>2017-08-22T09:17:43Z</time>
      </trkpt>
      <trkpt lat="45.85598" lon="4.69101">
        <ele>199</ele>
        <time>2017-08-22T09:17:44Z</time>
      </trkpt>
      <trkpt lat="45.85597" lon="4.69092">
        <ele>199</ele>
        <time>2017-08-22T09:17:45Z</time>
      </trkpt>
      <trkpt lat="45.85596" lon="4.69083">
        <ele>199</ele>
        <time>2017-08-22T09:17:46Z</time>
      </trkpt>
      <trkpt lat="45.85596" lon="4.69073">
        <ele>199</ele>
        <time>2017-08-22T09:17:47Z</time>
      </trkpt>
      <trkpt lat="45.85595" lon="4.69064">
        <ele>199</ele>
        <time>2017-08-22T09:17:48Z</time>
      </trkpt>
      <trkpt lat="45.85595" lon="4.69055">
        <ele>199</ele>
        <time>2017-08-22T09:17:49Z</time>
      </trkpt>
      <trkpt lat="45.85594" lon="4.69045">
        <ele>199</ele>
        <time>2017-08-22T09:17:50Z</time>
      </trkpt>
      <trkpt lat="45.85593" lon="4.69036">
        <ele>199</ele>
        <time>2017-08-22T09:17:51Z</time>
      </trkpt>
      <trkpt lat="45.85592" lon="4.69028">
        <ele>199</ele>
        <time>2017-08-22T09:17:52Z</time>
      </trkpt>
      <trkpt lat="45.85592" lon="4.69019">
        <ele>199</ele>
        <time>2017-08-22T09:17:53Z</time>
      </trkpt>
      <trkpt lat="45.85591" lon="4.6901">
        <ele>200</ele>
        <time>2017-08-22T09:17:54Z</time>
      </trkpt>
      <trkpt lat="45.85591" lon="4.69002">
        <ele>200</ele>
        <time>2017-08-22T09:17:55Z</time>
      </trkpt>
      <trkpt lat="45.8559" lon="4.68994">
        <ele>200</ele>
        <time>2017-08-22T09:17:56Z</time>
      </trkpt>
      <trkpt lat="45.85589" lon="4.68986">
        <ele>200</ele>
        <time>2017-08-22T09:17:57Z</time>
      </trkpt>
      <trkpt lat="45.85588" lon="4.68978">
        <ele>200</ele>
        <time>2017-08-22T09:17:58Z</time>
      </trkpt>
      <trkpt lat="45.85587" lon="4.68969">
        <ele>200</ele>
        <time>2017-08-22T09:17:59Z</time>
      </trkpt>
      <trkpt lat="45.85587" lon="4.68962">
        <ele>200</ele>
        <time>2017-08-22T09:18:00Z</time>
      </trkpt>
      <trkpt lat="45.85586" lon="4.68954">
        <ele>200</ele>
        <time>2017-08-22T09:18:01Z</time>
      </trkpt>
      <trkpt lat="45.85585" lon="4.68946">
        <ele>200</ele>
        <time>2017-08-22T09:18:02Z</time>
      </trkpt>
      <trkpt lat="45.85584" lon="4.68937">
        <ele>200</ele>
        <time>2017-08-22T09:18:03Z</time>
      </trkpt>
      <trkpt lat="45.85582" lon="4.68929">
        <ele>200</ele>
        <time>2017-08-22T09:18:04Z</time>
      </trkpt>
      <trkpt lat="45.85581" lon="4.6892">
        <ele>200</ele>
        <time>2017-08-22T09:18:05Z</time>
      </trkpt>
      <trkpt lat="45.8558" lon="4.68911">
        <ele>200</ele>
        <time>2017-08-22T09:18:06Z</time>
      </trkpt>
      <trkpt lat="45.85579" lon="4.68901">
        <ele>200</ele>
        <time>2017-08-22T09:18:07Z</time>
      </trkpt>
      <trkpt lat="45.85578" lon="4.68891">
        <ele>200</ele>
        <time>2017-08-22T09:18:08Z</time>
      </trkpt>
      <trkpt lat="45.85577" lon="4.68881">
        <ele>200</ele>
        <time>2017-08-22T09:18:09Z</time>
      </trkpt>
      <trkpt lat="45.85577" lon="4.68872">
        <ele>200</ele>
        <time>2017-08-22T09:18:10Z</time>
      </trkpt>
      <trkpt lat="45.85576" lon="4.68863">
        <ele>200</ele>
        <time>2017-08-22T09:18:11Z</time>
      </trkpt>
      <trkpt lat="45.85576" lon="4.68854">
        <ele>200</ele>
        <time>2017-08-22T09:18:12Z</time>
      </trkpt>
      <trkpt lat="45.85575" lon="4.68846">
        <ele>200</ele>
        <time>2017-08-22T09:18:13Z</time>
      </trkpt>
      <trkpt lat="45.85575" lon="4.68837">
        <ele>200</ele>
        <time>2017-08-22T09:18:14Z</time>
      </trkpt>
      <trkpt lat="45.85574" lon="4.68829">
        <ele>200</ele>
        <time>2017-08-22T09:18:15Z</time>
      </trkpt>
      <trkpt lat="45.85574" lon="4.68821">
        <ele>200</ele>
        <time>2017-08-22T09:18:16Z</time>
      </trkpt>
      <trkpt lat="45.85574" lon="4.68812">
        <ele>200</ele>
        <time>2017-08-22T09:18:17Z</time>
      </trkpt>
      <trkpt lat="45.85573" lon="4.68804">
        <ele>200</ele>
        <time>2017-08-22T09:18:18Z</time>
      </trkpt>
      <trkpt lat="45.85573" lon="4.68795">
        <ele>200</ele>
        <time>2017-08-22T09:18:19Z</time>
      </trkpt>
      <trkpt lat="45.85572" lon="4.68786">
        <ele>200</ele>
        <time>2017-08-22T09:18:20Z</time>
      </trkpt>
      <trkpt lat="45.85571" lon="4.68777">
        <ele>200</ele>
        <time>2017-08-22T09:18:21Z</time>
      </trkpt>
      <trkpt lat="45.85569" lon="4.68768">
        <ele>200</ele>
        <time>2017-08-22T09:18:22Z</time>
      </trkpt>
      <trkpt lat="45.85568" lon="4.68759">
        <ele>200</ele>
        <time>2017-08-22T09:18:23Z</time>
      </trkpt>
      <trkpt lat="45.85567" lon="4.68751">
        <ele>200</ele>
        <time>2017-08-22T09:18:24Z</time>
      </trkpt>
      <trkpt lat="45.85566" lon="4.68742">
        <ele>200</ele>
        <time>2017-08-22T09:18:25Z</time>
      </trkpt>
      <trkpt lat="45.85565" lon="4.68734">
        <ele>200</ele>
        <time>2017-08-22T09:18:26Z</time>
      </trkpt>
      <trkpt lat="45.85564" lon="4.68726">
        <ele>200</ele>
        <time>2017-08-22T09:18:27Z</time>
      </trkpt>
      <trkpt lat="45.85563" lon="4.68718">
        <ele>200</ele>
        <time>2017-08-22T09:18:28Z</time>
      </trkpt>
      <trkpt lat="45.85562" lon="4.6871">
        <ele>200</ele>
        <time>2017-08-22T09:18:29Z</time>
      </trkpt>
      <trkpt lat="45.8556" lon="4.68701">
        <ele>200</ele>
        <time>2017-08-22T09:18:30Z</time>
      </trkpt>
      <trkpt lat="45.85559" lon="4.68693">
        <ele>200</ele>
        <time>2017-08-22T09:18:31Z</time>
      </trkpt>
      <trkpt lat="45.85558" lon="4.68684">
        <ele>200</ele>
        <time>2017-08-22T09:18:32Z</time>
      </trkpt>
      <trkpt lat="45.85556" lon="4.68674">
        <ele>200</ele>
        <time>2017-08-22T09:18:33Z</time>
      </trkpt>
      <trkpt lat="45.85556" lon="4.68665">
        <ele>200</ele>
        <time>2017-08-22T09:18:34Z</time>
      </trkpt>
      <trkpt lat="45.85555" lon="4.68655">
        <ele>200</ele>
        <time>2017-08-22T09:18:35Z</time>
      </trkpt>
      <trkpt lat="45.85554" lon="4.68645">
        <ele>201</ele>
        <time>2017-08-22T09:18:36Z</time>
      </trkpt>
      <trkpt lat="45.85555" lon="4.68635">
        <ele>201</ele>
        <time>2017-08-22T09:18:37Z</time>
      </trkpt>
      <trkpt lat="45.85555" lon="4.68626">
        <ele>201</ele>
        <time>2017-08-22T09:18:38Z</time>
      </trkpt>
      <trkpt lat="45.85554" lon="4.68616">
        <ele>201</ele>
        <time>2017-08-22T09:18:39Z</time>
      </trkpt>
      <trkpt lat="45.85553" lon="4.68607">
        <ele>201</ele>
        <time>2017-08-22T09:18:40Z</time>
      </trkpt>
      <trkpt lat="45.85552" lon="4.68598">
        <ele>201</ele>
        <time>2017-08-22T09:18:41Z</time>
      </trkpt>
      <trkpt lat="45.85551" lon="4.68589">
        <ele>201</ele>
        <time>2017-08-22T09:18:42Z</time>
      </trkpt>
      <trkpt lat="45.8555" lon="4.68581">
        <ele>201</ele>
        <time>2017-08-22T09:18:43Z</time>
      </trkpt>
      <trkpt lat="45.85549" lon="4.68572">
        <ele>201</ele>
        <time>2017-08-22T09:18:44Z</time>
      </trkpt>
      <trkpt lat="45.85548" lon="4.68565">
        <ele>201</ele>
        <time>2017-08-22T09:18:45Z</time>
      </trkpt>
      <trkpt lat="45.85548" lon="4.68557">
        <ele>201</ele>
        <time>2017-08-22T09:18:46Z</time>
      </trkpt>
      <trkpt lat="45.85546" lon="4.68549">
        <ele>201</ele>
        <time>2017-08-22T09:18:47Z</time>
      </trkpt>
      <trkpt lat="45.85545" lon="4.68542">
        <ele>201</ele>
        <time>2017-08-22T09:18:48Z</time>
      </trkpt>
      <trkpt lat="45.85545" lon="4.68534">
        <ele>201</ele>
        <time>2017-08-22T09:18:49Z</time>
      </trkpt>
      <trkpt lat="45.85545" lon="4.68527">
        <ele>201</ele>
        <time>2017-08-22T09:18:50Z</time>
      </trkpt>
      <trkpt lat="45.85545" lon="4.68519">
        <ele>201</ele>
        <time>2017-08-22T09:18:51Z</time>
      </trkpt>
      <trkpt lat="45.85544" lon="4.68511">
        <ele>201</ele>
        <time>2017-08-22T09:18:52Z</time>
      </trkpt>
      <trkpt lat="45.85544" lon="4.68502">
        <ele>201</ele>
        <time>2017-08-22T09:18:53Z</time>
      </trkpt>
      <trkpt lat="45.85543" lon="4.68493">
        <ele>200</ele>
        <time>2017-08-22T09:18:54Z</time>
      </trkpt>
      <trkpt lat="45.85543" lon="4.68484">
        <ele>200</ele>
        <time>2017-08-22T09:18:55Z</time>
      </trkpt>
      <trkpt lat="45.85541" lon="4.68475">
        <ele>200</ele>
        <time>2017-08-22T09:18:56Z</time>
      </trkpt>
      <trkpt lat="45.8554" lon="4.68467">
        <ele>200</ele>
        <time>2017-08-22T09:18:57Z</time>
      </trkpt>
      <trkpt lat="45.85539" lon="4.68458">
        <ele>200</ele>
        <time>2017-08-22T09:18:58Z</time>
      </trkpt>
      <trkpt lat="45.85538" lon="4.6845">
        <ele>200</ele>
        <time>2017-08-22T09:18:59Z</time>
      </trkpt>
      <trkpt lat="45.85538" lon="4.68442">
        <ele>200</ele>
        <time>2017-08-22T09:19:00Z</time>
      </trkpt>
      <trkpt lat="45.85537" lon="4.68434">
        <ele>200</ele>
        <time>2017-08-22T09:19:01Z</time>
      </trkpt>
      <trkpt lat="45.85536" lon="4.68427">
        <ele>200</ele>
        <time>2017-08-22T09:19:02Z</time>
      </trkpt>
      <trkpt lat="45.85535" lon="4.6842">
        <ele>200</ele>
        <time>2017-08-22T09:19:03Z</time>
      </trkpt>
      <trkpt lat="45.85534" lon="4.68412">
        <ele>200</ele>
        <time>2017-08-22T09:19:04Z</time>
      </trkpt>
      <trkpt lat="45.85534" lon="4.68405">
        <ele>200</ele>
        <time>2017-08-22T09:19:05Z</time>
      </trkpt>
      <trkpt lat="45.85531" lon="4.68397">
        <ele>200</ele>
        <time>2017-08-22T09:19:06Z</time>
      </trkpt>
      <trkpt lat="45.85529" lon="4.68388">
        <ele>200</ele>
        <time>2017-08-22T09:19:07Z</time>
      </trkpt>
      <trkpt lat="45.85527" lon="4.68378">
        <ele>201</ele>
        <time>2017-08-22T09:19:08Z</time>
      </trkpt>
      <trkpt lat="45.85526" lon="4.68369">
        <ele>201</ele>
        <time>2017-08-22T09:19:09Z</time>
      </trkpt>
      <trkpt lat="45.85525" lon="4.6836">
        <ele>201</ele>
        <time>2017-08-22T09:19:10Z</time>
      </trkpt>
      <trkpt lat="45.85524" lon="4.6835">
        <ele>201</ele>
        <time>2017-08-22T09:19:11Z</time>
      </trkpt>
      <trkpt lat="45.85523" lon="4.68341">
        <ele>201</ele>
        <time>2017-08-22T09:19:12Z</time>
      </trkpt>
      <trkpt lat="45.85521" lon="4.68332">
        <ele>202</ele>
        <time>2017-08-22T09:19:13Z</time>
      </trkpt>
      <trkpt lat="45.8552" lon="4.68322">
        <ele>202</ele>
        <time>2017-08-22T09:19:14Z</time>
      </trkpt>
      <trkpt lat="45.85519" lon="4.68314">
        <ele>202</ele>
        <time>2017-08-22T09:19:15Z</time>
      </trkpt>
      <trkpt lat="45.85519" lon="4.68305">
        <ele>202</ele>
        <time>2017-08-22T09:19:16Z</time>
      </trkpt>
      <trkpt lat="45.85518" lon="4.68297">
        <ele>202</ele>
        <time>2017-08-22T09:19:17Z</time>
      </trkpt>
      <trkpt lat="45.85516" lon="4.68288">
        <ele>202</ele>
        <time>2017-08-22T09:19:18Z</time>
      </trkpt>
      <trkpt lat="45.85516" lon="4.6828">
        <ele>202</ele>
        <time>2017-08-22T09:19:19Z</time>
      </trkpt>
      <trkpt lat="45.85515" lon="4.68272">
        <ele>202</ele>
        <time>2017-08-22T09:19:20Z</time>
      </trkpt>
      <trkpt lat="45.85515" lon="4.68265">
        <ele>202</ele>
        <time>2017-08-22T09:19:21Z</time>
      </trkpt>
      <trkpt lat="45.85514" lon="4.68258">
        <ele>203</ele>
        <time>2017-08-22T09:19:22Z</time>
      </trkpt>
      <trkpt lat="45.85514" lon="4.68251">
        <ele>203</ele>
        <time>2017-08-22T09:19:23Z</time>
      </trkpt>
      <trkpt lat="45.85514" lon="4.68245">
        <ele>203</ele>
        <time>2017-08-22T09:19:24Z</time>
      </trkpt>
      <trkpt lat="45.85515" lon="4.68232">
        <ele>203</ele>
        <time>2017-08-22T09:19:26Z</time>
      </trkpt>
      <trkpt lat="45.85515" lon="4.68225">
        <ele>203</ele>
        <time>2017-08-22T09:19:27Z</time>
      </trkpt>
      <trkpt lat="45.85514" lon="4.68217">
        <ele>203</ele>
        <time>2017-08-22T09:19:28Z</time>
      </trkpt>
      <trkpt lat="45.85514" lon="4.6821">
        <ele>203</ele>
        <time>2017-08-22T09:19:29Z</time>
      </trkpt>
      <trkpt lat="45.85513" lon="4.68202">
        <ele>203</ele>
        <time>2017-08-22T09:19:30Z</time>
      </trkpt>
      <trkpt lat="45.85512" lon="4.68194">
        <ele>203</ele>
        <time>2017-08-22T09:19:31Z</time>
      </trkpt>
      <trkpt lat="45.85512" lon="4.68187">
        <ele>203</ele>
        <time>2017-08-22T09:19:32Z</time>
      </trkpt>
      <trkpt lat="45.85511" lon="4.68179">
        <ele>204</ele>
        <time>2017-08-22T09:19:33Z</time>
      </trkpt>
      <trkpt lat="45.8551" lon="4.68171">
        <ele>204</ele>
        <time>2017-08-22T09:19:34Z</time>
      </trkpt>
      <trkpt lat="45.8551" lon="4.68164">
        <ele>204</ele>
        <time>2017-08-22T09:19:35Z</time>
      </trkpt>
      <trkpt lat="45.85509" lon="4.68157">
        <ele>203</ele>
        <time>2017-08-22T09:19:36Z</time>
      </trkpt>
      <trkpt lat="45.85507" lon="4.68149">
        <ele>203</ele>
        <time>2017-08-22T09:19:37Z</time>
      </trkpt>
      <trkpt lat="45.85507" lon="4.68143">
        <ele>203</ele>
        <time>2017-08-22T09:19:38Z</time>
      </trkpt>
      <trkpt lat="45.85508" lon="4.68136">
        <ele>203</ele>
        <time>2017-08-22T09:19:39Z</time>
      </trkpt>
      <trkpt lat="45.85507" lon="4.68123">
        <ele>203</ele>
        <time>2017-08-22T09:19:41Z</time>
      </trkpt>
      <trkpt lat="45.85507" lon="4.68116">
        <ele>203</ele>
        <time>2017-08-22T09:19:42Z</time>
      </trkpt>
      <trkpt lat="45.85506" lon="4.6811">
        <ele>203</ele>
        <time>2017-08-22T09:19:43Z</time>
      </trkpt>
      <trkpt lat="45.85505" lon="4.68103">
        <ele>203</ele>
        <time>2017-08-22T09:19:44Z</time>
      </trkpt>
      <trkpt lat="45.85505" lon="4.68096">
        <ele>203</ele>
        <time>2017-08-22T09:19:45Z</time>
      </trkpt>
      <trkpt lat="45.85504" lon="4.68089">
        <ele>204</ele>
        <time>2017-08-22T09:19:46Z</time>
      </trkpt>
      <trkpt lat="45.85503" lon="4.68082">
        <ele>204</ele>
        <time>2017-08-22T09:19:47Z</time>
      </trkpt>
      <trkpt lat="45.85504" lon="4.68075">
        <ele>204</ele>
        <time>2017-08-22T09:19:48Z</time>
      </trkpt>
      <trkpt lat="45.85504" lon="4.68068">
        <ele>203</ele>
        <time>2017-08-22T09:19:49Z</time>
      </trkpt>
      <trkpt lat="45.85504" lon="4.68061">
        <ele>203</ele>
        <time>2017-08-22T09:19:50Z</time>
      </trkpt>
      <trkpt lat="45.85504" lon="4.68054">
        <ele>203</ele>
        <time>2017-08-22T09:19:51Z</time>
      </trkpt>
      <trkpt lat="45.85504" lon="4.68048">
        <ele>203</ele>
        <time>2017-08-22T09:19:52Z</time>
      </trkpt>
      <trkpt lat="45.85502" lon="4.68036">
        <ele>204</ele>
        <time>2017-08-22T09:19:54Z</time>
      </trkpt>
      <trkpt lat="45.85502" lon="4.68029">
        <ele>204</ele>
        <time>2017-08-22T09:19:55Z</time>
      </trkpt>
      <trkpt lat="45.85502" lon="4.68017">
        <ele>204</ele>
        <time>2017-08-22T09:19:57Z</time>
      </trkpt>
      <trkpt lat="45.85505" lon="4.6801">
        <ele>205</ele>
        <time>2017-08-22T09:19:58Z</time>
      </trkpt>
      <trkpt lat="45.8551" lon="4.68001">
        <ele>205</ele>
        <time>2017-08-22T09:20:00Z</time>
      </trkpt>
      <trkpt lat="45.85512" lon="4.67997">
        <ele>206</ele>
        <time>2017-08-22T09:20:01Z</time>
      </trkpt>
      <trkpt lat="45.85515" lon="4.67992">
        <ele>206</ele>
        <time>2017-08-22T09:20:02Z</time>
      </trkpt>
      <trkpt lat="45.85518" lon="4.67988">
        <ele>206</ele>
        <time>2017-08-22T09:20:03Z</time>
      </trkpt>
      <trkpt lat="45.85522" lon="4.67983">
        <ele>205</ele>
        <time>2017-08-22T09:20:04Z</time>
      </trkpt>
      <trkpt lat="45.85526" lon="4.67978">
        <ele>205</ele>
        <time>2017-08-22T09:20:05Z</time>
      </trkpt>
      <trkpt lat="45.8553" lon="4.67974">
        <ele>205</ele>
        <time>2017-08-22T09:20:06Z</time>
      </trkpt>
      <trkpt lat="45.85533" lon="4.6797">
        <ele>205</ele>
        <time>2017-08-22T09:20:07Z</time>
      </trkpt>
      <trkpt lat="45.85535" lon="4.67963">
        <ele>205</ele>
        <time>2017-08-22T09:20:08Z</time>
      </trkpt>
      <trkpt lat="45.85539" lon="4.6796">
        <ele>205</ele>
        <time>2017-08-22T09:20:09Z</time>
      </trkpt>
      <trkpt lat="45.85543" lon="4.67956">
        <ele>205</ele>
        <time>2017-08-22T09:20:10Z</time>
      </trkpt>
      <trkpt lat="45.85547" lon="4.67952">
        <ele>205</ele>
        <time>2017-08-22T09:20:11Z</time>
      </trkpt>
      <trkpt lat="45.85553" lon="4.67946">
        <ele>205</ele>
        <time>2017-08-22T09:20:13Z</time>
      </trkpt>
      <trkpt lat="45.85557" lon="4.67942">
        <ele>205</ele>
        <time>2017-08-22T09:20:14Z</time>
      </trkpt>
      <trkpt lat="45.85564" lon="4.67935">
        <ele>205</ele>
        <time>2017-08-22T09:20:16Z</time>
      </trkpt>
      <trkpt lat="45.85568" lon="4.67935">
        <ele>205</ele>
        <time>2017-08-22T09:20:17Z</time>
      </trkpt>
      <trkpt lat="45.85575" lon="4.67941">
        <ele>205</ele>
        <time>2017-08-22T09:20:19Z</time>
      </trkpt>
      <trkpt lat="45.85579" lon="4.67947">
        <ele>204</ele>
        <time>2017-08-22T09:20:20Z</time>
      </trkpt>
      <trkpt lat="45.85582" lon="4.67953">
        <ele>204</ele>
        <time>2017-08-22T09:20:21Z</time>
      </trkpt>
      <trkpt lat="45.85585" lon="4.6796">
        <ele>203</ele>
        <time>2017-08-22T09:20:22Z</time>
      </trkpt>
      <trkpt lat="45.85588" lon="4.67967">
        <ele>203</ele>
        <time>2017-08-22T09:20:23Z</time>
      </trkpt>
      <trkpt lat="45.85591" lon="4.67974">
        <ele>203</ele>
        <time>2017-08-22T09:20:24Z</time>
      </trkpt>
      <trkpt lat="45.85594" lon="4.67981">
        <ele>203</ele>
        <time>2017-08-22T09:20:25Z</time>
      </trkpt>
      <trkpt lat="45.85597" lon="4.67988">
        <ele>202</ele>
        <time>2017-08-22T09:20:26Z</time>
      </trkpt>
      <trkpt lat="45.856" lon="4.67995">
        <ele>202</ele>
        <time>2017-08-22T09:20:27Z</time>
      </trkpt>
      <trkpt lat="45.85603" lon="4.68003">
        <ele>201</ele>
        <time>2017-08-22T09:20:28Z</time>
      </trkpt>
      <trkpt lat="45.85607" lon="4.6801">
        <ele>201</ele>
        <time>2017-08-22T09:20:29Z</time>
      </trkpt>
      <trkpt lat="45.85609" lon="4.68016">
        <ele>201</ele>
        <time>2017-08-22T09:20:30Z</time>
      </trkpt>
      <trkpt lat="45.85612" lon="4.68022">
        <ele>201</ele>
        <time>2017-08-22T09:20:31Z</time>
      </trkpt>
      <trkpt lat="45.85615" lon="4.68028">
        <ele>201</ele>
        <time>2017-08-22T09:20:32Z</time>
      </trkpt>
      <trkpt lat="45.85619" lon="4.68036">
        <ele>201</ele>
        <time>2017-08-22T09:20:34Z</time>
      </trkpt>
      <trkpt lat="45.85621" lon="4.68041">
        <ele>200</ele>
        <time>2017-08-22T09:20:35Z</time>
      </trkpt>
      <trkpt lat="45.85625" lon="4.68052">
        <ele>200</ele>
        <time>2017-08-22T09:20:39Z</time>
      </trkpt>
      <trkpt lat="45.85624" lon="4.68053">
        <ele>200</ele>
        <time>2017-08-22T09:20:40Z</time>
      </trkpt>
      <trkpt lat="45.85632" lon="4.68058">
        <ele>200</ele>
        <time>2017-08-22T09:26:33Z</time>
      </trkpt>
      <trkpt lat="45.85634" lon="4.68061">
        <ele>200</ele>
        <time>2017-08-22T09:26:34Z</time>
      </trkpt>
      <trkpt lat="45.85639" lon="4.68069">
        <ele>200</ele>
        <time>2017-08-22T09:26:36Z</time>
      </trkpt>
      <trkpt lat="45.85642" lon="4.68074">
        <ele>200</ele>
        <time>2017-08-22T09:26:37Z</time>
      </trkpt>
      <trkpt lat="45.85645" lon="4.68079">
        <ele>200</ele>
        <time>2017-08-22T09:26:38Z</time>
      </trkpt>
      <trkpt lat="45.85648" lon="4.68084">
        <ele>200</ele>
        <time>2017-08-22T09:26:39Z</time>
      </trkpt>
      <trkpt lat="45.85652" lon="4.68089">
        <ele>200</ele>
        <time>2017-08-22T09:26:40Z</time>
      </trkpt>
      <trkpt lat="45.85656" lon="4.68094">
        <ele>200</ele>
        <time>2017-08-22T09:26:41Z</time>
      </trkpt>
      <trkpt lat="45.85659" lon="4.68098">
        <ele>200</ele>
        <time>2017-08-22T09:26:42Z</time>
      </trkpt>
      <trkpt lat="45.85663" lon="4.68103">
        <ele>200</ele>
        <time>2017-08-22T09:26:43Z</time>
      </trkpt>
      <trkpt lat="45.85667" lon="4.68107">
        <ele>200</ele>
        <time>2017-08-22T09:26:44Z</time>
      </trkpt>
      <trkpt lat="45.8567" lon="4.68111">
        <ele>200</ele>
        <time>2017-08-22T09:26:45Z</time>
      </trkpt>
      <trkpt lat="45.85674" lon="4.68115">
        <ele>200</ele>
        <time>2017-08-22T09:26:46Z</time>
      </trkpt>
      <trkpt lat="45.85677" lon="4.68119">
        <ele>200</ele>
        <time>2017-08-22T09:26:47Z</time>
      </trkpt>
      <trkpt lat="45.85681" lon="4.68123">
        <ele>200</ele>
        <time>2017-08-22T09:26:48Z</time>
      </trkpt>
      <trkpt lat="45.85685" lon="4.68127">
        <ele>200</ele>
        <time>2017-08-22T09:26:49Z</time>
      </trkpt>
      <trkpt lat="45.85688" lon="4.68132">
        <ele>200</ele>
        <time>2017-08-22T09:26:50Z</time>
      </trkpt>
      <trkpt lat="45.85691" lon="4.68136">
        <ele>200</ele>
        <time>2017-08-22T09:26:51Z</time>
      </trkpt>
      <trkpt lat="45.85695" lon="4.68141">
        <ele>200</ele>
        <time>2017-08-22T09:26:52Z</time>
      </trkpt>
      <trkpt lat="45.85698" lon="4.68146">
        <ele>200</ele>
        <time>2017-08-22T09:26:53Z</time>
      </trkpt>
      <trkpt lat="45.85702" lon="4.68151">
        <ele>200</ele>
        <time>2017-08-22T09:26:54Z</time>
      </trkpt>
      <trkpt lat="45.85706" lon="4.68156">
        <ele>200</ele>
        <time>2017-08-22T09:26:55Z</time>
      </trkpt>
      <trkpt lat="45.85711" lon="4.68162">
        <ele>200</ele>
        <time>2017-08-22T09:26:56Z</time>
      </trkpt>
      <trkpt lat="45.85715" lon="4.68167">
        <ele>199</ele>
        <time>2017-08-22T09:26:57Z</time>
      </trkpt>
      <trkpt lat="45.8572" lon="4.68172">
        <ele>199</ele>
        <time>2017-08-22T09:26:58Z</time>
      </trkpt>
      <trkpt lat="45.85725" lon="4.68178">
        <ele>199</ele>
        <time>2017-08-22T09:26:59Z</time>
      </trkpt>
      <trkpt lat="45.8573" lon="4.68184">
        <ele>199</ele>
        <time>2017-08-22T09:27:00Z</time>
      </trkpt>
      <trkpt lat="45.85735" lon="4.68189">
        <ele>199</ele>
        <time>2017-08-22T09:27:01Z</time>
      </trkpt>
      <trkpt lat="45.85742" lon="4.68195">
        <ele>199</ele>
        <time>2017-08-22T09:27:02Z</time>
      </trkpt>
      <trkpt lat="45.85746" lon="4.68201">
        <ele>199</ele>
        <time>2017-08-22T09:27:03Z</time>
      </trkpt>
      <trkpt lat="45.85751" lon="4.68207">
        <ele>202</ele>
        <time>2017-08-22T09:27:04Z</time>
      </trkpt>
      <trkpt lat="45.85755" lon="4.68213">
        <ele>202</ele>
        <time>2017-08-22T09:27:05Z</time>
      </trkpt>
      <trkpt lat="45.85759" lon="4.68218">
        <ele>201</ele>
        <time>2017-08-22T09:27:06Z</time>
      </trkpt>
      <trkpt lat="45.85763" lon="4.68224">
        <ele>201</ele>
        <time>2017-08-22T09:27:07Z</time>
      </trkpt>
      <trkpt lat="45.85768" lon="4.68228">
        <ele>201</ele>
        <time>2017-08-22T09:27:08Z</time>
      </trkpt>
      <trkpt lat="45.85772" lon="4.68233">
        <ele>201</ele>
        <time>2017-08-22T09:27:09Z</time>
      </trkpt>
      <trkpt lat="45.85776" lon="4.68238">
        <ele>201</ele>
        <time>2017-08-22T09:27:10Z</time>
      </trkpt>
      <trkpt lat="45.8578" lon="4.68243">
        <ele>201</ele>
        <time>2017-08-22T09:27:11Z</time>
      </trkpt>
      <trkpt lat="45.85783" lon="4.68248">
        <ele>202</ele>
        <time>2017-08-22T09:27:12Z</time>
      </trkpt>
      <trkpt lat="45.85787" lon="4.68253">
        <ele>200</ele>
        <time>2017-08-22T09:27:13Z</time>
      </trkpt>
      <trkpt lat="45.8579" lon="4.68258">
        <ele>200</ele>
        <time>2017-08-22T09:27:14Z</time>
      </trkpt>
      <trkpt lat="45.85794" lon="4.68264">
        <ele>201</ele>
        <time>2017-08-22T09:27:15Z</time>
      </trkpt>
      <trkpt lat="45.85797" lon="4.68269">
        <ele>201</ele>
        <time>2017-08-22T09:27:16Z</time>
      </trkpt>
      <trkpt lat="45.85801" lon="4.68274">
        <ele>201</ele>
        <time>2017-08-22T09:27:17Z</time>
      </trkpt>
      <trkpt lat="45.85805" lon="4.6828">
        <ele>201</ele>
        <time>2017-08-22T09:27:18Z</time>
      </trkpt>
      <trkpt lat="45.85809" lon="4.68286">
        <ele>201</ele>
        <time>2017-08-22T09:27:19Z</time>
      </trkpt>
      <trkpt lat="45.85812" lon="4.68293">
        <ele>201</ele>
        <time>2017-08-22T09:27:20Z</time>
      </trkpt>
      <trkpt lat="45.85816" lon="4.68299">
        <ele>201</ele>
        <time>2017-08-22T09:27:21Z</time>
      </trkpt>
      <trkpt lat="45.85819" lon="4.68305">
        <ele>201</ele>
        <time>2017-08-22T09:27:22Z</time>
      </trkpt>
      <trkpt lat="45.85823" lon="4.68312">
        <ele>200</ele>
        <time>2017-08-22T09:27:23Z</time>
      </trkpt>
      <trkpt lat="45.85827" lon="4.68318">
        <ele>200</ele>
        <time>2017-08-22T09:27:24Z</time>
      </trkpt>
      <trkpt lat="45.8583" lon="4.68325">
        <ele>200</ele>
        <time>2017-08-22T09:27:25Z</time>
      </trkpt>
      <trkpt lat="45.85833" lon="4.68331">
        <ele>200</ele>
        <time>2017-08-22T09:27:26Z</time>
      </trkpt>
      <trkpt lat="45.85836" lon="4.68338">
        <ele>200</ele>
        <time>2017-08-22T09:27:27Z</time>
      </trkpt>
      <trkpt lat="45.85839" lon="4.68344">
        <ele>200</ele>
        <time>2017-08-22T09:27:28Z</time>
      </trkpt>
      <trkpt lat="45.85841" lon="4.68349">
        <ele>201</ele>
        <time>2017-08-22T09:27:29Z</time>
      </trkpt>
      <trkpt lat="45.85844" lon="4.68355">
        <ele>201</ele>
        <time>2017-08-22T09:27:30Z</time>
      </trkpt>
      <trkpt lat="45.85846" lon="4.68361">
        <ele>201</ele>
        <time>2017-08-22T09:27:31Z</time>
      </trkpt>
      <trkpt lat="45.85848" lon="4.68369">
        <ele>201</ele>
        <time>2017-08-22T09:27:32Z</time>
      </trkpt>
      <trkpt lat="45.85851" lon="4.68376">
        <ele>201</ele>
        <time>2017-08-22T09:27:33Z</time>
      </trkpt>
      <trkpt lat="45.85853" lon="4.68384">
        <ele>201</ele>
        <time>2017-08-22T09:27:34Z</time>
      </trkpt>
      <trkpt lat="45.85855" lon="4.68391">
        <ele>201</ele>
        <time>2017-08-22T09:27:35Z</time>
      </trkpt>
      <trkpt lat="45.85857" lon="4.68399">
        <ele>201</ele>
        <time>2017-08-22T09:27:36Z</time>
      </trkpt>
      <trkpt lat="45.85858" lon="4.68408">
        <ele>200</ele>
        <time>2017-08-22T09:27:37Z</time>
      </trkpt>
      <trkpt lat="45.8586" lon="4.68416">
        <ele>200</ele>
        <time>2017-08-22T09:27:38Z</time>
      </trkpt>
      <trkpt lat="45.85862" lon="4.68424">
        <ele>200</ele>
        <time>2017-08-22T09:27:39Z</time>
      </trkpt>
      <trkpt lat="45.85864" lon="4.68431">
        <ele>200</ele>
        <time>2017-08-22T09:27:40Z</time>
      </trkpt>
      <trkpt lat="45.85865" lon="4.68438">
        <ele>200</ele>
        <time>2017-08-22T09:27:41Z</time>
      </trkpt>
      <trkpt lat="45.85866" lon="4.68445">
        <ele>200</ele>
        <time>2017-08-22T09:27:42Z</time>
      </trkpt>
      <trkpt lat="45.85868" lon="4.68453">
        <ele>200</ele>
        <time>2017-08-22T09:27:43Z</time>
      </trkpt>
      <trkpt lat="45.85869" lon="4.6846">
        <ele>200</ele>
        <time>2017-08-22T09:27:44Z</time>
      </trkpt>
      <trkpt lat="45.8587" lon="4.68467">
        <ele>200</ele>
        <time>2017-08-22T09:27:45Z</time>
      </trkpt>
      <trkpt lat="45.85871" lon="4.68475">
        <ele>200</ele>
        <time>2017-08-22T09:27:46Z</time>
      </trkpt>
      <trkpt lat="45.85872" lon="4.68483">
        <ele>200</ele>
        <time>2017-08-22T09:27:47Z</time>
      </trkpt>
      <trkpt lat="45.85873" lon="4.68491">
        <ele>200</ele>
        <time>2017-08-22T09:27:48Z</time>
      </trkpt>
      <trkpt lat="45.85874" lon="4.68499">
        <ele>200</ele>
        <time>2017-08-22T09:27:49Z</time>
      </trkpt>
      <trkpt lat="45.85876" lon="4.68507">
        <ele>200</ele>
        <time>2017-08-22T09:27:50Z</time>
      </trkpt>
      <trkpt lat="45.85877" lon="4.68515">
        <ele>200</ele>
        <time>2017-08-22T09:27:51Z</time>
      </trkpt>
      <trkpt lat="45.85878" lon="4.68524">
        <ele>200</ele>
        <time>2017-08-22T09:27:52Z</time>
      </trkpt>
      <trkpt lat="45.85879" lon="4.68532">
        <ele>200</ele>
        <time>2017-08-22T09:27:53Z</time>
      </trkpt>
      <trkpt lat="45.8588" lon="4.68541">
        <ele>200</ele>
        <time>2017-08-22T09:27:54Z</time>
      </trkpt>
      <trkpt lat="45.85881" lon="4.68549">
        <ele>200</ele>
        <time>2017-08-22T09:27:55Z</time>
      </trkpt>
      <trkpt lat="45.85882" lon="4.68557">
        <ele>200</ele>
        <time>2017-08-22T09:27:56Z</time>
      </trkpt>
      <trkpt lat="45.85883" lon="4.68566">
        <ele>200</ele>
        <time>2017-08-22T09:27:57Z</time>
      </trkpt>
      <trkpt lat="45.85883" lon="4.68575">
        <ele>199</ele>
        <time>2017-08-22T09:27:58Z</time>
      </trkpt>
      <trkpt lat="45.85885" lon="4.68584">
        <ele>199</ele>
        <time>2017-08-22T09:27:59Z</time>
      </trkpt>
      <trkpt lat="45.85886" lon="4.68592">
        <ele>199</ele>
        <time>2017-08-22T09:28:00Z</time>
      </trkpt>
      <trkpt lat="45.85887" lon="4.68601">
        <ele>199</ele>
        <time>2017-08-22T09:28:01Z</time>
      </trkpt>
      <trkpt lat="45.85888" lon="4.68608">
        <ele>199</ele>
        <time>2017-08-22T09:28:02Z</time>
      </trkpt>
      <trkpt lat="45.85888" lon="4.68616">
        <ele>199</ele>
        <time>2017-08-22T09:28:03Z</time>
      </trkpt>
      <trkpt lat="45.8589" lon="4.68626">
        <ele>198</ele>
        <time>2017-08-22T09:28:04Z</time>
      </trkpt>
      <trkpt lat="45.85891" lon="4.68634">
        <ele>198</ele>
        <time>2017-08-22T09:28:05Z</time>
      </trkpt>
      <trkpt lat="45.85891" lon="4.68643">
        <ele>198</ele>
        <time>2017-08-22T09:28:06Z</time>
      </trkpt>
      <trkpt lat="45.85891" lon="4.68651">
        <ele>198</ele>
        <time>2017-08-22T09:28:07Z</time>
      </trkpt>
      <trkpt lat="45.8589" lon="4.68659">
        <ele>198</ele>
        <time>2017-08-22T09:28:08Z</time>
      </trkpt>
      <trkpt lat="45.8589" lon="4.68666">
        <ele>198</ele>
        <time>2017-08-22T09:28:09Z</time>
      </trkpt>
      <trkpt lat="45.8589" lon="4.68674">
        <ele>198</ele>
        <time>2017-08-22T09:28:10Z</time>
      </trkpt>
      <trkpt lat="45.85889" lon="4.68683">
        <ele>198</ele>
        <time>2017-08-22T09:28:11Z</time>
      </trkpt>
      <trkpt lat="45.85888" lon="4.68691">
        <ele>198</ele>
        <time>2017-08-22T09:28:12Z</time>
      </trkpt>
      <trkpt lat="45.85887" lon="4.687">
        <ele>198</ele>
        <time>2017-08-22T09:28:13Z</time>
      </trkpt>
      <trkpt lat="45.85886" lon="4.68708">
        <ele>198</ele>
        <time>2017-08-22T09:28:14Z</time>
      </trkpt>
      <trkpt lat="45.85885" lon="4.68717">
        <ele>198</ele>
        <time>2017-08-22T09:28:15Z</time>
      </trkpt>
      <trkpt lat="45.85883" lon="4.68726">
        <ele>198</ele>
        <time>2017-08-22T09:28:16Z</time>
      </trkpt>
      <trkpt lat="45.85882" lon="4.68733">
        <ele>198</ele>
        <time>2017-08-22T09:28:17Z</time>
      </trkpt>
      <trkpt lat="45.8588" lon="4.68742">
        <ele>198</ele>
        <time>2017-08-22T09:28:18Z</time>
      </trkpt>
      <trkpt lat="45.85879" lon="4.68751">
        <ele>198</ele>
        <time>2017-08-22T09:28:19Z</time>
      </trkpt>
      <trkpt lat="45.85877" lon="4.6876">
        <ele>198</ele>
        <time>2017-08-22T09:28:20Z</time>
      </trkpt>
      <trkpt lat="45.85876" lon="4.68769">
        <ele>198</ele>
        <time>2017-08-22T09:28:21Z</time>
      </trkpt>
      <trkpt lat="45.85875" lon="4.68777">
        <ele>198</ele>
        <time>2017-08-22T09:28:22Z</time>
      </trkpt>
      <trkpt lat="45.85874" lon="4.68784">
        <ele>198</ele>
        <time>2017-08-22T09:28:23Z</time>
      </trkpt>
      <trkpt lat="45.85873" lon="4.68791">
        <ele>198</ele>
        <time>2017-08-22T09:28:24Z</time>
      </trkpt>
      <trkpt lat="45.85871" lon="4.68799">
        <ele>198</ele>
        <time>2017-08-22T09:28:25Z</time>
      </trkpt>
      <trkpt lat="45.8587" lon="4.68806">
        <ele>198</ele>
        <time>2017-08-22T09:28:26Z</time>
      </trkpt>
      <trkpt lat="45.85869" lon="4.68814">
        <ele>198</ele>
        <time>2017-08-22T09:28:27Z</time>
      </trkpt>
      <trkpt lat="45.85869" lon="4.68822">
        <ele>198</ele>
        <time>2017-08-22T09:28:28Z</time>
      </trkpt>
      <trkpt lat="45.85868" lon="4.68829">
        <ele>198</ele>
        <time>2017-08-22T09:28:29Z</time>
      </trkpt>
      <trkpt lat="45.85867" lon="4.68837">
        <ele>198</ele>
        <time>2017-08-22T09:28:30Z</time>
      </trkpt>
      <trkpt lat="45.85866" lon="4.68845">
        <ele>198</ele>
        <time>2017-08-22T09:28:31Z</time>
      </trkpt>
      <trkpt lat="45.85865" lon="4.68854">
        <ele>198</ele>
        <time>2017-08-22T09:28:32Z</time>
      </trkpt>
      <trkpt lat="45.85864" lon="4.68862">
        <ele>198</ele>
        <time>2017-08-22T09:28:33Z</time>
      </trkpt>
      <trkpt lat="45.85863" lon="4.68871">
        <ele>198</ele>
        <time>2017-08-22T09:28:34Z</time>
      </trkpt>
      <trkpt lat="45.85862" lon="4.6888">
        <ele>197</ele>
        <time>2017-08-22T09:28:35Z</time>
      </trkpt>
      <trkpt lat="45.85862" lon="4.68889">
        <ele>197</ele>
        <time>2017-08-22T09:28:36Z</time>
      </trkpt>
      <trkpt lat="45.85861" lon="4.68899">
        <ele>197</ele>
        <time>2017-08-22T09:28:37Z</time>
      </trkpt>
      <trkpt lat="45.8586" lon="4.68908">
        <ele>197</ele>
        <time>2017-08-22T09:28:38Z</time>
      </trkpt>
      <trkpt lat="45.8586" lon="4.68916">
        <ele>197</ele>
        <time>2017-08-22T09:28:39Z</time>
      </trkpt>
      <trkpt lat="45.8586" lon="4.68924">
        <ele>197</ele>
        <time>2017-08-22T09:28:40Z</time>
      </trkpt>
      <trkpt lat="45.85859" lon="4.68933">
        <ele>197</ele>
        <time>2017-08-22T09:28:41Z</time>
      </trkpt>
      <trkpt lat="45.85859" lon="4.68942">
        <ele>197</ele>
        <time>2017-08-22T09:28:42Z</time>
      </trkpt>
      <trkpt lat="45.8586" lon="4.68951">
        <ele>197</ele>
        <time>2017-08-22T09:28:43Z</time>
      </trkpt>
      <trkpt lat="45.8586" lon="4.68959">
        <ele>197</ele>
        <time>2017-08-22T09:28:44Z</time>
      </trkpt>
      <trkpt lat="45.8586" lon="4.68967">
        <ele>197</ele>
        <time>2017-08-22T09:28:45Z</time>
      </trkpt>
      <trkpt lat="45.85861" lon="4.68974">
        <ele>197</ele>
        <time>2017-08-22T09:28:46Z</time>
      </trkpt>
      <trkpt lat="45.85862" lon="4.68982">
        <ele>197</ele>
        <time>2017-08-22T09:28:47Z</time>
      </trkpt>
      <trkpt lat="45.85863" lon="4.6899">
        <ele>197</ele>
        <time>2017-08-22T09:28:48Z</time>
      </trkpt>
      <trkpt lat="45.85864" lon="4.68997">
        <ele>197</ele>
        <time>2017-08-22T09:28:49Z</time>
      </trkpt>
      <trkpt lat="45.85866" lon="4.69005">
        <ele>197</ele>
        <time>2017-08-22T09:28:50Z</time>
      </trkpt>
      <trkpt lat="45.85868" lon="4.69013">
        <ele>197</ele>
        <time>2017-08-22T09:28:51Z</time>
      </trkpt>
      <trkpt lat="45.8587" lon="4.69022">
        <ele>197</ele>
        <time>2017-08-22T09:28:52Z</time>
      </trkpt>
      <trkpt lat="45.85873" lon="4.69029">
        <ele>197</ele>
        <time>2017-08-22T09:28:53Z</time>
      </trkpt>
      <trkpt lat="45.85877" lon="4.69036">
        <ele>198</ele>
        <time>2017-08-22T09:28:54Z</time>
      </trkpt>
      <trkpt lat="45.8588" lon="4.69043">
        <ele>198</ele>
        <time>2017-08-22T09:28:55Z</time>
      </trkpt>
      <trkpt lat="45.85885" lon="4.6905">
        <ele>198</ele>
        <time>2017-08-22T09:28:56Z</time>
      </trkpt>
      <trkpt lat="45.85889" lon="4.69057">
        <ele>198</ele>
        <time>2017-08-22T09:28:57Z</time>
      </trkpt>
      <trkpt lat="45.85893" lon="4.69063">
        <ele>198</ele>
        <time>2017-08-22T09:28:58Z</time>
      </trkpt>
      <trkpt lat="45.85898" lon="4.69068">
        <ele>198</ele>
        <time>2017-08-22T09:28:59Z</time>
      </trkpt>
      <trkpt lat="45.85903" lon="4.69073">
        <ele>198</ele>
        <time>2017-08-22T09:29:00Z</time>
      </trkpt>
      <trkpt lat="45.85909" lon="4.69078">
        <ele>198</ele>
        <time>2017-08-22T09:29:01Z</time>
      </trkpt>
      <trkpt lat="45.85915" lon="4.69081">
        <ele>198</ele>
        <time>2017-08-22T09:29:02Z</time>
      </trkpt>
      <trkpt lat="45.85921" lon="4.69085">
        <ele>198</ele>
        <time>2017-08-22T09:29:03Z</time>
      </trkpt>
      <trkpt lat="45.85927" lon="4.69089">
        <ele>198</ele>
        <time>2017-08-22T09:29:04Z</time>
      </trkpt>
      <trkpt lat="45.85933" lon="4.69091">
        <ele>197</ele>
        <time>2017-08-22T09:29:05Z</time>
      </trkpt>
      <trkpt lat="45.8594" lon="4.69093">
        <ele>197</ele>
        <time>2017-08-22T09:29:06Z</time>
      </trkpt>
      <trkpt lat="45.85946" lon="4.69095">
        <ele>197</ele>
        <time>2017-08-22T09:29:07Z</time>
      </trkpt>
      <trkpt lat="45.85952" lon="4.69097">
        <ele>197</ele>
        <time>2017-08-22T09:29:08Z</time>
      </trkpt>
      <trkpt lat="45.85959" lon="4.69097">
        <ele>197</ele>
        <time>2017-08-22T09:29:09Z</time>
      </trkpt>
      <trkpt lat="45.85966" lon="4.69097">
        <ele>197</ele>
        <time>2017-08-22T09:29:10Z</time>
      </trkpt>
      <trkpt lat="45.85973" lon="4.69097">
        <ele>197</ele>
        <time>2017-08-22T09:29:11Z</time>
      </trkpt>
      <trkpt lat="45.8598" lon="4.69097">
        <ele>197</ele>
        <time>2017-08-22T09:29:12Z</time>
      </trkpt>
      <trkpt lat="45.85987" lon="4.69096">
        <ele>197</ele>
        <time>2017-08-22T09:29:13Z</time>
      </trkpt>
      <trkpt lat="45.85993" lon="4.69096">
        <ele>196</ele>
        <time>2017-08-22T09:29:14Z</time>
      </trkpt>
      <trkpt lat="45.86" lon="4.69096">
        <ele>196</ele>
        <time>2017-08-22T09:29:15Z</time>
      </trkpt>
      <trkpt lat="45.86007" lon="4.69095">
        <ele>196</ele>
        <time>2017-08-22T09:29:16Z</time>
      </trkpt>
      <trkpt lat="45.86014" lon="4.69095">
        <ele>197</ele>
        <time>2017-08-22T09:29:17Z</time>
      </trkpt>
      <trkpt lat="45.8602" lon="4.69094">
        <ele>197</ele>
        <time>2017-08-22T09:29:18Z</time>
      </trkpt>
      <trkpt lat="45.86026" lon="4.69093">
        <ele>197</ele>
        <time>2017-08-22T09:29:19Z</time>
      </trkpt>
      <trkpt lat="45.86033" lon="4.69092">
        <ele>197</ele>
        <time>2017-08-22T09:29:20Z</time>
      </trkpt>
      <trkpt lat="45.86039" lon="4.69092">
        <ele>197</ele>
        <time>2017-08-22T09:29:21Z</time>
      </trkpt>
      <trkpt lat="45.86046" lon="4.69091">
        <ele>197</ele>
        <time>2017-08-22T09:29:22Z</time>
      </trkpt>
      <trkpt lat="45.86052" lon="4.6909">
        <ele>197</ele>
        <time>2017-08-22T09:29:23Z</time>
      </trkpt>
      <trkpt lat="45.86059" lon="4.6909">
        <ele>197</ele>
        <time>2017-08-22T09:29:24Z</time>
      </trkpt>
      <trkpt lat="45.86066" lon="4.69089">
        <ele>198</ele>
        <time>2017-08-22T09:29:25Z</time>
      </trkpt>
      <trkpt lat="45.86072" lon="4.69088">
        <ele>198</ele>
        <time>2017-08-22T09:29:26Z</time>
      </trkpt>
      <trkpt lat="45.86079" lon="4.69088">
        <ele>198</ele>
        <time>2017-08-22T09:29:27Z</time>
      </trkpt>
      <trkpt lat="45.86085" lon="4.69087">
        <ele>198</ele>
        <time>2017-08-22T09:29:28Z</time>
      </trkpt>
      <trkpt lat="45.86091" lon="4.69086">
        <ele>199</ele>
        <time>2017-08-22T09:29:29Z</time>
      </trkpt>
      <trkpt lat="45.86097" lon="4.69086">
        <ele>199</ele>
        <time>2017-08-22T09:29:30Z</time>
      </trkpt>
      <trkpt lat="45.86103" lon="4.69085">
        <ele>200</ele>
        <time>2017-08-22T09:29:31Z</time>
      </trkpt>
      <trkpt lat="45.86109" lon="4.69084">
        <ele>200</ele>
        <time>2017-08-22T09:29:32Z</time>
      </trkpt>
      <trkpt lat="45.86114" lon="4.69084">
        <ele>201</ele>
        <time>2017-08-22T09:29:33Z</time>
      </trkpt>
      <trkpt lat="45.86119" lon="4.69083">
        <ele>202</ele>
        <time>2017-08-22T09:29:34Z</time>
      </trkpt>
      <trkpt lat="45.86124" lon="4.69083">
        <ele>203</ele>
        <time>2017-08-22T09:29:35Z</time>
      </trkpt>
      <trkpt lat="45.86129" lon="4.69082">
        <ele>203</ele>
        <time>2017-08-22T09:29:36Z</time>
      </trkpt>
      <trkpt lat="45.86134" lon="4.69082">
        <ele>203</ele>
        <time>2017-08-22T09:29:37Z</time>
      </trkpt>
      <trkpt lat="45.86138" lon="4.69082">
        <ele>203</ele>
        <time>2017-08-22T09:29:38Z</time>
      </trkpt>
      <trkpt lat="45.86143" lon="4.69081">
        <ele>204</ele>
        <time>2017-08-22T09:29:39Z</time>
      </trkpt>
      <trkpt lat="45.86151" lon="4.69079">
        <ele>204</ele>
        <time>2017-08-22T09:29:41Z</time>
      </trkpt>
      <trkpt lat="45.86155" lon="4.69079">
        <ele>204</ele>
        <time>2017-08-22T09:29:42Z</time>
      </trkpt>
      <trkpt lat="45.86163" lon="4.69079">
        <ele>205</ele>
        <time>2017-08-22T09:29:44Z</time>
      </trkpt>
      <trkpt lat="45.86167" lon="4.6908">
        <ele>205</ele>
        <time>2017-08-22T09:29:45Z</time>
      </trkpt>
      <trkpt lat="45.86174" lon="4.6908">
        <ele>207</ele>
        <time>2017-08-22T09:29:47Z</time>
      </trkpt>
      <trkpt lat="45.86178" lon="4.6908">
        <ele>207</ele>
        <time>2017-08-22T09:29:48Z</time>
      </trkpt>
      <trkpt lat="45.86186" lon="4.6908">
        <ele>208</ele>
        <time>2017-08-22T09:29:50Z</time>
      </trkpt>
      <trkpt lat="45.8619" lon="4.6908">
        <ele>208</ele>
        <time>2017-08-22T09:29:51Z</time>
      </trkpt>
      <trkpt lat="45.86198" lon="4.6908">
        <ele>209</ele>
        <time>2017-08-22T09:29:53Z</time>
      </trkpt>
      <trkpt lat="45.86202" lon="4.69079">
        <ele>209</ele>
        <time>2017-08-22T09:29:54Z</time>
      </trkpt>
      <trkpt lat="45.86211" lon="4.6908">
        <ele>210</ele>
        <time>2017-08-22T09:29:56Z</time>
      </trkpt>
      <trkpt lat="45.86215" lon="4.6908">
        <ele>210</ele>
        <time>2017-08-22T09:29:57Z</time>
      </trkpt>
      <trkpt lat="45.86223" lon="4.6908">
        <ele>210</ele>
        <time>2017-08-22T09:29:59Z</time>
      </trkpt>
      <trkpt lat="45.86227" lon="4.6908">
        <ele>210</ele>
        <time>2017-08-22T09:30:00Z</time>
      </trkpt>
      <trkpt lat="45.86235" lon="4.69082">
        <ele>211</ele>
        <time>2017-08-22T09:30:02Z</time>
      </trkpt>
      <trkpt lat="45.86239" lon="4.69082">
        <ele>211</ele>
        <time>2017-08-22T09:30:03Z</time>
      </trkpt>
      <trkpt lat="45.86248" lon="4.69084">
        <ele>211</ele>
        <time>2017-08-22T09:30:05Z</time>
      </trkpt>
      <trkpt lat="45.86252" lon="4.69085">
        <ele>211</ele>
        <time>2017-08-22T09:30:06Z</time>
      </trkpt>
      <trkpt lat="45.86256" lon="4.69086">
        <ele>212</ele>
        <time>2017-08-22T09:30:07Z</time>
      </trkpt>
      <trkpt lat="45.86261" lon="4.69087">
        <ele>212</ele>
        <time>2017-08-22T09:30:08Z</time>
      </trkpt>
      <trkpt lat="45.86269" lon="4.69091">
        <ele>213</ele>
        <time>2017-08-22T09:30:10Z</time>
      </trkpt>
      <trkpt lat="45.86272" lon="4.69094">
        <ele>213</ele>
        <time>2017-08-22T09:30:11Z</time>
      </trkpt>
      <trkpt lat="45.86277" lon="4.69095">
        <ele>213</ele>
        <time>2017-08-22T09:30:12Z</time>
      </trkpt>
      <trkpt lat="45.86281" lon="4.69097">
        <ele>213</ele>
        <time>2017-08-22T09:30:13Z</time>
      </trkpt>
      <trkpt lat="45.86288" lon="4.69103">
        <ele>213</ele>
        <time>2017-08-22T09:30:15Z</time>
      </trkpt>
      <trkpt lat="45.86292" lon="4.69106">
        <ele>214</ele>
        <time>2017-08-22T09:30:16Z</time>
      </trkpt>
      <trkpt lat="45.863" lon="4.6911">
        <ele>214</ele>
        <time>2017-08-22T09:30:18Z</time>
      </trkpt>
      <trkpt lat="45.86304" lon="4.69113">
        <ele>214</ele>
        <time>2017-08-22T09:30:19Z</time>
      </trkpt>
      <trkpt lat="45.8631" lon="4.6912">
        <ele>214</ele>
        <time>2017-08-22T09:30:21Z</time>
      </trkpt>
      <trkpt lat="45.86313" lon="4.69123">
        <ele>214</ele>
        <time>2017-08-22T09:30:22Z</time>
      </trkpt>
      <trkpt lat="45.86319" lon="4.69128">
        <ele>214</ele>
        <time>2017-08-22T09:30:24Z</time>
      </trkpt>
      <trkpt lat="45.86321" lon="4.69131">
        <ele>215</ele>
        <time>2017-08-22T09:30:25Z</time>
      </trkpt>
      <trkpt lat="45.86327" lon="4.69141">
        <ele>215</ele>
        <time>2017-08-22T09:30:28Z</time>
      </trkpt>
      <trkpt lat="45.86328" lon="4.69143">
        <ele>215</ele>
        <time>2017-08-22T09:30:29Z</time>
      </trkpt>
      <trkpt lat="45.86335" lon="4.69151">
        <ele>217</ele>
        <time>2017-08-22T09:30:32Z</time>
      </trkpt>
      <trkpt lat="45.86337" lon="4.69154">
        <ele>217</ele>
        <time>2017-08-22T09:30:33Z</time>
      </trkpt>
      <trkpt lat="45.86341" lon="4.69161">
        <ele>217</ele>
        <time>2017-08-22T09:30:35Z</time>
      </trkpt>
      <trkpt lat="45.86343" lon="4.69165">
        <ele>217</ele>
        <time>2017-08-22T09:30:36Z</time>
      </trkpt>
      <trkpt lat="45.86346" lon="4.69172">
        <ele>218</ele>
        <time>2017-08-22T09:30:38Z</time>
      </trkpt>
      <trkpt lat="45.86349" lon="4.69176">
        <ele>218</ele>
        <time>2017-08-22T09:30:39Z</time>
      </trkpt>
      <trkpt lat="45.86352" lon="4.69184">
        <ele>218</ele>
        <time>2017-08-22T09:30:41Z</time>
      </trkpt>
      <trkpt lat="45.86354" lon="4.69188">
        <ele>218</ele>
        <time>2017-08-22T09:30:42Z</time>
      </trkpt>
      <trkpt lat="45.86358" lon="4.69196">
        <ele>218</ele>
        <time>2017-08-22T09:30:45Z</time>
      </trkpt>
      <trkpt lat="45.8636" lon="4.69199">
        <ele>219</ele>
        <time>2017-08-22T09:30:46Z</time>
      </trkpt>
      <trkpt lat="45.86364" lon="4.69209">
        <ele>219</ele>
        <time>2017-08-22T09:30:49Z</time>
      </trkpt>
      <trkpt lat="45.86366" lon="4.69212">
        <ele>219</ele>
        <time>2017-08-22T09:30:50Z</time>
      </trkpt>
      <trkpt lat="45.86369" lon="4.6922">
        <ele>219</ele>
        <time>2017-08-22T09:30:52Z</time>
      </trkpt>
      <trkpt lat="45.8637" lon="4.69224">
        <ele>219</ele>
        <time>2017-08-22T09:30:53Z</time>
      </trkpt>
      <trkpt lat="45.86374" lon="4.69232">
        <ele>219</ele>
        <time>2017-08-22T09:30:55Z</time>
      </trkpt>
      <trkpt lat="45.86376" lon="4.69236">
        <ele>219</ele>
        <time>2017-08-22T09:30:56Z</time>
      </trkpt>
      <trkpt lat="45.86379" lon="4.69244">
        <ele>219</ele>
        <time>2017-08-22T09:30:58Z</time>
      </trkpt>
      <trkpt lat="45.86381" lon="4.69248">
        <ele>219</ele>
        <time>2017-08-22T09:30:59Z</time>
      </trkpt>
      <trkpt lat="45.86385" lon="4.69257">
        <ele>219</ele>
        <time>2017-08-22T09:31:01Z</time>
      </trkpt>
      <trkpt lat="45.86387" lon="4.69261">
        <ele>219</ele>
        <time>2017-08-22T09:31:02Z</time>
      </trkpt>
      <trkpt lat="45.8639" lon="4.69268">
        <ele>219</ele>
        <time>2017-08-22T09:31:04Z</time>
      </trkpt>
      <trkpt lat="45.86392" lon="4.69272">
        <ele>219</ele>
        <time>2017-08-22T09:31:05Z</time>
      </trkpt>
      <trkpt lat="45.86396" lon="4.69281">
        <ele>219</ele>
        <time>2017-08-22T09:31:07Z</time>
      </trkpt>
      <trkpt lat="45.86398" lon="4.69285">
        <ele>219</ele>
        <time>2017-08-22T09:31:08Z</time>
      </trkpt>
      <trkpt lat="45.86401" lon="4.69294">
        <ele>219</ele>
        <time>2017-08-22T09:31:10Z</time>
      </trkpt>
      <trkpt lat="45.86403" lon="4.69298">
        <ele>219</ele>
        <time>2017-08-22T09:31:11Z</time>
      </trkpt>
      <trkpt lat="45.86406" lon="4.69307">
        <ele>219</ele>
        <time>2017-08-22T09:31:13Z</time>
      </trkpt>
      <trkpt lat="45.86408" lon="4.69312">
        <ele>219</ele>
        <time>2017-08-22T09:31:14Z</time>
      </trkpt>
      <trkpt lat="45.86412" lon="4.69322">
        <ele>219</ele>
        <time>2017-08-22T09:31:16Z</time>
      </trkpt>
      <trkpt lat="45.86416" lon="4.69327">
        <ele>219</ele>
        <time>2017-08-22T09:31:17Z</time>
      </trkpt>
      <trkpt lat="45.8642" lon="4.69337">
        <ele>219</ele>
        <time>2017-08-22T09:31:19Z</time>
      </trkpt>
      <trkpt lat="45.86422" lon="4.69342">
        <ele>219</ele>
        <time>2017-08-22T09:31:20Z</time>
      </trkpt>
      <trkpt lat="45.86427" lon="4.69352">
        <ele>219</ele>
        <time>2017-08-22T09:31:22Z</time>
      </trkpt>
      <trkpt lat="45.8643" lon="4.69358">
        <ele>219</ele>
        <time>2017-08-22T09:31:23Z</time>
      </trkpt>
      <trkpt lat="45.86432" lon="4.69363">
        <ele>219</ele>
        <time>2017-08-22T09:31:24Z</time>
      </trkpt>
      <trkpt lat="45.86435" lon="4.6937">
        <ele>219</ele>
        <time>2017-08-22T09:31:25Z</time>
      </trkpt>
      <trkpt lat="45.86438" lon="4.69376">
        <ele>219</ele>
        <time>2017-08-22T09:31:26Z</time>
      </trkpt>
      <trkpt lat="45.86441" lon="4.69382">
        <ele>219</ele>
        <time>2017-08-22T09:31:27Z</time>
      </trkpt>
      <trkpt lat="45.86444" lon="4.69388">
        <ele>219</ele>
        <time>2017-08-22T09:31:28Z</time>
      </trkpt>
      <trkpt lat="45.86447" lon="4.69393">
        <ele>219</ele>
        <time>2017-08-22T09:31:29Z</time>
      </trkpt>
      <trkpt lat="45.8645" lon="4.69398">
        <ele>219</ele>
        <time>2017-08-22T09:31:30Z</time>
      </trkpt>
      <trkpt lat="45.86453" lon="4.69404">
        <ele>219</ele>
        <time>2017-08-22T09:31:31Z</time>
      </trkpt>
      <trkpt lat="45.86457" lon="4.69409">
        <ele>219</ele>
        <time>2017-08-22T09:31:32Z</time>
      </trkpt>
      <trkpt lat="45.8646" lon="4.69415">
        <ele>219</ele>
        <time>2017-08-22T09:31:33Z</time>
      </trkpt>
      <trkpt lat="45.86464" lon="4.6942">
        <ele>218</ele>
        <time>2017-08-22T09:31:34Z</time>
      </trkpt>
      <trkpt lat="45.86467" lon="4.69425">
        <ele>218</ele>
        <time>2017-08-22T09:31:35Z</time>
      </trkpt>
      <trkpt lat="45.86471" lon="4.6943">
        <ele>218</ele>
        <time>2017-08-22T09:31:36Z</time>
      </trkpt>
      <trkpt lat="45.86474" lon="4.69436">
        <ele>218</ele>
        <time>2017-08-22T09:31:37Z</time>
      </trkpt>
      <trkpt lat="45.86478" lon="4.69441">
        <ele>218</ele>
        <time>2017-08-22T09:31:38Z</time>
      </trkpt>
      <trkpt lat="45.86481" lon="4.69446">
        <ele>218</ele>
        <time>2017-08-22T09:31:39Z</time>
      </trkpt>
      <trkpt lat="45.86485" lon="4.69452">
        <ele>218</ele>
        <time>2017-08-22T09:31:40Z</time>
      </trkpt>
      <trkpt lat="45.86489" lon="4.69457">
        <ele>218</ele>
        <time>2017-08-22T09:31:41Z</time>
      </trkpt>
      <trkpt lat="45.86493" lon="4.69462">
        <ele>218</ele>
        <time>2017-08-22T09:31:42Z</time>
      </trkpt>
      <trkpt lat="45.86497" lon="4.69468">
        <ele>218</ele>
        <time>2017-08-22T09:31:43Z</time>
      </trkpt>
      <trkpt lat="45.865" lon="4.69474">
        <ele>219</ele>
        <time>2017-08-22T09:31:44Z</time>
      </trkpt>
      <trkpt lat="45.86504" lon="4.69479">
        <ele>219</ele>
        <time>2017-08-22T09:31:45Z</time>
      </trkpt>
      <trkpt lat="45.86508" lon="4.69485">
        <ele>219</ele>
        <time>2017-08-22T09:31:46Z</time>
      </trkpt>
      <trkpt lat="45.86511" lon="4.69491">
        <ele>219</ele>
        <time>2017-08-22T09:31:47Z</time>
      </trkpt>
      <trkpt lat="45.86515" lon="4.69497">
        <ele>219</ele>
        <time>2017-08-22T09:31:48Z</time>
      </trkpt>
      <trkpt lat="45.86519" lon="4.69502">
        <ele>218</ele>
        <time>2017-08-22T09:31:49Z</time>
      </trkpt>
      <trkpt lat="45.86522" lon="4.69508">
        <ele>219</ele>
        <time>2017-08-22T09:31:50Z</time>
      </trkpt>
      <trkpt lat="45.86526" lon="4.69513">
        <ele>219</ele>
        <time>2017-08-22T09:31:51Z</time>
      </trkpt>
      <trkpt lat="45.86529" lon="4.69517">
        <ele>219</ele>
        <time>2017-08-22T09:31:52Z</time>
      </trkpt>
      <trkpt lat="45.86532" lon="4.69522">
        <ele>219</ele>
        <time>2017-08-22T09:31:53Z</time>
      </trkpt>
      <trkpt lat="45.86539" lon="4.6953">
        <ele>219</ele>
        <time>2017-08-22T09:31:55Z</time>
      </trkpt>
      <trkpt lat="45.86541" lon="4.69535">
        <ele>219</ele>
        <time>2017-08-22T09:31:56Z</time>
      </trkpt>
      <trkpt lat="45.86545" lon="4.6954">
        <ele>219</ele>
        <time>2017-08-22T09:31:57Z</time>
      </trkpt>
      <trkpt lat="45.86548" lon="4.69545">
        <ele>219</ele>
        <time>2017-08-22T09:31:58Z</time>
      </trkpt>
      <trkpt lat="45.86552" lon="4.6955">
        <ele>219</ele>
        <time>2017-08-22T09:31:59Z</time>
      </trkpt>
      <trkpt lat="45.86555" lon="4.69556">
        <ele>219</ele>
        <time>2017-08-22T09:32:00Z</time>
      </trkpt>
      <trkpt lat="45.86559" lon="4.69562">
        <ele>219</ele>
        <time>2017-08-22T09:32:01Z</time>
      </trkpt>
      <trkpt lat="45.86563" lon="4.69568">
        <ele>219</ele>
        <time>2017-08-22T09:32:02Z</time>
      </trkpt>
      <trkpt lat="45.86567" lon="4.69573">
        <ele>219</ele>
        <time>2017-08-22T09:32:03Z</time>
      </trkpt>
      <trkpt lat="45.8657" lon="4.69579">
        <ele>219</ele>
        <time>2017-08-22T09:32:04Z</time>
      </trkpt>
      <trkpt lat="45.86573" lon="4.69585">
        <ele>219</ele>
        <time>2017-08-22T09:32:05Z</time>
      </trkpt>
      <trkpt lat="45.86577" lon="4.6959">
        <ele>219</ele>
        <time>2017-08-22T09:32:06Z</time>
      </trkpt>
      <trkpt lat="45.8658" lon="4.69595">
        <ele>219</ele>
        <time>2017-08-22T09:32:07Z</time>
      </trkpt>
      <trkpt lat="45.86583" lon="4.69599">
        <ele>219</ele>
        <time>2017-08-22T09:32:08Z</time>
      </trkpt>
      <trkpt lat="45.86586" lon="4.69604">
        <ele>219</ele>
        <time>2017-08-22T09:32:09Z</time>
      </trkpt>
      <trkpt lat="45.8659" lon="4.69608">
        <ele>219</ele>
        <time>2017-08-22T09:32:10Z</time>
      </trkpt>
      <trkpt lat="45.86596" lon="4.69617">
        <ele>219</ele>
        <time>2017-08-22T09:32:12Z</time>
      </trkpt>
      <trkpt lat="45.86599" lon="4.69622">
        <ele>219</ele>
        <time>2017-08-22T09:32:13Z</time>
      </trkpt>
      <trkpt lat="45.86602" lon="4.69627">
        <ele>219</ele>
        <time>2017-08-22T09:32:14Z</time>
      </trkpt>
      <trkpt lat="45.86605" lon="4.69633">
        <ele>219</ele>
        <time>2017-08-22T09:32:15Z</time>
      </trkpt>
      <trkpt lat="45.86609" lon="4.69638">
        <ele>219</ele>
        <time>2017-08-22T09:32:16Z</time>
      </trkpt>
      <trkpt lat="45.86612" lon="4.69644">
        <ele>219</ele>
        <time>2017-08-22T09:32:17Z</time>
      </trkpt>
      <trkpt lat="45.86616" lon="4.6965">
        <ele>219</ele>
        <time>2017-08-22T09:32:18Z</time>
      </trkpt>
      <trkpt lat="45.8662" lon="4.69656">
        <ele>219</ele>
        <time>2017-08-22T09:32:19Z</time>
      </trkpt>
      <trkpt lat="45.86624" lon="4.69661">
        <ele>219</ele>
        <time>2017-08-22T09:32:20Z</time>
      </trkpt>
      <trkpt lat="45.86628" lon="4.69667">
        <ele>218</ele>
        <time>2017-08-22T09:32:21Z</time>
      </trkpt>
      <trkpt lat="45.86632" lon="4.69672">
        <ele>218</ele>
        <time>2017-08-22T09:32:22Z</time>
      </trkpt>
      <trkpt lat="45.86635" lon="4.69677">
        <ele>218</ele>
        <time>2017-08-22T09:32:23Z</time>
      </trkpt>
      <trkpt lat="45.86639" lon="4.69681">
        <ele>218</ele>
        <time>2017-08-22T09:32:24Z</time>
      </trkpt>
      <trkpt lat="45.86644" lon="4.69686">
        <ele>218</ele>
        <time>2017-08-22T09:32:25Z</time>
      </trkpt>
      <trkpt lat="45.86648" lon="4.6969">
        <ele>218</ele>
        <time>2017-08-22T09:32:26Z</time>
      </trkpt>
      <trkpt lat="45.86652" lon="4.69694">
        <ele>218</ele>
        <time>2017-08-22T09:32:27Z</time>
      </trkpt>
      <trkpt lat="45.86656" lon="4.69698">
        <ele>218</ele>
        <time>2017-08-22T09:32:28Z</time>
      </trkpt>
      <trkpt lat="45.8666" lon="4.69702">
        <ele>218</ele>
        <time>2017-08-22T09:32:29Z</time>
      </trkpt>
      <trkpt lat="45.86664" lon="4.69706">
        <ele>218</ele>
        <time>2017-08-22T09:32:30Z</time>
      </trkpt>
      <trkpt lat="45.86668" lon="4.6971">
        <ele>217</ele>
        <time>2017-08-22T09:32:31Z</time>
      </trkpt>
      <trkpt lat="45.86671" lon="4.69714">
        <ele>217</ele>
        <time>2017-08-22T09:32:32Z</time>
      </trkpt>
      <trkpt lat="45.86675" lon="4.69718">
        <ele>217</ele>
        <time>2017-08-22T09:32:33Z</time>
      </trkpt>
      <trkpt lat="45.86679" lon="4.69722">
        <ele>217</ele>
        <time>2017-08-22T09:32:34Z</time>
      </trkpt>
      <trkpt lat="45.86684" lon="4.69727">
        <ele>217</ele>
        <time>2017-08-22T09:32:35Z</time>
      </trkpt>
      <trkpt lat="45.86689" lon="4.69731">
        <ele>217</ele>
        <time>2017-08-22T09:32:36Z</time>
      </trkpt>
      <trkpt lat="45.86694" lon="4.69736">
        <ele>217</ele>
        <time>2017-08-22T09:32:37Z</time>
      </trkpt>
      <trkpt lat="45.86698" lon="4.6974">
        <ele>217</ele>
        <time>2017-08-22T09:32:38Z</time>
      </trkpt>
      <trkpt lat="45.86703" lon="4.69745">
        <ele>217</ele>
        <time>2017-08-22T09:32:39Z</time>
      </trkpt>
      <trkpt lat="45.86708" lon="4.69749">
        <ele>217</ele>
        <time>2017-08-22T09:32:40Z</time>
      </trkpt>
      <trkpt lat="45.86712" lon="4.69753">
        <ele>217</ele>
        <time>2017-08-22T09:32:41Z</time>
      </trkpt>
      <trkpt lat="45.86717" lon="4.69757">
        <ele>217</ele>
        <time>2017-08-22T09:32:42Z</time>
      </trkpt>
      <trkpt lat="45.86722" lon="4.69761">
        <ele>217</ele>
        <time>2017-08-22T09:32:43Z</time>
      </trkpt>
      <trkpt lat="45.86727" lon="4.69765">
        <ele>217</ele>
        <time>2017-08-22T09:32:44Z</time>
      </trkpt>
      <trkpt lat="45.86732" lon="4.69769">
        <ele>217</ele>
        <time>2017-08-22T09:32:45Z</time>
      </trkpt>
      <trkpt lat="45.86736" lon="4.69773">
        <ele>217</ele>
        <time>2017-08-22T09:32:46Z</time>
      </trkpt>
      <trkpt lat="45.8674" lon="4.69776">
        <ele>217</ele>
        <time>2017-08-22T09:32:47Z</time>
      </trkpt>
      <trkpt lat="45.86744" lon="4.69781">
        <ele>217</ele>
        <time>2017-08-22T09:32:48Z</time>
      </trkpt>
      <trkpt lat="45.86748" lon="4.69785">
        <ele>217</ele>
        <time>2017-08-22T09:32:49Z</time>
      </trkpt>
      <trkpt lat="45.86753" lon="4.69789">
        <ele>217</ele>
        <time>2017-08-22T09:32:50Z</time>
      </trkpt>
      <trkpt lat="45.86757" lon="4.69793">
        <ele>217</ele>
        <time>2017-08-22T09:32:51Z</time>
      </trkpt>
      <trkpt lat="45.86763" lon="4.69798">
        <ele>217</ele>
        <time>2017-08-22T09:32:52Z</time>
      </trkpt>
      <trkpt lat="45.86768" lon="4.69802">
        <ele>217</ele>
        <time>2017-08-22T09:32:53Z</time>
      </trkpt>
      <trkpt lat="45.86773" lon="4.69807">
        <ele>217</ele>
        <time>2017-08-22T09:32:54Z</time>
      </trkpt>
      <trkpt lat="45.86778" lon="4.69812">
        <ele>217</ele>
        <time>2017-08-22T09:32:55Z</time>
      </trkpt>
      <trkpt lat="45.86783" lon="4.69817">
        <ele>217</ele>
        <time>2017-08-22T09:32:56Z</time>
      </trkpt>
      <trkpt lat="45.86787" lon="4.69821">
        <ele>217</ele>
        <time>2017-08-22T09:32:57Z</time>
      </trkpt>
      <trkpt lat="45.86791" lon="4.69825">
        <ele>217</ele>
        <time>2017-08-22T09:32:58Z</time>
      </trkpt>
      <trkpt lat="45.86796" lon="4.69828">
        <ele>217</ele>
        <time>2017-08-22T09:32:59Z</time>
      </trkpt>
      <trkpt lat="45.86801" lon="4.69832">
        <ele>217</ele>
        <time>2017-08-22T09:33:00Z</time>
      </trkpt>
      <trkpt lat="45.86806" lon="4.69836">
        <ele>217</ele>
        <time>2017-08-22T09:33:01Z</time>
      </trkpt>
      <trkpt lat="45.8681" lon="4.6984">
        <ele>217</ele>
        <time>2017-08-22T09:33:02Z</time>
      </trkpt>
      <trkpt lat="45.86815" lon="4.69844">
        <ele>217</ele>
        <time>2017-08-22T09:33:03Z</time>
      </trkpt>
      <trkpt lat="45.8682" lon="4.69848">
        <ele>217</ele>
        <time>2017-08-22T09:33:04Z</time>
      </trkpt>
      <trkpt lat="45.86825" lon="4.69853">
        <ele>217</ele>
        <time>2017-08-22T09:33:05Z</time>
      </trkpt>
      <trkpt lat="45.86829" lon="4.69857">
        <ele>217</ele>
        <time>2017-08-22T09:33:06Z</time>
      </trkpt>
      <trkpt lat="45.86834" lon="4.69862">
        <ele>217</ele>
        <time>2017-08-22T09:33:07Z</time>
      </trkpt>
      <trkpt lat="45.86838" lon="4.69866">
        <ele>217</ele>
        <time>2017-08-22T09:33:08Z</time>
      </trkpt>
      <trkpt lat="45.86842" lon="4.6987">
        <ele>217</ele>
        <time>2017-08-22T09:33:09Z</time>
      </trkpt>
      <trkpt lat="45.86847" lon="4.69873">
        <ele>217</ele>
        <time>2017-08-22T09:33:10Z</time>
      </trkpt>
      <trkpt lat="45.86851" lon="4.69877">
        <ele>217</ele>
        <time>2017-08-22T09:33:11Z</time>
      </trkpt>
      <trkpt lat="45.86856" lon="4.69881">
        <ele>217</ele>
        <time>2017-08-22T09:33:12Z</time>
      </trkpt>
      <trkpt lat="45.8686" lon="4.69884">
        <ele>217</ele>
        <time>2017-08-22T09:33:13Z</time>
      </trkpt>
      <trkpt lat="45.86865" lon="4.69889">
        <ele>217</ele>
        <time>2017-08-22T09:33:14Z</time>
      </trkpt>
      <trkpt lat="45.86869" lon="4.69893">
        <ele>217</ele>
        <time>2017-08-22T09:33:15Z</time>
      </trkpt>
      <trkpt lat="45.86874" lon="4.69897">
        <ele>217</ele>
        <time>2017-08-22T09:33:16Z</time>
      </trkpt>
      <trkpt lat="45.86879" lon="4.69901">
        <ele>217</ele>
        <time>2017-08-22T09:33:17Z</time>
      </trkpt>
      <trkpt lat="45.86884" lon="4.69906">
        <ele>217</ele>
        <time>2017-08-22T09:33:18Z</time>
      </trkpt>
      <trkpt lat="45.86889" lon="4.6991">
        <ele>217</ele>
        <time>2017-08-22T09:33:19Z</time>
      </trkpt>
      <trkpt lat="45.86894" lon="4.69913">
        <ele>217</ele>
        <time>2017-08-22T09:33:20Z</time>
      </trkpt>
      <trkpt lat="45.86899" lon="4.69917">
        <ele>217</ele>
        <time>2017-08-22T09:33:21Z</time>
      </trkpt>
      <trkpt lat="45.86904" lon="4.69921">
        <ele>217</ele>
        <time>2017-08-22T09:33:22Z</time>
      </trkpt>
      <trkpt lat="45.86909" lon="4.69925">
        <ele>217</ele>
        <time>2017-08-22T09:33:23Z</time>
      </trkpt>
      <trkpt lat="45.86913" lon="4.69928">
        <ele>217</ele>
        <time>2017-08-22T09:33:24Z</time>
      </trkpt>
      <trkpt lat="45.86917" lon="4.69932">
        <ele>217</ele>
        <time>2017-08-22T09:33:25Z</time>
      </trkpt>
      <trkpt lat="45.86922" lon="4.69936">
        <ele>217</ele>
        <time>2017-08-22T09:33:26Z</time>
      </trkpt>
      <trkpt lat="45.86926" lon="4.6994">
        <ele>217</ele>
        <time>2017-08-22T09:33:27Z</time>
      </trkpt>
      <trkpt lat="45.8693" lon="4.69943">
        <ele>217</ele>
        <time>2017-08-22T09:33:28Z</time>
      </trkpt>
      <trkpt lat="45.86934" lon="4.69946">
        <ele>217</ele>
        <time>2017-08-22T09:33:29Z</time>
      </trkpt>
      <trkpt lat="45.86938" lon="4.69949">
        <ele>217</ele>
        <time>2017-08-22T09:33:30Z</time>
      </trkpt>
      <trkpt lat="45.86943" lon="4.69953">
        <ele>217</ele>
        <time>2017-08-22T09:33:31Z</time>
      </trkpt>
      <trkpt lat="45.86948" lon="4.69957">
        <ele>217</ele>
        <time>2017-08-22T09:33:32Z</time>
      </trkpt>
      <trkpt lat="45.86952" lon="4.69961">
        <ele>217</ele>
        <time>2017-08-22T09:33:33Z</time>
      </trkpt>
      <trkpt lat="45.86957" lon="4.69966">
        <ele>217</ele>
        <time>2017-08-22T09:33:34Z</time>
      </trkpt>
      <trkpt lat="45.86962" lon="4.6997">
        <ele>217</ele>
        <time>2017-08-22T09:33:35Z</time>
      </trkpt>
      <trkpt lat="45.86966" lon="4.69974">
        <ele>217</ele>
        <time>2017-08-22T09:33:36Z</time>
      </trkpt>
      <trkpt lat="45.8697" lon="4.69979">
        <ele>217</ele>
        <time>2017-08-22T09:33:37Z</time>
      </trkpt>
      <trkpt lat="45.86974" lon="4.6999">
        <ele>217</ele>
        <time>2017-08-22T09:33:39Z</time>
      </trkpt>
      <trkpt lat="45.86976" lon="4.69995">
        <ele>217</ele>
        <time>2017-08-22T09:33:40Z</time>
      </trkpt>
      <trkpt lat="45.86983" lon="4.70004">
        <ele>217</ele>
        <time>2017-08-22T09:33:42Z</time>
      </trkpt>
      <trkpt lat="45.86988" lon="4.70006">
        <ele>217</ele>
        <time>2017-08-22T09:33:43Z</time>
      </trkpt>
      <trkpt lat="45.86993" lon="4.70006">
        <ele>217</ele>
        <time>2017-08-22T09:33:44Z</time>
      </trkpt>
      <trkpt lat="45.86998" lon="4.70005">
        <ele>217</ele>
        <time>2017-08-22T09:33:45Z</time>
      </trkpt>
      <trkpt lat="45.87004" lon="4.70004">
        <ele>217</ele>
        <time>2017-08-22T09:33:46Z</time>
      </trkpt>
      <trkpt lat="45.8701" lon="4.70004">
        <ele>217</ele>
        <time>2017-08-22T09:33:47Z</time>
      </trkpt>
      <trkpt lat="45.87015" lon="4.70006">
        <ele>217</ele>
        <time>2017-08-22T09:33:48Z</time>
      </trkpt>
      <trkpt lat="45.8702" lon="4.70009">
        <ele>217</ele>
        <time>2017-08-22T09:33:49Z</time>
      </trkpt>
      <trkpt lat="45.87024" lon="4.70013">
        <ele>217</ele>
        <time>2017-08-22T09:33:50Z</time>
      </trkpt>
      <trkpt lat="45.87028" lon="4.70017">
        <ele>217</ele>
        <time>2017-08-22T09:33:51Z</time>
      </trkpt>
      <trkpt lat="45.87032" lon="4.70023">
        <ele>217</ele>
        <time>2017-08-22T09:33:52Z</time>
      </trkpt>
      <trkpt lat="45.87036" lon="4.70028">
        <ele>217</ele>
        <time>2017-08-22T09:33:53Z</time>
      </trkpt>
      <trkpt lat="45.87039" lon="4.70034">
        <ele>217</ele>
        <time>2017-08-22T09:33:54Z</time>
      </trkpt>
      <trkpt lat="45.87043" lon="4.70041">
        <ele>217</ele>
        <time>2017-08-22T09:33:55Z</time>
      </trkpt>
      <trkpt lat="45.87046" lon="4.70047">
        <ele>217</ele>
        <time>2017-08-22T09:33:56Z</time>
      </trkpt>
      <trkpt lat="45.8705" lon="4.70053">
        <ele>217</ele>
        <time>2017-08-22T09:33:57Z</time>
      </trkpt>
      <trkpt lat="45.87053" lon="4.70059">
        <ele>217</ele>
        <time>2017-08-22T09:33:58Z</time>
      </trkpt>
      <trkpt lat="45.87056" lon="4.70065">
        <ele>217</ele>
        <time>2017-08-22T09:33:59Z</time>
      </trkpt>
      <trkpt lat="45.87058" lon="4.70071">
        <ele>217</ele>
        <time>2017-08-22T09:34:00Z</time>
      </trkpt>
      <trkpt lat="45.87061" lon="4.70077">
        <ele>217</ele>
        <time>2017-08-22T09:34:01Z</time>
      </trkpt>
      <trkpt lat="45.87064" lon="4.70083">
        <ele>217</ele>
        <time>2017-08-22T09:34:02Z</time>
      </trkpt>
      <trkpt lat="45.87067" lon="4.70089">
        <ele>217</ele>
        <time>2017-08-22T09:34:03Z</time>
      </trkpt>
      <trkpt lat="45.8707" lon="4.70095">
        <ele>217</ele>
        <time>2017-08-22T09:34:04Z</time>
      </trkpt>
      <trkpt lat="45.87073" lon="4.70101">
        <ele>217</ele>
        <time>2017-08-22T09:34:05Z</time>
      </trkpt>
      <trkpt lat="45.87076" lon="4.70107">
        <ele>217</ele>
        <time>2017-08-22T09:34:06Z</time>
      </trkpt>
      <trkpt lat="45.87079" lon="4.70112">
        <ele>217</ele>
        <time>2017-08-22T09:34:07Z</time>
      </trkpt>
      <trkpt lat="45.87082" lon="4.70118">
        <ele>217</ele>
        <time>2017-08-22T09:34:08Z</time>
      </trkpt>
      <trkpt lat="45.87085" lon="4.70124">
        <ele>217</ele>
        <time>2017-08-22T09:34:09Z</time>
      </trkpt>
      <trkpt lat="45.87088" lon="4.70131">
        <ele>217</ele>
        <time>2017-08-22T09:34:10Z</time>
      </trkpt>
      <trkpt lat="45.87091" lon="4.70137">
        <ele>217</ele>
        <time>2017-08-22T09:34:11Z</time>
      </trkpt>
      <trkpt lat="45.87095" lon="4.70143">
        <ele>217</ele>
        <time>2017-08-22T09:34:12Z</time>
      </trkpt>
      <trkpt lat="45.87098" lon="4.70149">
        <ele>217</ele>
        <time>2017-08-22T09:34:13Z</time>
      </trkpt>
      <trkpt lat="45.87102" lon="4.70155">
        <ele>217</ele>
        <time>2017-08-22T09:34:14Z</time>
      </trkpt>
      <trkpt lat="45.87106" lon="4.70161">
        <ele>217</ele>
        <time>2017-08-22T09:34:15Z</time>
      </trkpt>
      <trkpt lat="45.87109" lon="4.70167">
        <ele>216</ele>
        <time>2017-08-22T09:34:16Z</time>
      </trkpt>
      <trkpt lat="45.87113" lon="4.70172">
        <ele>216</ele>
        <time>2017-08-22T09:34:17Z</time>
      </trkpt>
      <trkpt lat="45.87117" lon="4.70177">
        <ele>216</ele>
        <time>2017-08-22T09:34:18Z</time>
      </trkpt>
      <trkpt lat="45.87119" lon="4.70183">
        <ele>216</ele>
        <time>2017-08-22T09:34:19Z</time>
      </trkpt>
      <trkpt lat="45.87123" lon="4.70188">
        <ele>216</ele>
        <time>2017-08-22T09:34:20Z</time>
      </trkpt>
      <trkpt lat="45.87126" lon="4.70193">
        <ele>216</ele>
        <time>2017-08-22T09:34:21Z</time>
      </trkpt>
      <trkpt lat="45.8713" lon="4.70199">
        <ele>216</ele>
        <time>2017-08-22T09:34:22Z</time>
      </trkpt>
      <trkpt lat="45.87133" lon="4.70204">
        <ele>216</ele>
        <time>2017-08-22T09:34:23Z</time>
      </trkpt>
      <trkpt lat="45.87137" lon="4.7021">
        <ele>216</ele>
        <time>2017-08-22T09:34:24Z</time>
      </trkpt>
      <trkpt lat="45.8714" lon="4.70216">
        <ele>216</ele>
        <time>2017-08-22T09:34:25Z</time>
      </trkpt>
      <trkpt lat="45.87144" lon="4.70221">
        <ele>216</ele>
        <time>2017-08-22T09:34:26Z</time>
      </trkpt>
      <trkpt lat="45.87148" lon="4.70226">
        <ele>216</ele>
        <time>2017-08-22T09:34:27Z</time>
      </trkpt>
      <trkpt lat="45.87152" lon="4.70231">
        <ele>216</ele>
        <time>2017-08-22T09:34:28Z</time>
      </trkpt>
      <trkpt lat="45.87156" lon="4.70236">
        <ele>216</ele>
        <time>2017-08-22T09:34:29Z</time>
      </trkpt>
      <trkpt lat="45.8716" lon="4.7024">
        <ele>216</ele>
        <time>2017-08-22T09:34:30Z</time>
      </trkpt>
      <trkpt lat="45.87163" lon="4.70245">
        <ele>216</ele>
        <time>2017-08-22T09:34:31Z</time>
      </trkpt>
      <trkpt lat="45.87167" lon="4.7025">
        <ele>216</ele>
        <time>2017-08-22T09:34:32Z</time>
      </trkpt>
      <trkpt lat="45.87171" lon="4.70255">
        <ele>216</ele>
        <time>2017-08-22T09:34:33Z</time>
      </trkpt>
      <trkpt lat="45.87175" lon="4.7026">
        <ele>216</ele>
        <time>2017-08-22T09:34:34Z</time>
      </trkpt>
      <trkpt lat="45.87178" lon="4.70264">
        <ele>216</ele>
        <time>2017-08-22T09:34:35Z</time>
      </trkpt>
      <trkpt lat="45.87182" lon="4.70269">
        <ele>216</ele>
        <time>2017-08-22T09:34:36Z</time>
      </trkpt>
      <trkpt lat="45.87185" lon="4.70274">
        <ele>217</ele>
        <time>2017-08-22T09:34:37Z</time>
      </trkpt>
      <trkpt lat="45.87188" lon="4.70278">
        <ele>217</ele>
        <time>2017-08-22T09:34:38Z</time>
      </trkpt>
      <trkpt lat="45.87192" lon="4.70283">
        <ele>217</ele>
        <time>2017-08-22T09:34:39Z</time>
      </trkpt>
      <trkpt lat="45.87195" lon="4.70289">
        <ele>217</ele>
        <time>2017-08-22T09:34:40Z</time>
      </trkpt>
      <trkpt lat="45.87199" lon="4.70294">
        <ele>217</ele>
        <time>2017-08-22T09:34:41Z</time>
      </trkpt>
      <trkpt lat="45.87203" lon="4.703">
        <ele>217</ele>
        <time>2017-08-22T09:34:42Z</time>
      </trkpt>
      <trkpt lat="45.87208" lon="4.70306">
        <ele>217</ele>
        <time>2017-08-22T09:34:43Z</time>
      </trkpt>
      <trkpt lat="45.87213" lon="4.70313">
        <ele>217</ele>
        <time>2017-08-22T09:34:44Z</time>
      </trkpt>
      <trkpt lat="45.87218" lon="4.70319">
        <ele>217</ele>
        <time>2017-08-22T09:34:45Z</time>
      </trkpt>
      <trkpt lat="45.87222" lon="4.70325">
        <ele>217</ele>
        <time>2017-08-22T09:34:46Z</time>
      </trkpt>
      <trkpt lat="45.87227" lon="4.7033">
        <ele>217</ele>
        <time>2017-08-22T09:34:47Z</time>
      </trkpt>
      <trkpt lat="45.87232" lon="4.70335">
        <ele>217</ele>
        <time>2017-08-22T09:34:48Z</time>
      </trkpt>
      <trkpt lat="45.87236" lon="4.7034">
        <ele>217</ele>
        <time>2017-08-22T09:34:49Z</time>
      </trkpt>
      <trkpt lat="45.8724" lon="4.70346">
        <ele>217</ele>
        <time>2017-08-22T09:34:50Z</time>
      </trkpt>
      <trkpt lat="45.87245" lon="4.70352">
        <ele>217</ele>
        <time>2017-08-22T09:34:51Z</time>
      </trkpt>
      <trkpt lat="45.87249" lon="4.70358">
        <ele>217</ele>
        <time>2017-08-22T09:34:52Z</time>
      </trkpt>
      <trkpt lat="45.87254" lon="4.70363">
        <ele>216</ele>
        <time>2017-08-22T09:34:53Z</time>
      </trkpt>
      <trkpt lat="45.87258" lon="4.70369">
        <ele>216</ele>
        <time>2017-08-22T09:34:54Z</time>
      </trkpt>
      <trkpt lat="45.87261" lon="4.70375">
        <ele>216</ele>
        <time>2017-08-22T09:34:55Z</time>
      </trkpt>
      <trkpt lat="45.87265" lon="4.7038">
        <ele>216</ele>
        <time>2017-08-22T09:34:56Z</time>
      </trkpt>
      <trkpt lat="45.87268" lon="4.70386">
        <ele>216</ele>
        <time>2017-08-22T09:34:57Z</time>
      </trkpt>
      <trkpt lat="45.87271" lon="4.70392">
        <ele>216</ele>
        <time>2017-08-22T09:34:58Z</time>
      </trkpt>
      <trkpt lat="45.87273" lon="4.70399">
        <ele>216</ele>
        <time>2017-08-22T09:34:59Z</time>
      </trkpt>
      <trkpt lat="45.87276" lon="4.70406">
        <ele>216</ele>
        <time>2017-08-22T09:35:00Z</time>
      </trkpt>
      <trkpt lat="45.8728" lon="4.70411">
        <ele>216</ele>
        <time>2017-08-22T09:35:01Z</time>
      </trkpt>
      <trkpt lat="45.87285" lon="4.70414">
        <ele>216</ele>
        <time>2017-08-22T09:35:02Z</time>
      </trkpt>
      <trkpt lat="45.8729" lon="4.70418">
        <ele>214</ele>
        <time>2017-08-22T09:35:03Z</time>
      </trkpt>
      <trkpt lat="45.87295" lon="4.70423">
        <ele>214</ele>
        <time>2017-08-22T09:35:04Z</time>
      </trkpt>
      <trkpt lat="45.873" lon="4.70429">
        <ele>214</ele>
        <time>2017-08-22T09:35:05Z</time>
      </trkpt>
      <trkpt lat="45.87304" lon="4.70435">
        <ele>214</ele>
        <time>2017-08-22T09:35:06Z</time>
      </trkpt>
      <trkpt lat="45.87308" lon="4.70441">
        <ele>214</ele>
        <time>2017-08-22T09:35:07Z</time>
      </trkpt>
      <trkpt lat="45.87312" lon="4.70447">
        <ele>214</ele>
        <time>2017-08-22T09:35:08Z</time>
      </trkpt>
      <trkpt lat="45.87317" lon="4.70453">
        <ele>214</ele>
        <time>2017-08-22T09:35:09Z</time>
      </trkpt>
      <trkpt lat="45.87321" lon="4.7046">
        <ele>214</ele>
        <time>2017-08-22T09:35:10Z</time>
      </trkpt>
      <trkpt lat="45.87326" lon="4.70467">
        <ele>214</ele>
        <time>2017-08-22T09:35:11Z</time>
      </trkpt>
      <trkpt lat="45.87331" lon="4.70474">
        <ele>214</ele>
        <time>2017-08-22T09:35:12Z</time>
      </trkpt>
      <trkpt lat="45.87335" lon="4.70483">
        <ele>213</ele>
        <time>2017-08-22T09:35:13Z</time>
      </trkpt>
      <trkpt lat="45.8734" lon="4.70491">
        <ele>213</ele>
        <time>2017-08-22T09:35:14Z</time>
      </trkpt>
      <trkpt lat="45.87344" lon="4.70499">
        <ele>213</ele>
        <time>2017-08-22T09:35:15Z</time>
      </trkpt>
      <trkpt lat="45.87349" lon="4.70508">
        <ele>212</ele>
        <time>2017-08-22T09:35:16Z</time>
      </trkpt>
      <trkpt lat="45.87354" lon="4.70516">
        <ele>212</ele>
        <time>2017-08-22T09:35:17Z</time>
      </trkpt>
      <trkpt lat="45.87359" lon="4.70524">
        <ele>212</ele>
        <time>2017-08-22T09:35:18Z</time>
      </trkpt>
      <trkpt lat="45.87363" lon="4.70533">
        <ele>212</ele>
        <time>2017-08-22T09:35:19Z</time>
      </trkpt>
      <trkpt lat="45.87369" lon="4.70542">
        <ele>212</ele>
        <time>2017-08-22T09:35:20Z</time>
      </trkpt>
      <trkpt lat="45.87374" lon="4.70551">
        <ele>212</ele>
        <time>2017-08-22T09:35:21Z</time>
      </trkpt>
      <trkpt lat="45.8738" lon="4.70559">
        <ele>212</ele>
        <time>2017-08-22T09:35:22Z</time>
      </trkpt>
      <trkpt lat="45.87386" lon="4.70568">
        <ele>211</ele>
        <time>2017-08-22T09:35:23Z</time>
      </trkpt>
      <trkpt lat="45.87392" lon="4.70577">
        <ele>211</ele>
        <time>2017-08-22T09:35:24Z</time>
      </trkpt>
      <trkpt lat="45.87398" lon="4.70586">
        <ele>210</ele>
        <time>2017-08-22T09:35:25Z</time>
      </trkpt>
      <trkpt lat="45.87403" lon="4.70595">
        <ele>210</ele>
        <time>2017-08-22T09:35:26Z</time>
      </trkpt>
      <trkpt lat="45.87409" lon="4.70603">
        <ele>210</ele>
        <time>2017-08-22T09:35:27Z</time>
      </trkpt>
      <trkpt lat="45.87412" lon="4.70613">
        <ele>210</ele>
        <time>2017-08-22T09:35:28Z</time>
      </trkpt>
      <trkpt lat="45.87415" lon="4.70623">
        <ele>209</ele>
        <time>2017-08-22T09:35:29Z</time>
      </trkpt>
      <trkpt lat="45.87417" lon="4.70633">
        <ele>209</ele>
        <time>2017-08-22T09:35:30Z</time>
      </trkpt>
      <trkpt lat="45.87418" lon="4.70642">
        <ele>209</ele>
        <time>2017-08-22T09:35:31Z</time>
      </trkpt>
      <trkpt lat="45.87419" lon="4.70651">
        <ele>209</ele>
        <time>2017-08-22T09:35:32Z</time>
      </trkpt>
      <trkpt lat="45.8742" lon="4.7066">
        <ele>208</ele>
        <time>2017-08-22T09:35:33Z</time>
      </trkpt>
      <trkpt lat="45.87421" lon="4.70669">
        <ele>208</ele>
        <time>2017-08-22T09:35:34Z</time>
      </trkpt>
      <trkpt lat="45.87421" lon="4.70677">
        <ele>208</ele>
        <time>2017-08-22T09:35:35Z</time>
      </trkpt>
      <trkpt lat="45.87422" lon="4.70684">
        <ele>209</ele>
        <time>2017-08-22T09:35:36Z</time>
      </trkpt>
      <trkpt lat="45.87423" lon="4.70691">
        <ele>209</ele>
        <time>2017-08-22T09:35:37Z</time>
      </trkpt>
      <trkpt lat="45.87424" lon="4.70698">
        <ele>209</ele>
        <time>2017-08-22T09:35:38Z</time>
      </trkpt>
      <trkpt lat="45.87425" lon="4.70705">
        <ele>209</ele>
        <time>2017-08-22T09:35:39Z</time>
      </trkpt>
      <trkpt lat="45.87426" lon="4.70712">
        <ele>209</ele>
        <time>2017-08-22T09:35:40Z</time>
      </trkpt>
      <trkpt lat="45.87427" lon="4.70719">
        <ele>209</ele>
        <time>2017-08-22T09:35:41Z</time>
      </trkpt>
      <trkpt lat="45.87428" lon="4.70726">
        <ele>209</ele>
        <time>2017-08-22T09:35:42Z</time>
      </trkpt>
      <trkpt lat="45.8743" lon="4.70733">
        <ele>209</ele>
        <time>2017-08-22T09:35:43Z</time>
      </trkpt>
      <trkpt lat="45.87431" lon="4.70741">
        <ele>209</ele>
        <time>2017-08-22T09:35:44Z</time>
      </trkpt>
      <trkpt lat="45.87432" lon="4.70748">
        <ele>209</ele>
        <time>2017-08-22T09:35:45Z</time>
      </trkpt>
      <trkpt lat="45.87433" lon="4.70755">
        <ele>209</ele>
        <time>2017-08-22T09:35:46Z</time>
      </trkpt>
      <trkpt lat="45.87435" lon="4.70763">
        <ele>210</ele>
        <time>2017-08-22T09:35:47Z</time>
      </trkpt>
      <trkpt lat="45.87437" lon="4.70771">
        <ele>210</ele>
        <time>2017-08-22T09:35:48Z</time>
      </trkpt>
      <trkpt lat="45.87438" lon="4.70779">
        <ele>210</ele>
        <time>2017-08-22T09:35:49Z</time>
      </trkpt>
      <trkpt lat="45.87439" lon="4.70787">
        <ele>210</ele>
        <time>2017-08-22T09:35:50Z</time>
      </trkpt>
      <trkpt lat="45.87441" lon="4.70795">
        <ele>211</ele>
        <time>2017-08-22T09:35:51Z</time>
      </trkpt>
      <trkpt lat="45.87443" lon="4.70804">
        <ele>211</ele>
        <time>2017-08-22T09:35:52Z</time>
      </trkpt>
      <trkpt lat="45.87444" lon="4.70811">
        <ele>211</ele>
        <time>2017-08-22T09:35:53Z</time>
      </trkpt>
      <trkpt lat="45.87447" lon="4.7082">
        <ele>211</ele>
        <time>2017-08-22T09:35:54Z</time>
      </trkpt>
      <trkpt lat="45.87449" lon="4.70827">
        <ele>211</ele>
        <time>2017-08-22T09:35:55Z</time>
      </trkpt>
      <trkpt lat="45.87451" lon="4.70835">
        <ele>212</ele>
        <time>2017-08-22T09:35:56Z</time>
      </trkpt>
      <trkpt lat="45.87453" lon="4.70844">
        <ele>213</ele>
        <time>2017-08-22T09:35:57Z</time>
      </trkpt>
      <trkpt lat="45.87455" lon="4.70852">
        <ele>213</ele>
        <time>2017-08-22T09:35:58Z</time>
      </trkpt>
      <trkpt lat="45.87456" lon="4.7086">
        <ele>213</ele>
        <time>2017-08-22T09:35:59Z</time>
      </trkpt>
      <trkpt lat="45.87458" lon="4.70867">
        <ele>213</ele>
        <time>2017-08-22T09:36:00Z</time>
      </trkpt>
      <trkpt lat="45.87459" lon="4.70875">
        <ele>213</ele>
        <time>2017-08-22T09:36:01Z</time>
      </trkpt>
      <trkpt lat="45.87461" lon="4.70882">
        <ele>213</ele>
        <time>2017-08-22T09:36:02Z</time>
      </trkpt>
      <trkpt lat="45.87463" lon="4.7089">
        <ele>214</ele>
        <time>2017-08-22T09:36:03Z</time>
      </trkpt>
      <trkpt lat="45.87465" lon="4.70897">
        <ele>214</ele>
        <time>2017-08-22T09:36:04Z</time>
      </trkpt>
      <trkpt lat="45.87466" lon="4.70905">
        <ele>214</ele>
        <time>2017-08-22T09:36:05Z</time>
      </trkpt>
      <trkpt lat="45.87467" lon="4.70913">
        <ele>214</ele>
        <time>2017-08-22T09:36:06Z</time>
      </trkpt>
      <trkpt lat="45.87469" lon="4.70921">
        <ele>215</ele>
        <time>2017-08-22T09:36:07Z</time>
      </trkpt>
      <trkpt lat="45.87471" lon="4.70928">
        <ele>215</ele>
        <time>2017-08-22T09:36:08Z</time>
      </trkpt>
      <trkpt lat="45.87474" lon="4.70936">
        <ele>215</ele>
        <time>2017-08-22T09:36:09Z</time>
      </trkpt>
      <trkpt lat="45.87476" lon="4.70943">
        <ele>215</ele>
        <time>2017-08-22T09:36:10Z</time>
      </trkpt>
      <trkpt lat="45.87477" lon="4.7095">
        <ele>215</ele>
        <time>2017-08-22T09:36:11Z</time>
      </trkpt>
      <trkpt lat="45.8748" lon="4.70956">
        <ele>215</ele>
        <time>2017-08-22T09:36:12Z</time>
      </trkpt>
      <trkpt lat="45.87483" lon="4.70962">
        <ele>215</ele>
        <time>2017-08-22T09:36:13Z</time>
      </trkpt>
      <trkpt lat="45.87485" lon="4.70967">
        <ele>215</ele>
        <time>2017-08-22T09:36:14Z</time>
      </trkpt>
      <trkpt lat="45.87487" lon="4.70973">
        <ele>215</ele>
        <time>2017-08-22T09:36:15Z</time>
      </trkpt>
      <trkpt lat="45.87489" lon="4.70979">
        <ele>215</ele>
        <time>2017-08-22T09:36:16Z</time>
      </trkpt>
      <trkpt lat="45.87491" lon="4.70985">
        <ele>214</ele>
        <time>2017-08-22T09:36:17Z</time>
      </trkpt>
      <trkpt lat="45.87495" lon="4.70991">
        <ele>214</ele>
        <time>2017-08-22T09:36:18Z</time>
      </trkpt>
      <trkpt lat="45.87498" lon="4.70996">
        <ele>214</ele>
        <time>2017-08-22T09:36:19Z</time>
      </trkpt>
      <trkpt lat="45.87502" lon="4.71002">
        <ele>214</ele>
        <time>2017-08-22T09:36:20Z</time>
      </trkpt>
      <trkpt lat="45.87505" lon="4.71007">
        <ele>214</ele>
        <time>2017-08-22T09:36:21Z</time>
      </trkpt>
      <trkpt lat="45.87508" lon="4.71012">
        <ele>215</ele>
        <time>2017-08-22T09:36:22Z</time>
      </trkpt>
      <trkpt lat="45.87512" lon="4.71018">
        <ele>215</ele>
        <time>2017-08-22T09:36:23Z</time>
      </trkpt>
      <trkpt lat="45.87515" lon="4.71023">
        <ele>215</ele>
        <time>2017-08-22T09:36:24Z</time>
      </trkpt>
      <trkpt lat="45.87519" lon="4.71029">
        <ele>215</ele>
        <time>2017-08-22T09:36:25Z</time>
      </trkpt>
      <trkpt lat="45.87523" lon="4.71035">
        <ele>215</ele>
        <time>2017-08-22T09:36:26Z</time>
      </trkpt>
      <trkpt lat="45.87526" lon="4.71041">
        <ele>215</ele>
        <time>2017-08-22T09:36:27Z</time>
      </trkpt>
      <trkpt lat="45.8753" lon="4.71046">
        <ele>215</ele>
        <time>2017-08-22T09:36:28Z</time>
      </trkpt>
      <trkpt lat="45.87533" lon="4.71051">
        <ele>215</ele>
        <time>2017-08-22T09:36:29Z</time>
      </trkpt>
      <trkpt lat="45.87536" lon="4.71055">
        <ele>215</ele>
        <time>2017-08-22T09:36:30Z</time>
      </trkpt>
      <trkpt lat="45.87539" lon="4.7106">
        <ele>215</ele>
        <time>2017-08-22T09:36:31Z</time>
      </trkpt>
      <trkpt lat="45.87546" lon="4.71068">
        <ele>216</ele>
        <time>2017-08-22T09:36:33Z</time>
      </trkpt>
      <trkpt lat="45.8755" lon="4.71071">
        <ele>216</ele>
        <time>2017-08-22T09:36:34Z</time>
      </trkpt>
      <trkpt lat="45.87555" lon="4.71074">
        <ele>216</ele>
        <time>2017-08-22T09:36:35Z</time>
      </trkpt>
      <trkpt lat="45.87559" lon="4.71076">
        <ele>216</ele>
        <time>2017-08-22T09:36:36Z</time>
      </trkpt>
      <trkpt lat="45.87566" lon="4.71081">
        <ele>216</ele>
        <time>2017-08-22T09:36:38Z</time>
      </trkpt>
      <trkpt lat="45.8757" lon="4.71083">
        <ele>216</ele>
        <time>2017-08-22T09:36:39Z</time>
      </trkpt>
      <trkpt lat="45.87575" lon="4.71085">
        <ele>217</ele>
        <time>2017-08-22T09:36:40Z</time>
      </trkpt>
      <trkpt lat="45.87581" lon="4.71086">
        <ele>217</ele>
        <time>2017-08-22T09:36:41Z</time>
      </trkpt>
      <trkpt lat="45.87589" lon="4.71084">
        <ele>218</ele>
        <time>2017-08-22T09:36:43Z</time>
      </trkpt>
      <trkpt lat="45.87593" lon="4.71083">
        <ele>217</ele>
        <time>2017-08-22T09:36:44Z</time>
      </trkpt>
      <trkpt lat="45.87601" lon="4.71082">
        <ele>217</ele>
        <time>2017-08-22T09:36:46Z</time>
      </trkpt>
      <trkpt lat="45.87604" lon="4.71081">
        <ele>217</ele>
        <time>2017-08-22T09:36:47Z</time>
      </trkpt>
      <trkpt lat="45.87611" lon="4.71079">
        <ele>217</ele>
        <time>2017-08-22T09:36:49Z</time>
      </trkpt>
      <trkpt lat="45.87615" lon="4.71078">
        <ele>217</ele>
        <time>2017-08-22T09:36:50Z</time>
      </trkpt>
      <trkpt lat="45.87624" lon="4.71078">
        <ele>217</ele>
        <time>2017-08-22T09:36:52Z</time>
      </trkpt>
      <trkpt lat="45.87628" lon="4.71077">
        <ele>218</ele>
        <time>2017-08-22T09:36:53Z</time>
      </trkpt>
      <trkpt lat="45.87637" lon="4.71075">
        <ele>218</ele>
        <time>2017-08-22T09:36:55Z</time>
      </trkpt>
      <trkpt lat="45.87641" lon="4.71074">
        <ele>218</ele>
        <time>2017-08-22T09:36:56Z</time>
      </trkpt>
      <trkpt lat="45.87649" lon="4.71069">
        <ele>218</ele>
        <time>2017-08-22T09:36:58Z</time>
      </trkpt>
      <trkpt lat="45.87653" lon="4.71068">
        <ele>218</ele>
        <time>2017-08-22T09:36:59Z</time>
      </trkpt>
      <trkpt lat="45.87659" lon="4.71065">
        <ele>218</ele>
        <time>2017-08-22T09:37:01Z</time>
      </trkpt>
      <trkpt lat="45.87663" lon="4.71064">
        <ele>218</ele>
        <time>2017-08-22T09:37:02Z</time>
      </trkpt>
      <trkpt lat="45.87669" lon="4.71061">
        <ele>220</ele>
        <time>2017-08-22T09:37:04Z</time>
      </trkpt>
      <trkpt lat="45.87673" lon="4.7106">
        <ele>220</ele>
        <time>2017-08-22T09:37:05Z</time>
      </trkpt>
      <trkpt lat="45.87682" lon="4.71058">
        <ele>220</ele>
        <time>2017-08-22T09:37:07Z</time>
      </trkpt>
      <trkpt lat="45.87686" lon="4.71057">
        <ele>220</ele>
        <time>2017-08-22T09:37:08Z</time>
      </trkpt>
      <trkpt lat="45.87694" lon="4.71055">
        <ele>220</ele>
        <time>2017-08-22T09:37:10Z</time>
      </trkpt>
      <trkpt lat="45.87698" lon="4.71054">
        <ele>220</ele>
        <time>2017-08-22T09:37:11Z</time>
      </trkpt>
      <trkpt lat="45.87706" lon="4.71051">
        <ele>220</ele>
        <time>2017-08-22T09:37:13Z</time>
      </trkpt>
      <trkpt lat="45.8771" lon="4.7105">
        <ele>220</ele>
        <time>2017-08-22T09:37:14Z</time>
      </trkpt>
      <trkpt lat="45.87719" lon="4.71047">
        <ele>220</ele>
        <time>2017-08-22T09:37:16Z</time>
      </trkpt>
      <trkpt lat="45.87722" lon="4.71045">
        <ele>220</ele>
        <time>2017-08-22T09:37:17Z</time>
      </trkpt>
      <trkpt lat="45.87731" lon="4.71042">
        <ele>220</ele>
        <time>2017-08-22T09:37:19Z</time>
      </trkpt>
      <trkpt lat="45.87735" lon="4.71041">
        <ele>220</ele>
        <time>2017-08-22T09:37:20Z</time>
      </trkpt>
      <trkpt lat="45.87739" lon="4.71039">
        <ele>220</ele>
        <time>2017-08-22T09:37:21Z</time>
      </trkpt>
      <trkpt lat="45.87744" lon="4.71037">
        <ele>220</ele>
        <time>2017-08-22T09:37:22Z</time>
      </trkpt>
      <trkpt lat="45.87748" lon="4.71035">
        <ele>220</ele>
        <time>2017-08-22T09:37:23Z</time>
      </trkpt>
      <trkpt lat="45.87753" lon="4.71033">
        <ele>222</ele>
        <time>2017-08-22T09:37:24Z</time>
      </trkpt>
      <trkpt lat="45.87761" lon="4.71029">
        <ele>222</ele>
        <time>2017-08-22T09:37:26Z</time>
      </trkpt>
      <trkpt lat="45.87766" lon="4.71027">
        <ele>222</ele>
        <time>2017-08-22T09:37:27Z</time>
      </trkpt>
      <trkpt lat="45.87774" lon="4.71024">
        <ele>222</ele>
        <time>2017-08-22T09:37:29Z</time>
      </trkpt>
      <trkpt lat="45.87779" lon="4.71022">
        <ele>222</ele>
        <time>2017-08-22T09:37:30Z</time>
      </trkpt>
      <trkpt lat="45.87784" lon="4.71021">
        <ele>223</ele>
        <time>2017-08-22T09:37:31Z</time>
      </trkpt>
      <trkpt lat="45.87788" lon="4.71019">
        <ele>223</ele>
        <time>2017-08-22T09:37:32Z</time>
      </trkpt>
      <trkpt lat="45.87796" lon="4.71016">
        <ele>223</ele>
        <time>2017-08-22T09:37:34Z</time>
      </trkpt>
      <trkpt lat="45.878" lon="4.71014">
        <ele>223</ele>
        <time>2017-08-22T09:37:35Z</time>
      </trkpt>
      <trkpt lat="45.87804" lon="4.71013">
        <ele>223</ele>
        <time>2017-08-22T09:37:36Z</time>
      </trkpt>
      <trkpt lat="45.87809" lon="4.71011">
        <ele>223</ele>
        <time>2017-08-22T09:37:37Z</time>
      </trkpt>
      <trkpt lat="45.87817" lon="4.71007">
        <ele>223</ele>
        <time>2017-08-22T09:37:39Z</time>
      </trkpt>
      <trkpt lat="45.87822" lon="4.71005">
        <ele>224</ele>
        <time>2017-08-22T09:37:40Z</time>
      </trkpt>
      <trkpt lat="45.87827" lon="4.71003">
        <ele>224</ele>
        <time>2017-08-22T09:37:41Z</time>
      </trkpt>
      <trkpt lat="45.87831" lon="4.71001">
        <ele>224</ele>
        <time>2017-08-22T09:37:42Z</time>
      </trkpt>
      <trkpt lat="45.87835" lon="4.70999">
        <ele>224</ele>
        <time>2017-08-22T09:37:43Z</time>
      </trkpt>
      <trkpt lat="45.8784" lon="4.70996">
        <ele>224</ele>
        <time>2017-08-22T09:37:44Z</time>
      </trkpt>
      <trkpt lat="45.87844" lon="4.70993">
        <ele>224</ele>
        <time>2017-08-22T09:37:45Z</time>
      </trkpt>
      <trkpt lat="45.87848" lon="4.70991">
        <ele>224</ele>
        <time>2017-08-22T09:37:46Z</time>
      </trkpt>
      <trkpt lat="45.87856" lon="4.70986">
        <ele>224</ele>
        <time>2017-08-22T09:37:48Z</time>
      </trkpt>
      <trkpt lat="45.8786" lon="4.70983">
        <ele>224</ele>
        <time>2017-08-22T09:37:49Z</time>
      </trkpt>
      <trkpt lat="45.87868" lon="4.70978">
        <ele>225</ele>
        <time>2017-08-22T09:37:51Z</time>
      </trkpt>
      <trkpt lat="45.87872" lon="4.70975">
        <ele>225</ele>
        <time>2017-08-22T09:37:52Z</time>
      </trkpt>
      <trkpt lat="45.87876" lon="4.70972">
        <ele>225</ele>
        <time>2017-08-22T09:37:53Z</time>
      </trkpt>
      <trkpt lat="45.8788" lon="4.70968">
        <ele>225</ele>
        <time>2017-08-22T09:37:54Z</time>
      </trkpt>
      <trkpt lat="45.87889" lon="4.70965">
        <ele>225</ele>
        <time>2017-08-22T09:37:56Z</time>
      </trkpt>
      <trkpt lat="45.87892" lon="4.70963">
        <ele>225</ele>
        <time>2017-08-22T09:37:57Z</time>
      </trkpt>
      <trkpt lat="45.87899" lon="4.70958">
        <ele>225</ele>
        <time>2017-08-22T09:37:59Z</time>
      </trkpt>
      <trkpt lat="45.87902" lon="4.70956">
        <ele>225</ele>
        <time>2017-08-22T09:38:00Z</time>
      </trkpt>
      <trkpt lat="45.87911" lon="4.70951">
        <ele>225</ele>
        <time>2017-08-22T09:38:02Z</time>
      </trkpt>
      <trkpt lat="45.87914" lon="4.70948">
        <ele>225</ele>
        <time>2017-08-22T09:38:03Z</time>
      </trkpt>
      <trkpt lat="45.87922" lon="4.70943">
        <ele>225</ele>
        <time>2017-08-22T09:38:05Z</time>
      </trkpt>
      <trkpt lat="45.87926" lon="4.70941">
        <ele>225</ele>
        <time>2017-08-22T09:38:06Z</time>
      </trkpt>
      <trkpt lat="45.87931" lon="4.70938">
        <ele>225</ele>
        <time>2017-08-22T09:38:07Z</time>
      </trkpt>
      <trkpt lat="45.87935" lon="4.70935">
        <ele>225</ele>
        <time>2017-08-22T09:38:08Z</time>
      </trkpt>
      <trkpt lat="45.87943" lon="4.7093">
        <ele>225</ele>
        <time>2017-08-22T09:38:10Z</time>
      </trkpt>
      <trkpt lat="45.87947" lon="4.70927">
        <ele>225</ele>
        <time>2017-08-22T09:38:11Z</time>
      </trkpt>
      <trkpt lat="45.87951" lon="4.70924">
        <ele>225</ele>
        <time>2017-08-22T09:38:12Z</time>
      </trkpt>
      <trkpt lat="45.87955" lon="4.70921">
        <ele>225</ele>
        <time>2017-08-22T09:38:13Z</time>
      </trkpt>
      <trkpt lat="45.87959" lon="4.70919">
        <ele>225</ele>
        <time>2017-08-22T09:38:14Z</time>
      </trkpt>
      <trkpt lat="45.87963" lon="4.70916">
        <ele>225</ele>
        <time>2017-08-22T09:38:15Z</time>
      </trkpt>
      <trkpt lat="45.87971" lon="4.70911">
        <ele>225</ele>
        <time>2017-08-22T09:38:17Z</time>
      </trkpt>
      <trkpt lat="45.87975" lon="4.70909">
        <ele>225</ele>
        <time>2017-08-22T09:38:18Z</time>
      </trkpt>
      <trkpt lat="45.87983" lon="4.70903">
        <ele>225</ele>
        <time>2017-08-22T09:38:20Z</time>
      </trkpt>
      <trkpt lat="45.87987" lon="4.709">
        <ele>225</ele>
        <time>2017-08-22T09:38:21Z</time>
      </trkpt>
      <trkpt lat="45.87995" lon="4.70895">
        <ele>225</ele>
        <time>2017-08-22T09:38:23Z</time>
      </trkpt>
      <trkpt lat="45.88" lon="4.70892">
        <ele>225</ele>
        <time>2017-08-22T09:38:24Z</time>
      </trkpt>
      <trkpt lat="45.88004" lon="4.70889">
        <ele>226</ele>
        <time>2017-08-22T09:38:25Z</time>
      </trkpt>
      <trkpt lat="45.88009" lon="4.70887">
        <ele>226</ele>
        <time>2017-08-22T09:38:26Z</time>
      </trkpt>
      <trkpt lat="45.88016" lon="4.70883">
        <ele>226</ele>
        <time>2017-08-22T09:38:28Z</time>
      </trkpt>
      <trkpt lat="45.8802" lon="4.7088">
        <ele>226</ele>
        <time>2017-08-22T09:38:29Z</time>
      </trkpt>
      <trkpt lat="45.88028" lon="4.70875">
        <ele>226</ele>
        <time>2017-08-22T09:38:31Z</time>
      </trkpt>
      <trkpt lat="45.88033" lon="4.70872">
        <ele>226</ele>
        <time>2017-08-22T09:38:32Z</time>
      </trkpt>
      <trkpt lat="45.88037" lon="4.70868">
        <ele>226</ele>
        <time>2017-08-22T09:38:33Z</time>
      </trkpt>
      <trkpt lat="45.88042" lon="4.70865">
        <ele>227</ele>
        <time>2017-08-22T09:38:34Z</time>
      </trkpt>
      <trkpt lat="45.88046" lon="4.70862">
        <ele>227</ele>
        <time>2017-08-22T09:38:35Z</time>
      </trkpt>
      <trkpt lat="45.8805" lon="4.70859">
        <ele>227</ele>
        <time>2017-08-22T09:38:36Z</time>
      </trkpt>
      <trkpt lat="45.88054" lon="4.70857">
        <ele>227</ele>
        <time>2017-08-22T09:38:37Z</time>
      </trkpt>
      <trkpt lat="45.88058" lon="4.70854">
        <ele>227</ele>
        <time>2017-08-22T09:38:38Z</time>
      </trkpt>
      <trkpt lat="45.88066" lon="4.70849">
        <ele>227</ele>
        <time>2017-08-22T09:38:40Z</time>
      </trkpt>
      <trkpt lat="45.8807" lon="4.70846">
        <ele>228</ele>
        <time>2017-08-22T09:38:41Z</time>
      </trkpt>
      <trkpt lat="45.88078" lon="4.70843">
        <ele>228</ele>
        <time>2017-08-22T09:38:43Z</time>
      </trkpt>
      <trkpt lat="45.88082" lon="4.70843">
        <ele>228</ele>
        <time>2017-08-22T09:38:44Z</time>
      </trkpt>
      <trkpt lat="45.8809" lon="4.70846">
        <ele>229</ele>
        <time>2017-08-22T09:38:46Z</time>
      </trkpt>
      <trkpt lat="45.88093" lon="4.7085">
        <ele>229</ele>
        <time>2017-08-22T09:38:47Z</time>
      </trkpt>
      <trkpt lat="45.88101" lon="4.70854">
        <ele>229</ele>
        <time>2017-08-22T09:38:49Z</time>
      </trkpt>
      <trkpt lat="45.88105" lon="4.70853">
        <ele>229</ele>
        <time>2017-08-22T09:38:50Z</time>
      </trkpt>
      <trkpt lat="45.88112" lon="4.70847">
        <ele>229</ele>
        <time>2017-08-22T09:38:52Z</time>
      </trkpt>
      <trkpt lat="45.88114" lon="4.70843">
        <ele>229</ele>
        <time>2017-08-22T09:38:53Z</time>
      </trkpt>
      <trkpt lat="45.88117" lon="4.70834">
        <ele>229</ele>
        <time>2017-08-22T09:38:55Z</time>
      </trkpt>
      <trkpt lat="45.88119" lon="4.70829">
        <ele>230</ele>
        <time>2017-08-22T09:38:56Z</time>
      </trkpt>
      <trkpt lat="45.88123" lon="4.7082">
        <ele>230</ele>
        <time>2017-08-22T09:38:58Z</time>
      </trkpt>
      <trkpt lat="45.88126" lon="4.70817">
        <ele>230</ele>
        <time>2017-08-22T09:38:59Z</time>
      </trkpt>
      <trkpt lat="45.88133" lon="4.70809">
        <ele>231</ele>
        <time>2017-08-22T09:39:01Z</time>
      </trkpt>
      <trkpt lat="45.88137" lon="4.70806">
        <ele>231</ele>
        <time>2017-08-22T09:39:02Z</time>
      </trkpt>
      <trkpt lat="45.88144" lon="4.70799">
        <ele>231</ele>
        <time>2017-08-22T09:39:04Z</time>
      </trkpt>
      <trkpt lat="45.88147" lon="4.70795">
        <ele>231</ele>
        <time>2017-08-22T09:39:05Z</time>
      </trkpt>
      <trkpt lat="45.88154" lon="4.70788">
        <ele>231</ele>
        <time>2017-08-22T09:39:07Z</time>
      </trkpt>
      <trkpt lat="45.88158" lon="4.70785">
        <ele>231</ele>
        <time>2017-08-22T09:39:08Z</time>
      </trkpt>
      <trkpt lat="45.88163" lon="4.70782">
        <ele>231</ele>
        <time>2017-08-22T09:39:09Z</time>
      </trkpt>
      <trkpt lat="45.88167" lon="4.7078">
        <ele>232</ele>
        <time>2017-08-22T09:39:10Z</time>
      </trkpt>
      <trkpt lat="45.88175" lon="4.70775">
        <ele>232</ele>
        <time>2017-08-22T09:39:12Z</time>
      </trkpt>
      <trkpt lat="45.88179" lon="4.70773">
        <ele>232</ele>
        <time>2017-08-22T09:39:13Z</time>
      </trkpt>
      <trkpt lat="45.88186" lon="4.70768">
        <ele>232</ele>
        <time>2017-08-22T09:39:15Z</time>
      </trkpt>
      <trkpt lat="45.88189" lon="4.70766">
        <ele>232</ele>
        <time>2017-08-22T09:39:16Z</time>
      </trkpt>
      <trkpt lat="45.88195" lon="4.70762">
        <ele>232</ele>
        <time>2017-08-22T09:39:18Z</time>
      </trkpt>
      <trkpt lat="45.88199" lon="4.70759">
        <ele>232</ele>
        <time>2017-08-22T09:39:19Z</time>
      </trkpt>
      <trkpt lat="45.88207" lon="4.70754">
        <ele>232</ele>
        <time>2017-08-22T09:39:21Z</time>
      </trkpt>
      <trkpt lat="45.88211" lon="4.70751">
        <ele>232</ele>
        <time>2017-08-22T09:39:22Z</time>
      </trkpt>
      <trkpt lat="45.88218" lon="4.70746">
        <ele>235</ele>
        <time>2017-08-22T09:39:24Z</time>
      </trkpt>
      <trkpt lat="45.88222" lon="4.70744">
        <ele>235</ele>
        <time>2017-08-22T09:39:25Z</time>
      </trkpt>
      <trkpt lat="45.8823" lon="4.70739">
        <ele>235</ele>
        <time>2017-08-22T09:39:27Z</time>
      </trkpt>
      <trkpt lat="45.88233" lon="4.70737">
        <ele>235</ele>
        <time>2017-08-22T09:39:28Z</time>
      </trkpt>
      <trkpt lat="45.8824" lon="4.7073">
        <ele>235</ele>
        <time>2017-08-22T09:39:30Z</time>
      </trkpt>
      <trkpt lat="45.88244" lon="4.70728">
        <ele>235</ele>
        <time>2017-08-22T09:39:31Z</time>
      </trkpt>
      <trkpt lat="45.88251" lon="4.70722">
        <ele>234</ele>
        <time>2017-08-22T09:39:33Z</time>
      </trkpt>
      <trkpt lat="45.88255" lon="4.70719">
        <ele>234</ele>
        <time>2017-08-22T09:39:34Z</time>
      </trkpt>
      <trkpt lat="45.8826" lon="4.70716">
        <ele>234</ele>
        <time>2017-08-22T09:39:35Z</time>
      </trkpt>
      <trkpt lat="45.88264" lon="4.70712">
        <ele>234</ele>
        <time>2017-08-22T09:39:36Z</time>
      </trkpt>
      <trkpt lat="45.88268" lon="4.70708">
        <ele>235</ele>
        <time>2017-08-22T09:39:37Z</time>
      </trkpt>
      <trkpt lat="45.88272" lon="4.70705">
        <ele>235</ele>
        <time>2017-08-22T09:39:38Z</time>
      </trkpt>
      <trkpt lat="45.8828" lon="4.70699">
        <ele>235</ele>
        <time>2017-08-22T09:39:40Z</time>
      </trkpt>
      <trkpt lat="45.88284" lon="4.70696">
        <ele>235</ele>
        <time>2017-08-22T09:39:41Z</time>
      </trkpt>
      <trkpt lat="45.88291" lon="4.7069">
        <ele>235</ele>
        <time>2017-08-22T09:39:43Z</time>
      </trkpt>
      <trkpt lat="45.88295" lon="4.70687">
        <ele>235</ele>
        <time>2017-08-22T09:39:44Z</time>
      </trkpt>
      <trkpt lat="45.88302" lon="4.7068">
        <ele>235</ele>
        <time>2017-08-22T09:39:46Z</time>
      </trkpt>
      <trkpt lat="45.88306" lon="4.70677">
        <ele>235</ele>
        <time>2017-08-22T09:39:47Z</time>
      </trkpt>
      <trkpt lat="45.8831" lon="4.70674">
        <ele>235</ele>
        <time>2017-08-22T09:39:48Z</time>
      </trkpt>
      <trkpt lat="45.88314" lon="4.7067">
        <ele>235</ele>
        <time>2017-08-22T09:39:49Z</time>
      </trkpt>
      <trkpt lat="45.88319" lon="4.70666">
        <ele>237</ele>
        <time>2017-08-22T09:39:50Z</time>
      </trkpt>
      <trkpt lat="45.88323" lon="4.70664">
        <ele>237</ele>
        <time>2017-08-22T09:39:51Z</time>
      </trkpt>
      <trkpt lat="45.8833" lon="4.70658">
        <ele>236</ele>
        <time>2017-08-22T09:39:53Z</time>
      </trkpt>
      <trkpt lat="45.88334" lon="4.70656">
        <ele>235</ele>
        <time>2017-08-22T09:39:54Z</time>
      </trkpt>
      <trkpt lat="45.88341" lon="4.7065">
        <ele>235</ele>
        <time>2017-08-22T09:39:56Z</time>
      </trkpt>
      <trkpt lat="45.88344" lon="4.70647">
        <ele>235</ele>
        <time>2017-08-22T09:39:57Z</time>
      </trkpt>
      <trkpt lat="45.88347" lon="4.70644">
        <ele>235</ele>
        <time>2017-08-22T09:39:58Z</time>
      </trkpt>
      <trkpt lat="45.88351" lon="4.7064">
        <ele>235</ele>
        <time>2017-08-22T09:39:59Z</time>
      </trkpt>
      <trkpt lat="45.88356" lon="4.70636">
        <ele>235</ele>
        <time>2017-08-22T09:40:00Z</time>
      </trkpt>
      <trkpt lat="45.8836" lon="4.70632">
        <ele>235</ele>
        <time>2017-08-22T09:40:01Z</time>
      </trkpt>
      <trkpt lat="45.88365" lon="4.70628">
        <ele>235</ele>
        <time>2017-08-22T09:40:02Z</time>
      </trkpt>
      <trkpt lat="45.88369" lon="4.70623">
        <ele>235</ele>
        <time>2017-08-22T09:40:03Z</time>
      </trkpt>
      <trkpt lat="45.88374" lon="4.70619">
        <ele>235</ele>
        <time>2017-08-22T09:40:04Z</time>
      </trkpt>
      <trkpt lat="45.88379" lon="4.70615">
        <ele>235</ele>
        <time>2017-08-22T09:40:05Z</time>
      </trkpt>
      <trkpt lat="45.88385" lon="4.70611">
        <ele>235</ele>
        <time>2017-08-22T09:40:06Z</time>
      </trkpt>
      <trkpt lat="45.8839" lon="4.70608">
        <ele>235</ele>
        <time>2017-08-22T09:40:07Z</time>
      </trkpt>
      <trkpt lat="45.88396" lon="4.70604">
        <ele>235</ele>
        <time>2017-08-22T09:40:08Z</time>
      </trkpt>
      <trkpt lat="45.88402" lon="4.70601">
        <ele>235</ele>
        <time>2017-08-22T09:40:09Z</time>
      </trkpt>
      <trkpt lat="45.88407" lon="4.70597">
        <ele>235</ele>
        <time>2017-08-22T09:40:10Z</time>
      </trkpt>
      <trkpt lat="45.88413" lon="4.70592">
        <ele>235</ele>
        <time>2017-08-22T09:40:11Z</time>
      </trkpt>
      <trkpt lat="45.88419" lon="4.70588">
        <ele>234</ele>
        <time>2017-08-22T09:40:12Z</time>
      </trkpt>
      <trkpt lat="45.88424" lon="4.70584">
        <ele>233</ele>
        <time>2017-08-22T09:40:13Z</time>
      </trkpt>
      <trkpt lat="45.88429" lon="4.70579">
        <ele>235</ele>
        <time>2017-08-22T09:40:14Z</time>
      </trkpt>
      <trkpt lat="45.88434" lon="4.70575">
        <ele>235</ele>
        <time>2017-08-22T09:40:15Z</time>
      </trkpt>
      <trkpt lat="45.88438" lon="4.70571">
        <ele>234</ele>
        <time>2017-08-22T09:40:16Z</time>
      </trkpt>
      <trkpt lat="45.88442" lon="4.70567">
        <ele>234</ele>
        <time>2017-08-22T09:40:17Z</time>
      </trkpt>
      <trkpt lat="45.88447" lon="4.70563">
        <ele>234</ele>
        <time>2017-08-22T09:40:18Z</time>
      </trkpt>
      <trkpt lat="45.88453" lon="4.7056">
        <ele>234</ele>
        <time>2017-08-22T09:40:19Z</time>
      </trkpt>
      <trkpt lat="45.88459" lon="4.70556">
        <ele>234</ele>
        <time>2017-08-22T09:40:20Z</time>
      </trkpt>
      <trkpt lat="45.88463" lon="4.70552">
        <ele>234</ele>
        <time>2017-08-22T09:40:21Z</time>
      </trkpt>
      <trkpt lat="45.88468" lon="4.70548">
        <ele>234</ele>
        <time>2017-08-22T09:40:22Z</time>
      </trkpt>
      <trkpt lat="45.88473" lon="4.70545">
        <ele>234</ele>
        <time>2017-08-22T09:40:23Z</time>
      </trkpt>
      <trkpt lat="45.88478" lon="4.70541">
        <ele>234</ele>
        <time>2017-08-22T09:40:24Z</time>
      </trkpt>
      <trkpt lat="45.88482" lon="4.70537">
        <ele>234</ele>
        <time>2017-08-22T09:40:25Z</time>
      </trkpt>
      <trkpt lat="45.88488" lon="4.70533">
        <ele>233</ele>
        <time>2017-08-22T09:40:26Z</time>
      </trkpt>
      <trkpt lat="45.88493" lon="4.70529">
        <ele>233</ele>
        <time>2017-08-22T09:40:27Z</time>
      </trkpt>
      <trkpt lat="45.885" lon="4.70525">
        <ele>233</ele>
        <time>2017-08-22T09:40:28Z</time>
      </trkpt>
      <trkpt lat="45.88505" lon="4.70521">
        <ele>230</ele>
        <time>2017-08-22T09:40:29Z</time>
      </trkpt>
      <trkpt lat="45.88511" lon="4.70517">
        <ele>230</ele>
        <time>2017-08-22T09:40:30Z</time>
      </trkpt>
      <trkpt lat="45.88516" lon="4.70513">
        <ele>230</ele>
        <time>2017-08-22T09:40:31Z</time>
      </trkpt>
      <trkpt lat="45.8852" lon="4.70508">
        <ele>230</ele>
        <time>2017-08-22T09:40:32Z</time>
      </trkpt>
      <trkpt lat="45.88525" lon="4.70504">
        <ele>230</ele>
        <time>2017-08-22T09:40:33Z</time>
      </trkpt>
      <trkpt lat="45.8853" lon="4.705">
        <ele>231</ele>
        <time>2017-08-22T09:40:34Z</time>
      </trkpt>
      <trkpt lat="45.88534" lon="4.70496">
        <ele>232</ele>
        <time>2017-08-22T09:40:35Z</time>
      </trkpt>
      <trkpt lat="45.88539" lon="4.70492">
        <ele>232</ele>
        <time>2017-08-22T09:40:36Z</time>
      </trkpt>
      <trkpt lat="45.88543" lon="4.70489">
        <ele>232</ele>
        <time>2017-08-22T09:40:37Z</time>
      </trkpt>
      <trkpt lat="45.88547" lon="4.70485">
        <ele>232</ele>
        <time>2017-08-22T09:40:38Z</time>
      </trkpt>
      <trkpt lat="45.88551" lon="4.70482">
        <ele>231</ele>
        <time>2017-08-22T09:40:39Z</time>
      </trkpt>
      <trkpt lat="45.88556" lon="4.70478">
        <ele>231</ele>
        <time>2017-08-22T09:40:40Z</time>
      </trkpt>
      <trkpt lat="45.88561" lon="4.70474">
        <ele>231</ele>
        <time>2017-08-22T09:40:41Z</time>
      </trkpt>
      <trkpt lat="45.88566" lon="4.7047">
        <ele>231</ele>
        <time>2017-08-22T09:40:42Z</time>
      </trkpt>
      <trkpt lat="45.8857" lon="4.70466">
        <ele>231</ele>
        <time>2017-08-22T09:40:43Z</time>
      </trkpt>
      <trkpt lat="45.88576" lon="4.70462">
        <ele>231</ele>
        <time>2017-08-22T09:40:44Z</time>
      </trkpt>
      <trkpt lat="45.88581" lon="4.70457">
        <ele>231</ele>
        <time>2017-08-22T09:40:45Z</time>
      </trkpt>
      <trkpt lat="45.88587" lon="4.70453">
        <ele>228</ele>
        <time>2017-08-22T09:40:46Z</time>
      </trkpt>
      <trkpt lat="45.88592" lon="4.70449">
        <ele>228</ele>
        <time>2017-08-22T09:40:47Z</time>
      </trkpt>
      <trkpt lat="45.88598" lon="4.70444">
        <ele>228</ele>
        <time>2017-08-22T09:40:48Z</time>
      </trkpt>
      <trkpt lat="45.88603" lon="4.7044">
        <ele>228</ele>
        <time>2017-08-22T09:40:49Z</time>
      </trkpt>
      <trkpt lat="45.88608" lon="4.70436">
        <ele>228</ele>
        <time>2017-08-22T09:40:50Z</time>
      </trkpt>
      <trkpt lat="45.88613" lon="4.70433">
        <ele>228</ele>
        <time>2017-08-22T09:40:51Z</time>
      </trkpt>
      <trkpt lat="45.88617" lon="4.70429">
        <ele>228</ele>
        <time>2017-08-22T09:40:52Z</time>
      </trkpt>
      <trkpt lat="45.88622" lon="4.70425">
        <ele>228</ele>
        <time>2017-08-22T09:40:53Z</time>
      </trkpt>
      <trkpt lat="45.88627" lon="4.70421">
        <ele>228</ele>
        <time>2017-08-22T09:40:54Z</time>
      </trkpt>
      <trkpt lat="45.88631" lon="4.70418">
        <ele>227</ele>
        <time>2017-08-22T09:40:55Z</time>
      </trkpt>
      <trkpt lat="45.88636" lon="4.70414">
        <ele>230</ele>
        <time>2017-08-22T09:40:56Z</time>
      </trkpt>
      <trkpt lat="45.8864" lon="4.70411">
        <ele>230</ele>
        <time>2017-08-22T09:40:57Z</time>
      </trkpt>
      <trkpt lat="45.88644" lon="4.70408">
        <ele>230</ele>
        <time>2017-08-22T09:40:58Z</time>
      </trkpt>
      <trkpt lat="45.88649" lon="4.70403">
        <ele>229</ele>
        <time>2017-08-22T09:40:59Z</time>
      </trkpt>
      <trkpt lat="45.88654" lon="4.70399">
        <ele>229</ele>
        <time>2017-08-22T09:41:00Z</time>
      </trkpt>
      <trkpt lat="45.88659" lon="4.70394">
        <ele>230</ele>
        <time>2017-08-22T09:41:01Z</time>
      </trkpt>
      <trkpt lat="45.88664" lon="4.70389">
        <ele>230</ele>
        <time>2017-08-22T09:41:02Z</time>
      </trkpt>
      <trkpt lat="45.88669" lon="4.70385">
        <ele>228</ele>
        <time>2017-08-22T09:41:03Z</time>
      </trkpt>
      <trkpt lat="45.88674" lon="4.70382">
        <ele>228</ele>
        <time>2017-08-22T09:41:04Z</time>
      </trkpt>
      <trkpt lat="45.88679" lon="4.70378">
        <ele>228</ele>
        <time>2017-08-22T09:41:05Z</time>
      </trkpt>
      <trkpt lat="45.88683" lon="4.70375">
        <ele>228</ele>
        <time>2017-08-22T09:41:06Z</time>
      </trkpt>
      <trkpt lat="45.88688" lon="4.70371">
        <ele>229</ele>
        <time>2017-08-22T09:41:07Z</time>
      </trkpt>
      <trkpt lat="45.88692" lon="4.70367">
        <ele>229</ele>
        <time>2017-08-22T09:41:08Z</time>
      </trkpt>
      <trkpt lat="45.88697" lon="4.70364">
        <ele>229</ele>
        <time>2017-08-22T09:41:09Z</time>
      </trkpt>
      <trkpt lat="45.887" lon="4.7036">
        <ele>229</ele>
        <time>2017-08-22T09:41:10Z</time>
      </trkpt>
      <trkpt lat="45.88705" lon="4.70357">
        <ele>229</ele>
        <time>2017-08-22T09:41:11Z</time>
      </trkpt>
      <trkpt lat="45.88709" lon="4.70354">
        <ele>229</ele>
        <time>2017-08-22T09:41:12Z</time>
      </trkpt>
      <trkpt lat="45.88713" lon="4.70351">
        <ele>229</ele>
        <time>2017-08-22T09:41:13Z</time>
      </trkpt>
      <trkpt lat="45.8872" lon="4.70345">
        <ele>229</ele>
        <time>2017-08-22T09:41:15Z</time>
      </trkpt>
      <trkpt lat="45.88723" lon="4.70342">
        <ele>229</ele>
        <time>2017-08-22T09:41:16Z</time>
      </trkpt>
      <trkpt lat="45.88728" lon="4.70338">
        <ele>229</ele>
        <time>2017-08-22T09:41:17Z</time>
      </trkpt>
      <trkpt lat="45.88732" lon="4.70335">
        <ele>229</ele>
        <time>2017-08-22T09:41:18Z</time>
      </trkpt>
      <trkpt lat="45.88737" lon="4.70331">
        <ele>232</ele>
        <time>2017-08-22T09:41:19Z</time>
      </trkpt>
      <trkpt lat="45.88742" lon="4.70328">
        <ele>231</ele>
        <time>2017-08-22T09:41:20Z</time>
      </trkpt>
      <trkpt lat="45.88747" lon="4.70324">
        <ele>231</ele>
        <time>2017-08-22T09:41:21Z</time>
      </trkpt>
      <trkpt lat="45.88752" lon="4.7032">
        <ele>231</ele>
        <time>2017-08-22T09:41:22Z</time>
      </trkpt>
      <trkpt lat="45.88757" lon="4.70316">
        <ele>232</ele>
        <time>2017-08-22T09:41:23Z</time>
      </trkpt>
      <trkpt lat="45.88762" lon="4.70312">
        <ele>232</ele>
        <time>2017-08-22T09:41:24Z</time>
      </trkpt>
      <trkpt lat="45.88768" lon="4.70308">
        <ele>233</ele>
        <time>2017-08-22T09:41:25Z</time>
      </trkpt>
      <trkpt lat="45.88772" lon="4.70304">
        <ele>233</ele>
        <time>2017-08-22T09:41:26Z</time>
      </trkpt>
      <trkpt lat="45.88777" lon="4.70301">
        <ele>233</ele>
        <time>2017-08-22T09:41:27Z</time>
      </trkpt>
      <trkpt lat="45.88781" lon="4.70297">
        <ele>233</ele>
        <time>2017-08-22T09:41:28Z</time>
      </trkpt>
      <trkpt lat="45.88785" lon="4.70294">
        <ele>233</ele>
        <time>2017-08-22T09:41:29Z</time>
      </trkpt>
      <trkpt lat="45.8879" lon="4.70291">
        <ele>234</ele>
        <time>2017-08-22T09:41:30Z</time>
      </trkpt>
      <trkpt lat="45.88794" lon="4.70288">
        <ele>234</ele>
        <time>2017-08-22T09:41:31Z</time>
      </trkpt>
      <trkpt lat="45.88798" lon="4.70285">
        <ele>234</ele>
        <time>2017-08-22T09:41:32Z</time>
      </trkpt>
      <trkpt lat="45.88803" lon="4.70282">
        <ele>234</ele>
        <time>2017-08-22T09:41:33Z</time>
      </trkpt>
      <trkpt lat="45.88807" lon="4.70279">
        <ele>234</ele>
        <time>2017-08-22T09:41:34Z</time>
      </trkpt>
      <trkpt lat="45.88812" lon="4.70275">
        <ele>234</ele>
        <time>2017-08-22T09:41:35Z</time>
      </trkpt>
      <trkpt lat="45.88817" lon="4.70272">
        <ele>235</ele>
        <time>2017-08-22T09:41:36Z</time>
      </trkpt>
      <trkpt lat="45.88822" lon="4.70268">
        <ele>235</ele>
        <time>2017-08-22T09:41:37Z</time>
      </trkpt>
      <trkpt lat="45.88826" lon="4.70264">
        <ele>235</ele>
        <time>2017-08-22T09:41:38Z</time>
      </trkpt>
      <trkpt lat="45.88831" lon="4.7026">
        <ele>236</ele>
        <time>2017-08-22T09:41:39Z</time>
      </trkpt>
      <trkpt lat="45.88836" lon="4.70256">
        <ele>235</ele>
        <time>2017-08-22T09:41:40Z</time>
      </trkpt>
      <trkpt lat="45.8884" lon="4.70253">
        <ele>235</ele>
        <time>2017-08-22T09:41:41Z</time>
      </trkpt>
      <trkpt lat="45.88845" lon="4.70251">
        <ele>235</ele>
        <time>2017-08-22T09:41:42Z</time>
      </trkpt>
      <trkpt lat="45.88852" lon="4.70246">
        <ele>238</ele>
        <time>2017-08-22T09:41:44Z</time>
      </trkpt>
      <trkpt lat="45.88856" lon="4.70243">
        <ele>238</ele>
        <time>2017-08-22T09:41:45Z</time>
      </trkpt>
      <trkpt lat="45.8886" lon="4.7024">
        <ele>238</ele>
        <time>2017-08-22T09:41:46Z</time>
      </trkpt>
      <trkpt lat="45.88865" lon="4.70238">
        <ele>238</ele>
        <time>2017-08-22T09:41:47Z</time>
      </trkpt>
      <trkpt lat="45.88871" lon="4.70234">
        <ele>238</ele>
        <time>2017-08-22T09:41:48Z</time>
      </trkpt>
      <trkpt lat="45.88876" lon="4.70231">
        <ele>238</ele>
        <time>2017-08-22T09:41:49Z</time>
      </trkpt>
      <trkpt lat="45.88881" lon="4.70228">
        <ele>238</ele>
        <time>2017-08-22T09:41:50Z</time>
      </trkpt>
      <trkpt lat="45.88887" lon="4.70225">
        <ele>238</ele>
        <time>2017-08-22T09:41:51Z</time>
      </trkpt>
      <trkpt lat="45.88892" lon="4.70222">
        <ele>238</ele>
        <time>2017-08-22T09:41:52Z</time>
      </trkpt>
      <trkpt lat="45.88898" lon="4.7022">
        <ele>238</ele>
        <time>2017-08-22T09:41:53Z</time>
      </trkpt>
      <trkpt lat="45.88903" lon="4.70218">
        <ele>238</ele>
        <time>2017-08-22T09:41:54Z</time>
      </trkpt>
      <trkpt lat="45.88908" lon="4.70215">
        <ele>238</ele>
        <time>2017-08-22T09:41:55Z</time>
      </trkpt>
      <trkpt lat="45.88914" lon="4.70211">
        <ele>238</ele>
        <time>2017-08-22T09:41:56Z</time>
      </trkpt>
      <trkpt lat="45.88919" lon="4.70208">
        <ele>234</ele>
        <time>2017-08-22T09:41:57Z</time>
      </trkpt>
      <trkpt lat="45.88924" lon="4.70205">
        <ele>235</ele>
        <time>2017-08-22T09:41:58Z</time>
      </trkpt>
      <trkpt lat="45.88929" lon="4.70202">
        <ele>235</ele>
        <time>2017-08-22T09:41:59Z</time>
      </trkpt>
      <trkpt lat="45.88935" lon="4.702">
        <ele>235</ele>
        <time>2017-08-22T09:42:00Z</time>
      </trkpt>
      <trkpt lat="45.88941" lon="4.70197">
        <ele>234</ele>
        <time>2017-08-22T09:42:01Z</time>
      </trkpt>
      <trkpt lat="45.88946" lon="4.70193">
        <ele>234</ele>
        <time>2017-08-22T09:42:02Z</time>
      </trkpt>
      <trkpt lat="45.88952" lon="4.7019">
        <ele>234</ele>
        <time>2017-08-22T09:42:03Z</time>
      </trkpt>
      <trkpt lat="45.88958" lon="4.70187">
        <ele>234</ele>
        <time>2017-08-22T09:42:04Z</time>
      </trkpt>
      <trkpt lat="45.88964" lon="4.70184">
        <ele>234</ele>
        <time>2017-08-22T09:42:05Z</time>
      </trkpt>
      <trkpt lat="45.88969" lon="4.70181">
        <ele>233</ele>
        <time>2017-08-22T09:42:06Z</time>
      </trkpt>
      <trkpt lat="45.88974" lon="4.70177">
        <ele>233</ele>
        <time>2017-08-22T09:42:07Z</time>
      </trkpt>
      <trkpt lat="45.88979" lon="4.70173">
        <ele>233</ele>
        <time>2017-08-22T09:42:08Z</time>
      </trkpt>
      <trkpt lat="45.88984" lon="4.70169">
        <ele>233</ele>
        <time>2017-08-22T09:42:09Z</time>
      </trkpt>
      <trkpt lat="45.88989" lon="4.70166">
        <ele>234</ele>
        <time>2017-08-22T09:42:10Z</time>
      </trkpt>
      <trkpt lat="45.88994" lon="4.70163">
        <ele>234</ele>
        <time>2017-08-22T09:42:11Z</time>
      </trkpt>
      <trkpt lat="45.88999" lon="4.7016">
        <ele>233</ele>
        <time>2017-08-22T09:42:12Z</time>
      </trkpt>
      <trkpt lat="45.89004" lon="4.70158">
        <ele>232</ele>
        <time>2017-08-22T09:42:13Z</time>
      </trkpt>
      <trkpt lat="45.89009" lon="4.70155">
        <ele>232</ele>
        <time>2017-08-22T09:42:14Z</time>
      </trkpt>
      <trkpt lat="45.89014" lon="4.70152">
        <ele>231</ele>
        <time>2017-08-22T09:42:15Z</time>
      </trkpt>
      <trkpt lat="45.89018" lon="4.70149">
        <ele>231</ele>
        <time>2017-08-22T09:42:16Z</time>
      </trkpt>
      <trkpt lat="45.89022" lon="4.70146">
        <ele>231</ele>
        <time>2017-08-22T09:42:17Z</time>
      </trkpt>
      <trkpt lat="45.89027" lon="4.70143">
        <ele>231</ele>
        <time>2017-08-22T09:42:18Z</time>
      </trkpt>
      <trkpt lat="45.89033" lon="4.7014">
        <ele>231</ele>
        <time>2017-08-22T09:42:19Z</time>
      </trkpt>
      <trkpt lat="45.89038" lon="4.70137">
        <ele>231</ele>
        <time>2017-08-22T09:42:20Z</time>
      </trkpt>
      <trkpt lat="45.89044" lon="4.70133">
        <ele>231</ele>
        <time>2017-08-22T09:42:21Z</time>
      </trkpt>
      <trkpt lat="45.89049" lon="4.70129">
        <ele>231</ele>
        <time>2017-08-22T09:42:22Z</time>
      </trkpt>
      <trkpt lat="45.89054" lon="4.70126">
        <ele>230</ele>
        <time>2017-08-22T09:42:23Z</time>
      </trkpt>
      <trkpt lat="45.8906" lon="4.70122">
        <ele>230</ele>
        <time>2017-08-22T09:42:24Z</time>
      </trkpt>
      <trkpt lat="45.89066" lon="4.70119">
        <ele>230</ele>
        <time>2017-08-22T09:42:25Z</time>
      </trkpt>
      <trkpt lat="45.89072" lon="4.70115">
        <ele>230</ele>
        <time>2017-08-22T09:42:26Z</time>
      </trkpt>
      <trkpt lat="45.89078" lon="4.70112">
        <ele>230</ele>
        <time>2017-08-22T09:42:27Z</time>
      </trkpt>
      <trkpt lat="45.89084" lon="4.70108">
        <ele>228</ele>
        <time>2017-08-22T09:42:28Z</time>
      </trkpt>
      <trkpt lat="45.8909" lon="4.70104">
        <ele>228</ele>
        <time>2017-08-22T09:42:29Z</time>
      </trkpt>
      <trkpt lat="45.89096" lon="4.701">
        <ele>228</ele>
        <time>2017-08-22T09:42:30Z</time>
      </trkpt>
      <trkpt lat="45.89103" lon="4.70097">
        <ele>228</ele>
        <time>2017-08-22T09:42:31Z</time>
      </trkpt>
      <trkpt lat="45.89109" lon="4.70092">
        <ele>228</ele>
        <time>2017-08-22T09:42:32Z</time>
      </trkpt>
      <trkpt lat="45.89115" lon="4.70088">
        <ele>228</ele>
        <time>2017-08-22T09:42:33Z</time>
      </trkpt>
      <trkpt lat="45.89121" lon="4.70085">
        <ele>228</ele>
        <time>2017-08-22T09:42:34Z</time>
      </trkpt>
      <trkpt lat="45.89128" lon="4.70082">
        <ele>231</ele>
        <time>2017-08-22T09:42:35Z</time>
      </trkpt>
      <trkpt lat="45.89134" lon="4.70079">
        <ele>231</ele>
        <time>2017-08-22T09:42:36Z</time>
      </trkpt>
      <trkpt lat="45.89139" lon="4.70076">
        <ele>231</ele>
        <time>2017-08-22T09:42:37Z</time>
      </trkpt>
      <trkpt lat="45.89145" lon="4.70073">
        <ele>230</ele>
        <time>2017-08-22T09:42:38Z</time>
      </trkpt>
      <trkpt lat="45.8915" lon="4.7007">
        <ele>230</ele>
        <time>2017-08-22T09:42:39Z</time>
      </trkpt>
      <trkpt lat="45.89156" lon="4.70067">
        <ele>230</ele>
        <time>2017-08-22T09:42:40Z</time>
      </trkpt>
      <trkpt lat="45.89162" lon="4.70064">
        <ele>230</ele>
        <time>2017-08-22T09:42:41Z</time>
      </trkpt>
      <trkpt lat="45.89168" lon="4.70061">
        <ele>229</ele>
        <time>2017-08-22T09:42:42Z</time>
      </trkpt>
      <trkpt lat="45.89173" lon="4.70058">
        <ele>229</ele>
        <time>2017-08-22T09:42:43Z</time>
      </trkpt>
      <trkpt lat="45.89179" lon="4.70056">
        <ele>229</ele>
        <time>2017-08-22T09:42:44Z</time>
      </trkpt>
      <trkpt lat="45.89185" lon="4.70054">
        <ele>229</ele>
        <time>2017-08-22T09:42:45Z</time>
      </trkpt>
      <trkpt lat="45.89191" lon="4.70051">
        <ele>229</ele>
        <time>2017-08-22T09:42:46Z</time>
      </trkpt>
      <trkpt lat="45.89196" lon="4.70049">
        <ele>229</ele>
        <time>2017-08-22T09:42:47Z</time>
      </trkpt>
      <trkpt lat="45.89201" lon="4.70047">
        <ele>229</ele>
        <time>2017-08-22T09:42:48Z</time>
      </trkpt>
      <trkpt lat="45.89207" lon="4.70044">
        <ele>228</ele>
        <time>2017-08-22T09:42:49Z</time>
      </trkpt>
      <trkpt lat="45.89212" lon="4.70042">
        <ele>228</ele>
        <time>2017-08-22T09:42:50Z</time>
      </trkpt>
      <trkpt lat="45.89217" lon="4.7004">
        <ele>228</ele>
        <time>2017-08-22T09:42:51Z</time>
      </trkpt>
      <trkpt lat="45.89223" lon="4.70038">
        <ele>228</ele>
        <time>2017-08-22T09:42:52Z</time>
      </trkpt>
      <trkpt lat="45.89228" lon="4.70035">
        <ele>228</ele>
        <time>2017-08-22T09:42:53Z</time>
      </trkpt>
      <trkpt lat="45.89233" lon="4.70033">
        <ele>228</ele>
        <time>2017-08-22T09:42:54Z</time>
      </trkpt>
      <trkpt lat="45.89239" lon="4.70031">
        <ele>228</ele>
        <time>2017-08-22T09:42:55Z</time>
      </trkpt>
      <trkpt lat="45.89244" lon="4.70029">
        <ele>228</ele>
        <time>2017-08-22T09:42:56Z</time>
      </trkpt>
      <trkpt lat="45.89249" lon="4.70027">
        <ele>228</ele>
        <time>2017-08-22T09:42:57Z</time>
      </trkpt>
      <trkpt lat="45.89256" lon="4.70024">
        <ele>227</ele>
        <time>2017-08-22T09:42:58Z</time>
      </trkpt>
      <trkpt lat="45.89262" lon="4.70022">
        <ele>227</ele>
        <time>2017-08-22T09:42:59Z</time>
      </trkpt>
      <trkpt lat="45.89268" lon="4.7002">
        <ele>226</ele>
        <time>2017-08-22T09:43:00Z</time>
      </trkpt>
      <trkpt lat="45.89275" lon="4.70017">
        <ele>226</ele>
        <time>2017-08-22T09:43:01Z</time>
      </trkpt>
      <trkpt lat="45.89281" lon="4.70014">
        <ele>226</ele>
        <time>2017-08-22T09:43:02Z</time>
      </trkpt>
      <trkpt lat="45.89288" lon="4.70012">
        <ele>226</ele>
        <time>2017-08-22T09:43:03Z</time>
      </trkpt>
      <trkpt lat="45.89295" lon="4.70009">
        <ele>226</ele>
        <time>2017-08-22T09:43:04Z</time>
      </trkpt>
      <trkpt lat="45.89301" lon="4.70007">
        <ele>226</ele>
        <time>2017-08-22T09:43:05Z</time>
      </trkpt>
      <trkpt lat="45.89307" lon="4.70005">
        <ele>226</ele>
        <time>2017-08-22T09:43:06Z</time>
      </trkpt>
      <trkpt lat="45.89313" lon="4.70003">
        <ele>226</ele>
        <time>2017-08-22T09:43:07Z</time>
      </trkpt>
      <trkpt lat="45.89319" lon="4.70001">
        <ele>226</ele>
        <time>2017-08-22T09:43:08Z</time>
      </trkpt>
      <trkpt lat="45.89326" lon="4.69999">
        <ele>227</ele>
        <time>2017-08-22T09:43:09Z</time>
      </trkpt>
      <trkpt lat="45.89332" lon="4.69998">
        <ele>226</ele>
        <time>2017-08-22T09:43:10Z</time>
      </trkpt>
      <trkpt lat="45.89338" lon="4.69997">
        <ele>226</ele>
        <time>2017-08-22T09:43:11Z</time>
      </trkpt>
      <trkpt lat="45.89345" lon="4.69997">
        <ele>227</ele>
        <time>2017-08-22T09:43:12Z</time>
      </trkpt>
      <trkpt lat="45.89351" lon="4.69998">
        <ele>227</ele>
        <time>2017-08-22T09:43:13Z</time>
      </trkpt>
      <trkpt lat="45.89357" lon="4.69998">
        <ele>227</ele>
        <time>2017-08-22T09:43:14Z</time>
      </trkpt>
      <trkpt lat="45.89363" lon="4.69999">
        <ele>227</ele>
        <time>2017-08-22T09:43:15Z</time>
      </trkpt>
      <trkpt lat="45.89369" lon="4.7">
        <ele>227</ele>
        <time>2017-08-22T09:43:16Z</time>
      </trkpt>
      <trkpt lat="45.89375" lon="4.70001">
        <ele>225</ele>
        <time>2017-08-22T09:43:17Z</time>
      </trkpt>
      <trkpt lat="45.8938" lon="4.70002">
        <ele>225</ele>
        <time>2017-08-22T09:43:18Z</time>
      </trkpt>
      <trkpt lat="45.89386" lon="4.70004">
        <ele>226</ele>
        <time>2017-08-22T09:43:19Z</time>
      </trkpt>
      <trkpt lat="45.89392" lon="4.70005">
        <ele>226</ele>
        <time>2017-08-22T09:43:20Z</time>
      </trkpt>
      <trkpt lat="45.89397" lon="4.70006">
        <ele>226</ele>
        <time>2017-08-22T09:43:21Z</time>
      </trkpt>
      <trkpt lat="45.89402" lon="4.70007">
        <ele>226</ele>
        <time>2017-08-22T09:43:22Z</time>
      </trkpt>
      <trkpt lat="45.89408" lon="4.70008">
        <ele>226</ele>
        <time>2017-08-22T09:43:23Z</time>
      </trkpt>
      <trkpt lat="45.89413" lon="4.70009">
        <ele>226</ele>
        <time>2017-08-22T09:43:24Z</time>
      </trkpt>
      <trkpt lat="45.89418" lon="4.7001">
        <ele>226</ele>
        <time>2017-08-22T09:43:25Z</time>
      </trkpt>
      <trkpt lat="45.89423" lon="4.70011">
        <ele>226</ele>
        <time>2017-08-22T09:43:26Z</time>
      </trkpt>
      <trkpt lat="45.89428" lon="4.70012">
        <ele>226</ele>
        <time>2017-08-22T09:43:27Z</time>
      </trkpt>
      <trkpt lat="45.89434" lon="4.70013">
        <ele>225</ele>
        <time>2017-08-22T09:43:28Z</time>
      </trkpt>
      <trkpt lat="45.89439" lon="4.70014">
        <ele>225</ele>
        <time>2017-08-22T09:43:29Z</time>
      </trkpt>
      <trkpt lat="45.89446" lon="4.70015">
        <ele>225</ele>
        <time>2017-08-22T09:43:30Z</time>
      </trkpt>
      <trkpt lat="45.89452" lon="4.70016">
        <ele>225</ele>
        <time>2017-08-22T09:43:31Z</time>
      </trkpt>
      <trkpt lat="45.89459" lon="4.70017">
        <ele>225</ele>
        <time>2017-08-22T09:43:32Z</time>
      </trkpt>
      <trkpt lat="45.89466" lon="4.70018">
        <ele>225</ele>
        <time>2017-08-22T09:43:33Z</time>
      </trkpt>
      <trkpt lat="45.89473" lon="4.7002">
        <ele>225</ele>
        <time>2017-08-22T09:43:34Z</time>
      </trkpt>
      <trkpt lat="45.89479" lon="4.70021">
        <ele>224</ele>
        <time>2017-08-22T09:43:35Z</time>
      </trkpt>
      <trkpt lat="45.89487" lon="4.70023">
        <ele>224</ele>
        <time>2017-08-22T09:43:36Z</time>
      </trkpt>
      <trkpt lat="45.89494" lon="4.70024">
        <ele>224</ele>
        <time>2017-08-22T09:43:37Z</time>
      </trkpt>
      <trkpt lat="45.89502" lon="4.70025">
        <ele>223</ele>
        <time>2017-08-22T09:43:38Z</time>
      </trkpt>
      <trkpt lat="45.89509" lon="4.70027">
        <ele>223</ele>
        <time>2017-08-22T09:43:39Z</time>
      </trkpt>
      <trkpt lat="45.89516" lon="4.70028">
        <ele>223</ele>
        <time>2017-08-22T09:43:40Z</time>
      </trkpt>
      <trkpt lat="45.89522" lon="4.70029">
        <ele>223</ele>
        <time>2017-08-22T09:43:41Z</time>
      </trkpt>
      <trkpt lat="45.89529" lon="4.70031">
        <ele>223</ele>
        <time>2017-08-22T09:43:42Z</time>
      </trkpt>
      <trkpt lat="45.89535" lon="4.70033">
        <ele>223</ele>
        <time>2017-08-22T09:43:43Z</time>
      </trkpt>
      <trkpt lat="45.89542" lon="4.70034">
        <ele>222</ele>
        <time>2017-08-22T09:43:44Z</time>
      </trkpt>
      <trkpt lat="45.89548" lon="4.70035">
        <ele>222</ele>
        <time>2017-08-22T09:43:45Z</time>
      </trkpt>
      <trkpt lat="45.89554" lon="4.70037">
        <ele>222</ele>
        <time>2017-08-22T09:43:46Z</time>
      </trkpt>
      <trkpt lat="45.89561" lon="4.70038">
        <ele>222</ele>
        <time>2017-08-22T09:43:47Z</time>
      </trkpt>
      <trkpt lat="45.89567" lon="4.70039">
        <ele>222</ele>
        <time>2017-08-22T09:43:48Z</time>
      </trkpt>
      <trkpt lat="45.89572" lon="4.7004">
        <ele>222</ele>
        <time>2017-08-22T09:43:49Z</time>
      </trkpt>
      <trkpt lat="45.89579" lon="4.70041">
        <ele>222</ele>
        <time>2017-08-22T09:43:50Z</time>
      </trkpt>
      <trkpt lat="45.89585" lon="4.70042">
        <ele>222</ele>
        <time>2017-08-22T09:43:51Z</time>
      </trkpt>
      <trkpt lat="45.89591" lon="4.70043">
        <ele>222</ele>
        <time>2017-08-22T09:43:52Z</time>
      </trkpt>
      <trkpt lat="45.89596" lon="4.70044">
        <ele>222</ele>
        <time>2017-08-22T09:43:53Z</time>
      </trkpt>
      <trkpt lat="45.89602" lon="4.70045">
        <ele>222</ele>
        <time>2017-08-22T09:43:54Z</time>
      </trkpt>
      <trkpt lat="45.89608" lon="4.70047">
        <ele>222</ele>
        <time>2017-08-22T09:43:55Z</time>
      </trkpt>
      <trkpt lat="45.89614" lon="4.70048">
        <ele>222</ele>
        <time>2017-08-22T09:43:56Z</time>
      </trkpt>
      <trkpt lat="45.8962" lon="4.70049">
        <ele>222</ele>
        <time>2017-08-22T09:43:57Z</time>
      </trkpt>
      <trkpt lat="45.89625" lon="4.7005">
        <ele>222</ele>
        <time>2017-08-22T09:43:58Z</time>
      </trkpt>
      <trkpt lat="45.89631" lon="4.70051">
        <ele>222</ele>
        <time>2017-08-22T09:43:59Z</time>
      </trkpt>
      <trkpt lat="45.89637" lon="4.70052">
        <ele>222</ele>
        <time>2017-08-22T09:44:00Z</time>
      </trkpt>
      <trkpt lat="45.89642" lon="4.70053">
        <ele>222</ele>
        <time>2017-08-22T09:44:01Z</time>
      </trkpt>
      <trkpt lat="45.89648" lon="4.70054">
        <ele>222</ele>
        <time>2017-08-22T09:44:02Z</time>
      </trkpt>
      <trkpt lat="45.89654" lon="4.70055">
        <ele>222</ele>
        <time>2017-08-22T09:44:03Z</time>
      </trkpt>
      <trkpt lat="45.8966" lon="4.70056">
        <ele>222</ele>
        <time>2017-08-22T09:44:04Z</time>
      </trkpt>
      <trkpt lat="45.89665" lon="4.70056">
        <ele>222</ele>
        <time>2017-08-22T09:44:05Z</time>
      </trkpt>
      <trkpt lat="45.89671" lon="4.70057">
        <ele>222</ele>
        <time>2017-08-22T09:44:06Z</time>
      </trkpt>
      <trkpt lat="45.89678" lon="4.70058">
        <ele>222</ele>
        <time>2017-08-22T09:44:07Z</time>
      </trkpt>
      <trkpt lat="45.89684" lon="4.70059">
        <ele>222</ele>
        <time>2017-08-22T09:44:08Z</time>
      </trkpt>
      <trkpt lat="45.89692" lon="4.7006">
        <ele>222</ele>
        <time>2017-08-22T09:44:09Z</time>
      </trkpt>
      <trkpt lat="45.89699" lon="4.70061">
        <ele>221</ele>
        <time>2017-08-22T09:44:10Z</time>
      </trkpt>
      <trkpt lat="45.89706" lon="4.70063">
        <ele>221</ele>
        <time>2017-08-22T09:44:11Z</time>
      </trkpt>
      <trkpt lat="45.89713" lon="4.70064">
        <ele>221</ele>
        <time>2017-08-22T09:44:12Z</time>
      </trkpt>
      <trkpt lat="45.89719" lon="4.70065">
        <ele>221</ele>
        <time>2017-08-22T09:44:13Z</time>
      </trkpt>
      <trkpt lat="45.89726" lon="4.70066">
        <ele>221</ele>
        <time>2017-08-22T09:44:14Z</time>
      </trkpt>
      <trkpt lat="45.89732" lon="4.70066">
        <ele>221</ele>
        <time>2017-08-22T09:44:15Z</time>
      </trkpt>
      <trkpt lat="45.89737" lon="4.70067">
        <ele>221</ele>
        <time>2017-08-22T09:44:16Z</time>
      </trkpt>
      <trkpt lat="45.89741" lon="4.70068">
        <ele>220</ele>
        <time>2017-08-22T09:44:17Z</time>
      </trkpt>
      <trkpt lat="45.8975" lon="4.70071">
        <ele>220</ele>
        <time>2017-08-22T09:44:19Z</time>
      </trkpt>
      <trkpt lat="45.89754" lon="4.70072">
        <ele>220</ele>
        <time>2017-08-22T09:44:20Z</time>
      </trkpt>
      <trkpt lat="45.89763" lon="4.70074">
        <ele>220</ele>
        <time>2017-08-22T09:44:23Z</time>
      </trkpt>
      <trkpt lat="45.89764" lon="4.70075">
        <ele>220</ele>
        <time>2017-08-22T09:44:24Z</time>
      </trkpt>
      <trkpt lat="45.89764" lon="4.70074">
        <ele>220</ele>
        <time>2017-08-22T09:44:25Z</time>
      </trkpt>
      <trkpt lat="45.89764" lon="4.70073">
        <ele>220</ele>
        <time>2017-08-22T09:44:53Z</time>
      </trkpt>
      <trkpt lat="45.89766" lon="4.70073">
        <ele>220</ele>
        <time>2017-08-22T09:44:54Z</time>
      </trkpt>
      <trkpt lat="45.89771" lon="4.70074">
        <ele>220</ele>
        <time>2017-08-22T09:44:56Z</time>
      </trkpt>
      <trkpt lat="45.89777" lon="4.70073">
        <ele>220</ele>
        <time>2017-08-22T09:44:57Z</time>
      </trkpt>
      <trkpt lat="45.89783" lon="4.70072">
        <ele>221</ele>
        <time>2017-08-22T09:44:59Z</time>
      </trkpt>
      <trkpt lat="45.89786" lon="4.70071">
        <ele>221</ele>
        <time>2017-08-22T09:45:00Z</time>
      </trkpt>
      <trkpt lat="45.89792" lon="4.70071">
        <ele>221</ele>
        <time>2017-08-22T09:45:02Z</time>
      </trkpt>
      <trkpt lat="45.89796" lon="4.7007">
        <ele>221</ele>
        <time>2017-08-22T09:45:03Z</time>
      </trkpt>
      <trkpt lat="45.898" lon="4.70069">
        <ele>221</ele>
        <time>2017-08-22T09:45:04Z</time>
      </trkpt>
      <trkpt lat="45.89805" lon="4.70068">
        <ele>221</ele>
        <time>2017-08-22T09:45:05Z</time>
      </trkpt>
      <trkpt lat="45.8981" lon="4.70067">
        <ele>221</ele>
        <time>2017-08-22T09:45:06Z</time>
      </trkpt>
      <trkpt lat="45.89814" lon="4.70068">
        <ele>221</ele>
        <time>2017-08-22T09:45:07Z</time>
      </trkpt>
      <trkpt lat="45.8982" lon="4.70071">
        <ele>221</ele>
        <time>2017-08-22T09:45:08Z</time>
      </trkpt>
      <trkpt lat="45.89825" lon="4.70073">
        <ele>220</ele>
        <time>2017-08-22T09:45:09Z</time>
      </trkpt>
      <trkpt lat="45.89831" lon="4.70074">
        <ele>220</ele>
        <time>2017-08-22T09:45:10Z</time>
      </trkpt>
      <trkpt lat="45.89836" lon="4.70075">
        <ele>221</ele>
        <time>2017-08-22T09:45:11Z</time>
      </trkpt>
      <trkpt lat="45.89841" lon="4.70075">
        <ele>221</ele>
        <time>2017-08-22T09:45:12Z</time>
      </trkpt>
      <trkpt lat="45.89846" lon="4.70076">
        <ele>221</ele>
        <time>2017-08-22T09:45:13Z</time>
      </trkpt>
      <trkpt lat="45.89851" lon="4.70077">
        <ele>221</ele>
        <time>2017-08-22T09:45:14Z</time>
      </trkpt>
      <trkpt lat="45.89856" lon="4.70078">
        <ele>221</ele>
        <time>2017-08-22T09:45:15Z</time>
      </trkpt>
      <trkpt lat="45.89862" lon="4.70079">
        <ele>221</ele>
        <time>2017-08-22T09:45:16Z</time>
      </trkpt>
      <trkpt lat="45.89867" lon="4.70079">
        <ele>221</ele>
        <time>2017-08-22T09:45:17Z</time>
      </trkpt>
      <trkpt lat="45.89873" lon="4.70079">
        <ele>221</ele>
        <time>2017-08-22T09:45:18Z</time>
      </trkpt>
      <trkpt lat="45.89879" lon="4.7008">
        <ele>221</ele>
        <time>2017-08-22T09:45:19Z</time>
      </trkpt>
      <trkpt lat="45.89885" lon="4.7008">
        <ele>221</ele>
        <time>2017-08-22T09:45:20Z</time>
      </trkpt>
      <trkpt lat="45.8989" lon="4.70081">
        <ele>221</ele>
        <time>2017-08-22T09:45:21Z</time>
      </trkpt>
      <trkpt lat="45.89896" lon="4.70081">
        <ele>221</ele>
        <time>2017-08-22T09:45:22Z</time>
      </trkpt>
      <trkpt lat="45.89901" lon="4.70082">
        <ele>221</ele>
        <time>2017-08-22T09:45:23Z</time>
      </trkpt>
      <trkpt lat="45.89908" lon="4.70083">
        <ele>221</ele>
        <time>2017-08-22T09:45:24Z</time>
      </trkpt>
      <trkpt lat="45.89914" lon="4.70083">
        <ele>221</ele>
        <time>2017-08-22T09:45:25Z</time>
      </trkpt>
      <trkpt lat="45.89923" lon="4.70082">
        <ele>221</ele>
        <time>2017-08-22T09:45:26Z</time>
      </trkpt>
      <trkpt lat="45.89928" lon="4.70082">
        <ele>222</ele>
        <time>2017-08-22T09:45:27Z</time>
      </trkpt>
      <trkpt lat="45.89932" lon="4.70082">
        <ele>222</ele>
        <time>2017-08-22T09:45:28Z</time>
      </trkpt>
      <trkpt lat="45.89937" lon="4.70083">
        <ele>222</ele>
        <time>2017-08-22T09:45:29Z</time>
      </trkpt>
      <trkpt lat="45.89942" lon="4.70084">
        <ele>221</ele>
        <time>2017-08-22T09:45:30Z</time>
      </trkpt>
      <trkpt lat="45.89947" lon="4.70085">
        <ele>221</ele>
        <time>2017-08-22T09:45:31Z</time>
      </trkpt>
      <trkpt lat="45.89952" lon="4.70085">
        <ele>221</ele>
        <time>2017-08-22T09:45:32Z</time>
      </trkpt>
      <trkpt lat="45.89958" lon="4.70085">
        <ele>221</ele>
        <time>2017-08-22T09:45:33Z</time>
      </trkpt>
      <trkpt lat="45.89964" lon="4.70086">
        <ele>221</ele>
        <time>2017-08-22T09:45:34Z</time>
      </trkpt>
      <trkpt lat="45.89969" lon="4.70086">
        <ele>221</ele>
        <time>2017-08-22T09:45:35Z</time>
      </trkpt>
      <trkpt lat="45.89974" lon="4.70087">
        <ele>221</ele>
        <time>2017-08-22T09:45:36Z</time>
      </trkpt>
      <trkpt lat="45.89979" lon="4.70088">
        <ele>221</ele>
        <time>2017-08-22T09:45:37Z</time>
      </trkpt>
      <trkpt lat="45.89983" lon="4.70088">
        <ele>221</ele>
        <time>2017-08-22T09:45:38Z</time>
      </trkpt>
      <trkpt lat="45.89988" lon="4.70089">
        <ele>222</ele>
        <time>2017-08-22T09:45:39Z</time>
      </trkpt>
      <trkpt lat="45.89992" lon="4.70089">
        <ele>222</ele>
        <time>2017-08-22T09:45:40Z</time>
      </trkpt>
      <trkpt lat="45.89997" lon="4.70089">
        <ele>222</ele>
        <time>2017-08-22T09:45:41Z</time>
      </trkpt>
      <trkpt lat="45.90002" lon="4.7009">
        <ele>222</ele>
        <time>2017-08-22T09:45:42Z</time>
      </trkpt>
      <trkpt lat="45.90007" lon="4.7009">
        <ele>222</ele>
        <time>2017-08-22T09:45:43Z</time>
      </trkpt>
      <trkpt lat="45.90012" lon="4.7009">
        <ele>222</ele>
        <time>2017-08-22T09:45:44Z</time>
      </trkpt>
      <trkpt lat="45.90017" lon="4.70091">
        <ele>222</ele>
        <time>2017-08-22T09:45:45Z</time>
      </trkpt>
      <trkpt lat="45.90022" lon="4.70091">
        <ele>222</ele>
        <time>2017-08-22T09:45:46Z</time>
      </trkpt>
      <trkpt lat="45.90027" lon="4.70092">
        <ele>222</ele>
        <time>2017-08-22T09:45:47Z</time>
      </trkpt>
      <trkpt lat="45.90032" lon="4.70092">
        <ele>222</ele>
        <time>2017-08-22T09:45:48Z</time>
      </trkpt>
      <trkpt lat="45.90037" lon="4.70093">
        <ele>222</ele>
        <time>2017-08-22T09:45:49Z</time>
      </trkpt>
      <trkpt lat="45.90041" lon="4.70093">
        <ele>222</ele>
        <time>2017-08-22T09:45:50Z</time>
      </trkpt>
      <trkpt lat="45.90046" lon="4.70093">
        <ele>222</ele>
        <time>2017-08-22T09:45:51Z</time>
      </trkpt>
      <trkpt lat="45.9005" lon="4.70094">
        <ele>222</ele>
        <time>2017-08-22T09:45:52Z</time>
      </trkpt>
      <trkpt lat="45.90055" lon="4.70094">
        <ele>222</ele>
        <time>2017-08-22T09:45:53Z</time>
      </trkpt>
      <trkpt lat="45.9006" lon="4.70095">
        <ele>223</ele>
        <time>2017-08-22T09:45:54Z</time>
      </trkpt>
      <trkpt lat="45.90065" lon="4.70095">
        <ele>223</ele>
        <time>2017-08-22T09:45:55Z</time>
      </trkpt>
      <trkpt lat="45.9007" lon="4.70095">
        <ele>223</ele>
        <time>2017-08-22T09:45:56Z</time>
      </trkpt>
      <trkpt lat="45.90076" lon="4.70095">
        <ele>223</ele>
        <time>2017-08-22T09:45:57Z</time>
      </trkpt>
      <trkpt lat="45.90081" lon="4.70094">
        <ele>223</ele>
        <time>2017-08-22T09:45:58Z</time>
      </trkpt>
      <trkpt lat="45.90086" lon="4.70094">
        <ele>224</ele>
        <time>2017-08-22T09:45:59Z</time>
      </trkpt>
      <trkpt lat="45.90092" lon="4.70093">
        <ele>224</ele>
        <time>2017-08-22T09:46:00Z</time>
      </trkpt>
      <trkpt lat="45.90097" lon="4.70092">
        <ele>223</ele>
        <time>2017-08-22T09:46:01Z</time>
      </trkpt>
      <trkpt lat="45.90102" lon="4.70092">
        <ele>223</ele>
        <time>2017-08-22T09:46:02Z</time>
      </trkpt>
      <trkpt lat="45.90107" lon="4.70092">
        <ele>223</ele>
        <time>2017-08-22T09:46:03Z</time>
      </trkpt>
      <trkpt lat="45.90112" lon="4.70091">
        <ele>223</ele>
        <time>2017-08-22T09:46:04Z</time>
      </trkpt>
      <trkpt lat="45.90117" lon="4.70089">
        <ele>223</ele>
        <time>2017-08-22T09:46:05Z</time>
      </trkpt>
      <trkpt lat="45.90125" lon="4.70087">
        <ele>223</ele>
        <time>2017-08-22T09:46:07Z</time>
      </trkpt>
      <trkpt lat="45.9013" lon="4.70087">
        <ele>223</ele>
        <time>2017-08-22T09:46:08Z</time>
      </trkpt>
      <trkpt lat="45.90135" lon="4.70085">
        <ele>224</ele>
        <time>2017-08-22T09:46:09Z</time>
      </trkpt>
      <trkpt lat="45.9014" lon="4.70084">
        <ele>224</ele>
        <time>2017-08-22T09:46:10Z</time>
      </trkpt>
      <trkpt lat="45.90145" lon="4.70083">
        <ele>226</ele>
        <time>2017-08-22T09:46:11Z</time>
      </trkpt>
      <trkpt lat="45.9015" lon="4.70082">
        <ele>226</ele>
        <time>2017-08-22T09:46:12Z</time>
      </trkpt>
      <trkpt lat="45.90155" lon="4.70081">
        <ele>226</ele>
        <time>2017-08-22T09:46:13Z</time>
      </trkpt>
      <trkpt lat="45.9016" lon="4.70079">
        <ele>226</ele>
        <time>2017-08-22T09:46:14Z</time>
      </trkpt>
      <trkpt lat="45.90168" lon="4.70078">
        <ele>225</ele>
        <time>2017-08-22T09:46:16Z</time>
      </trkpt>
      <trkpt lat="45.90172" lon="4.70077">
        <ele>225</ele>
        <time>2017-08-22T09:46:17Z</time>
      </trkpt>
      <trkpt lat="45.90181" lon="4.70076">
        <ele>226</ele>
        <time>2017-08-22T09:46:19Z</time>
      </trkpt>
      <trkpt lat="45.90186" lon="4.70075">
        <ele>226</ele>
        <time>2017-08-22T09:46:20Z</time>
      </trkpt>
      <trkpt lat="45.90191" lon="4.70074">
        <ele>226</ele>
        <time>2017-08-22T09:46:21Z</time>
      </trkpt>
      <trkpt lat="45.90195" lon="4.70073">
        <ele>226</ele>
        <time>2017-08-22T09:46:22Z</time>
      </trkpt>
      <trkpt lat="45.902" lon="4.70072">
        <ele>226</ele>
        <time>2017-08-22T09:46:23Z</time>
      </trkpt>
      <trkpt lat="45.90204" lon="4.70071">
        <ele>226</ele>
        <time>2017-08-22T09:46:24Z</time>
      </trkpt>
      <trkpt lat="45.90209" lon="4.7007">
        <ele>226</ele>
        <time>2017-08-22T09:46:25Z</time>
      </trkpt>
      <trkpt lat="45.90214" lon="4.70069">
        <ele>225</ele>
        <time>2017-08-22T09:46:26Z</time>
      </trkpt>
      <trkpt lat="45.90219" lon="4.70068">
        <ele>225</ele>
        <time>2017-08-22T09:46:27Z</time>
      </trkpt>
      <trkpt lat="45.90224" lon="4.70068">
        <ele>225</ele>
        <time>2017-08-22T09:46:28Z</time>
      </trkpt>
      <trkpt lat="45.90229" lon="4.70066">
        <ele>225</ele>
        <time>2017-08-22T09:46:29Z</time>
      </trkpt>
      <trkpt lat="45.90234" lon="4.70065">
        <ele>225</ele>
        <time>2017-08-22T09:46:30Z</time>
      </trkpt>
      <trkpt lat="45.90239" lon="4.70064">
        <ele>225</ele>
        <time>2017-08-22T09:46:31Z</time>
      </trkpt>
      <trkpt lat="45.90245" lon="4.70063">
        <ele>225</ele>
        <time>2017-08-22T09:46:32Z</time>
      </trkpt>
      <trkpt lat="45.9025" lon="4.70062">
        <ele>225</ele>
        <time>2017-08-22T09:46:33Z</time>
      </trkpt>
      <trkpt lat="45.90255" lon="4.70061">
        <ele>224</ele>
        <time>2017-08-22T09:46:34Z</time>
      </trkpt>
      <trkpt lat="45.9026" lon="4.7006">
        <ele>224</ele>
        <time>2017-08-22T09:46:35Z</time>
      </trkpt>
      <trkpt lat="45.90265" lon="4.70059">
        <ele>224</ele>
        <time>2017-08-22T09:46:36Z</time>
      </trkpt>
      <trkpt lat="45.9027" lon="4.70058">
        <ele>224</ele>
        <time>2017-08-22T09:46:37Z</time>
      </trkpt>
      <trkpt lat="45.90275" lon="4.70057">
        <ele>224</ele>
        <time>2017-08-22T09:46:38Z</time>
      </trkpt>
      <trkpt lat="45.9028" lon="4.70056">
        <ele>224</ele>
        <time>2017-08-22T09:46:39Z</time>
      </trkpt>
      <trkpt lat="45.90285" lon="4.70055">
        <ele>224</ele>
        <time>2017-08-22T09:46:40Z</time>
      </trkpt>
      <trkpt lat="45.9029" lon="4.70054">
        <ele>224</ele>
        <time>2017-08-22T09:46:41Z</time>
      </trkpt>
      <trkpt lat="45.90295" lon="4.70054">
        <ele>224</ele>
        <time>2017-08-22T09:46:42Z</time>
      </trkpt>
      <trkpt lat="45.90303" lon="4.70052">
        <ele>224</ele>
        <time>2017-08-22T09:46:44Z</time>
      </trkpt>
      <trkpt lat="45.90308" lon="4.70052">
        <ele>224</ele>
        <time>2017-08-22T09:46:45Z</time>
      </trkpt>
      <trkpt lat="45.90312" lon="4.70051">
        <ele>224</ele>
        <time>2017-08-22T09:46:46Z</time>
      </trkpt>
      <trkpt lat="45.90317" lon="4.70051">
        <ele>224</ele>
        <time>2017-08-22T09:46:47Z</time>
      </trkpt>
      <trkpt lat="45.90322" lon="4.7005">
        <ele>224</ele>
        <time>2017-08-22T09:46:48Z</time>
      </trkpt>
      <trkpt lat="45.90327" lon="4.70049">
        <ele>224</ele>
        <time>2017-08-22T09:46:49Z</time>
      </trkpt>
      <trkpt lat="45.90331" lon="4.70048">
        <ele>224</ele>
        <time>2017-08-22T09:46:50Z</time>
      </trkpt>
      <trkpt lat="45.90336" lon="4.70047">
        <ele>224</ele>
        <time>2017-08-22T09:46:51Z</time>
      </trkpt>
      <trkpt lat="45.90341" lon="4.70046">
        <ele>224</ele>
        <time>2017-08-22T09:46:52Z</time>
      </trkpt>
      <trkpt lat="45.90347" lon="4.70045">
        <ele>224</ele>
        <time>2017-08-22T09:46:53Z</time>
      </trkpt>
      <trkpt lat="45.90352" lon="4.70044">
        <ele>224</ele>
        <time>2017-08-22T09:46:54Z</time>
      </trkpt>
      <trkpt lat="45.90357" lon="4.70043">
        <ele>224</ele>
        <time>2017-08-22T09:46:55Z</time>
      </trkpt>
      <trkpt lat="45.90362" lon="4.70042">
        <ele>224</ele>
        <time>2017-08-22T09:46:56Z</time>
      </trkpt>
      <trkpt lat="45.90366" lon="4.70041">
        <ele>224</ele>
        <time>2017-08-22T09:46:57Z</time>
      </trkpt>
      <trkpt lat="45.90375" lon="4.70039">
        <ele>224</ele>
        <time>2017-08-22T09:46:59Z</time>
      </trkpt>
      <trkpt lat="45.9038" lon="4.70038">
        <ele>224</ele>
        <time>2017-08-22T09:47:00Z</time>
      </trkpt>
      <trkpt lat="45.90384" lon="4.70037">
        <ele>224</ele>
        <time>2017-08-22T09:47:01Z</time>
      </trkpt>
      <trkpt lat="45.90389" lon="4.70036">
        <ele>225</ele>
        <time>2017-08-22T09:47:02Z</time>
      </trkpt>
      <trkpt lat="45.90393" lon="4.70036">
        <ele>225</ele>
        <time>2017-08-22T09:47:03Z</time>
      </trkpt>
      <trkpt lat="45.90398" lon="4.70035">
        <ele>225</ele>
        <time>2017-08-22T09:47:04Z</time>
      </trkpt>
      <trkpt lat="45.90403" lon="4.70034">
        <ele>225</ele>
        <time>2017-08-22T09:47:05Z</time>
      </trkpt>
      <trkpt lat="45.90409" lon="4.70034">
        <ele>225</ele>
        <time>2017-08-22T09:47:06Z</time>
      </trkpt>
      <trkpt lat="45.90414" lon="4.70034">
        <ele>225</ele>
        <time>2017-08-22T09:47:07Z</time>
      </trkpt>
      <trkpt lat="45.90419" lon="4.70033">
        <ele>225</ele>
        <time>2017-08-22T09:47:08Z</time>
      </trkpt>
      <trkpt lat="45.90424" lon="4.70033">
        <ele>225</ele>
        <time>2017-08-22T09:47:09Z</time>
      </trkpt>
      <trkpt lat="45.90429" lon="4.70032">
        <ele>225</ele>
        <time>2017-08-22T09:47:10Z</time>
      </trkpt>
      <trkpt lat="45.90435" lon="4.70032">
        <ele>225</ele>
        <time>2017-08-22T09:47:11Z</time>
      </trkpt>
      <trkpt lat="45.9044" lon="4.70031">
        <ele>225</ele>
        <time>2017-08-22T09:47:12Z</time>
      </trkpt>
      <trkpt lat="45.90445" lon="4.70031">
        <ele>225</ele>
        <time>2017-08-22T09:47:13Z</time>
      </trkpt>
      <trkpt lat="45.9045" lon="4.70031">
        <ele>225</ele>
        <time>2017-08-22T09:47:14Z</time>
      </trkpt>
      <trkpt lat="45.90455" lon="4.70031">
        <ele>225</ele>
        <time>2017-08-22T09:47:15Z</time>
      </trkpt>
      <trkpt lat="45.90459" lon="4.70032">
        <ele>225</ele>
        <time>2017-08-22T09:47:16Z</time>
      </trkpt>
      <trkpt lat="45.90464" lon="4.70032">
        <ele>225</ele>
        <time>2017-08-22T09:47:17Z</time>
      </trkpt>
      <trkpt lat="45.90469" lon="4.70033">
        <ele>225</ele>
        <time>2017-08-22T09:47:18Z</time>
      </trkpt>
      <trkpt lat="45.90474" lon="4.70033">
        <ele>225</ele>
        <time>2017-08-22T09:47:19Z</time>
      </trkpt>
      <trkpt lat="45.90479" lon="4.70034">
        <ele>225</ele>
        <time>2017-08-22T09:47:20Z</time>
      </trkpt>
      <trkpt lat="45.90485" lon="4.70035">
        <ele>225</ele>
        <time>2017-08-22T09:47:21Z</time>
      </trkpt>
      <trkpt lat="45.9049" lon="4.70036">
        <ele>225</ele>
        <time>2017-08-22T09:47:22Z</time>
      </trkpt>
      <trkpt lat="45.90496" lon="4.70037">
        <ele>225</ele>
        <time>2017-08-22T09:47:23Z</time>
      </trkpt>
      <trkpt lat="45.90502" lon="4.70038">
        <ele>224</ele>
        <time>2017-08-22T09:47:24Z</time>
      </trkpt>
      <trkpt lat="45.90509" lon="4.70039">
        <ele>224</ele>
        <time>2017-08-22T09:47:25Z</time>
      </trkpt>
      <trkpt lat="45.90515" lon="4.70041">
        <ele>224</ele>
        <time>2017-08-22T09:47:26Z</time>
      </trkpt>
      <trkpt lat="45.90521" lon="4.70042">
        <ele>224</ele>
        <time>2017-08-22T09:47:27Z</time>
      </trkpt>
      <trkpt lat="45.90527" lon="4.70044">
        <ele>224</ele>
        <time>2017-08-22T09:47:28Z</time>
      </trkpt>
      <trkpt lat="45.90533" lon="4.70045">
        <ele>224</ele>
        <time>2017-08-22T09:47:29Z</time>
      </trkpt>
      <trkpt lat="45.9054" lon="4.70048">
        <ele>224</ele>
        <time>2017-08-22T09:47:30Z</time>
      </trkpt>
      <trkpt lat="45.90546" lon="4.7005">
        <ele>224</ele>
        <time>2017-08-22T09:47:31Z</time>
      </trkpt>
      <trkpt lat="45.90551" lon="4.70053">
        <ele>224</ele>
        <time>2017-08-22T09:47:32Z</time>
      </trkpt>
      <trkpt lat="45.90557" lon="4.70057">
        <ele>223</ele>
        <time>2017-08-22T09:47:33Z</time>
      </trkpt>
      <trkpt lat="45.90563" lon="4.7006">
        <ele>223</ele>
        <time>2017-08-22T09:47:34Z</time>
      </trkpt>
      <trkpt lat="45.90569" lon="4.70063">
        <ele>223</ele>
        <time>2017-08-22T09:47:35Z</time>
      </trkpt>
      <trkpt lat="45.90575" lon="4.70065">
        <ele>223</ele>
        <time>2017-08-22T09:47:36Z</time>
      </trkpt>
      <trkpt lat="45.9058" lon="4.70068">
        <ele>222</ele>
        <time>2017-08-22T09:47:37Z</time>
      </trkpt>
      <trkpt lat="45.90586" lon="4.70071">
        <ele>223</ele>
        <time>2017-08-22T09:47:38Z</time>
      </trkpt>
      <trkpt lat="45.90591" lon="4.70074">
        <ele>223</ele>
        <time>2017-08-22T09:47:39Z</time>
      </trkpt>
      <trkpt lat="45.90597" lon="4.70077">
        <ele>223</ele>
        <time>2017-08-22T09:47:40Z</time>
      </trkpt>
      <trkpt lat="45.90602" lon="4.7008">
        <ele>223</ele>
        <time>2017-08-22T09:47:41Z</time>
      </trkpt>
      <trkpt lat="45.90608" lon="4.70083">
        <ele>223</ele>
        <time>2017-08-22T09:47:42Z</time>
      </trkpt>
      <trkpt lat="45.90613" lon="4.70086">
        <ele>221</ele>
        <time>2017-08-22T09:47:43Z</time>
      </trkpt>
      <trkpt lat="45.90619" lon="4.70089">
        <ele>221</ele>
        <time>2017-08-22T09:47:44Z</time>
      </trkpt>
      <trkpt lat="45.90624" lon="4.70093">
        <ele>221</ele>
        <time>2017-08-22T09:47:45Z</time>
      </trkpt>
      <trkpt lat="45.90629" lon="4.70096">
        <ele>221</ele>
        <time>2017-08-22T09:47:46Z</time>
      </trkpt>
      <trkpt lat="45.90634" lon="4.70099">
        <ele>221</ele>
        <time>2017-08-22T09:47:47Z</time>
      </trkpt>
      <trkpt lat="45.9064" lon="4.70102">
        <ele>221</ele>
        <time>2017-08-22T09:47:48Z</time>
      </trkpt>
      <trkpt lat="45.90645" lon="4.70105">
        <ele>221</ele>
        <time>2017-08-22T09:47:49Z</time>
      </trkpt>
      <trkpt lat="45.90651" lon="4.70108">
        <ele>221</ele>
        <time>2017-08-22T09:47:50Z</time>
      </trkpt>
      <trkpt lat="45.90657" lon="4.70111">
        <ele>221</ele>
        <time>2017-08-22T09:47:51Z</time>
      </trkpt>
      <trkpt lat="45.90663" lon="4.70114">
        <ele>221</ele>
        <time>2017-08-22T09:47:52Z</time>
      </trkpt>
      <trkpt lat="45.90669" lon="4.70117">
        <ele>222</ele>
        <time>2017-08-22T09:47:53Z</time>
      </trkpt>
      <trkpt lat="45.90674" lon="4.70121">
        <ele>221</ele>
        <time>2017-08-22T09:47:54Z</time>
      </trkpt>
      <trkpt lat="45.90679" lon="4.70126">
        <ele>221</ele>
        <time>2017-08-22T09:47:55Z</time>
      </trkpt>
      <trkpt lat="45.90684" lon="4.70132">
        <ele>221</ele>
        <time>2017-08-22T09:47:56Z</time>
      </trkpt>
      <trkpt lat="45.90689" lon="4.70138">
        <ele>221</ele>
        <time>2017-08-22T09:47:57Z</time>
      </trkpt>
      <trkpt lat="45.90694" lon="4.70143">
        <ele>221</ele>
        <time>2017-08-22T09:47:58Z</time>
      </trkpt>
      <trkpt lat="45.90701" lon="4.70145">
        <ele>220</ele>
        <time>2017-08-22T09:47:59Z</time>
      </trkpt>
      <trkpt lat="45.90708" lon="4.70145">
        <ele>220</ele>
        <time>2017-08-22T09:48:00Z</time>
      </trkpt>
      <trkpt lat="45.90714" lon="4.70144">
        <ele>220</ele>
        <time>2017-08-22T09:48:01Z</time>
      </trkpt>
      <trkpt lat="45.90719" lon="4.70143">
        <ele>220</ele>
        <time>2017-08-22T09:48:02Z</time>
      </trkpt>
      <trkpt lat="45.90725" lon="4.70143">
        <ele>220</ele>
        <time>2017-08-22T09:48:03Z</time>
      </trkpt>
      <trkpt lat="45.90732" lon="4.70143">
        <ele>220</ele>
        <time>2017-08-22T09:48:04Z</time>
      </trkpt>
      <trkpt lat="45.90738" lon="4.70144">
        <ele>220</ele>
        <time>2017-08-22T09:48:05Z</time>
      </trkpt>
      <trkpt lat="45.90744" lon="4.70144">
        <ele>220</ele>
        <time>2017-08-22T09:48:06Z</time>
      </trkpt>
      <trkpt lat="45.9075" lon="4.70144">
        <ele>220</ele>
        <time>2017-08-22T09:48:07Z</time>
      </trkpt>
      <trkpt lat="45.90756" lon="4.70145">
        <ele>219</ele>
        <time>2017-08-22T09:48:08Z</time>
      </trkpt>
      <trkpt lat="45.90762" lon="4.70145">
        <ele>219</ele>
        <time>2017-08-22T09:48:09Z</time>
      </trkpt>
      <trkpt lat="45.90768" lon="4.70144">
        <ele>219</ele>
        <time>2017-08-22T09:48:10Z</time>
      </trkpt>
      <trkpt lat="45.90775" lon="4.70144">
        <ele>219</ele>
        <time>2017-08-22T09:48:11Z</time>
      </trkpt>
      <trkpt lat="45.90781" lon="4.70143">
        <ele>219</ele>
        <time>2017-08-22T09:48:12Z</time>
      </trkpt>
      <trkpt lat="45.90788" lon="4.70143">
        <ele>219</ele>
        <time>2017-08-22T09:48:13Z</time>
      </trkpt>
      <trkpt lat="45.90794" lon="4.70142">
        <ele>219</ele>
        <time>2017-08-22T09:48:14Z</time>
      </trkpt>
      <trkpt lat="45.908" lon="4.70142">
        <ele>219</ele>
        <time>2017-08-22T09:48:15Z</time>
      </trkpt>
      <trkpt lat="45.90807" lon="4.70142">
        <ele>219</ele>
        <time>2017-08-22T09:48:16Z</time>
      </trkpt>
      <trkpt lat="45.90814" lon="4.70141">
        <ele>219</ele>
        <time>2017-08-22T09:48:17Z</time>
      </trkpt>
      <trkpt lat="45.90821" lon="4.7014">
        <ele>219</ele>
        <time>2017-08-22T09:48:18Z</time>
      </trkpt>
      <trkpt lat="45.90828" lon="4.7014">
        <ele>218</ele>
        <time>2017-08-22T09:48:19Z</time>
      </trkpt>
      <trkpt lat="45.90835" lon="4.70139">
        <ele>218</ele>
        <time>2017-08-22T09:48:20Z</time>
      </trkpt>
      <trkpt lat="45.90842" lon="4.70139">
        <ele>218</ele>
        <time>2017-08-22T09:48:21Z</time>
      </trkpt>
      <trkpt lat="45.90849" lon="4.70138">
        <ele>218</ele>
        <time>2017-08-22T09:48:22Z</time>
      </trkpt>
      <trkpt lat="45.90855" lon="4.70137">
        <ele>218</ele>
        <time>2017-08-22T09:48:23Z</time>
      </trkpt>
      <trkpt lat="45.90862" lon="4.70137">
        <ele>218</ele>
        <time>2017-08-22T09:48:24Z</time>
      </trkpt>
      <trkpt lat="45.90868" lon="4.70137">
        <ele>218</ele>
        <time>2017-08-22T09:48:25Z</time>
      </trkpt>
      <trkpt lat="45.90873" lon="4.70137">
        <ele>218</ele>
        <time>2017-08-22T09:48:26Z</time>
      </trkpt>
      <trkpt lat="45.90879" lon="4.70137">
        <ele>218</ele>
        <time>2017-08-22T09:48:27Z</time>
      </trkpt>
      <trkpt lat="45.90885" lon="4.70137">
        <ele>218</ele>
        <time>2017-08-22T09:48:28Z</time>
      </trkpt>
      <trkpt lat="45.9089" lon="4.70137">
        <ele>218</ele>
        <time>2017-08-22T09:48:29Z</time>
      </trkpt>
      <trkpt lat="45.90895" lon="4.70136">
        <ele>218</ele>
        <time>2017-08-22T09:48:30Z</time>
      </trkpt>
      <trkpt lat="45.909" lon="4.70136">
        <ele>218</ele>
        <time>2017-08-22T09:48:31Z</time>
      </trkpt>
      <trkpt lat="45.90905" lon="4.70135">
        <ele>218</ele>
        <time>2017-08-22T09:48:32Z</time>
      </trkpt>
      <trkpt lat="45.9091" lon="4.70134">
        <ele>218</ele>
        <time>2017-08-22T09:48:33Z</time>
      </trkpt>
      <trkpt lat="45.90916" lon="4.70133">
        <ele>218</ele>
        <time>2017-08-22T09:48:34Z</time>
      </trkpt>
      <trkpt lat="45.90921" lon="4.70133">
        <ele>219</ele>
        <time>2017-08-22T09:48:35Z</time>
      </trkpt>
      <trkpt lat="45.90927" lon="4.70133">
        <ele>219</ele>
        <time>2017-08-22T09:48:36Z</time>
      </trkpt>
      <trkpt lat="45.90934" lon="4.70133">
        <ele>219</ele>
        <time>2017-08-22T09:48:37Z</time>
      </trkpt>
      <trkpt lat="45.90941" lon="4.70135">
        <ele>219</ele>
        <time>2017-08-22T09:48:38Z</time>
      </trkpt>
      <trkpt lat="45.90947" lon="4.70136">
        <ele>219</ele>
        <time>2017-08-22T09:48:39Z</time>
      </trkpt>
      <trkpt lat="45.90954" lon="4.70138">
        <ele>219</ele>
        <time>2017-08-22T09:48:40Z</time>
      </trkpt>
      <trkpt lat="45.90961" lon="4.70141">
        <ele>218</ele>
        <time>2017-08-22T09:48:41Z</time>
      </trkpt>
      <trkpt lat="45.90968" lon="4.70143">
        <ele>218</ele>
        <time>2017-08-22T09:48:42Z</time>
      </trkpt>
      <trkpt lat="45.90975" lon="4.70146">
        <ele>218</ele>
        <time>2017-08-22T09:48:43Z</time>
      </trkpt>
      <trkpt lat="45.90982" lon="4.70148">
        <ele>218</ele>
        <time>2017-08-22T09:48:44Z</time>
      </trkpt>
      <trkpt lat="45.90989" lon="4.7015">
        <ele>218</ele>
        <time>2017-08-22T09:48:45Z</time>
      </trkpt>
      <trkpt lat="45.90995" lon="4.70152">
        <ele>217</ele>
        <time>2017-08-22T09:48:46Z</time>
      </trkpt>
      <trkpt lat="45.91001" lon="4.70154">
        <ele>217</ele>
        <time>2017-08-22T09:48:47Z</time>
      </trkpt>
      <trkpt lat="45.91008" lon="4.70156">
        <ele>217</ele>
        <time>2017-08-22T09:48:48Z</time>
      </trkpt>
      <trkpt lat="45.91014" lon="4.70158">
        <ele>218</ele>
        <time>2017-08-22T09:48:49Z</time>
      </trkpt>
      <trkpt lat="45.9102" lon="4.70159">
        <ele>218</ele>
        <time>2017-08-22T09:48:50Z</time>
      </trkpt>
      <trkpt lat="45.91026" lon="4.70161">
        <ele>218</ele>
        <time>2017-08-22T09:48:51Z</time>
      </trkpt>
      <trkpt lat="45.91033" lon="4.70163">
        <ele>218</ele>
        <time>2017-08-22T09:48:52Z</time>
      </trkpt>
      <trkpt lat="45.91038" lon="4.70165">
        <ele>218</ele>
        <time>2017-08-22T09:48:53Z</time>
      </trkpt>
      <trkpt lat="45.91044" lon="4.70166">
        <ele>218</ele>
        <time>2017-08-22T09:48:54Z</time>
      </trkpt>
      <trkpt lat="45.9105" lon="4.70168">
        <ele>216</ele>
        <time>2017-08-22T09:48:55Z</time>
      </trkpt>
      <trkpt lat="45.91057" lon="4.7017">
        <ele>216</ele>
        <time>2017-08-22T09:48:56Z</time>
      </trkpt>
      <trkpt lat="45.91063" lon="4.70171">
        <ele>216</ele>
        <time>2017-08-22T09:48:57Z</time>
      </trkpt>
      <trkpt lat="45.91069" lon="4.70173">
        <ele>216</ele>
        <time>2017-08-22T09:48:58Z</time>
      </trkpt>
      <trkpt lat="45.91076" lon="4.70176">
        <ele>216</ele>
        <time>2017-08-22T09:48:59Z</time>
      </trkpt>
      <trkpt lat="45.91082" lon="4.70177">
        <ele>216</ele>
        <time>2017-08-22T09:49:00Z</time>
      </trkpt>
      <trkpt lat="45.91089" lon="4.70179">
        <ele>216</ele>
        <time>2017-08-22T09:49:01Z</time>
      </trkpt>
      <trkpt lat="45.91095" lon="4.70181">
        <ele>216</ele>
        <time>2017-08-22T09:49:02Z</time>
      </trkpt>
      <trkpt lat="45.91101" lon="4.70185">
        <ele>215</ele>
        <time>2017-08-22T09:49:03Z</time>
      </trkpt>
      <trkpt lat="45.91108" lon="4.70188">
        <ele>215</ele>
        <time>2017-08-22T09:49:04Z</time>
      </trkpt>
      <trkpt lat="45.91114" lon="4.70191">
        <ele>215</ele>
        <time>2017-08-22T09:49:05Z</time>
      </trkpt>
      <trkpt lat="45.9112" lon="4.70194">
        <ele>215</ele>
        <time>2017-08-22T09:49:06Z</time>
      </trkpt>
      <trkpt lat="45.91126" lon="4.70197">
        <ele>215</ele>
        <time>2017-08-22T09:49:07Z</time>
      </trkpt>
      <trkpt lat="45.91132" lon="4.70198">
        <ele>215</ele>
        <time>2017-08-22T09:49:08Z</time>
      </trkpt>
      <trkpt lat="45.91139" lon="4.702">
        <ele>215</ele>
        <time>2017-08-22T09:49:09Z</time>
      </trkpt>
      <trkpt lat="45.91145" lon="4.70202">
        <ele>215</ele>
        <time>2017-08-22T09:49:10Z</time>
      </trkpt>
      <trkpt lat="45.91151" lon="4.70205">
        <ele>215</ele>
        <time>2017-08-22T09:49:11Z</time>
      </trkpt>
      <trkpt lat="45.91157" lon="4.70207">
        <ele>214</ele>
        <time>2017-08-22T09:49:12Z</time>
      </trkpt>
      <trkpt lat="45.91164" lon="4.70209">
        <ele>214</ele>
        <time>2017-08-22T09:49:13Z</time>
      </trkpt>
      <trkpt lat="45.9117" lon="4.70211">
        <ele>214</ele>
        <time>2017-08-22T09:49:14Z</time>
      </trkpt>
      <trkpt lat="45.91176" lon="4.70214">
        <ele>214</ele>
        <time>2017-08-22T09:49:15Z</time>
      </trkpt>
      <trkpt lat="45.91183" lon="4.70217">
        <ele>214</ele>
        <time>2017-08-22T09:49:16Z</time>
      </trkpt>
      <trkpt lat="45.91189" lon="4.70219">
        <ele>214</ele>
        <time>2017-08-22T09:49:17Z</time>
      </trkpt>
      <trkpt lat="45.91195" lon="4.7022">
        <ele>214</ele>
        <time>2017-08-22T09:49:18Z</time>
      </trkpt>
      <trkpt lat="45.91202" lon="4.70222">
        <ele>213</ele>
        <time>2017-08-22T09:49:19Z</time>
      </trkpt>
      <trkpt lat="45.91208" lon="4.70225">
        <ele>213</ele>
        <time>2017-08-22T09:49:20Z</time>
      </trkpt>
      <trkpt lat="45.91214" lon="4.70227">
        <ele>213</ele>
        <time>2017-08-22T09:49:21Z</time>
      </trkpt>
      <trkpt lat="45.9122" lon="4.70228">
        <ele>213</ele>
        <time>2017-08-22T09:49:22Z</time>
      </trkpt>
      <trkpt lat="45.91227" lon="4.7023">
        <ele>213</ele>
        <time>2017-08-22T09:49:23Z</time>
      </trkpt>
      <trkpt lat="45.91233" lon="4.70232">
        <ele>213</ele>
        <time>2017-08-22T09:49:24Z</time>
      </trkpt>
      <trkpt lat="45.91239" lon="4.70234">
        <ele>213</ele>
        <time>2017-08-22T09:49:25Z</time>
      </trkpt>
      <trkpt lat="45.91246" lon="4.70236">
        <ele>212</ele>
        <time>2017-08-22T09:49:26Z</time>
      </trkpt>
      <trkpt lat="45.91252" lon="4.70237">
        <ele>213</ele>
        <time>2017-08-22T09:49:27Z</time>
      </trkpt>
      <trkpt lat="45.91259" lon="4.7024">
        <ele>213</ele>
        <time>2017-08-22T09:49:28Z</time>
      </trkpt>
      <trkpt lat="45.91265" lon="4.70243">
        <ele>213</ele>
        <time>2017-08-22T09:49:29Z</time>
      </trkpt>
      <trkpt lat="45.91272" lon="4.70244">
        <ele>213</ele>
        <time>2017-08-22T09:49:30Z</time>
      </trkpt>
      <trkpt lat="45.9128" lon="4.70245">
        <ele>213</ele>
        <time>2017-08-22T09:49:31Z</time>
      </trkpt>
      <trkpt lat="45.91288" lon="4.70247">
        <ele>214</ele>
        <time>2017-08-22T09:49:32Z</time>
      </trkpt>
      <trkpt lat="45.91295" lon="4.7025">
        <ele>210</ele>
        <time>2017-08-22T09:49:33Z</time>
      </trkpt>
      <trkpt lat="45.91301" lon="4.70252">
        <ele>210</ele>
        <time>2017-08-22T09:49:34Z</time>
      </trkpt>
      <trkpt lat="45.91306" lon="4.70258">
        <ele>210</ele>
        <time>2017-08-22T09:49:35Z</time>
      </trkpt>
      <trkpt lat="45.91313" lon="4.70262">
        <ele>210</ele>
        <time>2017-08-22T09:49:36Z</time>
      </trkpt>
      <trkpt lat="45.9132" lon="4.70265">
        <ele>210</ele>
        <time>2017-08-22T09:49:37Z</time>
      </trkpt>
      <trkpt lat="45.91326" lon="4.70272">
        <ele>210</ele>
        <time>2017-08-22T09:49:38Z</time>
      </trkpt>
      <trkpt lat="45.91333" lon="4.70278">
        <ele>210</ele>
        <time>2017-08-22T09:49:39Z</time>
      </trkpt>
      <trkpt lat="45.9134" lon="4.70283">
        <ele>210</ele>
        <time>2017-08-22T09:49:40Z</time>
      </trkpt>
      <trkpt lat="45.91347" lon="4.70287">
        <ele>210</ele>
        <time>2017-08-22T09:49:41Z</time>
      </trkpt>
      <trkpt lat="45.91354" lon="4.70292">
        <ele>209</ele>
        <time>2017-08-22T09:49:42Z</time>
      </trkpt>
      <trkpt lat="45.91361" lon="4.70297">
        <ele>209</ele>
        <time>2017-08-22T09:49:43Z</time>
      </trkpt>
      <trkpt lat="45.91367" lon="4.70302">
        <ele>209</ele>
        <time>2017-08-22T09:49:44Z</time>
      </trkpt>
      <trkpt lat="45.91373" lon="4.70306">
        <ele>209</ele>
        <time>2017-08-22T09:49:45Z</time>
      </trkpt>
      <trkpt lat="45.91381" lon="4.70311">
        <ele>209</ele>
        <time>2017-08-22T09:49:46Z</time>
      </trkpt>
      <trkpt lat="45.91388" lon="4.70317">
        <ele>209</ele>
        <time>2017-08-22T09:49:47Z</time>
      </trkpt>
      <trkpt lat="45.91394" lon="4.70322">
        <ele>209</ele>
        <time>2017-08-22T09:49:48Z</time>
      </trkpt>
      <trkpt lat="45.914" lon="4.70327">
        <ele>209</ele>
        <time>2017-08-22T09:49:49Z</time>
      </trkpt>
      <trkpt lat="45.91406" lon="4.70332">
        <ele>208</ele>
        <time>2017-08-22T09:49:50Z</time>
      </trkpt>
      <trkpt lat="45.91413" lon="4.70336">
        <ele>207</ele>
        <time>2017-08-22T09:49:51Z</time>
      </trkpt>
      <trkpt lat="45.91418" lon="4.70341">
        <ele>207</ele>
        <time>2017-08-22T09:49:52Z</time>
      </trkpt>
      <trkpt lat="45.91424" lon="4.70345">
        <ele>207</ele>
        <time>2017-08-22T09:49:53Z</time>
      </trkpt>
      <trkpt lat="45.9143" lon="4.7035">
        <ele>207</ele>
        <time>2017-08-22T09:49:54Z</time>
      </trkpt>
      <trkpt lat="45.91436" lon="4.70354">
        <ele>207</ele>
        <time>2017-08-22T09:49:55Z</time>
      </trkpt>
      <trkpt lat="45.91441" lon="4.70358">
        <ele>207</ele>
        <time>2017-08-22T09:49:56Z</time>
      </trkpt>
      <trkpt lat="45.91447" lon="4.70363">
        <ele>206</ele>
        <time>2017-08-22T09:49:57Z</time>
      </trkpt>
      <trkpt lat="45.91453" lon="4.70367">
        <ele>206</ele>
        <time>2017-08-22T09:49:58Z</time>
      </trkpt>
      <trkpt lat="45.91458" lon="4.70372">
        <ele>206</ele>
        <time>2017-08-22T09:49:59Z</time>
      </trkpt>
      <trkpt lat="45.91464" lon="4.70377">
        <ele>206</ele>
        <time>2017-08-22T09:50:00Z</time>
      </trkpt>
      <trkpt lat="45.91469" lon="4.70381">
        <ele>206</ele>
        <time>2017-08-22T09:50:01Z</time>
      </trkpt>
      <trkpt lat="45.91475" lon="4.70386">
        <ele>206</ele>
        <time>2017-08-22T09:50:02Z</time>
      </trkpt>
      <trkpt lat="45.91481" lon="4.70391">
        <ele>205</ele>
        <time>2017-08-22T09:50:03Z</time>
      </trkpt>
      <trkpt lat="45.91488" lon="4.70395">
        <ele>205</ele>
        <time>2017-08-22T09:50:04Z</time>
      </trkpt>
      <trkpt lat="45.91495" lon="4.704">
        <ele>205</ele>
        <time>2017-08-22T09:50:05Z</time>
      </trkpt>
      <trkpt lat="45.91501" lon="4.70406">
        <ele>205</ele>
        <time>2017-08-22T09:50:06Z</time>
      </trkpt>
      <trkpt lat="45.91508" lon="4.70411">
        <ele>204</ele>
        <time>2017-08-22T09:50:07Z</time>
      </trkpt>
      <trkpt lat="45.91514" lon="4.70416">
        <ele>205</ele>
        <time>2017-08-22T09:50:08Z</time>
      </trkpt>
      <trkpt lat="45.91521" lon="4.70421">
        <ele>203</ele>
        <time>2017-08-22T09:50:09Z</time>
      </trkpt>
      <trkpt lat="45.91527" lon="4.70427">
        <ele>203</ele>
        <time>2017-08-22T09:50:10Z</time>
      </trkpt>
      <trkpt lat="45.91534" lon="4.70432">
        <ele>203</ele>
        <time>2017-08-22T09:50:11Z</time>
      </trkpt>
      <trkpt lat="45.9154" lon="4.70437">
        <ele>203</ele>
        <time>2017-08-22T09:50:12Z</time>
      </trkpt>
      <trkpt lat="45.91546" lon="4.70443">
        <ele>203</ele>
        <time>2017-08-22T09:50:13Z</time>
      </trkpt>
      <trkpt lat="45.91553" lon="4.70448">
        <ele>203</ele>
        <time>2017-08-22T09:50:14Z</time>
      </trkpt>
      <trkpt lat="45.9156" lon="4.70453">
        <ele>203</ele>
        <time>2017-08-22T09:50:15Z</time>
      </trkpt>
      <trkpt lat="45.91566" lon="4.70458">
        <ele>203</ele>
        <time>2017-08-22T09:50:16Z</time>
      </trkpt>
      <trkpt lat="45.91573" lon="4.70463">
        <ele>203</ele>
        <time>2017-08-22T09:50:17Z</time>
      </trkpt>
      <trkpt lat="45.91579" lon="4.70468">
        <ele>203</ele>
        <time>2017-08-22T09:50:18Z</time>
      </trkpt>
      <trkpt lat="45.91585" lon="4.70473">
        <ele>202</ele>
        <time>2017-08-22T09:50:19Z</time>
      </trkpt>
      <trkpt lat="45.91591" lon="4.70478">
        <ele>202</ele>
        <time>2017-08-22T09:50:20Z</time>
      </trkpt>
      <trkpt lat="45.91597" lon="4.70484">
        <ele>202</ele>
        <time>2017-08-22T09:50:21Z</time>
      </trkpt>
      <trkpt lat="45.91603" lon="4.70489">
        <ele>202</ele>
        <time>2017-08-22T09:50:22Z</time>
      </trkpt>
      <trkpt lat="45.9161" lon="4.70495">
        <ele>202</ele>
        <time>2017-08-22T09:50:23Z</time>
      </trkpt>
      <trkpt lat="45.91617" lon="4.70501">
        <ele>199</ele>
        <time>2017-08-22T09:50:24Z</time>
      </trkpt>
      <trkpt lat="45.91624" lon="4.70507">
        <ele>199</ele>
        <time>2017-08-22T09:50:25Z</time>
      </trkpt>
      <trkpt lat="45.91631" lon="4.70512">
        <ele>199</ele>
        <time>2017-08-22T09:50:26Z</time>
      </trkpt>
      <trkpt lat="45.91638" lon="4.70518">
        <ele>199</ele>
        <time>2017-08-22T09:50:27Z</time>
      </trkpt>
      <trkpt lat="45.91645" lon="4.70524">
        <ele>199</ele>
        <time>2017-08-22T09:50:28Z</time>
      </trkpt>
      <trkpt lat="45.91652" lon="4.70529">
        <ele>198</ele>
        <time>2017-08-22T09:50:29Z</time>
      </trkpt>
      <trkpt lat="45.91659" lon="4.70534">
        <ele>198</ele>
        <time>2017-08-22T09:50:30Z</time>
      </trkpt>
      <trkpt lat="45.91665" lon="4.70539">
        <ele>198</ele>
        <time>2017-08-22T09:50:31Z</time>
      </trkpt>
      <trkpt lat="45.91672" lon="4.70545">
        <ele>198</ele>
        <time>2017-08-22T09:50:32Z</time>
      </trkpt>
      <trkpt lat="45.91678" lon="4.7055">
        <ele>198</ele>
        <time>2017-08-22T09:50:33Z</time>
      </trkpt>
      <trkpt lat="45.91684" lon="4.70555">
        <ele>198</ele>
        <time>2017-08-22T09:50:34Z</time>
      </trkpt>
      <trkpt lat="45.9169" lon="4.70561">
        <ele>198</ele>
        <time>2017-08-22T09:50:35Z</time>
      </trkpt>
      <trkpt lat="45.91696" lon="4.70567">
        <ele>197</ele>
        <time>2017-08-22T09:50:36Z</time>
      </trkpt>
      <trkpt lat="45.91701" lon="4.70574">
        <ele>197</ele>
        <time>2017-08-22T09:50:37Z</time>
      </trkpt>
      <trkpt lat="45.91705" lon="4.70582">
        <ele>197</ele>
        <time>2017-08-22T09:50:38Z</time>
      </trkpt>
      <trkpt lat="45.91711" lon="4.70589">
        <ele>196</ele>
        <time>2017-08-22T09:50:39Z</time>
      </trkpt>
      <trkpt lat="45.91717" lon="4.70592">
        <ele>195</ele>
        <time>2017-08-22T09:50:40Z</time>
      </trkpt>
      <trkpt lat="45.91724" lon="4.70593">
        <ele>195</ele>
        <time>2017-08-22T09:50:41Z</time>
      </trkpt>
      <trkpt lat="45.91731" lon="4.70593">
        <ele>196</ele>
        <time>2017-08-22T09:50:42Z</time>
      </trkpt>
      <trkpt lat="45.91737" lon="4.70594">
        <ele>196</ele>
        <time>2017-08-22T09:50:43Z</time>
      </trkpt>
      <trkpt lat="45.91744" lon="4.70598">
        <ele>196</ele>
        <time>2017-08-22T09:50:44Z</time>
      </trkpt>
      <trkpt lat="45.91751" lon="4.70602">
        <ele>195</ele>
        <time>2017-08-22T09:50:45Z</time>
      </trkpt>
      <trkpt lat="45.91758" lon="4.70606">
        <ele>195</ele>
        <time>2017-08-22T09:50:46Z</time>
      </trkpt>
      <trkpt lat="45.91766" lon="4.70609">
        <ele>195</ele>
        <time>2017-08-22T09:50:47Z</time>
      </trkpt>
      <trkpt lat="45.91774" lon="4.70612">
        <ele>195</ele>
        <time>2017-08-22T09:50:48Z</time>
      </trkpt>
      <trkpt lat="45.91782" lon="4.70614">
        <ele>194</ele>
        <time>2017-08-22T09:50:49Z</time>
      </trkpt>
      <trkpt lat="45.9179" lon="4.70616">
        <ele>194</ele>
        <time>2017-08-22T09:50:50Z</time>
      </trkpt>
      <trkpt lat="45.91797" lon="4.70617">
        <ele>194</ele>
        <time>2017-08-22T09:50:51Z</time>
      </trkpt>
      <trkpt lat="45.91805" lon="4.70618">
        <ele>194</ele>
        <time>2017-08-22T09:50:52Z</time>
      </trkpt>
      <trkpt lat="45.91812" lon="4.70619">
        <ele>194</ele>
        <time>2017-08-22T09:50:53Z</time>
      </trkpt>
      <trkpt lat="45.91819" lon="4.70619">
        <ele>194</ele>
        <time>2017-08-22T09:50:54Z</time>
      </trkpt>
      <trkpt lat="45.91826" lon="4.70619">
        <ele>194</ele>
        <time>2017-08-22T09:50:55Z</time>
      </trkpt>
      <trkpt lat="45.91833" lon="4.70618">
        <ele>194</ele>
        <time>2017-08-22T09:50:56Z</time>
      </trkpt>
      <trkpt lat="45.9184" lon="4.70618">
        <ele>194</ele>
        <time>2017-08-22T09:50:57Z</time>
      </trkpt>
      <trkpt lat="45.91847" lon="4.70618">
        <ele>194</ele>
        <time>2017-08-22T09:50:58Z</time>
      </trkpt>
      <trkpt lat="45.91853" lon="4.70618">
        <ele>194</ele>
        <time>2017-08-22T09:50:59Z</time>
      </trkpt>
      <trkpt lat="45.91859" lon="4.70618">
        <ele>194</ele>
        <time>2017-08-22T09:51:00Z</time>
      </trkpt>
      <trkpt lat="45.91865" lon="4.70619">
        <ele>194</ele>
        <time>2017-08-22T09:51:01Z</time>
      </trkpt>
      <trkpt lat="45.91871" lon="4.70619">
        <ele>194</ele>
        <time>2017-08-22T09:51:02Z</time>
      </trkpt>
      <trkpt lat="45.91877" lon="4.70619">
        <ele>194</ele>
        <time>2017-08-22T09:51:03Z</time>
      </trkpt>
      <trkpt lat="45.91883" lon="4.70619">
        <ele>194</ele>
        <time>2017-08-22T09:51:04Z</time>
      </trkpt>
      <trkpt lat="45.9189" lon="4.70618">
        <ele>194</ele>
        <time>2017-08-22T09:51:05Z</time>
      </trkpt>
      <trkpt lat="45.91897" lon="4.70618">
        <ele>194</ele>
        <time>2017-08-22T09:51:06Z</time>
      </trkpt>
      <trkpt lat="45.91904" lon="4.70617">
        <ele>194</ele>
        <time>2017-08-22T09:51:07Z</time>
      </trkpt>
      <trkpt lat="45.91911" lon="4.70617">
        <ele>194</ele>
        <time>2017-08-22T09:51:08Z</time>
      </trkpt>
      <trkpt lat="45.91918" lon="4.70616">
        <ele>194</ele>
        <time>2017-08-22T09:51:09Z</time>
      </trkpt>
      <trkpt lat="45.91925" lon="4.70615">
        <ele>194</ele>
        <time>2017-08-22T09:51:10Z</time>
      </trkpt>
      <trkpt lat="45.91931" lon="4.70614">
        <ele>194</ele>
        <time>2017-08-22T09:51:11Z</time>
      </trkpt>
      <trkpt lat="45.91938" lon="4.70613">
        <ele>194</ele>
        <time>2017-08-22T09:51:12Z</time>
      </trkpt>
      <trkpt lat="45.91945" lon="4.70613">
        <ele>194</ele>
        <time>2017-08-22T09:51:13Z</time>
      </trkpt>
      <trkpt lat="45.91952" lon="4.70612">
        <ele>194</ele>
        <time>2017-08-22T09:51:14Z</time>
      </trkpt>
      <trkpt lat="45.91958" lon="4.70611">
        <ele>194</ele>
        <time>2017-08-22T09:51:15Z</time>
      </trkpt>
      <trkpt lat="45.91965" lon="4.7061">
        <ele>194</ele>
        <time>2017-08-22T09:51:16Z</time>
      </trkpt>
      <trkpt lat="45.91971" lon="4.70609">
        <ele>194</ele>
        <time>2017-08-22T09:51:17Z</time>
      </trkpt>
      <trkpt lat="45.91977" lon="4.70608">
        <ele>194</ele>
        <time>2017-08-22T09:51:18Z</time>
      </trkpt>
      <trkpt lat="45.91983" lon="4.70607">
        <ele>194</ele>
        <time>2017-08-22T09:51:19Z</time>
      </trkpt>
      <trkpt lat="45.91989" lon="4.70607">
        <ele>194</ele>
        <time>2017-08-22T09:51:20Z</time>
      </trkpt>
      <trkpt lat="45.91995" lon="4.70606">
        <ele>194</ele>
        <time>2017-08-22T09:51:21Z</time>
      </trkpt>
      <trkpt lat="45.92" lon="4.70605">
        <ele>194</ele>
        <time>2017-08-22T09:51:22Z</time>
      </trkpt>
      <trkpt lat="45.92006" lon="4.70604">
        <ele>194</ele>
        <time>2017-08-22T09:51:23Z</time>
      </trkpt>
      <trkpt lat="45.92012" lon="4.70603">
        <ele>194</ele>
        <time>2017-08-22T09:51:24Z</time>
      </trkpt>
      <trkpt lat="45.92018" lon="4.70602">
        <ele>194</ele>
        <time>2017-08-22T09:51:25Z</time>
      </trkpt>
      <trkpt lat="45.92025" lon="4.70601">
        <ele>194</ele>
        <time>2017-08-22T09:51:26Z</time>
      </trkpt>
      <trkpt lat="45.92032" lon="4.706">
        <ele>194</ele>
        <time>2017-08-22T09:51:27Z</time>
      </trkpt>
      <trkpt lat="45.92039" lon="4.70599">
        <ele>193</ele>
        <time>2017-08-22T09:51:28Z</time>
      </trkpt>
      <trkpt lat="45.92046" lon="4.70598">
        <ele>193</ele>
        <time>2017-08-22T09:51:29Z</time>
      </trkpt>
      <trkpt lat="45.92053" lon="4.70598">
        <ele>193</ele>
        <time>2017-08-22T09:51:30Z</time>
      </trkpt>
      <trkpt lat="45.9206" lon="4.70597">
        <ele>193</ele>
        <time>2017-08-22T09:51:31Z</time>
      </trkpt>
      <trkpt lat="45.92067" lon="4.70597">
        <ele>193</ele>
        <time>2017-08-22T09:51:32Z</time>
      </trkpt>
      <trkpt lat="45.92074" lon="4.70596">
        <ele>194</ele>
        <time>2017-08-22T09:51:33Z</time>
      </trkpt>
      <trkpt lat="45.9208" lon="4.70596">
        <ele>194</ele>
        <time>2017-08-22T09:51:34Z</time>
      </trkpt>
      <trkpt lat="45.92087" lon="4.70594">
        <ele>193</ele>
        <time>2017-08-22T09:51:35Z</time>
      </trkpt>
      <trkpt lat="45.92093" lon="4.70593">
        <ele>193</ele>
        <time>2017-08-22T09:51:36Z</time>
      </trkpt>
      <trkpt lat="45.92099" lon="4.70592">
        <ele>192</ele>
        <time>2017-08-22T09:51:37Z</time>
      </trkpt>
      <trkpt lat="45.92106" lon="4.70592">
        <ele>192</ele>
        <time>2017-08-22T09:51:38Z</time>
      </trkpt>
      <trkpt lat="45.92112" lon="4.70592">
        <ele>192</ele>
        <time>2017-08-22T09:51:39Z</time>
      </trkpt>
      <trkpt lat="45.92118" lon="4.70591">
        <ele>191</ele>
        <time>2017-08-22T09:51:40Z</time>
      </trkpt>
      <trkpt lat="45.92123" lon="4.70591">
        <ele>191</ele>
        <time>2017-08-22T09:51:41Z</time>
      </trkpt>
      <trkpt lat="45.92129" lon="4.7059">
        <ele>191</ele>
        <time>2017-08-22T09:51:42Z</time>
      </trkpt>
      <trkpt lat="45.92134" lon="4.7059">
        <ele>191</ele>
        <time>2017-08-22T09:51:43Z</time>
      </trkpt>
      <trkpt lat="45.9214" lon="4.7059">
        <ele>191</ele>
        <time>2017-08-22T09:51:44Z</time>
      </trkpt>
      <trkpt lat="45.92145" lon="4.7059">
        <ele>191</ele>
        <time>2017-08-22T09:51:45Z</time>
      </trkpt>
      <trkpt lat="45.9215" lon="4.70591">
        <ele>190</ele>
        <time>2017-08-22T09:51:46Z</time>
      </trkpt>
      <trkpt lat="45.92156" lon="4.70591">
        <ele>190</ele>
        <time>2017-08-22T09:51:47Z</time>
      </trkpt>
      <trkpt lat="45.92162" lon="4.70592">
        <ele>190</ele>
        <time>2017-08-22T09:51:48Z</time>
      </trkpt>
      <trkpt lat="45.92168" lon="4.70592">
        <ele>191</ele>
        <time>2017-08-22T09:51:49Z</time>
      </trkpt>
      <trkpt lat="45.92174" lon="4.70593">
        <ele>191</ele>
        <time>2017-08-22T09:51:50Z</time>
      </trkpt>
      <trkpt lat="45.9218" lon="4.70594">
        <ele>191</ele>
        <time>2017-08-22T09:51:51Z</time>
      </trkpt>
      <trkpt lat="45.92186" lon="4.70594">
        <ele>191</ele>
        <time>2017-08-22T09:51:52Z</time>
      </trkpt>
      <trkpt lat="45.92191" lon="4.70595">
        <ele>192</ele>
        <time>2017-08-22T09:51:53Z</time>
      </trkpt>
      <trkpt lat="45.92196" lon="4.70596">
        <ele>192</ele>
        <time>2017-08-22T09:51:54Z</time>
      </trkpt>
      <trkpt lat="45.92201" lon="4.70597">
        <ele>192</ele>
        <time>2017-08-22T09:51:55Z</time>
      </trkpt>
      <trkpt lat="45.92205" lon="4.70598">
        <ele>192</ele>
        <time>2017-08-22T09:51:56Z</time>
      </trkpt>
      <trkpt lat="45.9221" lon="4.70599">
        <ele>193</ele>
        <time>2017-08-22T09:51:57Z</time>
      </trkpt>
      <trkpt lat="45.92216" lon="4.706">
        <ele>193</ele>
        <time>2017-08-22T09:51:58Z</time>
      </trkpt>
      <trkpt lat="45.92221" lon="4.70601">
        <ele>193</ele>
        <time>2017-08-22T09:51:59Z</time>
      </trkpt>
      <trkpt lat="45.92227" lon="4.70602">
        <ele>193</ele>
        <time>2017-08-22T09:52:00Z</time>
      </trkpt>
      <trkpt lat="45.92233" lon="4.70603">
        <ele>194</ele>
        <time>2017-08-22T09:52:01Z</time>
      </trkpt>
      <trkpt lat="45.92238" lon="4.70605">
        <ele>194</ele>
        <time>2017-08-22T09:52:02Z</time>
      </trkpt>
      <trkpt lat="45.92243" lon="4.70608">
        <ele>194</ele>
        <time>2017-08-22T09:52:03Z</time>
      </trkpt>
      <trkpt lat="45.92249" lon="4.70609">
        <ele>194</ele>
        <time>2017-08-22T09:52:04Z</time>
      </trkpt>
      <trkpt lat="45.92254" lon="4.70611">
        <ele>196</ele>
        <time>2017-08-22T09:52:05Z</time>
      </trkpt>
      <trkpt lat="45.9226" lon="4.70614">
        <ele>196</ele>
        <time>2017-08-22T09:52:06Z</time>
      </trkpt>
      <trkpt lat="45.92266" lon="4.70616">
        <ele>196</ele>
        <time>2017-08-22T09:52:07Z</time>
      </trkpt>
      <trkpt lat="45.92271" lon="4.70618">
        <ele>196</ele>
        <time>2017-08-22T09:52:08Z</time>
      </trkpt>
      <trkpt lat="45.92276" lon="4.7062">
        <ele>196</ele>
        <time>2017-08-22T09:52:09Z</time>
      </trkpt>
      <trkpt lat="45.92282" lon="4.70623">
        <ele>196</ele>
        <time>2017-08-22T09:52:10Z</time>
      </trkpt>
      <trkpt lat="45.92287" lon="4.70626">
        <ele>196</ele>
        <time>2017-08-22T09:52:11Z</time>
      </trkpt>
      <trkpt lat="45.92292" lon="4.70629">
        <ele>196</ele>
        <time>2017-08-22T09:52:12Z</time>
      </trkpt>
      <trkpt lat="45.92298" lon="4.70631">
        <ele>196</ele>
        <time>2017-08-22T09:52:13Z</time>
      </trkpt>
      <trkpt lat="45.92303" lon="4.70632">
        <ele>196</ele>
        <time>2017-08-22T09:52:14Z</time>
      </trkpt>
      <trkpt lat="45.92308" lon="4.70634">
        <ele>196</ele>
        <time>2017-08-22T09:52:15Z</time>
      </trkpt>
      <trkpt lat="45.92314" lon="4.70637">
        <ele>196</ele>
        <time>2017-08-22T09:52:16Z</time>
      </trkpt>
      <trkpt lat="45.9232" lon="4.7064">
        <ele>196</ele>
        <time>2017-08-22T09:52:17Z</time>
      </trkpt>
      <trkpt lat="45.92326" lon="4.70645">
        <ele>196</ele>
        <time>2017-08-22T09:52:18Z</time>
      </trkpt>
      <trkpt lat="45.92332" lon="4.70649">
        <ele>196</ele>
        <time>2017-08-22T09:52:19Z</time>
      </trkpt>
      <trkpt lat="45.92338" lon="4.70652">
        <ele>196</ele>
        <time>2017-08-22T09:52:20Z</time>
      </trkpt>
      <trkpt lat="45.92344" lon="4.70656">
        <ele>196</ele>
        <time>2017-08-22T09:52:21Z</time>
      </trkpt>
      <trkpt lat="45.9235" lon="4.7066">
        <ele>196</ele>
        <time>2017-08-22T09:52:22Z</time>
      </trkpt>
      <trkpt lat="45.92357" lon="4.70664">
        <ele>196</ele>
        <time>2017-08-22T09:52:23Z</time>
      </trkpt>
      <trkpt lat="45.92363" lon="4.70667">
        <ele>195</ele>
        <time>2017-08-22T09:52:24Z</time>
      </trkpt>
      <trkpt lat="45.92369" lon="4.70671">
        <ele>194</ele>
        <time>2017-08-22T09:52:25Z</time>
      </trkpt>
      <trkpt lat="45.92374" lon="4.70674">
        <ele>194</ele>
        <time>2017-08-22T09:52:26Z</time>
      </trkpt>
      <trkpt lat="45.9238" lon="4.70678">
        <ele>194</ele>
        <time>2017-08-22T09:52:27Z</time>
      </trkpt>
      <trkpt lat="45.92386" lon="4.70681">
        <ele>194</ele>
        <time>2017-08-22T09:52:28Z</time>
      </trkpt>
      <trkpt lat="45.92391" lon="4.70684">
        <ele>194</ele>
        <time>2017-08-22T09:52:29Z</time>
      </trkpt>
      <trkpt lat="45.92397" lon="4.70687">
        <ele>194</ele>
        <time>2017-08-22T09:52:30Z</time>
      </trkpt>
      <trkpt lat="45.92402" lon="4.7069">
        <ele>194</ele>
        <time>2017-08-22T09:52:31Z</time>
      </trkpt>
      <trkpt lat="45.92407" lon="4.70692">
        <ele>194</ele>
        <time>2017-08-22T09:52:32Z</time>
      </trkpt>
      <trkpt lat="45.92412" lon="4.70695">
        <ele>194</ele>
        <time>2017-08-22T09:52:33Z</time>
      </trkpt>
      <trkpt lat="45.92417" lon="4.70697">
        <ele>195</ele>
        <time>2017-08-22T09:52:34Z</time>
      </trkpt>
      <trkpt lat="45.92422" lon="4.707">
        <ele>194</ele>
        <time>2017-08-22T09:52:35Z</time>
      </trkpt>
      <trkpt lat="45.92428" lon="4.70703">
        <ele>194</ele>
        <time>2017-08-22T09:52:36Z</time>
      </trkpt>
      <trkpt lat="45.92433" lon="4.70706">
        <ele>194</ele>
        <time>2017-08-22T09:52:37Z</time>
      </trkpt>
      <trkpt lat="45.92439" lon="4.7071">
        <ele>194</ele>
        <time>2017-08-22T09:52:38Z</time>
      </trkpt>
      <trkpt lat="45.92444" lon="4.70713">
        <ele>194</ele>
        <time>2017-08-22T09:52:39Z</time>
      </trkpt>
      <trkpt lat="45.9245" lon="4.70716">
        <ele>194</ele>
        <time>2017-08-22T09:52:40Z</time>
      </trkpt>
      <trkpt lat="45.92456" lon="4.70719">
        <ele>194</ele>
        <time>2017-08-22T09:52:41Z</time>
      </trkpt>
      <trkpt lat="45.92463" lon="4.70722">
        <ele>194</ele>
        <time>2017-08-22T09:52:42Z</time>
      </trkpt>
      <trkpt lat="45.92469" lon="4.70726">
        <ele>194</ele>
        <time>2017-08-22T09:52:43Z</time>
      </trkpt>
      <trkpt lat="45.92476" lon="4.7073">
        <ele>194</ele>
        <time>2017-08-22T09:52:44Z</time>
      </trkpt>
      <trkpt lat="45.92482" lon="4.70733">
        <ele>194</ele>
        <time>2017-08-22T09:52:45Z</time>
      </trkpt>
      <trkpt lat="45.92489" lon="4.70737">
        <ele>194</ele>
        <time>2017-08-22T09:52:46Z</time>
      </trkpt>
      <trkpt lat="45.92496" lon="4.7074">
        <ele>194</ele>
        <time>2017-08-22T09:52:47Z</time>
      </trkpt>
      <trkpt lat="45.92502" lon="4.70744">
        <ele>195</ele>
        <time>2017-08-22T09:52:48Z</time>
      </trkpt>
      <trkpt lat="45.92508" lon="4.70747">
        <ele>195</ele>
        <time>2017-08-22T09:52:49Z</time>
      </trkpt>
      <trkpt lat="45.92514" lon="4.70751">
        <ele>194</ele>
        <time>2017-08-22T09:52:50Z</time>
      </trkpt>
      <trkpt lat="45.9252" lon="4.70755">
        <ele>195</ele>
        <time>2017-08-22T09:52:51Z</time>
      </trkpt>
      <trkpt lat="45.92526" lon="4.70759">
        <ele>195</ele>
        <time>2017-08-22T09:52:52Z</time>
      </trkpt>
      <trkpt lat="45.92532" lon="4.70763">
        <ele>195</ele>
        <time>2017-08-22T09:52:53Z</time>
      </trkpt>
      <trkpt lat="45.92537" lon="4.70766">
        <ele>195</ele>
        <time>2017-08-22T09:52:54Z</time>
      </trkpt>
      <trkpt lat="45.92543" lon="4.7077">
        <ele>195</ele>
        <time>2017-08-22T09:52:55Z</time>
      </trkpt>
      <trkpt lat="45.92548" lon="4.70774">
        <ele>195</ele>
        <time>2017-08-22T09:52:56Z</time>
      </trkpt>
      <trkpt lat="45.92553" lon="4.70778">
        <ele>195</ele>
        <time>2017-08-22T09:52:57Z</time>
      </trkpt>
      <trkpt lat="45.92558" lon="4.70781">
        <ele>196</ele>
        <time>2017-08-22T09:52:58Z</time>
      </trkpt>
      <trkpt lat="45.92563" lon="4.70785">
        <ele>196</ele>
        <time>2017-08-22T09:52:59Z</time>
      </trkpt>
      <trkpt lat="45.92568" lon="4.70789">
        <ele>196</ele>
        <time>2017-08-22T09:53:00Z</time>
      </trkpt>
      <trkpt lat="45.92573" lon="4.70794">
        <ele>196</ele>
        <time>2017-08-22T09:53:01Z</time>
      </trkpt>
      <trkpt lat="45.92578" lon="4.70798">
        <ele>196</ele>
        <time>2017-08-22T09:53:02Z</time>
      </trkpt>
      <trkpt lat="45.92583" lon="4.70802">
        <ele>196</ele>
        <time>2017-08-22T09:53:03Z</time>
      </trkpt>
      <trkpt lat="45.92587" lon="4.70806">
        <ele>198</ele>
        <time>2017-08-22T09:53:04Z</time>
      </trkpt>
      <trkpt lat="45.92591" lon="4.7081">
        <ele>198</ele>
        <time>2017-08-22T09:53:05Z</time>
      </trkpt>
      <trkpt lat="45.92595" lon="4.70814">
        <ele>198</ele>
        <time>2017-08-22T09:53:06Z</time>
      </trkpt>
      <trkpt lat="45.92599" lon="4.70817">
        <ele>198</ele>
        <time>2017-08-22T09:53:07Z</time>
      </trkpt>
      <trkpt lat="45.92602" lon="4.70821">
        <ele>198</ele>
        <time>2017-08-22T09:53:08Z</time>
      </trkpt>
      <trkpt lat="45.92606" lon="4.70825">
        <ele>198</ele>
        <time>2017-08-22T09:53:09Z</time>
      </trkpt>
      <trkpt lat="45.9261" lon="4.70829">
        <ele>198</ele>
        <time>2017-08-22T09:53:10Z</time>
      </trkpt>
      <trkpt lat="45.92615" lon="4.70833">
        <ele>198</ele>
        <time>2017-08-22T09:53:11Z</time>
      </trkpt>
      <trkpt lat="45.92619" lon="4.70837">
        <ele>197</ele>
        <time>2017-08-22T09:53:12Z</time>
      </trkpt>
      <trkpt lat="45.92624" lon="4.70841">
        <ele>197</ele>
        <time>2017-08-22T09:53:13Z</time>
      </trkpt>
      <trkpt lat="45.92628" lon="4.70845">
        <ele>198</ele>
        <time>2017-08-22T09:53:14Z</time>
      </trkpt>
      <trkpt lat="45.92633" lon="4.70848">
        <ele>198</ele>
        <time>2017-08-22T09:53:15Z</time>
      </trkpt>
      <trkpt lat="45.92637" lon="4.70852">
        <ele>198</ele>
        <time>2017-08-22T09:53:16Z</time>
      </trkpt>
      <trkpt lat="45.92641" lon="4.70856">
        <ele>198</ele>
        <time>2017-08-22T09:53:17Z</time>
      </trkpt>
      <trkpt lat="45.92645" lon="4.70859">
        <ele>198</ele>
        <time>2017-08-22T09:53:18Z</time>
      </trkpt>
      <trkpt lat="45.92653" lon="4.70865">
        <ele>198</ele>
        <time>2017-08-22T09:53:20Z</time>
      </trkpt>
      <trkpt lat="45.92656" lon="4.7087">
        <ele>198</ele>
        <time>2017-08-22T09:53:21Z</time>
      </trkpt>
      <trkpt lat="45.9266" lon="4.70874">
        <ele>198</ele>
        <time>2017-08-22T09:53:22Z</time>
      </trkpt>
      <trkpt lat="45.92665" lon="4.70878">
        <ele>197</ele>
        <time>2017-08-22T09:53:23Z</time>
      </trkpt>
      <trkpt lat="45.92669" lon="4.70882">
        <ele>198</ele>
        <time>2017-08-22T09:53:24Z</time>
      </trkpt>
      <trkpt lat="45.92674" lon="4.70887">
        <ele>198</ele>
        <time>2017-08-22T09:53:25Z</time>
      </trkpt>
      <trkpt lat="45.92678" lon="4.70892">
        <ele>198</ele>
        <time>2017-08-22T09:53:26Z</time>
      </trkpt>
      <trkpt lat="45.92682" lon="4.70896">
        <ele>197</ele>
        <time>2017-08-22T09:53:27Z</time>
      </trkpt>
      <trkpt lat="45.92687" lon="4.70899">
        <ele>197</ele>
        <time>2017-08-22T09:53:28Z</time>
      </trkpt>
      <trkpt lat="45.92691" lon="4.70902">
        <ele>197</ele>
        <time>2017-08-22T09:53:29Z</time>
      </trkpt>
      <trkpt lat="45.92696" lon="4.70906">
        <ele>197</ele>
        <time>2017-08-22T09:53:30Z</time>
      </trkpt>
      <trkpt lat="45.927" lon="4.70909">
        <ele>197</ele>
        <time>2017-08-22T09:53:31Z</time>
      </trkpt>
      <trkpt lat="45.92704" lon="4.70912">
        <ele>197</ele>
        <time>2017-08-22T09:53:32Z</time>
      </trkpt>
      <trkpt lat="45.92709" lon="4.70914">
        <ele>197</ele>
        <time>2017-08-22T09:53:33Z</time>
      </trkpt>
      <trkpt lat="45.92713" lon="4.70916">
        <ele>197</ele>
        <time>2017-08-22T09:53:34Z</time>
      </trkpt>
      <trkpt lat="45.92718" lon="4.70918">
        <ele>195</ele>
        <time>2017-08-22T09:53:35Z</time>
      </trkpt>
      <trkpt lat="45.92723" lon="4.7092">
        <ele>195</ele>
        <time>2017-08-22T09:53:36Z</time>
      </trkpt>
      <trkpt lat="45.92729" lon="4.70922">
        <ele>195</ele>
        <time>2017-08-22T09:53:37Z</time>
      </trkpt>
      <trkpt lat="45.92734" lon="4.70923">
        <ele>195</ele>
        <time>2017-08-22T09:53:38Z</time>
      </trkpt>
      <trkpt lat="45.9274" lon="4.70925">
        <ele>195</ele>
        <time>2017-08-22T09:53:39Z</time>
      </trkpt>
      <trkpt lat="45.92746" lon="4.70926">
        <ele>195</ele>
        <time>2017-08-22T09:53:40Z</time>
      </trkpt>
      <trkpt lat="45.92752" lon="4.70927">
        <ele>196</ele>
        <time>2017-08-22T09:53:41Z</time>
      </trkpt>
      <trkpt lat="45.92757" lon="4.70928">
        <ele>196</ele>
        <time>2017-08-22T09:53:42Z</time>
      </trkpt>
      <trkpt lat="45.92762" lon="4.70929">
        <ele>196</ele>
        <time>2017-08-22T09:53:43Z</time>
      </trkpt>
      <trkpt lat="45.92767" lon="4.7093">
        <ele>196</ele>
        <time>2017-08-22T09:53:44Z</time>
      </trkpt>
      <trkpt lat="45.92772" lon="4.70931">
        <ele>196</ele>
        <time>2017-08-22T09:53:45Z</time>
      </trkpt>
      <trkpt lat="45.9278" lon="4.70933">
        <ele>196</ele>
        <time>2017-08-22T09:53:47Z</time>
      </trkpt>
      <trkpt lat="45.92785" lon="4.70934">
        <ele>196</ele>
        <time>2017-08-22T09:53:48Z</time>
      </trkpt>
      <trkpt lat="45.92789" lon="4.70935">
        <ele>196</ele>
        <time>2017-08-22T09:53:49Z</time>
      </trkpt>
      <trkpt lat="45.92793" lon="4.70937">
        <ele>196</ele>
        <time>2017-08-22T09:53:50Z</time>
      </trkpt>
      <trkpt lat="45.92798" lon="4.7094">
        <ele>196</ele>
        <time>2017-08-22T09:53:51Z</time>
      </trkpt>
      <trkpt lat="45.92802" lon="4.70943">
        <ele>196</ele>
        <time>2017-08-22T09:53:52Z</time>
      </trkpt>
      <trkpt lat="45.92806" lon="4.70947">
        <ele>196</ele>
        <time>2017-08-22T09:53:53Z</time>
      </trkpt>
      <trkpt lat="45.9281" lon="4.70951">
        <ele>196</ele>
        <time>2017-08-22T09:53:54Z</time>
      </trkpt>
      <trkpt lat="45.92818" lon="4.70953">
        <ele>196</ele>
        <time>2017-08-22T09:53:56Z</time>
      </trkpt>
      <trkpt lat="45.92823" lon="4.70951">
        <ele>197</ele>
        <time>2017-08-22T09:53:57Z</time>
      </trkpt>
      <trkpt lat="45.92827" lon="4.70949">
        <ele>197</ele>
        <time>2017-08-22T09:53:58Z</time>
      </trkpt>
      <trkpt lat="45.92831" lon="4.70947">
        <ele>197</ele>
        <time>2017-08-22T09:53:59Z</time>
      </trkpt>
      <trkpt lat="45.92836" lon="4.70946">
        <ele>198</ele>
        <time>2017-08-22T09:54:00Z</time>
      </trkpt>
      <trkpt lat="45.92842" lon="4.70946">
        <ele>198</ele>
        <time>2017-08-22T09:54:01Z</time>
      </trkpt>
      <trkpt lat="45.92847" lon="4.70947">
        <ele>198</ele>
        <time>2017-08-22T09:54:02Z</time>
      </trkpt>
      <trkpt lat="45.92853" lon="4.70949">
        <ele>198</ele>
        <time>2017-08-22T09:54:03Z</time>
      </trkpt>
      <trkpt lat="45.92859" lon="4.7095">
        <ele>198</ele>
        <time>2017-08-22T09:54:04Z</time>
      </trkpt>
      <trkpt lat="45.92865" lon="4.70951">
        <ele>198</ele>
        <time>2017-08-22T09:54:05Z</time>
      </trkpt>
      <trkpt lat="45.92871" lon="4.70952">
        <ele>198</ele>
        <time>2017-08-22T09:54:06Z</time>
      </trkpt>
      <trkpt lat="45.92877" lon="4.70953">
        <ele>198</ele>
        <time>2017-08-22T09:54:07Z</time>
      </trkpt>
      <trkpt lat="45.92883" lon="4.70955">
        <ele>198</ele>
        <time>2017-08-22T09:54:08Z</time>
      </trkpt>
      <trkpt lat="45.92889" lon="4.70956">
        <ele>198</ele>
        <time>2017-08-22T09:54:09Z</time>
      </trkpt>
      <trkpt lat="45.92894" lon="4.70958">
        <ele>198</ele>
        <time>2017-08-22T09:54:10Z</time>
      </trkpt>
      <trkpt lat="45.92899" lon="4.70959">
        <ele>197</ele>
        <time>2017-08-22T09:54:11Z</time>
      </trkpt>
      <trkpt lat="45.92904" lon="4.7096">
        <ele>197</ele>
        <time>2017-08-22T09:54:12Z</time>
      </trkpt>
      <trkpt lat="45.9291" lon="4.70961">
        <ele>197</ele>
        <time>2017-08-22T09:54:13Z</time>
      </trkpt>
      <trkpt lat="45.92916" lon="4.70962">
        <ele>197</ele>
        <time>2017-08-22T09:54:14Z</time>
      </trkpt>
      <trkpt lat="45.92921" lon="4.70963">
        <ele>198</ele>
        <time>2017-08-22T09:54:15Z</time>
      </trkpt>
      <trkpt lat="45.92927" lon="4.70965">
        <ele>198</ele>
        <time>2017-08-22T09:54:16Z</time>
      </trkpt>
      <trkpt lat="45.92933" lon="4.70966">
        <ele>198</ele>
        <time>2017-08-22T09:54:17Z</time>
      </trkpt>
      <trkpt lat="45.92939" lon="4.70967">
        <ele>198</ele>
        <time>2017-08-22T09:54:18Z</time>
      </trkpt>
      <trkpt lat="45.92945" lon="4.70968">
        <ele>198</ele>
        <time>2017-08-22T09:54:19Z</time>
      </trkpt>
      <trkpt lat="45.92951" lon="4.7097">
        <ele>198</ele>
        <time>2017-08-22T09:54:20Z</time>
      </trkpt>
      <trkpt lat="45.92957" lon="4.70971">
        <ele>198</ele>
        <time>2017-08-22T09:54:21Z</time>
      </trkpt>
      <trkpt lat="45.92963" lon="4.70973">
        <ele>198</ele>
        <time>2017-08-22T09:54:22Z</time>
      </trkpt>
      <trkpt lat="45.92969" lon="4.70975">
        <ele>198</ele>
        <time>2017-08-22T09:54:23Z</time>
      </trkpt>
      <trkpt lat="45.92976" lon="4.70976">
        <ele>198</ele>
        <time>2017-08-22T09:54:24Z</time>
      </trkpt>
      <trkpt lat="45.92982" lon="4.70978">
        <ele>198</ele>
        <time>2017-08-22T09:54:25Z</time>
      </trkpt>
      <trkpt lat="45.92988" lon="4.70981">
        <ele>198</ele>
        <time>2017-08-22T09:54:26Z</time>
      </trkpt>
      <trkpt lat="45.92994" lon="4.70984">
        <ele>198</ele>
        <time>2017-08-22T09:54:27Z</time>
      </trkpt>
      <trkpt lat="45.93" lon="4.70986">
        <ele>197</ele>
        <time>2017-08-22T09:54:28Z</time>
      </trkpt>
      <trkpt lat="45.93006" lon="4.70989">
        <ele>198</ele>
        <time>2017-08-22T09:54:29Z</time>
      </trkpt>
      <trkpt lat="45.93011" lon="4.70992">
        <ele>198</ele>
        <time>2017-08-22T09:54:30Z</time>
      </trkpt>
      <trkpt lat="45.93017" lon="4.70995">
        <ele>198</ele>
        <time>2017-08-22T09:54:31Z</time>
      </trkpt>
      <trkpt lat="45.93023" lon="4.70998">
        <ele>198</ele>
        <time>2017-08-22T09:54:32Z</time>
      </trkpt>
      <trkpt lat="45.93029" lon="4.71001">
        <ele>197</ele>
        <time>2017-08-22T09:54:33Z</time>
      </trkpt>
      <trkpt lat="45.93035" lon="4.71004">
        <ele>197</ele>
        <time>2017-08-22T09:54:34Z</time>
      </trkpt>
      <trkpt lat="45.93041" lon="4.71008">
        <ele>197</ele>
        <time>2017-08-22T09:54:35Z</time>
      </trkpt>
      <trkpt lat="45.93046" lon="4.71011">
        <ele>197</ele>
        <time>2017-08-22T09:54:36Z</time>
      </trkpt>
      <trkpt lat="45.93052" lon="4.71015">
        <ele>197</ele>
        <time>2017-08-22T09:54:37Z</time>
      </trkpt>
      <trkpt lat="45.93057" lon="4.71019">
        <ele>197</ele>
        <time>2017-08-22T09:54:38Z</time>
      </trkpt>
      <trkpt lat="45.93063" lon="4.71023">
        <ele>197</ele>
        <time>2017-08-22T09:54:39Z</time>
      </trkpt>
      <trkpt lat="45.93068" lon="4.71028">
        <ele>197</ele>
        <time>2017-08-22T09:54:40Z</time>
      </trkpt>
      <trkpt lat="45.93074" lon="4.71035">
        <ele>197</ele>
        <time>2017-08-22T09:54:41Z</time>
      </trkpt>
      <trkpt lat="45.93079" lon="4.71041">
        <ele>196</ele>
        <time>2017-08-22T09:54:42Z</time>
      </trkpt>
      <trkpt lat="45.93084" lon="4.71047">
        <ele>196</ele>
        <time>2017-08-22T09:54:43Z</time>
      </trkpt>
      <trkpt lat="45.9309" lon="4.71054">
        <ele>196</ele>
        <time>2017-08-22T09:54:44Z</time>
      </trkpt>
      <trkpt lat="45.93095" lon="4.71061">
        <ele>195</ele>
        <time>2017-08-22T09:54:45Z</time>
      </trkpt>
      <trkpt lat="45.931" lon="4.71069">
        <ele>195</ele>
        <time>2017-08-22T09:54:46Z</time>
      </trkpt>
      <trkpt lat="45.93105" lon="4.71076">
        <ele>195</ele>
        <time>2017-08-22T09:54:47Z</time>
      </trkpt>
      <trkpt lat="45.9311" lon="4.71084">
        <ele>193</ele>
        <time>2017-08-22T09:54:48Z</time>
      </trkpt>
      <trkpt lat="45.93115" lon="4.71092">
        <ele>193</ele>
        <time>2017-08-22T09:54:49Z</time>
      </trkpt>
      <trkpt lat="45.93119" lon="4.711">
        <ele>192</ele>
        <time>2017-08-22T09:54:50Z</time>
      </trkpt>
      <trkpt lat="45.93124" lon="4.71108">
        <ele>192</ele>
        <time>2017-08-22T09:54:51Z</time>
      </trkpt>
      <trkpt lat="45.93129" lon="4.71116">
        <ele>192</ele>
        <time>2017-08-22T09:54:52Z</time>
      </trkpt>
      <trkpt lat="45.93133" lon="4.71124">
        <ele>192</ele>
        <time>2017-08-22T09:54:53Z</time>
      </trkpt>
      <trkpt lat="45.93137" lon="4.71132">
        <ele>192</ele>
        <time>2017-08-22T09:54:54Z</time>
      </trkpt>
      <trkpt lat="45.9314" lon="4.71141">
        <ele>192</ele>
        <time>2017-08-22T09:54:55Z</time>
      </trkpt>
      <trkpt lat="45.93145" lon="4.71149">
        <ele>191</ele>
        <time>2017-08-22T09:54:56Z</time>
      </trkpt>
      <trkpt lat="45.93148" lon="4.71157">
        <ele>191</ele>
        <time>2017-08-22T09:54:57Z</time>
      </trkpt>
      <trkpt lat="45.93152" lon="4.71166">
        <ele>191</ele>
        <time>2017-08-22T09:54:58Z</time>
      </trkpt>
      <trkpt lat="45.93156" lon="4.71174">
        <ele>190</ele>
        <time>2017-08-22T09:54:59Z</time>
      </trkpt>
      <trkpt lat="45.9316" lon="4.71182">
        <ele>190</ele>
        <time>2017-08-22T09:55:00Z</time>
      </trkpt>
      <trkpt lat="45.93164" lon="4.71191">
        <ele>190</ele>
        <time>2017-08-22T09:55:01Z</time>
      </trkpt>
      <trkpt lat="45.93168" lon="4.712">
        <ele>190</ele>
        <time>2017-08-22T09:55:02Z</time>
      </trkpt>
      <trkpt lat="45.93172" lon="4.71209">
        <ele>190</ele>
        <time>2017-08-22T09:55:03Z</time>
      </trkpt>
      <trkpt lat="45.93176" lon="4.71218">
        <ele>190</ele>
        <time>2017-08-22T09:55:04Z</time>
      </trkpt>
      <trkpt lat="45.93179" lon="4.71227">
        <ele>190</ele>
        <time>2017-08-22T09:55:05Z</time>
      </trkpt>
      <trkpt lat="45.93183" lon="4.71236">
        <ele>190</ele>
        <time>2017-08-22T09:55:06Z</time>
      </trkpt>
      <trkpt lat="45.93187" lon="4.71246">
        <ele>190</ele>
        <time>2017-08-22T09:55:07Z</time>
      </trkpt>
      <trkpt lat="45.9319" lon="4.71255">
        <ele>189</ele>
        <time>2017-08-22T09:55:08Z</time>
      </trkpt>
      <trkpt lat="45.93195" lon="4.71264">
        <ele>189</ele>
        <time>2017-08-22T09:55:09Z</time>
      </trkpt>
      <trkpt lat="45.93199" lon="4.71272">
        <ele>188</ele>
        <time>2017-08-22T09:55:10Z</time>
      </trkpt>
      <trkpt lat="45.93202" lon="4.71281">
        <ele>188</ele>
        <time>2017-08-22T09:55:11Z</time>
      </trkpt>
      <trkpt lat="45.93206" lon="4.7129">
        <ele>188</ele>
        <time>2017-08-22T09:55:12Z</time>
      </trkpt>
      <trkpt lat="45.9321" lon="4.71298">
        <ele>188</ele>
        <time>2017-08-22T09:55:13Z</time>
      </trkpt>
      <trkpt lat="45.93213" lon="4.71307">
        <ele>188</ele>
        <time>2017-08-22T09:55:14Z</time>
      </trkpt>
      <trkpt lat="45.93217" lon="4.71317">
        <ele>187</ele>
        <time>2017-08-22T09:55:15Z</time>
      </trkpt>
      <trkpt lat="45.93221" lon="4.71326">
        <ele>187</ele>
        <time>2017-08-22T09:55:16Z</time>
      </trkpt>
      <trkpt lat="45.93225" lon="4.71334">
        <ele>186</ele>
        <time>2017-08-22T09:55:17Z</time>
      </trkpt>
      <trkpt lat="45.93228" lon="4.71342">
        <ele>186</ele>
        <time>2017-08-22T09:55:18Z</time>
      </trkpt>
      <trkpt lat="45.93231" lon="4.7135">
        <ele>186</ele>
        <time>2017-08-22T09:55:19Z</time>
      </trkpt>
      <trkpt lat="45.93233" lon="4.71356">
        <ele>186</ele>
        <time>2017-08-22T09:55:20Z</time>
      </trkpt>
      <trkpt lat="45.93235" lon="4.71362">
        <ele>186</ele>
        <time>2017-08-22T09:55:21Z</time>
      </trkpt>
      <trkpt lat="45.9324" lon="4.71372">
        <ele>186</ele>
        <time>2017-08-22T09:55:23Z</time>
      </trkpt>
      <trkpt lat="45.93242" lon="4.71377">
        <ele>186</ele>
        <time>2017-08-22T09:55:24Z</time>
      </trkpt>
      <trkpt lat="45.93245" lon="4.71382">
        <ele>186</ele>
        <time>2017-08-22T09:55:25Z</time>
      </trkpt>
      <trkpt lat="45.93248" lon="4.71388">
        <ele>186</ele>
        <time>2017-08-22T09:55:26Z</time>
      </trkpt>
      <trkpt lat="45.9325" lon="4.71394">
        <ele>186</ele>
        <time>2017-08-22T09:55:27Z</time>
      </trkpt>
      <trkpt lat="45.93254" lon="4.71401">
        <ele>186</ele>
        <time>2017-08-22T09:55:28Z</time>
      </trkpt>
      <trkpt lat="45.93257" lon="4.71408">
        <ele>186</ele>
        <time>2017-08-22T09:55:29Z</time>
      </trkpt>
      <trkpt lat="45.9326" lon="4.71415">
        <ele>186</ele>
        <time>2017-08-22T09:55:30Z</time>
      </trkpt>
      <trkpt lat="45.93263" lon="4.71423">
        <ele>186</ele>
        <time>2017-08-22T09:55:31Z</time>
      </trkpt>
      <trkpt lat="45.93265" lon="4.7143">
        <ele>185</ele>
        <time>2017-08-22T09:55:32Z</time>
      </trkpt>
      <trkpt lat="45.93268" lon="4.71437">
        <ele>185</ele>
        <time>2017-08-22T09:55:33Z</time>
      </trkpt>
      <trkpt lat="45.93271" lon="4.71443">
        <ele>185</ele>
        <time>2017-08-22T09:55:34Z</time>
      </trkpt>
      <trkpt lat="45.93273" lon="4.71449">
        <ele>185</ele>
        <time>2017-08-22T09:55:35Z</time>
      </trkpt>
      <trkpt lat="45.93276" lon="4.71455">
        <ele>185</ele>
        <time>2017-08-22T09:55:36Z</time>
      </trkpt>
      <trkpt lat="45.93279" lon="4.71462">
        <ele>185</ele>
        <time>2017-08-22T09:55:37Z</time>
      </trkpt>
      <trkpt lat="45.93282" lon="4.71469">
        <ele>185</ele>
        <time>2017-08-22T09:55:38Z</time>
      </trkpt>
      <trkpt lat="45.93286" lon="4.71475">
        <ele>185</ele>
        <time>2017-08-22T09:55:39Z</time>
      </trkpt>
      <trkpt lat="45.93289" lon="4.71482">
        <ele>185</ele>
        <time>2017-08-22T09:55:40Z</time>
      </trkpt>
      <trkpt lat="45.93291" lon="4.7149">
        <ele>185</ele>
        <time>2017-08-22T09:55:41Z</time>
      </trkpt>
      <trkpt lat="45.93294" lon="4.71496">
        <ele>185</ele>
        <time>2017-08-22T09:55:42Z</time>
      </trkpt>
      <trkpt lat="45.93297" lon="4.71508">
        <ele>184</ele>
        <time>2017-08-22T09:55:44Z</time>
      </trkpt>
      <trkpt lat="45.93298" lon="4.71514">
        <ele>184</ele>
        <time>2017-08-22T09:55:45Z</time>
      </trkpt>
      <trkpt lat="45.933" lon="4.71521">
        <ele>184</ele>
        <time>2017-08-22T09:55:46Z</time>
      </trkpt>
      <trkpt lat="45.93302" lon="4.71528">
        <ele>184</ele>
        <time>2017-08-22T09:55:47Z</time>
      </trkpt>
      <trkpt lat="45.93306" lon="4.71536">
        <ele>184</ele>
        <time>2017-08-22T09:55:48Z</time>
      </trkpt>
      <trkpt lat="45.9331" lon="4.71545">
        <ele>184</ele>
        <time>2017-08-22T09:55:49Z</time>
      </trkpt>
      <trkpt lat="45.93312" lon="4.71552">
        <ele>184</ele>
        <time>2017-08-22T09:55:50Z</time>
      </trkpt>
      <trkpt lat="45.93315" lon="4.71559">
        <ele>184</ele>
        <time>2017-08-22T09:55:51Z</time>
      </trkpt>
      <trkpt lat="45.93319" lon="4.71566">
        <ele>185</ele>
        <time>2017-08-22T09:55:52Z</time>
      </trkpt>
      <trkpt lat="45.93323" lon="4.71573">
        <ele>185</ele>
        <time>2017-08-22T09:55:53Z</time>
      </trkpt>
      <trkpt lat="45.93326" lon="4.7158">
        <ele>185</ele>
        <time>2017-08-22T09:55:54Z</time>
      </trkpt>
      <trkpt lat="45.93329" lon="4.71586">
        <ele>185</ele>
        <time>2017-08-22T09:55:55Z</time>
      </trkpt>
      <trkpt lat="45.93331" lon="4.71593">
        <ele>185</ele>
        <time>2017-08-22T09:55:56Z</time>
      </trkpt>
      <trkpt lat="45.93333" lon="4.71599">
        <ele>185</ele>
        <time>2017-08-22T09:55:57Z</time>
      </trkpt>
      <trkpt lat="45.93336" lon="4.71605">
        <ele>185</ele>
        <time>2017-08-22T09:55:58Z</time>
      </trkpt>
      <trkpt lat="45.93339" lon="4.71611">
        <ele>185</ele>
        <time>2017-08-22T09:55:59Z</time>
      </trkpt>
      <trkpt lat="45.93345" lon="4.71617">
        <ele>185</ele>
        <time>2017-08-22T09:56:00Z</time>
      </trkpt>
      <trkpt lat="45.93349" lon="4.71623">
        <ele>185</ele>
        <time>2017-08-22T09:56:01Z</time>
      </trkpt>
      <trkpt lat="45.93351" lon="4.71629">
        <ele>185</ele>
        <time>2017-08-22T09:56:02Z</time>
      </trkpt>
      <trkpt lat="45.93354" lon="4.71635">
        <ele>185</ele>
        <time>2017-08-22T09:56:03Z</time>
      </trkpt>
      <trkpt lat="45.93357" lon="4.71642">
        <ele>185</ele>
        <time>2017-08-22T09:56:04Z</time>
      </trkpt>
      <trkpt lat="45.93362" lon="4.71648">
        <ele>185</ele>
        <time>2017-08-22T09:56:05Z</time>
      </trkpt>
      <trkpt lat="45.93364" lon="4.71655">
        <ele>185</ele>
        <time>2017-08-22T09:56:06Z</time>
      </trkpt>
      <trkpt lat="45.93367" lon="4.71661">
        <ele>185</ele>
        <time>2017-08-22T09:56:07Z</time>
      </trkpt>
      <trkpt lat="45.93371" lon="4.71668">
        <ele>185</ele>
        <time>2017-08-22T09:56:08Z</time>
      </trkpt>
      <trkpt lat="45.93374" lon="4.71675">
        <ele>185</ele>
        <time>2017-08-22T09:56:09Z</time>
      </trkpt>
      <trkpt lat="45.93377" lon="4.71682">
        <ele>185</ele>
        <time>2017-08-22T09:56:10Z</time>
      </trkpt>
      <trkpt lat="45.9338" lon="4.71688">
        <ele>185</ele>
        <time>2017-08-22T09:56:11Z</time>
      </trkpt>
      <trkpt lat="45.93384" lon="4.71695">
        <ele>184</ele>
        <time>2017-08-22T09:56:12Z</time>
      </trkpt>
      <trkpt lat="45.93387" lon="4.71702">
        <ele>184</ele>
        <time>2017-08-22T09:56:13Z</time>
      </trkpt>
      <trkpt lat="45.93391" lon="4.71709">
        <ele>184</ele>
        <time>2017-08-22T09:56:14Z</time>
      </trkpt>
      <trkpt lat="45.93395" lon="4.71717">
        <ele>184</ele>
        <time>2017-08-22T09:56:15Z</time>
      </trkpt>
      <trkpt lat="45.93398" lon="4.71725">
        <ele>184</ele>
        <time>2017-08-22T09:56:16Z</time>
      </trkpt>
      <trkpt lat="45.93401" lon="4.71732">
        <ele>184</ele>
        <time>2017-08-22T09:56:17Z</time>
      </trkpt>
      <trkpt lat="45.93405" lon="4.71739">
        <ele>184</ele>
        <time>2017-08-22T09:56:18Z</time>
      </trkpt>
      <trkpt lat="45.93407" lon="4.71746">
        <ele>184</ele>
        <time>2017-08-22T09:56:19Z</time>
      </trkpt>
      <trkpt lat="45.93411" lon="4.71755">
        <ele>183</ele>
        <time>2017-08-22T09:56:20Z</time>
      </trkpt>
      <trkpt lat="45.93414" lon="4.71763">
        <ele>183</ele>
        <time>2017-08-22T09:56:21Z</time>
      </trkpt>
      <trkpt lat="45.93418" lon="4.71772">
        <ele>182</ele>
        <time>2017-08-22T09:56:22Z</time>
      </trkpt>
      <trkpt lat="45.93422" lon="4.7178">
        <ele>182</ele>
        <time>2017-08-22T09:56:23Z</time>
      </trkpt>
      <trkpt lat="45.93427" lon="4.71789">
        <ele>182</ele>
        <time>2017-08-22T09:56:24Z</time>
      </trkpt>
      <trkpt lat="45.9343" lon="4.71798">
        <ele>182</ele>
        <time>2017-08-22T09:56:25Z</time>
      </trkpt>
      <trkpt lat="45.93434" lon="4.71806">
        <ele>182</ele>
        <time>2017-08-22T09:56:26Z</time>
      </trkpt>
      <trkpt lat="45.93438" lon="4.71814">
        <ele>182</ele>
        <time>2017-08-22T09:56:27Z</time>
      </trkpt>
      <trkpt lat="45.93442" lon="4.71822">
        <ele>182</ele>
        <time>2017-08-22T09:56:28Z</time>
      </trkpt>
      <trkpt lat="45.93446" lon="4.7183">
        <ele>182</ele>
        <time>2017-08-22T09:56:29Z</time>
      </trkpt>
      <trkpt lat="45.9345" lon="4.71838">
        <ele>181</ele>
        <time>2017-08-22T09:56:30Z</time>
      </trkpt>
      <trkpt lat="45.93455" lon="4.71846">
        <ele>181</ele>
        <time>2017-08-22T09:56:31Z</time>
      </trkpt>
      <trkpt lat="45.93461" lon="4.71851">
        <ele>180</ele>
        <time>2017-08-22T09:56:32Z</time>
      </trkpt>
      <trkpt lat="45.93469" lon="4.71854">
        <ele>180</ele>
        <time>2017-08-22T09:56:33Z</time>
      </trkpt>
      <trkpt lat="45.93477" lon="4.71854">
        <ele>180</ele>
        <time>2017-08-22T09:56:34Z</time>
      </trkpt>
      <trkpt lat="45.93485" lon="4.71853">
        <ele>180</ele>
        <time>2017-08-22T09:56:35Z</time>
      </trkpt>
      <trkpt lat="45.93492" lon="4.71851">
        <ele>180</ele>
        <time>2017-08-22T09:56:36Z</time>
      </trkpt>
      <trkpt lat="45.935" lon="4.7185">
        <ele>180</ele>
        <time>2017-08-22T09:56:37Z</time>
      </trkpt>
      <trkpt lat="45.93507" lon="4.71849">
        <ele>179</ele>
        <time>2017-08-22T09:56:38Z</time>
      </trkpt>
      <trkpt lat="45.93514" lon="4.71848">
        <ele>179</ele>
        <time>2017-08-22T09:56:39Z</time>
      </trkpt>
      <trkpt lat="45.93521" lon="4.71847">
        <ele>179</ele>
        <time>2017-08-22T09:56:40Z</time>
      </trkpt>
      <trkpt lat="45.93528" lon="4.71846">
        <ele>179</ele>
        <time>2017-08-22T09:56:41Z</time>
      </trkpt>
      <trkpt lat="45.93534" lon="4.71846">
        <ele>179</ele>
        <time>2017-08-22T09:56:42Z</time>
      </trkpt>
      <trkpt lat="45.93541" lon="4.71845">
        <ele>179</ele>
        <time>2017-08-22T09:56:43Z</time>
      </trkpt>
      <trkpt lat="45.93548" lon="4.71844">
        <ele>179</ele>
        <time>2017-08-22T09:56:44Z</time>
      </trkpt>
      <trkpt lat="45.93554" lon="4.71842">
        <ele>179</ele>
        <time>2017-08-22T09:56:45Z</time>
      </trkpt>
      <trkpt lat="45.93562" lon="4.71841">
        <ele>179</ele>
        <time>2017-08-22T09:56:46Z</time>
      </trkpt>
      <trkpt lat="45.93568" lon="4.71841">
        <ele>179</ele>
        <time>2017-08-22T09:56:47Z</time>
      </trkpt>
      <trkpt lat="45.93575" lon="4.71839">
        <ele>180</ele>
        <time>2017-08-22T09:56:48Z</time>
      </trkpt>
      <trkpt lat="45.93582" lon="4.71838">
        <ele>180</ele>
        <time>2017-08-22T09:56:49Z</time>
      </trkpt>
      <trkpt lat="45.93588" lon="4.71837">
        <ele>179</ele>
        <time>2017-08-22T09:56:50Z</time>
      </trkpt>
      <trkpt lat="45.93595" lon="4.71834">
        <ele>179</ele>
        <time>2017-08-22T09:56:51Z</time>
      </trkpt>
      <trkpt lat="45.93601" lon="4.71829">
        <ele>179</ele>
        <time>2017-08-22T09:56:52Z</time>
      </trkpt>
      <trkpt lat="45.93607" lon="4.71826">
        <ele>179</ele>
        <time>2017-08-22T09:56:53Z</time>
      </trkpt>
      <trkpt lat="45.93611" lon="4.71823">
        <ele>179</ele>
        <time>2017-08-22T09:56:54Z</time>
      </trkpt>
      <trkpt lat="45.93615" lon="4.71818">
        <ele>179</ele>
        <time>2017-08-22T09:56:55Z</time>
      </trkpt>
      <trkpt lat="45.93623" lon="4.71813">
        <ele>179</ele>
        <time>2017-08-22T09:56:57Z</time>
      </trkpt>
      <trkpt lat="45.93626" lon="4.7181">
        <ele>179</ele>
        <time>2017-08-22T09:56:58Z</time>
      </trkpt>
      <trkpt lat="45.9363" lon="4.71809">
        <ele>179</ele>
        <time>2017-08-22T09:56:59Z</time>
      </trkpt>
      <trkpt lat="45.93635" lon="4.71807">
        <ele>179</ele>
        <time>2017-08-22T09:57:00Z</time>
      </trkpt>
      <trkpt lat="45.9364" lon="4.71806">
        <ele>179</ele>
        <time>2017-08-22T09:57:01Z</time>
      </trkpt>
      <trkpt lat="45.93644" lon="4.71804">
        <ele>179</ele>
        <time>2017-08-22T09:57:02Z</time>
      </trkpt>
      <trkpt lat="45.93653" lon="4.718">
        <ele>179</ele>
        <time>2017-08-22T09:57:04Z</time>
      </trkpt>
      <trkpt lat="45.93657" lon="4.71798">
        <ele>179</ele>
        <time>2017-08-22T09:57:05Z</time>
      </trkpt>
      <trkpt lat="45.93665" lon="4.71795">
        <ele>179</ele>
        <time>2017-08-22T09:57:07Z</time>
      </trkpt>
      <trkpt lat="45.93668" lon="4.71793">
        <ele>177</ele>
        <time>2017-08-22T09:57:08Z</time>
      </trkpt>
      <trkpt lat="45.93676" lon="4.7179">
        <ele>177</ele>
        <time>2017-08-22T09:57:10Z</time>
      </trkpt>
      <trkpt lat="45.93679" lon="4.71789">
        <ele>177</ele>
        <time>2017-08-22T09:57:11Z</time>
      </trkpt>
      <trkpt lat="45.93688" lon="4.71792">
        <ele>177</ele>
        <time>2017-08-22T09:57:14Z</time>
      </trkpt>
      <trkpt lat="45.9369" lon="4.71794">
        <ele>177</ele>
        <time>2017-08-22T09:57:15Z</time>
      </trkpt>
      <trkpt lat="45.93696" lon="4.718">
        <ele>176</ele>
        <time>2017-08-22T09:57:17Z</time>
      </trkpt>
      <trkpt lat="45.93698" lon="4.71805">
        <ele>176</ele>
        <time>2017-08-22T09:57:18Z</time>
      </trkpt>
      <trkpt lat="45.93695" lon="4.71812">
        <ele>176</ele>
        <time>2017-08-22T09:57:20Z</time>
      </trkpt>
      <trkpt lat="45.93692" lon="4.71816">
        <ele>176</ele>
        <time>2017-08-22T09:57:21Z</time>
      </trkpt>
      <trkpt lat="45.93688" lon="4.71822">
        <ele>176</ele>
        <time>2017-08-22T09:57:22Z</time>
      </trkpt>
      <trkpt lat="45.93685" lon="4.71829">
        <ele>177</ele>
        <time>2017-08-22T09:57:23Z</time>
      </trkpt>
      <trkpt lat="45.93682" lon="4.71835">
        <ele>176</ele>
        <time>2017-08-22T09:57:24Z</time>
      </trkpt>
      <trkpt lat="45.93679" lon="4.71841">
        <ele>176</ele>
        <time>2017-08-22T09:57:25Z</time>
      </trkpt>
      <trkpt lat="45.93677" lon="4.71848">
        <ele>176</ele>
        <time>2017-08-22T09:57:26Z</time>
      </trkpt>
      <trkpt lat="45.93674" lon="4.71854">
        <ele>176</ele>
        <time>2017-08-22T09:57:27Z</time>
      </trkpt>
      <trkpt lat="45.93671" lon="4.71864">
        <ele>175</ele>
        <time>2017-08-22T09:57:29Z</time>
      </trkpt>
      <trkpt lat="45.93669" lon="4.71869">
        <ele>175</ele>
        <time>2017-08-22T09:57:30Z</time>
      </trkpt>
      <trkpt lat="45.93665" lon="4.71878">
        <ele>177</ele>
        <time>2017-08-22T09:57:32Z</time>
      </trkpt>
      <trkpt lat="45.93663" lon="4.71883">
        <ele>177</ele>
        <time>2017-08-22T09:57:33Z</time>
      </trkpt>
      <trkpt lat="45.93661" lon="4.71893">
        <ele>177</ele>
        <time>2017-08-22T09:57:35Z</time>
      </trkpt>
      <trkpt lat="45.9366" lon="4.71897">
        <ele>176</ele>
        <time>2017-08-22T09:57:36Z</time>
      </trkpt>
      <trkpt lat="45.93658" lon="4.71909">
        <ele>176</ele>
        <time>2017-08-22T09:57:38Z</time>
      </trkpt>
      <trkpt lat="45.93654" lon="4.71917">
        <ele>176</ele>
        <time>2017-08-22T09:57:39Z</time>
      </trkpt>
      <trkpt lat="45.93652" lon="4.71922">
        <ele>175</ele>
        <time>2017-08-22T09:57:40Z</time>
      </trkpt>
      <trkpt lat="45.93651" lon="4.71931">
        <ele>175</ele>
        <time>2017-08-22T09:57:41Z</time>
      </trkpt>
      <trkpt lat="45.9365" lon="4.71938">
        <ele>175</ele>
        <time>2017-08-22T09:57:42Z</time>
      </trkpt>
      <trkpt lat="45.93648" lon="4.71946">
        <ele>175</ele>
        <time>2017-08-22T09:57:43Z</time>
      </trkpt>
      <trkpt lat="45.93646" lon="4.71953">
        <ele>175</ele>
        <time>2017-08-22T09:57:44Z</time>
      </trkpt>
      <trkpt lat="45.93644" lon="4.71961">
        <ele>175</ele>
        <time>2017-08-22T09:57:45Z</time>
      </trkpt>
      <trkpt lat="45.93642" lon="4.71969">
        <ele>175</ele>
        <time>2017-08-22T09:57:46Z</time>
      </trkpt>
      <trkpt lat="45.9364" lon="4.71976">
        <ele>175</ele>
        <time>2017-08-22T09:57:47Z</time>
      </trkpt>
      <trkpt lat="45.93639" lon="4.71983">
        <ele>175</ele>
        <time>2017-08-22T09:57:48Z</time>
      </trkpt>
      <trkpt lat="45.93636" lon="4.71989">
        <ele>175</ele>
        <time>2017-08-22T09:57:49Z</time>
      </trkpt>
      <trkpt lat="45.93634" lon="4.71996">
        <ele>175</ele>
        <time>2017-08-22T09:57:50Z</time>
      </trkpt>
      <trkpt lat="45.93633" lon="4.72004">
        <ele>174</ele>
        <time>2017-08-22T09:57:51Z</time>
      </trkpt>
      <trkpt lat="45.93631" lon="4.72012">
        <ele>174</ele>
        <time>2017-08-22T09:57:52Z</time>
      </trkpt>
      <trkpt lat="45.93629" lon="4.7202">
        <ele>175</ele>
        <time>2017-08-22T09:57:53Z</time>
      </trkpt>
      <trkpt lat="45.93628" lon="4.72027">
        <ele>175</ele>
        <time>2017-08-22T09:57:54Z</time>
      </trkpt>
      <trkpt lat="45.93626" lon="4.72034">
        <ele>175</ele>
        <time>2017-08-22T09:57:55Z</time>
      </trkpt>
      <trkpt lat="45.93624" lon="4.7204">
        <ele>175</ele>
        <time>2017-08-22T09:57:56Z</time>
      </trkpt>
      <trkpt lat="45.93622" lon="4.72045">
        <ele>175</ele>
        <time>2017-08-22T09:57:57Z</time>
      </trkpt>
      <trkpt lat="45.93619" lon="4.72053">
        <ele>175</ele>
        <time>2017-08-22T09:57:58Z</time>
      </trkpt>
      <trkpt lat="45.93616" lon="4.72059">
        <ele>175</ele>
        <time>2017-08-22T09:57:59Z</time>
      </trkpt>
      <trkpt lat="45.93614" lon="4.72066">
        <ele>175</ele>
        <time>2017-08-22T09:58:00Z</time>
      </trkpt>
      <trkpt lat="45.93611" lon="4.72071">
        <ele>175</ele>
        <time>2017-08-22T09:58:01Z</time>
      </trkpt>
      <trkpt lat="45.93607" lon="4.72076">
        <ele>175</ele>
        <time>2017-08-22T09:58:02Z</time>
      </trkpt>
      <trkpt lat="45.93605" lon="4.72083">
        <ele>175</ele>
        <time>2017-08-22T09:58:03Z</time>
      </trkpt>
      <trkpt lat="45.93602" lon="4.7209">
        <ele>174</ele>
        <time>2017-08-22T09:58:05Z</time>
      </trkpt>
      <trkpt lat="45.936" lon="4.72095">
        <ele>174</ele>
        <time>2017-08-22T09:58:06Z</time>
      </trkpt>
      <trkpt lat="45.93597" lon="4.72102">
        <ele>174</ele>
        <time>2017-08-22T09:58:07Z</time>
      </trkpt>
      <trkpt lat="45.93591" lon="4.72108">
        <ele>174</ele>
        <time>2017-08-22T09:58:08Z</time>
      </trkpt>
      <trkpt lat="45.93586" lon="4.72116">
        <ele>174</ele>
        <time>2017-08-22T09:58:09Z</time>
      </trkpt>
      <trkpt lat="45.93582" lon="4.72126">
        <ele>174</ele>
        <time>2017-08-22T09:58:10Z</time>
      </trkpt>
      <trkpt lat="45.93579" lon="4.72139">
        <ele>174</ele>
        <time>2017-08-22T09:58:11Z</time>
      </trkpt>
      <trkpt lat="45.93579" lon="4.72154">
        <ele>174</ele>
        <time>2017-08-22T09:58:12Z</time>
      </trkpt>
      <trkpt lat="45.93582" lon="4.72165">
        <ele>173</ele>
        <time>2017-08-22T09:58:13Z</time>
      </trkpt>
      <trkpt lat="45.93578" lon="4.72174">
        <ele>173</ele>
        <time>2017-08-22T09:58:14Z</time>
      </trkpt>
      <trkpt lat="45.93574" lon="4.72181">
        <ele>173</ele>
        <time>2017-08-22T09:58:15Z</time>
      </trkpt>
      <trkpt lat="45.93571" lon="4.72189">
        <ele>173</ele>
        <time>2017-08-22T09:58:16Z</time>
      </trkpt>
      <trkpt lat="45.93567" lon="4.72196">
        <ele>173</ele>
        <time>2017-08-22T09:58:17Z</time>
      </trkpt>
      <trkpt lat="45.93563" lon="4.72203">
        <ele>173</ele>
        <time>2017-08-22T09:58:18Z</time>
      </trkpt>
      <trkpt lat="45.93559" lon="4.7221">
        <ele>173</ele>
        <time>2017-08-22T09:58:19Z</time>
      </trkpt>
      <trkpt lat="45.93542" lon="4.72216">
        <ele>172</ele>
        <time>2017-08-22T09:58:20Z</time>
      </trkpt>
      <trkpt lat="45.93534" lon="4.72224">
        <ele>172</ele>
        <time>2017-08-22T09:58:21Z</time>
      </trkpt>
      <trkpt lat="45.93532" lon="4.72231">
        <ele>172</ele>
        <time>2017-08-22T09:58:22Z</time>
      </trkpt>
      <trkpt lat="45.93522" lon="4.72236">
        <ele>172</ele>
        <time>2017-08-22T09:58:23Z</time>
      </trkpt>
      <trkpt lat="45.93517" lon="4.72246">
        <ele>172</ele>
        <time>2017-08-22T09:58:24Z</time>
      </trkpt>
      <trkpt lat="45.93512" lon="4.72257">
        <ele>172</ele>
        <time>2017-08-22T09:58:25Z</time>
      </trkpt>
      <trkpt lat="45.93509" lon="4.72264">
        <ele>172</ele>
        <time>2017-08-22T09:58:26Z</time>
      </trkpt>
      <trkpt lat="45.93505" lon="4.72272">
        <ele>172</ele>
        <time>2017-08-22T09:58:27Z</time>
      </trkpt>
      <trkpt lat="45.93502" lon="4.72279">
        <ele>172</ele>
        <time>2017-08-22T09:58:28Z</time>
      </trkpt>
      <trkpt lat="45.93498" lon="4.72287">
        <ele>172</ele>
        <time>2017-08-22T09:58:29Z</time>
      </trkpt>
      <trkpt lat="45.93493" lon="4.72293">
        <ele>172</ele>
        <time>2017-08-22T09:58:30Z</time>
      </trkpt>
      <trkpt lat="45.93489" lon="4.72299">
        <ele>172</ele>
        <time>2017-08-22T09:58:31Z</time>
      </trkpt>
      <trkpt lat="45.93485" lon="4.72306">
        <ele>173</ele>
        <time>2017-08-22T09:58:32Z</time>
      </trkpt>
      <trkpt lat="45.93481" lon="4.72314">
        <ele>173</ele>
        <time>2017-08-22T09:58:33Z</time>
      </trkpt>
      <trkpt lat="45.93477" lon="4.72325">
        <ele>173</ele>
        <time>2017-08-22T09:58:34Z</time>
      </trkpt>
      <trkpt lat="45.93473" lon="4.72332">
        <ele>173</ele>
        <time>2017-08-22T09:58:35Z</time>
      </trkpt>
      <trkpt lat="45.93468" lon="4.72339">
        <ele>173</ele>
        <time>2017-08-22T09:58:36Z</time>
      </trkpt>
      <trkpt lat="45.93463" lon="4.72347">
        <ele>173</ele>
        <time>2017-08-22T09:58:37Z</time>
      </trkpt>
      <trkpt lat="45.93458" lon="4.72354">
        <ele>173</ele>
        <time>2017-08-22T09:58:38Z</time>
      </trkpt>
      <trkpt lat="45.93454" lon="4.72361">
        <ele>173</ele>
        <time>2017-08-22T09:58:39Z</time>
      </trkpt>
      <trkpt lat="45.93449" lon="4.72368">
        <ele>173</ele>
        <time>2017-08-22T09:58:40Z</time>
      </trkpt>
      <trkpt lat="45.93445" lon="4.72375">
        <ele>173</ele>
        <time>2017-08-22T09:58:41Z</time>
      </trkpt>
      <trkpt lat="45.93441" lon="4.72381">
        <ele>173</ele>
        <time>2017-08-22T09:58:42Z</time>
      </trkpt>
      <trkpt lat="45.93437" lon="4.72387">
        <ele>173</ele>
        <time>2017-08-22T09:58:43Z</time>
      </trkpt>
      <trkpt lat="45.93434" lon="4.72392">
        <ele>173</ele>
        <time>2017-08-22T09:58:44Z</time>
      </trkpt>
      <trkpt lat="45.9343" lon="4.72397">
        <ele>174</ele>
        <time>2017-08-22T09:58:45Z</time>
      </trkpt>
      <trkpt lat="45.93427" lon="4.724">
        <ele>174</ele>
        <time>2017-08-22T09:58:46Z</time>
      </trkpt>
      <trkpt lat="45.93419" lon="4.72402">
        <ele>174</ele>
        <time>2017-08-22T09:58:47Z</time>
      </trkpt>
      <trkpt lat="45.93414" lon="4.72403">
        <ele>174</ele>
        <time>2017-08-22T09:58:48Z</time>
      </trkpt>
      <trkpt lat="45.93409" lon="4.72405">
        <ele>174</ele>
        <time>2017-08-22T09:58:49Z</time>
      </trkpt>
      <trkpt lat="45.934" lon="4.72406">
        <ele>174</ele>
        <time>2017-08-22T09:58:51Z</time>
      </trkpt>
      <trkpt lat="45.93396" lon="4.72404">
        <ele>174</ele>
        <time>2017-08-22T09:58:52Z</time>
      </trkpt>
      <trkpt lat="45.93392" lon="4.72403">
        <ele>174</ele>
        <time>2017-08-22T09:58:53Z</time>
      </trkpt>
      <trkpt lat="45.93387" lon="4.72404">
        <ele>174</ele>
        <time>2017-08-22T09:58:54Z</time>
      </trkpt>
      <trkpt lat="45.9338" lon="4.72411">
        <ele>174</ele>
        <time>2017-08-22T09:58:56Z</time>
      </trkpt>
      <trkpt lat="45.93377" lon="4.72416">
        <ele>174</ele>
        <time>2017-08-22T09:58:57Z</time>
      </trkpt>
      <trkpt lat="45.93377" lon="4.72423">
        <ele>173</ele>
        <time>2017-08-22T09:58:58Z</time>
      </trkpt>
      <trkpt lat="45.93381" lon="4.72433">
        <ele>173</ele>
        <time>2017-08-22T09:58:59Z</time>
      </trkpt>
      <trkpt lat="45.93383" lon="4.72441">
        <ele>173</ele>
        <time>2017-08-22T09:59:00Z</time>
      </trkpt>
      <trkpt lat="45.93384" lon="4.72449">
        <ele>173</ele>
        <time>2017-08-22T09:59:01Z</time>
      </trkpt>
      <trkpt lat="45.93383" lon="4.72457">
        <ele>173</ele>
        <time>2017-08-22T09:59:02Z</time>
      </trkpt>
      <trkpt lat="45.93381" lon="4.72465">
        <ele>173</ele>
        <time>2017-08-22T09:59:03Z</time>
      </trkpt>
      <trkpt lat="45.93377" lon="4.72471">
        <ele>173</ele>
        <time>2017-08-22T09:59:04Z</time>
      </trkpt>
      <trkpt lat="45.93373" lon="4.72476">
        <ele>173</ele>
        <time>2017-08-22T09:59:05Z</time>
      </trkpt>
      <trkpt lat="45.93368" lon="4.7248">
        <ele>173</ele>
        <time>2017-08-22T09:59:06Z</time>
      </trkpt>
      <trkpt lat="45.93364" lon="4.72485">
        <ele>173</ele>
        <time>2017-08-22T09:59:07Z</time>
      </trkpt>
      <trkpt lat="45.9336" lon="4.72489">
        <ele>173</ele>
        <time>2017-08-22T09:59:08Z</time>
      </trkpt>
      <trkpt lat="45.93356" lon="4.72494">
        <ele>173</ele>
        <time>2017-08-22T09:59:09Z</time>
      </trkpt>
      <trkpt lat="45.93352" lon="4.725">
        <ele>173</ele>
        <time>2017-08-22T09:59:10Z</time>
      </trkpt>
      <trkpt lat="45.93348" lon="4.72505">
        <ele>172</ele>
        <time>2017-08-22T09:59:11Z</time>
      </trkpt>
      <trkpt lat="45.93344" lon="4.72511">
        <ele>172</ele>
        <time>2017-08-22T09:59:12Z</time>
      </trkpt>
      <trkpt lat="45.9334" lon="4.72517">
        <ele>172</ele>
        <time>2017-08-22T09:59:13Z</time>
      </trkpt>
      <trkpt lat="45.93335" lon="4.72523">
        <ele>172</ele>
        <time>2017-08-22T09:59:14Z</time>
      </trkpt>
      <trkpt lat="45.93331" lon="4.72528">
        <ele>172</ele>
        <time>2017-08-22T09:59:15Z</time>
      </trkpt>
      <trkpt lat="45.93326" lon="4.72533">
        <ele>172</ele>
        <time>2017-08-22T09:59:16Z</time>
      </trkpt>
      <trkpt lat="45.93322" lon="4.72538">
        <ele>172</ele>
        <time>2017-08-22T09:59:17Z</time>
      </trkpt>
      <trkpt lat="45.93318" lon="4.72543">
        <ele>172</ele>
        <time>2017-08-22T09:59:18Z</time>
      </trkpt>
      <trkpt lat="45.93314" lon="4.72548">
        <ele>172</ele>
        <time>2017-08-22T09:59:19Z</time>
      </trkpt>
      <trkpt lat="45.93311" lon="4.72552">
        <ele>172</ele>
        <time>2017-08-22T09:59:20Z</time>
      </trkpt>
      <trkpt lat="45.93307" lon="4.72557">
        <ele>172</ele>
        <time>2017-08-22T09:59:21Z</time>
      </trkpt>
      <trkpt lat="45.93304" lon="4.72562">
        <ele>172</ele>
        <time>2017-08-22T09:59:22Z</time>
      </trkpt>
      <trkpt lat="45.933" lon="4.72566">
        <ele>172</ele>
        <time>2017-08-22T09:59:23Z</time>
      </trkpt>
      <trkpt lat="45.93297" lon="4.72571">
        <ele>171</ele>
        <time>2017-08-22T09:59:24Z</time>
      </trkpt>
      <trkpt lat="45.93293" lon="4.72575">
        <ele>171</ele>
        <time>2017-08-22T09:59:25Z</time>
      </trkpt>
      <trkpt lat="45.93289" lon="4.72578">
        <ele>171</ele>
        <time>2017-08-22T09:59:26Z</time>
      </trkpt>
      <trkpt lat="45.93284" lon="4.72584">
        <ele>170</ele>
        <time>2017-08-22T09:59:27Z</time>
      </trkpt>
      <trkpt lat="45.93279" lon="4.72589">
        <ele>170</ele>
        <time>2017-08-22T09:59:28Z</time>
      </trkpt>
      <trkpt lat="45.93275" lon="4.72595">
        <ele>170</ele>
        <time>2017-08-22T09:59:29Z</time>
      </trkpt>
      <trkpt lat="45.9327" lon="4.726">
        <ele>170</ele>
        <time>2017-08-22T09:59:30Z</time>
      </trkpt>
      <trkpt lat="45.93265" lon="4.72606">
        <ele>170</ele>
        <time>2017-08-22T09:59:31Z</time>
      </trkpt>
      <trkpt lat="45.9326" lon="4.72611">
        <ele>170</ele>
        <time>2017-08-22T09:59:32Z</time>
      </trkpt>
      <trkpt lat="45.93255" lon="4.72617">
        <ele>170</ele>
        <time>2017-08-22T09:59:33Z</time>
      </trkpt>
      <trkpt lat="45.93251" lon="4.72621">
        <ele>170</ele>
        <time>2017-08-22T09:59:34Z</time>
      </trkpt>
      <trkpt lat="45.93246" lon="4.72627">
        <ele>170</ele>
        <time>2017-08-22T09:59:35Z</time>
      </trkpt>
      <trkpt lat="45.93242" lon="4.72632">
        <ele>170</ele>
        <time>2017-08-22T09:59:36Z</time>
      </trkpt>
      <trkpt lat="45.93238" lon="4.72637">
        <ele>170</ele>
        <time>2017-08-22T09:59:37Z</time>
      </trkpt>
      <trkpt lat="45.93234" lon="4.72642">
        <ele>170</ele>
        <time>2017-08-22T09:59:38Z</time>
      </trkpt>
      <trkpt lat="45.93231" lon="4.72647">
        <ele>170</ele>
        <time>2017-08-22T09:59:39Z</time>
      </trkpt>
      <trkpt lat="45.93227" lon="4.72653">
        <ele>170</ele>
        <time>2017-08-22T09:59:40Z</time>
      </trkpt>
      <trkpt lat="45.93224" lon="4.72657">
        <ele>170</ele>
        <time>2017-08-22T09:59:41Z</time>
      </trkpt>
      <trkpt lat="45.9322" lon="4.72663">
        <ele>170</ele>
        <time>2017-08-22T09:59:42Z</time>
      </trkpt>
      <trkpt lat="45.93216" lon="4.72668">
        <ele>169</ele>
        <time>2017-08-22T09:59:43Z</time>
      </trkpt>
      <trkpt lat="45.9321" lon="4.72674">
        <ele>169</ele>
        <time>2017-08-22T09:59:44Z</time>
      </trkpt>
      <trkpt lat="45.93206" lon="4.7268">
        <ele>169</ele>
        <time>2017-08-22T09:59:45Z</time>
      </trkpt>
      <trkpt lat="45.93201" lon="4.72685">
        <ele>169</ele>
        <time>2017-08-22T09:59:46Z</time>
      </trkpt>
      <trkpt lat="45.93196" lon="4.72691">
        <ele>169</ele>
        <time>2017-08-22T09:59:47Z</time>
      </trkpt>
      <trkpt lat="45.93191" lon="4.72696">
        <ele>169</ele>
        <time>2017-08-22T09:59:48Z</time>
      </trkpt>
      <trkpt lat="45.93187" lon="4.72701">
        <ele>169</ele>
        <time>2017-08-22T09:59:49Z</time>
      </trkpt>
      <trkpt lat="45.93182" lon="4.72706">
        <ele>169</ele>
        <time>2017-08-22T09:59:50Z</time>
      </trkpt>
      <trkpt lat="45.93177" lon="4.72712">
        <ele>169</ele>
        <time>2017-08-22T09:59:51Z</time>
      </trkpt>
      <trkpt lat="45.93173" lon="4.72717">
        <ele>170</ele>
        <time>2017-08-22T09:59:52Z</time>
      </trkpt>
      <trkpt lat="45.93168" lon="4.72722">
        <ele>170</ele>
        <time>2017-08-22T09:59:53Z</time>
      </trkpt>
      <trkpt lat="45.93163" lon="4.72727">
        <ele>170</ele>
        <time>2017-08-22T09:59:54Z</time>
      </trkpt>
      <trkpt lat="45.93158" lon="4.72732">
        <ele>170</ele>
        <time>2017-08-22T09:59:55Z</time>
      </trkpt>
      <trkpt lat="45.93152" lon="4.72737">
        <ele>170</ele>
        <time>2017-08-22T09:59:56Z</time>
      </trkpt>
      <trkpt lat="45.93147" lon="4.72743">
        <ele>170</ele>
        <time>2017-08-22T09:59:57Z</time>
      </trkpt>
      <trkpt lat="45.93142" lon="4.72748">
        <ele>170</ele>
        <time>2017-08-22T09:59:58Z</time>
      </trkpt>
      <trkpt lat="45.93137" lon="4.72754">
        <ele>171</ele>
        <time>2017-08-22T09:59:59Z</time>
      </trkpt>
      <trkpt lat="45.93132" lon="4.72761">
        <ele>171</ele>
        <time>2017-08-22T10:00:00Z</time>
      </trkpt>
      <trkpt lat="45.93127" lon="4.72767">
        <ele>171</ele>
        <time>2017-08-22T10:00:01Z</time>
      </trkpt>
      <trkpt lat="45.93121" lon="4.72774">
        <ele>171</ele>
        <time>2017-08-22T10:00:02Z</time>
      </trkpt>
      <trkpt lat="45.93116" lon="4.7278">
        <ele>171</ele>
        <time>2017-08-22T10:00:03Z</time>
      </trkpt>
      <trkpt lat="45.9311" lon="4.72786">
        <ele>171</ele>
        <time>2017-08-22T10:00:04Z</time>
      </trkpt>
      <trkpt lat="45.93105" lon="4.72792">
        <ele>171</ele>
        <time>2017-08-22T10:00:05Z</time>
      </trkpt>
      <trkpt lat="45.93099" lon="4.72798">
        <ele>171</ele>
        <time>2017-08-22T10:00:06Z</time>
      </trkpt>
      <trkpt lat="45.93094" lon="4.72804">
        <ele>171</ele>
        <time>2017-08-22T10:00:07Z</time>
      </trkpt>
      <trkpt lat="45.93089" lon="4.7281">
        <ele>172</ele>
        <time>2017-08-22T10:00:08Z</time>
      </trkpt>
      <trkpt lat="45.93083" lon="4.72815">
        <ele>172</ele>
        <time>2017-08-22T10:00:09Z</time>
      </trkpt>
      <trkpt lat="45.93078" lon="4.7282">
        <ele>173</ele>
        <time>2017-08-22T10:00:10Z</time>
      </trkpt>
      <trkpt lat="45.93073" lon="4.72826">
        <ele>173</ele>
        <time>2017-08-22T10:00:11Z</time>
      </trkpt>
      <trkpt lat="45.93068" lon="4.72832">
        <ele>173</ele>
        <time>2017-08-22T10:00:12Z</time>
      </trkpt>
      <trkpt lat="45.93064" lon="4.72838">
        <ele>173</ele>
        <time>2017-08-22T10:00:13Z</time>
      </trkpt>
      <trkpt lat="45.93059" lon="4.72843">
        <ele>172</ele>
        <time>2017-08-22T10:00:14Z</time>
      </trkpt>
      <trkpt lat="45.93053" lon="4.72848">
        <ele>172</ele>
        <time>2017-08-22T10:00:15Z</time>
      </trkpt>
      <trkpt lat="45.93048" lon="4.72856">
        <ele>172</ele>
        <time>2017-08-22T10:00:17Z</time>
      </trkpt>
      <trkpt lat="45.93044" lon="4.72859">
        <ele>172</ele>
        <time>2017-08-22T10:00:18Z</time>
      </trkpt>
      <trkpt lat="45.93039" lon="4.72862">
        <ele>172</ele>
        <time>2017-08-22T10:00:19Z</time>
      </trkpt>
      <trkpt lat="45.93034" lon="4.72867">
        <ele>172</ele>
        <time>2017-08-22T10:00:20Z</time>
      </trkpt>
      <trkpt lat="45.93029" lon="4.72873">
        <ele>172</ele>
        <time>2017-08-22T10:00:21Z</time>
      </trkpt>
      <trkpt lat="45.93024" lon="4.72878">
        <ele>172</ele>
        <time>2017-08-22T10:00:22Z</time>
      </trkpt>
      <trkpt lat="45.93019" lon="4.72883">
        <ele>172</ele>
        <time>2017-08-22T10:00:23Z</time>
      </trkpt>
      <trkpt lat="45.93014" lon="4.72889">
        <ele>172</ele>
        <time>2017-08-22T10:00:24Z</time>
      </trkpt>
      <trkpt lat="45.93009" lon="4.72896">
        <ele>172</ele>
        <time>2017-08-22T10:00:25Z</time>
      </trkpt>
      <trkpt lat="45.93004" lon="4.72902">
        <ele>172</ele>
        <time>2017-08-22T10:00:26Z</time>
      </trkpt>
      <trkpt lat="45.93001" lon="4.72909">
        <ele>171</ele>
        <time>2017-08-22T10:00:27Z</time>
      </trkpt>
      <trkpt lat="45.92997" lon="4.72915">
        <ele>171</ele>
        <time>2017-08-22T10:00:28Z</time>
      </trkpt>
      <trkpt lat="45.92993" lon="4.72921">
        <ele>171</ele>
        <time>2017-08-22T10:00:29Z</time>
      </trkpt>
      <trkpt lat="45.92989" lon="4.72927">
        <ele>171</ele>
        <time>2017-08-22T10:00:30Z</time>
      </trkpt>
      <trkpt lat="45.92985" lon="4.72932">
        <ele>171</ele>
        <time>2017-08-22T10:00:31Z</time>
      </trkpt>
      <trkpt lat="45.92981" lon="4.72937">
        <ele>171</ele>
        <time>2017-08-22T10:00:32Z</time>
      </trkpt>
      <trkpt lat="45.92977" lon="4.72942">
        <ele>171</ele>
        <time>2017-08-22T10:00:33Z</time>
      </trkpt>
      <trkpt lat="45.92973" lon="4.72947">
        <ele>171</ele>
        <time>2017-08-22T10:00:34Z</time>
      </trkpt>
      <trkpt lat="45.92968" lon="4.72953">
        <ele>171</ele>
        <time>2017-08-22T10:00:35Z</time>
      </trkpt>
      <trkpt lat="45.92964" lon="4.72958">
        <ele>171</ele>
        <time>2017-08-22T10:00:36Z</time>
      </trkpt>
      <trkpt lat="45.92959" lon="4.72963">
        <ele>171</ele>
        <time>2017-08-22T10:00:37Z</time>
      </trkpt>
      <trkpt lat="45.92954" lon="4.72969">
        <ele>171</ele>
        <time>2017-08-22T10:00:38Z</time>
      </trkpt>
      <trkpt lat="45.92949" lon="4.72975">
        <ele>171</ele>
        <time>2017-08-22T10:00:39Z</time>
      </trkpt>
      <trkpt lat="45.92945" lon="4.7298">
        <ele>171</ele>
        <time>2017-08-22T10:00:40Z</time>
      </trkpt>
      <trkpt lat="45.92941" lon="4.72985">
        <ele>171</ele>
        <time>2017-08-22T10:00:41Z</time>
      </trkpt>
      <trkpt lat="45.92937" lon="4.72989">
        <ele>171</ele>
        <time>2017-08-22T10:00:42Z</time>
      </trkpt>
      <trkpt lat="45.92932" lon="4.72993">
        <ele>172</ele>
        <time>2017-08-22T10:00:43Z</time>
      </trkpt>
      <trkpt lat="45.92928" lon="4.72998">
        <ele>172</ele>
        <time>2017-08-22T10:00:44Z</time>
      </trkpt>
      <trkpt lat="45.92925" lon="4.73002">
        <ele>172</ele>
        <time>2017-08-22T10:00:45Z</time>
      </trkpt>
      <trkpt lat="45.92922" lon="4.73007">
        <ele>172</ele>
        <time>2017-08-22T10:00:46Z</time>
      </trkpt>
      <trkpt lat="45.92918" lon="4.73012">
        <ele>172</ele>
        <time>2017-08-22T10:00:47Z</time>
      </trkpt>
      <trkpt lat="45.92915" lon="4.73017">
        <ele>172</ele>
        <time>2017-08-22T10:00:48Z</time>
      </trkpt>
      <trkpt lat="45.92911" lon="4.73022">
        <ele>172</ele>
        <time>2017-08-22T10:00:49Z</time>
      </trkpt>
      <trkpt lat="45.92907" lon="4.73028">
        <ele>172</ele>
        <time>2017-08-22T10:00:50Z</time>
      </trkpt>
      <trkpt lat="45.92903" lon="4.73033">
        <ele>172</ele>
        <time>2017-08-22T10:00:51Z</time>
      </trkpt>
      <trkpt lat="45.92899" lon="4.73038">
        <ele>172</ele>
        <time>2017-08-22T10:00:52Z</time>
      </trkpt>
      <trkpt lat="45.92895" lon="4.73044">
        <ele>172</ele>
        <time>2017-08-22T10:00:53Z</time>
      </trkpt>
      <trkpt lat="45.92891" lon="4.7305">
        <ele>172</ele>
        <time>2017-08-22T10:00:54Z</time>
      </trkpt>
      <trkpt lat="45.92888" lon="4.73055">
        <ele>172</ele>
        <time>2017-08-22T10:00:55Z</time>
      </trkpt>
      <trkpt lat="45.92884" lon="4.7306">
        <ele>172</ele>
        <time>2017-08-22T10:00:56Z</time>
      </trkpt>
      <trkpt lat="45.92881" lon="4.73064">
        <ele>172</ele>
        <time>2017-08-22T10:00:57Z</time>
      </trkpt>
      <trkpt lat="45.92878" lon="4.73069">
        <ele>172</ele>
        <time>2017-08-22T10:00:58Z</time>
      </trkpt>
      <trkpt lat="45.92874" lon="4.73075">
        <ele>172</ele>
        <time>2017-08-22T10:00:59Z</time>
      </trkpt>
      <trkpt lat="45.92871" lon="4.73079">
        <ele>172</ele>
        <time>2017-08-22T10:01:00Z</time>
      </trkpt>
      <trkpt lat="45.92868" lon="4.73084">
        <ele>172</ele>
        <time>2017-08-22T10:01:01Z</time>
      </trkpt>
      <trkpt lat="45.92864" lon="4.73089">
        <ele>172</ele>
        <time>2017-08-22T10:01:02Z</time>
      </trkpt>
      <trkpt lat="45.92861" lon="4.73093">
        <ele>171</ele>
        <time>2017-08-22T10:01:03Z</time>
      </trkpt>
      <trkpt lat="45.92857" lon="4.73098">
        <ele>171</ele>
        <time>2017-08-22T10:01:04Z</time>
      </trkpt>
      <trkpt lat="45.92849" lon="4.73102">
        <ele>171</ele>
        <time>2017-08-22T10:01:06Z</time>
      </trkpt>
      <trkpt lat="45.92846" lon="4.731">
        <ele>171</ele>
        <time>2017-08-22T10:01:07Z</time>
      </trkpt>
      <trkpt lat="45.92844" lon="4.73089">
        <ele>171</ele>
        <time>2017-08-22T10:01:09Z</time>
      </trkpt>
      <trkpt lat="45.92844" lon="4.73082">
        <ele>171</ele>
        <time>2017-08-22T10:01:10Z</time>
      </trkpt>
      <trkpt lat="45.92843" lon="4.73074">
        <ele>171</ele>
        <time>2017-08-22T10:01:11Z</time>
      </trkpt>
      <trkpt lat="45.92843" lon="4.73066">
        <ele>171</ele>
        <time>2017-08-22T10:01:12Z</time>
      </trkpt>
      <trkpt lat="45.92842" lon="4.73058">
        <ele>171</ele>
        <time>2017-08-22T10:01:13Z</time>
      </trkpt>
      <trkpt lat="45.92841" lon="4.7305">
        <ele>171</ele>
        <time>2017-08-22T10:01:14Z</time>
      </trkpt>
      <trkpt lat="45.9284" lon="4.73042">
        <ele>171</ele>
        <time>2017-08-22T10:01:15Z</time>
      </trkpt>
      <trkpt lat="45.92839" lon="4.73034">
        <ele>171</ele>
        <time>2017-08-22T10:01:16Z</time>
      </trkpt>
      <trkpt lat="45.92838" lon="4.73026">
        <ele>171</ele>
        <time>2017-08-22T10:01:17Z</time>
      </trkpt>
      <trkpt lat="45.92836" lon="4.73018">
        <ele>171</ele>
        <time>2017-08-22T10:01:18Z</time>
      </trkpt>
      <trkpt lat="45.92835" lon="4.73011">
        <ele>171</ele>
        <time>2017-08-22T10:01:19Z</time>
      </trkpt>
      <trkpt lat="45.92834" lon="4.73003">
        <ele>170</ele>
        <time>2017-08-22T10:01:20Z</time>
      </trkpt>
      <trkpt lat="45.92833" lon="4.72996">
        <ele>170</ele>
        <time>2017-08-22T10:01:21Z</time>
      </trkpt>
      <trkpt lat="45.92833" lon="4.72989">
        <ele>170</ele>
        <time>2017-08-22T10:01:22Z</time>
      </trkpt>
      <trkpt lat="45.92832" lon="4.72982">
        <ele>170</ele>
        <time>2017-08-22T10:01:23Z</time>
      </trkpt>
      <trkpt lat="45.92831" lon="4.72976">
        <ele>170</ele>
        <time>2017-08-22T10:01:24Z</time>
      </trkpt>
      <trkpt lat="45.9283" lon="4.72963">
        <ele>170</ele>
        <time>2017-08-22T10:01:26Z</time>
      </trkpt>
      <trkpt lat="45.92829" lon="4.72957">
        <ele>170</ele>
        <time>2017-08-22T10:01:27Z</time>
      </trkpt>
      <trkpt lat="45.92829" lon="4.72951">
        <ele>170</ele>
        <time>2017-08-22T10:01:28Z</time>
      </trkpt>
      <trkpt lat="45.92829" lon="4.72944">
        <ele>170</ele>
        <time>2017-08-22T10:01:29Z</time>
      </trkpt>
      <trkpt lat="45.92829" lon="4.72936">
        <ele>170</ele>
        <time>2017-08-22T10:01:30Z</time>
      </trkpt>
      <trkpt lat="45.92828" lon="4.72928">
        <ele>170</ele>
        <time>2017-08-22T10:01:31Z</time>
      </trkpt>
      <trkpt lat="45.92828" lon="4.7292">
        <ele>170</ele>
        <time>2017-08-22T10:01:32Z</time>
      </trkpt>
      <trkpt lat="45.92828" lon="4.72911">
        <ele>170</ele>
        <time>2017-08-22T10:01:33Z</time>
      </trkpt>
      <trkpt lat="45.92827" lon="4.72902">
        <ele>170</ele>
        <time>2017-08-22T10:01:34Z</time>
      </trkpt>
      <trkpt lat="45.92826" lon="4.72894">
        <ele>170</ele>
        <time>2017-08-22T10:01:35Z</time>
      </trkpt>
      <trkpt lat="45.92825" lon="4.72886">
        <ele>170</ele>
        <time>2017-08-22T10:01:36Z</time>
      </trkpt>
      <trkpt lat="45.92824" lon="4.72879">
        <ele>170</ele>
        <time>2017-08-22T10:01:37Z</time>
      </trkpt>
      <trkpt lat="45.92823" lon="4.72871">
        <ele>170</ele>
        <time>2017-08-22T10:01:38Z</time>
      </trkpt>
      <trkpt lat="45.92822" lon="4.72864">
        <ele>170</ele>
        <time>2017-08-22T10:01:39Z</time>
      </trkpt>
      <trkpt lat="45.92821" lon="4.72857">
        <ele>170</ele>
        <time>2017-08-22T10:01:40Z</time>
      </trkpt>
      <trkpt lat="45.9282" lon="4.7285">
        <ele>170</ele>
        <time>2017-08-22T10:01:41Z</time>
      </trkpt>
      <trkpt lat="45.92818" lon="4.72843">
        <ele>170</ele>
        <time>2017-08-22T10:01:42Z</time>
      </trkpt>
      <trkpt lat="45.92817" lon="4.72836">
        <ele>170</ele>
        <time>2017-08-22T10:01:43Z</time>
      </trkpt>
      <trkpt lat="45.92816" lon="4.7283">
        <ele>171</ele>
        <time>2017-08-22T10:01:44Z</time>
      </trkpt>
      <trkpt lat="45.92814" lon="4.72822">
        <ele>171</ele>
        <time>2017-08-22T10:01:45Z</time>
      </trkpt>
      <trkpt lat="45.92813" lon="4.72815">
        <ele>171</ele>
        <time>2017-08-22T10:01:46Z</time>
      </trkpt>
      <trkpt lat="45.92811" lon="4.72809">
        <ele>171</ele>
        <time>2017-08-22T10:01:47Z</time>
      </trkpt>
      <trkpt lat="45.92809" lon="4.72802">
        <ele>171</ele>
        <time>2017-08-22T10:01:48Z</time>
      </trkpt>
      <trkpt lat="45.92808" lon="4.72795">
        <ele>171</ele>
        <time>2017-08-22T10:01:49Z</time>
      </trkpt>
      <trkpt lat="45.92803" lon="4.72785">
        <ele>171</ele>
        <time>2017-08-22T10:01:51Z</time>
      </trkpt>
      <trkpt lat="45.92799" lon="4.72784">
        <ele>171</ele>
        <time>2017-08-22T10:01:52Z</time>
      </trkpt>
      <trkpt lat="45.92794" lon="4.72785">
        <ele>171</ele>
        <time>2017-08-22T10:01:53Z</time>
      </trkpt>
      <trkpt lat="45.92789" lon="4.72787">
        <ele>171</ele>
        <time>2017-08-22T10:01:54Z</time>
      </trkpt>
      <trkpt lat="45.92784" lon="4.7279">
        <ele>170</ele>
        <time>2017-08-22T10:01:55Z</time>
      </trkpt>
      <trkpt lat="45.9278" lon="4.72794">
        <ele>170</ele>
        <time>2017-08-22T10:01:56Z</time>
      </trkpt>
      <trkpt lat="45.92774" lon="4.72798">
        <ele>170</ele>
        <time>2017-08-22T10:01:57Z</time>
      </trkpt>
      <trkpt lat="45.92769" lon="4.72801">
        <ele>170</ele>
        <time>2017-08-22T10:01:58Z</time>
      </trkpt>
      <trkpt lat="45.92763" lon="4.72805">
        <ele>170</ele>
        <time>2017-08-22T10:01:59Z</time>
      </trkpt>
      <trkpt lat="45.92755" lon="4.7281">
        <ele>170</ele>
        <time>2017-08-22T10:02:00Z</time>
      </trkpt>
      <trkpt lat="45.92749" lon="4.72815">
        <ele>170</ele>
        <time>2017-08-22T10:02:01Z</time>
      </trkpt>
      <trkpt lat="45.92743" lon="4.72818">
        <ele>169</ele>
        <time>2017-08-22T10:02:02Z</time>
      </trkpt>
      <trkpt lat="45.92738" lon="4.72822">
        <ele>169</ele>
        <time>2017-08-22T10:02:03Z</time>
      </trkpt>
      <trkpt lat="45.92734" lon="4.72825">
        <ele>169</ele>
        <time>2017-08-22T10:02:04Z</time>
      </trkpt>
      <trkpt lat="45.92729" lon="4.72828">
        <ele>170</ele>
        <time>2017-08-22T10:02:05Z</time>
      </trkpt>
      <trkpt lat="45.92725" lon="4.72832">
        <ele>170</ele>
        <time>2017-08-22T10:02:06Z</time>
      </trkpt>
      <trkpt lat="45.9272" lon="4.72836">
        <ele>169</ele>
        <time>2017-08-22T10:02:07Z</time>
      </trkpt>
      <trkpt lat="45.92716" lon="4.7284">
        <ele>169</ele>
        <time>2017-08-22T10:02:08Z</time>
      </trkpt>
      <trkpt lat="45.92711" lon="4.72843">
        <ele>169</ele>
        <time>2017-08-22T10:02:09Z</time>
      </trkpt>
      <trkpt lat="45.92706" lon="4.72847">
        <ele>169</ele>
        <time>2017-08-22T10:02:10Z</time>
      </trkpt>
      <trkpt lat="45.92701" lon="4.72851">
        <ele>169</ele>
        <time>2017-08-22T10:02:11Z</time>
      </trkpt>
      <trkpt lat="45.92696" lon="4.72854">
        <ele>169</ele>
        <time>2017-08-22T10:02:12Z</time>
      </trkpt>
      <trkpt lat="45.92691" lon="4.72858">
        <ele>169</ele>
        <time>2017-08-22T10:02:13Z</time>
      </trkpt>
      <trkpt lat="45.92686" lon="4.72862">
        <ele>169</ele>
        <time>2017-08-22T10:02:14Z</time>
      </trkpt>
      <trkpt lat="45.92681" lon="4.72866">
        <ele>169</ele>
        <time>2017-08-22T10:02:15Z</time>
      </trkpt>
      <trkpt lat="45.92677" lon="4.7287">
        <ele>169</ele>
        <time>2017-08-22T10:02:16Z</time>
      </trkpt>
      <trkpt lat="45.92673" lon="4.72874">
        <ele>169</ele>
        <time>2017-08-22T10:02:17Z</time>
      </trkpt>
      <trkpt lat="45.92669" lon="4.72878">
        <ele>170</ele>
        <time>2017-08-22T10:02:18Z</time>
      </trkpt>
      <trkpt lat="45.92664" lon="4.72881">
        <ele>169</ele>
        <time>2017-08-22T10:02:19Z</time>
      </trkpt>
      <trkpt lat="45.92659" lon="4.72886">
        <ele>169</ele>
        <time>2017-08-22T10:02:20Z</time>
      </trkpt>
      <trkpt lat="45.92654" lon="4.7289">
        <ele>169</ele>
        <time>2017-08-22T10:02:21Z</time>
      </trkpt>
      <trkpt lat="45.92649" lon="4.72893">
        <ele>169</ele>
        <time>2017-08-22T10:02:22Z</time>
      </trkpt>
      <trkpt lat="45.92644" lon="4.72897">
        <ele>169</ele>
        <time>2017-08-22T10:02:23Z</time>
      </trkpt>
      <trkpt lat="45.92639" lon="4.72902">
        <ele>169</ele>
        <time>2017-08-22T10:02:24Z</time>
      </trkpt>
      <trkpt lat="45.92633" lon="4.72906">
        <ele>169</ele>
        <time>2017-08-22T10:02:25Z</time>
      </trkpt>
      <trkpt lat="45.92628" lon="4.72911">
        <ele>169</ele>
        <time>2017-08-22T10:02:26Z</time>
      </trkpt>
      <trkpt lat="45.92623" lon="4.72915">
        <ele>169</ele>
        <time>2017-08-22T10:02:27Z</time>
      </trkpt>
      <trkpt lat="45.92618" lon="4.72919">
        <ele>169</ele>
        <time>2017-08-22T10:02:28Z</time>
      </trkpt>
      <trkpt lat="45.92613" lon="4.72923">
        <ele>169</ele>
        <time>2017-08-22T10:02:29Z</time>
      </trkpt>
      <trkpt lat="45.92608" lon="4.72928">
        <ele>169</ele>
        <time>2017-08-22T10:02:30Z</time>
      </trkpt>
      <trkpt lat="45.92604" lon="4.72933">
        <ele>169</ele>
        <time>2017-08-22T10:02:31Z</time>
      </trkpt>
      <trkpt lat="45.926" lon="4.72939">
        <ele>169</ele>
        <time>2017-08-22T10:02:32Z</time>
      </trkpt>
      <trkpt lat="45.92595" lon="4.72944">
        <ele>169</ele>
        <time>2017-08-22T10:02:33Z</time>
      </trkpt>
      <trkpt lat="45.92591" lon="4.72949">
        <ele>169</ele>
        <time>2017-08-22T10:02:34Z</time>
      </trkpt>
      <trkpt lat="45.92587" lon="4.72954">
        <ele>169</ele>
        <time>2017-08-22T10:02:35Z</time>
      </trkpt>
      <trkpt lat="45.92582" lon="4.72959">
        <ele>169</ele>
        <time>2017-08-22T10:02:36Z</time>
      </trkpt>
      <trkpt lat="45.92578" lon="4.72963">
        <ele>169</ele>
        <time>2017-08-22T10:02:37Z</time>
      </trkpt>
      <trkpt lat="45.92575" lon="4.72968">
        <ele>169</ele>
        <time>2017-08-22T10:02:38Z</time>
      </trkpt>
      <trkpt lat="45.92571" lon="4.72972">
        <ele>169</ele>
        <time>2017-08-22T10:02:39Z</time>
      </trkpt>
      <trkpt lat="45.92567" lon="4.72977">
        <ele>169</ele>
        <time>2017-08-22T10:02:40Z</time>
      </trkpt>
      <trkpt lat="45.92562" lon="4.72981">
        <ele>169</ele>
        <time>2017-08-22T10:02:41Z</time>
      </trkpt>
      <trkpt lat="45.92558" lon="4.72985">
        <ele>169</ele>
        <time>2017-08-22T10:02:42Z</time>
      </trkpt>
      <trkpt lat="45.92553" lon="4.7299">
        <ele>169</ele>
        <time>2017-08-22T10:02:43Z</time>
      </trkpt>
      <trkpt lat="45.92548" lon="4.72994">
        <ele>169</ele>
        <time>2017-08-22T10:02:44Z</time>
      </trkpt>
      <trkpt lat="45.92544" lon="4.72999">
        <ele>169</ele>
        <time>2017-08-22T10:02:45Z</time>
      </trkpt>
      <trkpt lat="45.92539" lon="4.73004">
        <ele>169</ele>
        <time>2017-08-22T10:02:46Z</time>
      </trkpt>
      <trkpt lat="45.92533" lon="4.73009">
        <ele>169</ele>
        <time>2017-08-22T10:02:47Z</time>
      </trkpt>
      <trkpt lat="45.92528" lon="4.73014">
        <ele>169</ele>
        <time>2017-08-22T10:02:48Z</time>
      </trkpt>
      <trkpt lat="45.92523" lon="4.73019">
        <ele>169</ele>
        <time>2017-08-22T10:02:49Z</time>
      </trkpt>
      <trkpt lat="45.92518" lon="4.73024">
        <ele>169</ele>
        <time>2017-08-22T10:02:50Z</time>
      </trkpt>
      <trkpt lat="45.92513" lon="4.73028">
        <ele>169</ele>
        <time>2017-08-22T10:02:51Z</time>
      </trkpt>
      <trkpt lat="45.92508" lon="4.73032">
        <ele>169</ele>
        <time>2017-08-22T10:02:52Z</time>
      </trkpt>
      <trkpt lat="45.92503" lon="4.73036">
        <ele>169</ele>
        <time>2017-08-22T10:02:53Z</time>
      </trkpt>
      <trkpt lat="45.92499" lon="4.73041">
        <ele>170</ele>
        <time>2017-08-22T10:02:54Z</time>
      </trkpt>
      <trkpt lat="45.92495" lon="4.73045">
        <ele>170</ele>
        <time>2017-08-22T10:02:55Z</time>
      </trkpt>
      <trkpt lat="45.9249" lon="4.73049">
        <ele>170</ele>
        <time>2017-08-22T10:02:56Z</time>
      </trkpt>
      <trkpt lat="45.92486" lon="4.73053">
        <ele>170</ele>
        <time>2017-08-22T10:02:57Z</time>
      </trkpt>
      <trkpt lat="45.92481" lon="4.73058">
        <ele>170</ele>
        <time>2017-08-22T10:02:58Z</time>
      </trkpt>
      <trkpt lat="45.92476" lon="4.73062">
        <ele>170</ele>
        <time>2017-08-22T10:02:59Z</time>
      </trkpt>
      <trkpt lat="45.92471" lon="4.73066">
        <ele>170</ele>
        <time>2017-08-22T10:03:00Z</time>
      </trkpt>
      <trkpt lat="45.92466" lon="4.7307">
        <ele>170</ele>
        <time>2017-08-22T10:03:01Z</time>
      </trkpt>
      <trkpt lat="45.92461" lon="4.73074">
        <ele>170</ele>
        <time>2017-08-22T10:03:02Z</time>
      </trkpt>
      <trkpt lat="45.92457" lon="4.73078">
        <ele>170</ele>
        <time>2017-08-22T10:03:03Z</time>
      </trkpt>
      <trkpt lat="45.92452" lon="4.73082">
        <ele>170</ele>
        <time>2017-08-22T10:03:04Z</time>
      </trkpt>
      <trkpt lat="45.92448" lon="4.73086">
        <ele>170</ele>
        <time>2017-08-22T10:03:05Z</time>
      </trkpt>
      <trkpt lat="45.92444" lon="4.7309">
        <ele>170</ele>
        <time>2017-08-22T10:03:06Z</time>
      </trkpt>
      <trkpt lat="45.9244" lon="4.73093">
        <ele>170</ele>
        <time>2017-08-22T10:03:07Z</time>
      </trkpt>
      <trkpt lat="45.92436" lon="4.73097">
        <ele>171</ele>
        <time>2017-08-22T10:03:08Z</time>
      </trkpt>
      <trkpt lat="45.92432" lon="4.731">
        <ele>171</ele>
        <time>2017-08-22T10:03:09Z</time>
      </trkpt>
      <trkpt lat="45.92428" lon="4.73103">
        <ele>171</ele>
        <time>2017-08-22T10:03:10Z</time>
      </trkpt>
      <trkpt lat="45.92424" lon="4.73106">
        <ele>171</ele>
        <time>2017-08-22T10:03:11Z</time>
      </trkpt>
      <trkpt lat="45.9242" lon="4.73109">
        <ele>170</ele>
        <time>2017-08-22T10:03:12Z</time>
      </trkpt>
      <trkpt lat="45.92413" lon="4.73117">
        <ele>171</ele>
        <time>2017-08-22T10:03:14Z</time>
      </trkpt>
      <trkpt lat="45.9241" lon="4.73121">
        <ele>171</ele>
        <time>2017-08-22T10:03:15Z</time>
      </trkpt>
      <trkpt lat="45.92406" lon="4.73132">
        <ele>171</ele>
        <time>2017-08-22T10:03:17Z</time>
      </trkpt>
      <trkpt lat="45.92406" lon="4.7314">
        <ele>171</ele>
        <time>2017-08-22T10:03:18Z</time>
      </trkpt>
      <trkpt lat="45.92406" lon="4.73148">
        <ele>171</ele>
        <time>2017-08-22T10:03:19Z</time>
      </trkpt>
      <trkpt lat="45.92406" lon="4.73157">
        <ele>170</ele>
        <time>2017-08-22T10:03:20Z</time>
      </trkpt>
      <trkpt lat="45.92406" lon="4.73165">
        <ele>170</ele>
        <time>2017-08-22T10:03:21Z</time>
      </trkpt>
      <trkpt lat="45.92405" lon="4.73174">
        <ele>171</ele>
        <time>2017-08-22T10:03:22Z</time>
      </trkpt>
      <trkpt lat="45.92405" lon="4.73182">
        <ele>171</ele>
        <time>2017-08-22T10:03:23Z</time>
      </trkpt>
      <trkpt lat="45.92406" lon="4.7319">
        <ele>171</ele>
        <time>2017-08-22T10:03:24Z</time>
      </trkpt>
      <trkpt lat="45.92406" lon="4.73198">
        <ele>171</ele>
        <time>2017-08-22T10:03:25Z</time>
      </trkpt>
      <trkpt lat="45.92406" lon="4.73205">
        <ele>171</ele>
        <time>2017-08-22T10:03:26Z</time>
      </trkpt>
      <trkpt lat="45.92406" lon="4.73212">
        <ele>171</ele>
        <time>2017-08-22T10:03:27Z</time>
      </trkpt>
      <trkpt lat="45.92406" lon="4.73219">
        <ele>171</ele>
        <time>2017-08-22T10:03:28Z</time>
      </trkpt>
      <trkpt lat="45.92406" lon="4.73231">
        <ele>171</ele>
        <time>2017-08-22T10:03:30Z</time>
      </trkpt>
      <trkpt lat="45.92406" lon="4.73238">
        <ele>171</ele>
        <time>2017-08-22T10:03:31Z</time>
      </trkpt>
      <trkpt lat="45.92407" lon="4.73246">
        <ele>171</ele>
        <time>2017-08-22T10:03:32Z</time>
      </trkpt>
      <trkpt lat="45.92407" lon="4.73254">
        <ele>171</ele>
        <time>2017-08-22T10:03:33Z</time>
      </trkpt>
      <trkpt lat="45.92408" lon="4.73262">
        <ele>171</ele>
        <time>2017-08-22T10:03:34Z</time>
      </trkpt>
      <trkpt lat="45.92409" lon="4.73271">
        <ele>171</ele>
        <time>2017-08-22T10:03:35Z</time>
      </trkpt>
      <trkpt lat="45.9241" lon="4.73279">
        <ele>171</ele>
        <time>2017-08-22T10:03:36Z</time>
      </trkpt>
      <trkpt lat="45.9241" lon="4.73286">
        <ele>171</ele>
        <time>2017-08-22T10:03:37Z</time>
      </trkpt>
      <trkpt lat="45.92411" lon="4.73294">
        <ele>171</ele>
        <time>2017-08-22T10:03:38Z</time>
      </trkpt>
      <trkpt lat="45.92412" lon="4.73302">
        <ele>171</ele>
        <time>2017-08-22T10:03:39Z</time>
      </trkpt>
      <trkpt lat="45.92413" lon="4.73309">
        <ele>171</ele>
        <time>2017-08-22T10:03:40Z</time>
      </trkpt>
      <trkpt lat="45.92414" lon="4.73316">
        <ele>171</ele>
        <time>2017-08-22T10:03:41Z</time>
      </trkpt>
      <trkpt lat="45.92414" lon="4.73322">
        <ele>171</ele>
        <time>2017-08-22T10:03:42Z</time>
      </trkpt>
      <trkpt lat="45.92415" lon="4.73329">
        <ele>171</ele>
        <time>2017-08-22T10:03:43Z</time>
      </trkpt>
      <trkpt lat="45.92415" lon="4.73341">
        <ele>171</ele>
        <time>2017-08-22T10:03:45Z</time>
      </trkpt>
      <trkpt lat="45.92416" lon="4.73348">
        <ele>171</ele>
        <time>2017-08-22T10:03:46Z</time>
      </trkpt>
      <trkpt lat="45.92416" lon="4.73356">
        <ele>171</ele>
        <time>2017-08-22T10:03:47Z</time>
      </trkpt>
      <trkpt lat="45.92417" lon="4.73363">
        <ele>172</ele>
        <time>2017-08-22T10:03:48Z</time>
      </trkpt>
      <trkpt lat="45.92418" lon="4.7337">
        <ele>172</ele>
        <time>2017-08-22T10:03:49Z</time>
      </trkpt>
      <trkpt lat="45.92419" lon="4.73378">
        <ele>172</ele>
        <time>2017-08-22T10:03:50Z</time>
      </trkpt>
      <trkpt lat="45.92421" lon="4.73386">
        <ele>172</ele>
        <time>2017-08-22T10:03:51Z</time>
      </trkpt>
      <trkpt lat="45.92423" lon="4.73394">
        <ele>172</ele>
        <time>2017-08-22T10:03:52Z</time>
      </trkpt>
      <trkpt lat="45.92426" lon="4.73401">
        <ele>172</ele>
        <time>2017-08-22T10:03:53Z</time>
      </trkpt>
      <trkpt lat="45.92429" lon="4.73408">
        <ele>172</ele>
        <time>2017-08-22T10:03:54Z</time>
      </trkpt>
      <trkpt lat="45.92433" lon="4.73413">
        <ele>172</ele>
        <time>2017-08-22T10:03:55Z</time>
      </trkpt>
      <trkpt lat="45.92437" lon="4.73416">
        <ele>172</ele>
        <time>2017-08-22T10:03:56Z</time>
      </trkpt>
      <trkpt lat="45.92445" lon="4.73422">
        <ele>173</ele>
        <time>2017-08-22T10:03:58Z</time>
      </trkpt>
      <trkpt lat="45.92448" lon="4.73425">
        <ele>173</ele>
        <time>2017-08-22T10:03:59Z</time>
      </trkpt>
      <trkpt lat="45.92455" lon="4.73433">
        <ele>173</ele>
        <time>2017-08-22T10:04:01Z</time>
      </trkpt>
      <trkpt lat="45.92458" lon="4.73438">
        <ele>173</ele>
        <time>2017-08-22T10:04:02Z</time>
      </trkpt>
      <trkpt lat="45.92461" lon="4.73444">
        <ele>173</ele>
        <time>2017-08-22T10:04:03Z</time>
      </trkpt>
      <trkpt lat="45.92463" lon="4.73452">
        <ele>173</ele>
        <time>2017-08-22T10:04:04Z</time>
      </trkpt>
      <trkpt lat="45.92465" lon="4.7346">
        <ele>173</ele>
        <time>2017-08-22T10:04:05Z</time>
      </trkpt>
      <trkpt lat="45.92466" lon="4.73468">
        <ele>173</ele>
        <time>2017-08-22T10:04:06Z</time>
      </trkpt>
      <trkpt lat="45.92466" lon="4.73477">
        <ele>173</ele>
        <time>2017-08-22T10:04:07Z</time>
      </trkpt>
      <trkpt lat="45.92466" lon="4.73485">
        <ele>173</ele>
        <time>2017-08-22T10:04:08Z</time>
      </trkpt>
      <trkpt lat="45.92467" lon="4.73493">
        <ele>173</ele>
        <time>2017-08-22T10:04:09Z</time>
      </trkpt>
      <trkpt lat="45.92467" lon="4.73501">
        <ele>174</ele>
        <time>2017-08-22T10:04:10Z</time>
      </trkpt>
      <trkpt lat="45.92467" lon="4.73509">
        <ele>174</ele>
        <time>2017-08-22T10:04:11Z</time>
      </trkpt>
      <trkpt lat="45.92467" lon="4.73516">
        <ele>174</ele>
        <time>2017-08-22T10:04:12Z</time>
      </trkpt>
      <trkpt lat="45.92466" lon="4.73528">
        <ele>174</ele>
        <time>2017-08-22T10:04:14Z</time>
      </trkpt>
      <trkpt lat="45.92465" lon="4.73534">
        <ele>174</ele>
        <time>2017-08-22T10:04:15Z</time>
      </trkpt>
      <trkpt lat="45.92464" lon="4.73546">
        <ele>173</ele>
        <time>2017-08-22T10:04:17Z</time>
      </trkpt>
      <trkpt lat="45.92464" lon="4.73552">
        <ele>173</ele>
        <time>2017-08-22T10:04:18Z</time>
      </trkpt>
      <trkpt lat="45.92464" lon="4.73558">
        <ele>173</ele>
        <time>2017-08-22T10:04:19Z</time>
      </trkpt>
      <trkpt lat="45.92464" lon="4.73565">
        <ele>173</ele>
        <time>2017-08-22T10:04:20Z</time>
      </trkpt>
      <trkpt lat="45.92464" lon="4.73573">
        <ele>173</ele>
        <time>2017-08-22T10:04:21Z</time>
      </trkpt>
      <trkpt lat="45.92464" lon="4.7358">
        <ele>173</ele>
        <time>2017-08-22T10:04:22Z</time>
      </trkpt>
      <trkpt lat="45.92463" lon="4.73588">
        <ele>174</ele>
        <time>2017-08-22T10:04:23Z</time>
      </trkpt>
      <trkpt lat="45.92463" lon="4.73595">
        <ele>174</ele>
        <time>2017-08-22T10:04:24Z</time>
      </trkpt>
      <trkpt lat="45.92464" lon="4.73602">
        <ele>174</ele>
        <time>2017-08-22T10:04:25Z</time>
      </trkpt>
      <trkpt lat="45.92463" lon="4.7361">
        <ele>174</ele>
        <time>2017-08-22T10:04:26Z</time>
      </trkpt>
      <trkpt lat="45.92464" lon="4.73618">
        <ele>174</ele>
        <time>2017-08-22T10:04:27Z</time>
      </trkpt>
      <trkpt lat="45.92464" lon="4.73626">
        <ele>174</ele>
        <time>2017-08-22T10:04:28Z</time>
      </trkpt>
      <trkpt lat="45.92465" lon="4.73633">
        <ele>174</ele>
        <time>2017-08-22T10:04:29Z</time>
      </trkpt>
      <trkpt lat="45.92464" lon="4.73641">
        <ele>174</ele>
        <time>2017-08-22T10:04:30Z</time>
      </trkpt>
      <trkpt lat="45.92464" lon="4.73648">
        <ele>174</ele>
        <time>2017-08-22T10:04:31Z</time>
      </trkpt>
      <trkpt lat="45.92464" lon="4.73655">
        <ele>174</ele>
        <time>2017-08-22T10:04:32Z</time>
      </trkpt>
      <trkpt lat="45.92464" lon="4.73667">
        <ele>174</ele>
        <time>2017-08-22T10:04:34Z</time>
      </trkpt>
      <trkpt lat="45.92464" lon="4.73673">
        <ele>174</ele>
        <time>2017-08-22T10:04:35Z</time>
      </trkpt>
      <trkpt lat="45.92463" lon="4.7368">
        <ele>174</ele>
        <time>2017-08-22T10:04:36Z</time>
      </trkpt>
      <trkpt lat="45.92462" lon="4.73686">
        <ele>174</ele>
        <time>2017-08-22T10:04:37Z</time>
      </trkpt>
      <trkpt lat="45.9246" lon="4.73695">
        <ele>174</ele>
        <time>2017-08-22T10:04:39Z</time>
      </trkpt>
      <trkpt lat="45.9246" lon="4.73699">
        <ele>174</ele>
        <time>2017-08-22T10:04:40Z</time>
      </trkpt>
      <trkpt lat="45.92459" lon="4.73704">
        <ele>174</ele>
        <time>2017-08-22T10:04:42Z</time>
      </trkpt>
      <trkpt lat="45.92459" lon="4.73705">
        <ele>174</ele>
        <time>2017-08-22T10:04:43Z</time>
      </trkpt>
      <trkpt lat="45.9246" lon="4.73708">
        <ele>174</ele>
        <time>2017-08-22T10:05:04.324Z</time>
      </trkpt>
    </trkseg>
  </trk>
</gpx>